<?xml version="1.0" encoding="UTF-8" standalone="no" ?>
<gpx xmlns="http://www.topografix.com/GPX/1/1" xmlns:xsi="http://www.w3.org/2001/XMLSchema-instance" xsi:schemaLocation="http://www.topografix.com/GPX/1/1 http://www.topografix.com/GPX/1/1/gpx.xsd" version="1.1" creator="VisuGPX - https://www.visugpx.com">
  <metadata>
    <name>2018-02-24 Bike ride-Val d-Azergues</name>
    <desc><![CDATA[2018-02-24 Bike ride-Val d-Azergues]]></desc>
  </metadata>
  <wpt lat="45.9246" lon="4.73724">
    <ele>174</ele>
    <name><![CDATA[2018-02-24 11:26 (Start)]]></name>
  </wpt>
  <wpt lat="45.92461" lon="4.73716">
    <ele>174</ele>
    <name><![CDATA[2018-02-24 11:26 (End)]]></name>
  </wpt>
  <trk>
    <name><![CDATA[2018-02-24 11:26]]></name>
    <trkseg>
      <trkpt lat="45.9246" lon="4.73724">
        <ele>174</ele>
        <time>2018-02-24T10:26:18.635Z</time>
      </trkpt>
      <trkpt lat="45.92453" lon="4.73715">
        <ele>174</ele>
        <time>2018-02-24T10:26:20.377Z</time>
      </trkpt>
      <trkpt lat="45.9246" lon="4.73709">
        <ele>174</ele>
        <time>2018-02-24T10:26:50Z</time>
      </trkpt>
      <trkpt lat="45.92461" lon="4.73707">
        <ele>174</ele>
        <time>2018-02-24T10:26:51Z</time>
      </trkpt>
      <trkpt lat="45.92462" lon="4.73698">
        <ele>174</ele>
        <time>2018-02-24T10:26:54Z</time>
      </trkpt>
      <trkpt lat="45.92463" lon="4.73694">
        <ele>174</ele>
        <time>2018-02-24T10:26:55Z</time>
      </trkpt>
      <trkpt lat="45.92465" lon="4.73682">
        <ele>174</ele>
        <time>2018-02-24T10:26:58Z</time>
      </trkpt>
      <trkpt lat="45.92466" lon="4.73677">
        <ele>174</ele>
        <time>2018-02-24T10:26:59Z</time>
      </trkpt>
      <trkpt lat="45.92466" lon="4.73669">
        <ele>174</ele>
        <time>2018-02-24T10:27:01Z</time>
      </trkpt>
      <trkpt lat="45.92466" lon="4.73664">
        <ele>174</ele>
        <time>2018-02-24T10:27:02Z</time>
      </trkpt>
      <trkpt lat="45.92467" lon="4.73652">
        <ele>174</ele>
        <time>2018-02-24T10:27:03Z</time>
      </trkpt>
      <trkpt lat="45.92468" lon="4.73646">
        <ele>174</ele>
        <time>2018-02-24T10:27:04Z</time>
      </trkpt>
      <trkpt lat="45.92469" lon="4.73636">
        <ele>174</ele>
        <time>2018-02-24T10:27:06Z</time>
      </trkpt>
      <trkpt lat="45.92469" lon="4.7363">
        <ele>174</ele>
        <time>2018-02-24T10:27:07Z</time>
      </trkpt>
      <trkpt lat="45.92468" lon="4.73617">
        <ele>174</ele>
        <time>2018-02-24T10:27:09Z</time>
      </trkpt>
      <trkpt lat="45.92468" lon="4.73611">
        <ele>174</ele>
        <time>2018-02-24T10:27:10Z</time>
      </trkpt>
      <trkpt lat="45.92468" lon="4.73599">
        <ele>174</ele>
        <time>2018-02-24T10:27:12Z</time>
      </trkpt>
      <trkpt lat="45.92468" lon="4.73593">
        <ele>174</ele>
        <time>2018-02-24T10:27:13Z</time>
      </trkpt>
      <trkpt lat="45.92467" lon="4.73581">
        <ele>173</ele>
        <time>2018-02-24T10:27:15Z</time>
      </trkpt>
      <trkpt lat="45.92467" lon="4.73576">
        <ele>173</ele>
        <time>2018-02-24T10:27:16Z</time>
      </trkpt>
      <trkpt lat="45.92466" lon="4.73564">
        <ele>173</ele>
        <time>2018-02-24T10:27:18Z</time>
      </trkpt>
      <trkpt lat="45.92466" lon="4.73562">
        <ele>173</ele>
        <time>2018-02-24T10:27:19Z</time>
      </trkpt>
      <trkpt lat="45.92465" lon="4.73552">
        <ele>173</ele>
        <time>2018-02-24T10:27:22Z</time>
      </trkpt>
      <trkpt lat="45.92466" lon="4.73548">
        <ele>173</ele>
        <time>2018-02-24T10:27:23Z</time>
      </trkpt>
      <trkpt lat="45.92467" lon="4.73541">
        <ele>174</ele>
        <time>2018-02-24T10:27:25Z</time>
      </trkpt>
      <trkpt lat="45.92468" lon="4.73528">
        <ele>174</ele>
        <time>2018-02-24T10:27:26Z</time>
      </trkpt>
      <trkpt lat="45.92467" lon="4.73516">
        <ele>174</ele>
        <time>2018-02-24T10:27:28Z</time>
      </trkpt>
      <trkpt lat="45.92467" lon="4.73509">
        <ele>174</ele>
        <time>2018-02-24T10:27:29Z</time>
      </trkpt>
      <trkpt lat="45.92468" lon="4.73503">
        <ele>174</ele>
        <time>2018-02-24T10:27:30Z</time>
      </trkpt>
      <trkpt lat="45.92468" lon="4.73497">
        <ele>173</ele>
        <time>2018-02-24T10:27:31Z</time>
      </trkpt>
      <trkpt lat="45.92469" lon="4.73484">
        <ele>173</ele>
        <time>2018-02-24T10:27:33Z</time>
      </trkpt>
      <trkpt lat="45.92469" lon="4.73477">
        <ele>173</ele>
        <time>2018-02-24T10:27:34Z</time>
      </trkpt>
      <trkpt lat="45.92468" lon="4.7347">
        <ele>173</ele>
        <time>2018-02-24T10:27:35Z</time>
      </trkpt>
      <trkpt lat="45.92468" lon="4.73463">
        <ele>173</ele>
        <time>2018-02-24T10:27:36Z</time>
      </trkpt>
      <trkpt lat="45.92467" lon="4.73457">
        <ele>173</ele>
        <time>2018-02-24T10:27:37Z</time>
      </trkpt>
      <trkpt lat="45.92466" lon="4.7345">
        <ele>173</ele>
        <time>2018-02-24T10:27:38Z</time>
      </trkpt>
      <trkpt lat="45.92464" lon="4.73443">
        <ele>173</ele>
        <time>2018-02-24T10:27:39Z</time>
      </trkpt>
      <trkpt lat="45.92461" lon="4.73437">
        <ele>173</ele>
        <time>2018-02-24T10:27:40Z</time>
      </trkpt>
      <trkpt lat="45.92458" lon="4.73431">
        <ele>173</ele>
        <time>2018-02-24T10:27:41Z</time>
      </trkpt>
      <trkpt lat="45.92455" lon="4.73427">
        <ele>173</ele>
        <time>2018-02-24T10:27:42Z</time>
      </trkpt>
      <trkpt lat="45.9245" lon="4.73424">
        <ele>173</ele>
        <time>2018-02-24T10:27:43Z</time>
      </trkpt>
      <trkpt lat="45.92446" lon="4.73421">
        <ele>173</ele>
        <time>2018-02-24T10:27:44Z</time>
      </trkpt>
      <trkpt lat="45.92441" lon="4.73419">
        <ele>173</ele>
        <time>2018-02-24T10:27:45Z</time>
      </trkpt>
      <trkpt lat="45.92437" lon="4.73415">
        <ele>172</ele>
        <time>2018-02-24T10:27:46Z</time>
      </trkpt>
      <trkpt lat="45.9243" lon="4.73406">
        <ele>172</ele>
        <time>2018-02-24T10:27:48Z</time>
      </trkpt>
      <trkpt lat="45.92427" lon="4.734">
        <ele>172</ele>
        <time>2018-02-24T10:27:49Z</time>
      </trkpt>
      <trkpt lat="45.92425" lon="4.73394">
        <ele>172</ele>
        <time>2018-02-24T10:27:50Z</time>
      </trkpt>
      <trkpt lat="45.92424" lon="4.73387">
        <ele>172</ele>
        <time>2018-02-24T10:27:51Z</time>
      </trkpt>
      <trkpt lat="45.92423" lon="4.7338">
        <ele>172</ele>
        <time>2018-02-24T10:27:52Z</time>
      </trkpt>
      <trkpt lat="45.92421" lon="4.73373">
        <ele>172</ele>
        <time>2018-02-24T10:27:53Z</time>
      </trkpt>
      <trkpt lat="45.9242" lon="4.73365">
        <ele>172</ele>
        <time>2018-02-24T10:27:54Z</time>
      </trkpt>
      <trkpt lat="45.92419" lon="4.73357">
        <ele>171</ele>
        <time>2018-02-24T10:27:55Z</time>
      </trkpt>
      <trkpt lat="45.92418" lon="4.73351">
        <ele>171</ele>
        <time>2018-02-24T10:27:56Z</time>
      </trkpt>
      <trkpt lat="45.92417" lon="4.73343">
        <ele>171</ele>
        <time>2018-02-24T10:27:57Z</time>
      </trkpt>
      <trkpt lat="45.92416" lon="4.73337">
        <ele>171</ele>
        <time>2018-02-24T10:27:58Z</time>
      </trkpt>
      <trkpt lat="45.92415" lon="4.73329">
        <ele>171</ele>
        <time>2018-02-24T10:27:59Z</time>
      </trkpt>
      <trkpt lat="45.92415" lon="4.73322">
        <ele>171</ele>
        <time>2018-02-24T10:28:00Z</time>
      </trkpt>
      <trkpt lat="45.92414" lon="4.73316">
        <ele>171</ele>
        <time>2018-02-24T10:28:01Z</time>
      </trkpt>
      <trkpt lat="45.92413" lon="4.73308">
        <ele>171</ele>
        <time>2018-02-24T10:28:02Z</time>
      </trkpt>
      <trkpt lat="45.92412" lon="4.73302">
        <ele>171</ele>
        <time>2018-02-24T10:28:03Z</time>
      </trkpt>
      <trkpt lat="45.92412" lon="4.73295">
        <ele>171</ele>
        <time>2018-02-24T10:28:04Z</time>
      </trkpt>
      <trkpt lat="45.92412" lon="4.73288">
        <ele>171</ele>
        <time>2018-02-24T10:28:05Z</time>
      </trkpt>
      <trkpt lat="45.92412" lon="4.7328">
        <ele>171</ele>
        <time>2018-02-24T10:28:06Z</time>
      </trkpt>
      <trkpt lat="45.92412" lon="4.73272">
        <ele>171</ele>
        <time>2018-02-24T10:28:07Z</time>
      </trkpt>
      <trkpt lat="45.92412" lon="4.73265">
        <ele>171</ele>
        <time>2018-02-24T10:28:08Z</time>
      </trkpt>
      <trkpt lat="45.92412" lon="4.73257">
        <ele>171</ele>
        <time>2018-02-24T10:28:09Z</time>
      </trkpt>
      <trkpt lat="45.92412" lon="4.7325">
        <ele>171</ele>
        <time>2018-02-24T10:28:10Z</time>
      </trkpt>
      <trkpt lat="45.92412" lon="4.73243">
        <ele>171</ele>
        <time>2018-02-24T10:28:11Z</time>
      </trkpt>
      <trkpt lat="45.92412" lon="4.73237">
        <ele>171</ele>
        <time>2018-02-24T10:28:12Z</time>
      </trkpt>
      <trkpt lat="45.92411" lon="4.7323">
        <ele>171</ele>
        <time>2018-02-24T10:28:13Z</time>
      </trkpt>
      <trkpt lat="45.92411" lon="4.73223">
        <ele>171</ele>
        <time>2018-02-24T10:28:14Z</time>
      </trkpt>
      <trkpt lat="45.9241" lon="4.73216">
        <ele>171</ele>
        <time>2018-02-24T10:28:15Z</time>
      </trkpt>
      <trkpt lat="45.9241" lon="4.73209">
        <ele>171</ele>
        <time>2018-02-24T10:28:16Z</time>
      </trkpt>
      <trkpt lat="45.92409" lon="4.73201">
        <ele>171</ele>
        <time>2018-02-24T10:28:17Z</time>
      </trkpt>
      <trkpt lat="45.92409" lon="4.73193">
        <ele>171</ele>
        <time>2018-02-24T10:28:18Z</time>
      </trkpt>
      <trkpt lat="45.92409" lon="4.73186">
        <ele>171</ele>
        <time>2018-02-24T10:28:19Z</time>
      </trkpt>
      <trkpt lat="45.92409" lon="4.73177">
        <ele>171</ele>
        <time>2018-02-24T10:28:20Z</time>
      </trkpt>
      <trkpt lat="45.92409" lon="4.7317">
        <ele>170</ele>
        <time>2018-02-24T10:28:21Z</time>
      </trkpt>
      <trkpt lat="45.92409" lon="4.73163">
        <ele>170</ele>
        <time>2018-02-24T10:28:22Z</time>
      </trkpt>
      <trkpt lat="45.92409" lon="4.73156">
        <ele>170</ele>
        <time>2018-02-24T10:28:23Z</time>
      </trkpt>
      <trkpt lat="45.92408" lon="4.73149">
        <ele>171</ele>
        <time>2018-02-24T10:28:24Z</time>
      </trkpt>
      <trkpt lat="45.92408" lon="4.73142">
        <ele>171</ele>
        <time>2018-02-24T10:28:25Z</time>
      </trkpt>
      <trkpt lat="45.9241" lon="4.7313">
        <ele>171</ele>
        <time>2018-02-24T10:28:27Z</time>
      </trkpt>
      <trkpt lat="45.9241" lon="4.73124">
        <ele>171</ele>
        <time>2018-02-24T10:28:28Z</time>
      </trkpt>
      <trkpt lat="45.92412" lon="4.73118">
        <ele>171</ele>
        <time>2018-02-24T10:28:29Z</time>
      </trkpt>
      <trkpt lat="45.92417" lon="4.73114">
        <ele>170</ele>
        <time>2018-02-24T10:28:30Z</time>
      </trkpt>
      <trkpt lat="45.92421" lon="4.73109">
        <ele>170</ele>
        <time>2018-02-24T10:28:31Z</time>
      </trkpt>
      <trkpt lat="45.92425" lon="4.73106">
        <ele>171</ele>
        <time>2018-02-24T10:28:32Z</time>
      </trkpt>
      <trkpt lat="45.9243" lon="4.73104">
        <ele>171</ele>
        <time>2018-02-24T10:28:33Z</time>
      </trkpt>
      <trkpt lat="45.92434" lon="4.731">
        <ele>171</ele>
        <time>2018-02-24T10:28:34Z</time>
      </trkpt>
      <trkpt lat="45.92438" lon="4.73096">
        <ele>171</ele>
        <time>2018-02-24T10:28:35Z</time>
      </trkpt>
      <trkpt lat="45.92443" lon="4.73092">
        <ele>170</ele>
        <time>2018-02-24T10:28:36Z</time>
      </trkpt>
      <trkpt lat="45.92448" lon="4.7309">
        <ele>170</ele>
        <time>2018-02-24T10:28:37Z</time>
      </trkpt>
      <trkpt lat="45.92452" lon="4.73086">
        <ele>170</ele>
        <time>2018-02-24T10:28:38Z</time>
      </trkpt>
      <trkpt lat="45.92458" lon="4.73082">
        <ele>170</ele>
        <time>2018-02-24T10:28:39Z</time>
      </trkpt>
      <trkpt lat="45.92462" lon="4.73078">
        <ele>170</ele>
        <time>2018-02-24T10:28:40Z</time>
      </trkpt>
      <trkpt lat="45.92466" lon="4.73073">
        <ele>170</ele>
        <time>2018-02-24T10:28:41Z</time>
      </trkpt>
      <trkpt lat="45.92471" lon="4.73068">
        <ele>170</ele>
        <time>2018-02-24T10:28:42Z</time>
      </trkpt>
      <trkpt lat="45.92476" lon="4.73064">
        <ele>170</ele>
        <time>2018-02-24T10:28:43Z</time>
      </trkpt>
      <trkpt lat="45.92482" lon="4.7306">
        <ele>170</ele>
        <time>2018-02-24T10:28:44Z</time>
      </trkpt>
      <trkpt lat="45.92486" lon="4.73057">
        <ele>170</ele>
        <time>2018-02-24T10:28:45Z</time>
      </trkpt>
      <trkpt lat="45.9249" lon="4.73053">
        <ele>170</ele>
        <time>2018-02-24T10:28:46Z</time>
      </trkpt>
      <trkpt lat="45.92494" lon="4.7305">
        <ele>170</ele>
        <time>2018-02-24T10:28:47Z</time>
      </trkpt>
      <trkpt lat="45.92498" lon="4.73045">
        <ele>170</ele>
        <time>2018-02-24T10:28:48Z</time>
      </trkpt>
      <trkpt lat="45.92506" lon="4.73041">
        <ele>169</ele>
        <time>2018-02-24T10:28:50Z</time>
      </trkpt>
      <trkpt lat="45.92511" lon="4.73038">
        <ele>169</ele>
        <time>2018-02-24T10:28:51Z</time>
      </trkpt>
      <trkpt lat="45.92515" lon="4.73034">
        <ele>169</ele>
        <time>2018-02-24T10:28:52Z</time>
      </trkpt>
      <trkpt lat="45.92519" lon="4.7303">
        <ele>169</ele>
        <time>2018-02-24T10:28:53Z</time>
      </trkpt>
      <trkpt lat="45.92523" lon="4.73026">
        <ele>169</ele>
        <time>2018-02-24T10:28:54Z</time>
      </trkpt>
      <trkpt lat="45.92529" lon="4.7302">
        <ele>169</ele>
        <time>2018-02-24T10:28:55Z</time>
      </trkpt>
      <trkpt lat="45.92533" lon="4.73016">
        <ele>169</ele>
        <time>2018-02-24T10:28:56Z</time>
      </trkpt>
      <trkpt lat="45.92537" lon="4.73011">
        <ele>169</ele>
        <time>2018-02-24T10:28:57Z</time>
      </trkpt>
      <trkpt lat="45.92541" lon="4.73007">
        <ele>169</ele>
        <time>2018-02-24T10:28:58Z</time>
      </trkpt>
      <trkpt lat="45.92546" lon="4.73003">
        <ele>169</ele>
        <time>2018-02-24T10:28:59Z</time>
      </trkpt>
      <trkpt lat="45.9255" lon="4.72998">
        <ele>169</ele>
        <time>2018-02-24T10:29:00Z</time>
      </trkpt>
      <trkpt lat="45.92555" lon="4.72994">
        <ele>169</ele>
        <time>2018-02-24T10:29:01Z</time>
      </trkpt>
      <trkpt lat="45.9256" lon="4.7299">
        <ele>169</ele>
        <time>2018-02-24T10:29:02Z</time>
      </trkpt>
      <trkpt lat="45.92564" lon="4.72986">
        <ele>169</ele>
        <time>2018-02-24T10:29:03Z</time>
      </trkpt>
      <trkpt lat="45.92568" lon="4.72982">
        <ele>169</ele>
        <time>2018-02-24T10:29:04Z</time>
      </trkpt>
      <trkpt lat="45.92572" lon="4.72977">
        <ele>169</ele>
        <time>2018-02-24T10:29:05Z</time>
      </trkpt>
      <trkpt lat="45.92577" lon="4.72971">
        <ele>169</ele>
        <time>2018-02-24T10:29:06Z</time>
      </trkpt>
      <trkpt lat="45.92582" lon="4.72966">
        <ele>169</ele>
        <time>2018-02-24T10:29:07Z</time>
      </trkpt>
      <trkpt lat="45.92586" lon="4.72962">
        <ele>169</ele>
        <time>2018-02-24T10:29:08Z</time>
      </trkpt>
      <trkpt lat="45.92591" lon="4.72956">
        <ele>169</ele>
        <time>2018-02-24T10:29:09Z</time>
      </trkpt>
      <trkpt lat="45.92596" lon="4.72951">
        <ele>169</ele>
        <time>2018-02-24T10:29:10Z</time>
      </trkpt>
      <trkpt lat="45.926" lon="4.72947">
        <ele>169</ele>
        <time>2018-02-24T10:29:11Z</time>
      </trkpt>
      <trkpt lat="45.92605" lon="4.72942">
        <ele>169</ele>
        <time>2018-02-24T10:29:12Z</time>
      </trkpt>
      <trkpt lat="45.92609" lon="4.72938">
        <ele>169</ele>
        <time>2018-02-24T10:29:13Z</time>
      </trkpt>
      <trkpt lat="45.92613" lon="4.72933">
        <ele>169</ele>
        <time>2018-02-24T10:29:14Z</time>
      </trkpt>
      <trkpt lat="45.92618" lon="4.72928">
        <ele>169</ele>
        <time>2018-02-24T10:29:15Z</time>
      </trkpt>
      <trkpt lat="45.92622" lon="4.72924">
        <ele>169</ele>
        <time>2018-02-24T10:29:16Z</time>
      </trkpt>
      <trkpt lat="45.92626" lon="4.72921">
        <ele>170</ele>
        <time>2018-02-24T10:29:17Z</time>
      </trkpt>
      <trkpt lat="45.92631" lon="4.72918">
        <ele>170</ele>
        <time>2018-02-24T10:29:18Z</time>
      </trkpt>
      <trkpt lat="45.92635" lon="4.72914">
        <ele>169</ele>
        <time>2018-02-24T10:29:19Z</time>
      </trkpt>
      <trkpt lat="45.9264" lon="4.72911">
        <ele>169</ele>
        <time>2018-02-24T10:29:20Z</time>
      </trkpt>
      <trkpt lat="45.92644" lon="4.72906">
        <ele>170</ele>
        <time>2018-02-24T10:29:21Z</time>
      </trkpt>
      <trkpt lat="45.9265" lon="4.72902">
        <ele>170</ele>
        <time>2018-02-24T10:29:22Z</time>
      </trkpt>
      <trkpt lat="45.92655" lon="4.72899">
        <ele>170</ele>
        <time>2018-02-24T10:29:23Z</time>
      </trkpt>
      <trkpt lat="45.92659" lon="4.72895">
        <ele>170</ele>
        <time>2018-02-24T10:29:24Z</time>
      </trkpt>
      <trkpt lat="45.92664" lon="4.72891">
        <ele>169</ele>
        <time>2018-02-24T10:29:25Z</time>
      </trkpt>
      <trkpt lat="45.92668" lon="4.72886">
        <ele>170</ele>
        <time>2018-02-24T10:29:26Z</time>
      </trkpt>
      <trkpt lat="45.92672" lon="4.72881">
        <ele>170</ele>
        <time>2018-02-24T10:29:27Z</time>
      </trkpt>
      <trkpt lat="45.92677" lon="4.72879">
        <ele>170</ele>
        <time>2018-02-24T10:29:28Z</time>
      </trkpt>
      <trkpt lat="45.92686" lon="4.72871">
        <ele>169</ele>
        <time>2018-02-24T10:29:29Z</time>
      </trkpt>
      <trkpt lat="45.92692" lon="4.72867">
        <ele>169</ele>
        <time>2018-02-24T10:29:30Z</time>
      </trkpt>
      <trkpt lat="45.92696" lon="4.72864">
        <ele>169</ele>
        <time>2018-02-24T10:29:31Z</time>
      </trkpt>
      <trkpt lat="45.92704" lon="4.7286">
        <ele>169</ele>
        <time>2018-02-24T10:29:33Z</time>
      </trkpt>
      <trkpt lat="45.92709" lon="4.72856">
        <ele>169</ele>
        <time>2018-02-24T10:29:34Z</time>
      </trkpt>
      <trkpt lat="45.92714" lon="4.72853">
        <ele>169</ele>
        <time>2018-02-24T10:29:35Z</time>
      </trkpt>
      <trkpt lat="45.92719" lon="4.72848">
        <ele>169</ele>
        <time>2018-02-24T10:29:36Z</time>
      </trkpt>
      <trkpt lat="45.92723" lon="4.72845">
        <ele>169</ele>
        <time>2018-02-24T10:29:37Z</time>
      </trkpt>
      <trkpt lat="45.92728" lon="4.7284">
        <ele>169</ele>
        <time>2018-02-24T10:29:38Z</time>
      </trkpt>
      <trkpt lat="45.92733" lon="4.72836">
        <ele>169</ele>
        <time>2018-02-24T10:29:39Z</time>
      </trkpt>
      <trkpt lat="45.9274" lon="4.72829">
        <ele>169</ele>
        <time>2018-02-24T10:29:40Z</time>
      </trkpt>
      <trkpt lat="45.92745" lon="4.72825">
        <ele>169</ele>
        <time>2018-02-24T10:29:41Z</time>
      </trkpt>
      <trkpt lat="45.9275" lon="4.72822">
        <ele>169</ele>
        <time>2018-02-24T10:29:42Z</time>
      </trkpt>
      <trkpt lat="45.92755" lon="4.72818">
        <ele>170</ele>
        <time>2018-02-24T10:29:43Z</time>
      </trkpt>
      <trkpt lat="45.9276" lon="4.72813">
        <ele>170</ele>
        <time>2018-02-24T10:29:44Z</time>
      </trkpt>
      <trkpt lat="45.92764" lon="4.7281">
        <ele>170</ele>
        <time>2018-02-24T10:29:45Z</time>
      </trkpt>
      <trkpt lat="45.92771" lon="4.72804">
        <ele>170</ele>
        <time>2018-02-24T10:29:46Z</time>
      </trkpt>
      <trkpt lat="45.92775" lon="4.72799">
        <ele>170</ele>
        <time>2018-02-24T10:29:47Z</time>
      </trkpt>
      <trkpt lat="45.92779" lon="4.72796">
        <ele>170</ele>
        <time>2018-02-24T10:29:48Z</time>
      </trkpt>
      <trkpt lat="45.92783" lon="4.72792">
        <ele>170</ele>
        <time>2018-02-24T10:29:49Z</time>
      </trkpt>
      <trkpt lat="45.92788" lon="4.72791">
        <ele>170</ele>
        <time>2018-02-24T10:29:50Z</time>
      </trkpt>
      <trkpt lat="45.92795" lon="4.7279">
        <ele>171</ele>
        <time>2018-02-24T10:29:52Z</time>
      </trkpt>
      <trkpt lat="45.92798" lon="4.72793">
        <ele>171</ele>
        <time>2018-02-24T10:29:53Z</time>
      </trkpt>
      <trkpt lat="45.92802" lon="4.72803">
        <ele>171</ele>
        <time>2018-02-24T10:29:55Z</time>
      </trkpt>
      <trkpt lat="45.92803" lon="4.72809">
        <ele>171</ele>
        <time>2018-02-24T10:29:56Z</time>
      </trkpt>
      <trkpt lat="45.92804" lon="4.72816">
        <ele>171</ele>
        <time>2018-02-24T10:29:57Z</time>
      </trkpt>
      <trkpt lat="45.92804" lon="4.72823">
        <ele>171</ele>
        <time>2018-02-24T10:29:58Z</time>
      </trkpt>
      <trkpt lat="45.92805" lon="4.7283">
        <ele>171</ele>
        <time>2018-02-24T10:29:59Z</time>
      </trkpt>
      <trkpt lat="45.92805" lon="4.72837">
        <ele>170</ele>
        <time>2018-02-24T10:30:00Z</time>
      </trkpt>
      <trkpt lat="45.92806" lon="4.72844">
        <ele>170</ele>
        <time>2018-02-24T10:30:01Z</time>
      </trkpt>
      <trkpt lat="45.92807" lon="4.72851">
        <ele>170</ele>
        <time>2018-02-24T10:30:02Z</time>
      </trkpt>
      <trkpt lat="45.92808" lon="4.72858">
        <ele>170</ele>
        <time>2018-02-24T10:30:03Z</time>
      </trkpt>
      <trkpt lat="45.9281" lon="4.72865">
        <ele>170</ele>
        <time>2018-02-24T10:30:04Z</time>
      </trkpt>
      <trkpt lat="45.92812" lon="4.72874">
        <ele>170</ele>
        <time>2018-02-24T10:30:05Z</time>
      </trkpt>
      <trkpt lat="45.92814" lon="4.72881">
        <ele>170</ele>
        <time>2018-02-24T10:30:06Z</time>
      </trkpt>
      <trkpt lat="45.92815" lon="4.72889">
        <ele>170</ele>
        <time>2018-02-24T10:30:07Z</time>
      </trkpt>
      <trkpt lat="45.92816" lon="4.72896">
        <ele>170</ele>
        <time>2018-02-24T10:30:08Z</time>
      </trkpt>
      <trkpt lat="45.92818" lon="4.72903">
        <ele>170</ele>
        <time>2018-02-24T10:30:09Z</time>
      </trkpt>
      <trkpt lat="45.92818" lon="4.72911">
        <ele>170</ele>
        <time>2018-02-24T10:30:10Z</time>
      </trkpt>
      <trkpt lat="45.92819" lon="4.72918">
        <ele>170</ele>
        <time>2018-02-24T10:30:11Z</time>
      </trkpt>
      <trkpt lat="45.9282" lon="4.72925">
        <ele>170</ele>
        <time>2018-02-24T10:30:12Z</time>
      </trkpt>
      <trkpt lat="45.92821" lon="4.72933">
        <ele>170</ele>
        <time>2018-02-24T10:30:13Z</time>
      </trkpt>
      <trkpt lat="45.92822" lon="4.7294">
        <ele>170</ele>
        <time>2018-02-24T10:30:14Z</time>
      </trkpt>
      <trkpt lat="45.92823" lon="4.72948">
        <ele>170</ele>
        <time>2018-02-24T10:30:15Z</time>
      </trkpt>
      <trkpt lat="45.92824" lon="4.72957">
        <ele>170</ele>
        <time>2018-02-24T10:30:16Z</time>
      </trkpt>
      <trkpt lat="45.92825" lon="4.72964">
        <ele>170</ele>
        <time>2018-02-24T10:30:17Z</time>
      </trkpt>
      <trkpt lat="45.92825" lon="4.72972">
        <ele>170</ele>
        <time>2018-02-24T10:30:18Z</time>
      </trkpt>
      <trkpt lat="45.92826" lon="4.7298">
        <ele>170</ele>
        <time>2018-02-24T10:30:19Z</time>
      </trkpt>
      <trkpt lat="45.92826" lon="4.72988">
        <ele>170</ele>
        <time>2018-02-24T10:30:20Z</time>
      </trkpt>
      <trkpt lat="45.92827" lon="4.72995">
        <ele>170</ele>
        <time>2018-02-24T10:30:21Z</time>
      </trkpt>
      <trkpt lat="45.92828" lon="4.73003">
        <ele>170</ele>
        <time>2018-02-24T10:30:22Z</time>
      </trkpt>
      <trkpt lat="45.92829" lon="4.73011">
        <ele>170</ele>
        <time>2018-02-24T10:30:23Z</time>
      </trkpt>
      <trkpt lat="45.92831" lon="4.73018">
        <ele>170</ele>
        <time>2018-02-24T10:30:24Z</time>
      </trkpt>
      <trkpt lat="45.92832" lon="4.73026">
        <ele>170</ele>
        <time>2018-02-24T10:30:25Z</time>
      </trkpt>
      <trkpt lat="45.92834" lon="4.73033">
        <ele>171</ele>
        <time>2018-02-24T10:30:26Z</time>
      </trkpt>
      <trkpt lat="45.92835" lon="4.73039">
        <ele>171</ele>
        <time>2018-02-24T10:30:27Z</time>
      </trkpt>
      <trkpt lat="45.92836" lon="4.73047">
        <ele>171</ele>
        <time>2018-02-24T10:30:28Z</time>
      </trkpt>
      <trkpt lat="45.92837" lon="4.73053">
        <ele>171</ele>
        <time>2018-02-24T10:30:29Z</time>
      </trkpt>
      <trkpt lat="45.92839" lon="4.73061">
        <ele>171</ele>
        <time>2018-02-24T10:30:30Z</time>
      </trkpt>
      <trkpt lat="45.9284" lon="4.73069">
        <ele>171</ele>
        <time>2018-02-24T10:30:31Z</time>
      </trkpt>
      <trkpt lat="45.92841" lon="4.73076">
        <ele>171</ele>
        <time>2018-02-24T10:30:32Z</time>
      </trkpt>
      <trkpt lat="45.92841" lon="4.73083">
        <ele>171</ele>
        <time>2018-02-24T10:30:33Z</time>
      </trkpt>
      <trkpt lat="45.92842" lon="4.7309">
        <ele>171</ele>
        <time>2018-02-24T10:30:34Z</time>
      </trkpt>
      <trkpt lat="45.92845" lon="4.731">
        <ele>171</ele>
        <time>2018-02-24T10:30:36Z</time>
      </trkpt>
      <trkpt lat="45.92846" lon="4.73102">
        <ele>171</ele>
        <time>2018-02-24T10:30:37Z</time>
      </trkpt>
      <trkpt lat="45.92855" lon="4.73104">
        <ele>171</ele>
        <time>2018-02-24T10:30:39Z</time>
      </trkpt>
      <trkpt lat="45.92858" lon="4.731">
        <ele>171</ele>
        <time>2018-02-24T10:30:40Z</time>
      </trkpt>
      <trkpt lat="45.92862" lon="4.73093">
        <ele>171</ele>
        <time>2018-02-24T10:30:43Z</time>
      </trkpt>
      <trkpt lat="45.92864" lon="4.73091">
        <ele>171</ele>
        <time>2018-02-24T10:30:44Z</time>
      </trkpt>
      <trkpt lat="45.92869" lon="4.73081">
        <ele>172</ele>
        <time>2018-02-24T10:30:48Z</time>
      </trkpt>
      <trkpt lat="45.92871" lon="4.73078">
        <ele>172</ele>
        <time>2018-02-24T10:30:49Z</time>
      </trkpt>
      <trkpt lat="45.92879" lon="4.73072">
        <ele>172</ele>
        <time>2018-02-24T10:30:50Z</time>
      </trkpt>
      <trkpt lat="45.92883" lon="4.73072">
        <ele>172</ele>
        <time>2018-02-24T10:30:51Z</time>
      </trkpt>
      <trkpt lat="45.92889" lon="4.73067">
        <ele>172</ele>
        <time>2018-02-24T10:30:52Z</time>
      </trkpt>
      <trkpt lat="45.92892" lon="4.73062">
        <ele>172</ele>
        <time>2018-02-24T10:30:53Z</time>
      </trkpt>
      <trkpt lat="45.92895" lon="4.73057">
        <ele>172</ele>
        <time>2018-02-24T10:30:54Z</time>
      </trkpt>
      <trkpt lat="45.92898" lon="4.73051">
        <ele>172</ele>
        <time>2018-02-24T10:30:55Z</time>
      </trkpt>
      <trkpt lat="45.92901" lon="4.73046">
        <ele>172</ele>
        <time>2018-02-24T10:30:56Z</time>
      </trkpt>
      <trkpt lat="45.92904" lon="4.73041">
        <ele>172</ele>
        <time>2018-02-24T10:30:57Z</time>
      </trkpt>
      <trkpt lat="45.92908" lon="4.73035">
        <ele>172</ele>
        <time>2018-02-24T10:30:58Z</time>
      </trkpt>
      <trkpt lat="45.92911" lon="4.73031">
        <ele>172</ele>
        <time>2018-02-24T10:30:59Z</time>
      </trkpt>
      <trkpt lat="45.92915" lon="4.73026">
        <ele>172</ele>
        <time>2018-02-24T10:31:00Z</time>
      </trkpt>
      <trkpt lat="45.92918" lon="4.73022">
        <ele>172</ele>
        <time>2018-02-24T10:31:01Z</time>
      </trkpt>
      <trkpt lat="45.92923" lon="4.73017">
        <ele>172</ele>
        <time>2018-02-24T10:31:02Z</time>
      </trkpt>
      <trkpt lat="45.92927" lon="4.73012">
        <ele>172</ele>
        <time>2018-02-24T10:31:03Z</time>
      </trkpt>
      <trkpt lat="45.92931" lon="4.73008">
        <ele>171</ele>
        <time>2018-02-24T10:31:04Z</time>
      </trkpt>
      <trkpt lat="45.92935" lon="4.73003">
        <ele>171</ele>
        <time>2018-02-24T10:31:05Z</time>
      </trkpt>
      <trkpt lat="45.9294" lon="4.72999">
        <ele>171</ele>
        <time>2018-02-24T10:31:06Z</time>
      </trkpt>
      <trkpt lat="45.92944" lon="4.72994">
        <ele>171</ele>
        <time>2018-02-24T10:31:07Z</time>
      </trkpt>
      <trkpt lat="45.9295" lon="4.72988">
        <ele>171</ele>
        <time>2018-02-24T10:31:08Z</time>
      </trkpt>
      <trkpt lat="45.92953" lon="4.72982">
        <ele>171</ele>
        <time>2018-02-24T10:31:09Z</time>
      </trkpt>
      <trkpt lat="45.92958" lon="4.72976">
        <ele>171</ele>
        <time>2018-02-24T10:31:10Z</time>
      </trkpt>
      <trkpt lat="45.92962" lon="4.7297">
        <ele>171</ele>
        <time>2018-02-24T10:31:11Z</time>
      </trkpt>
      <trkpt lat="45.92966" lon="4.72965">
        <ele>171</ele>
        <time>2018-02-24T10:31:12Z</time>
      </trkpt>
      <trkpt lat="45.92969" lon="4.7296">
        <ele>171</ele>
        <time>2018-02-24T10:31:13Z</time>
      </trkpt>
      <trkpt lat="45.92974" lon="4.72954">
        <ele>171</ele>
        <time>2018-02-24T10:31:14Z</time>
      </trkpt>
      <trkpt lat="45.92978" lon="4.7295">
        <ele>171</ele>
        <time>2018-02-24T10:31:15Z</time>
      </trkpt>
      <trkpt lat="45.92983" lon="4.72945">
        <ele>171</ele>
        <time>2018-02-24T10:31:16Z</time>
      </trkpt>
      <trkpt lat="45.92987" lon="4.7294">
        <ele>171</ele>
        <time>2018-02-24T10:31:17Z</time>
      </trkpt>
      <trkpt lat="45.92992" lon="4.72935">
        <ele>171</ele>
        <time>2018-02-24T10:31:18Z</time>
      </trkpt>
      <trkpt lat="45.92997" lon="4.72928">
        <ele>171</ele>
        <time>2018-02-24T10:31:19Z</time>
      </trkpt>
      <trkpt lat="45.93001" lon="4.72923">
        <ele>171</ele>
        <time>2018-02-24T10:31:20Z</time>
      </trkpt>
      <trkpt lat="45.93005" lon="4.72918">
        <ele>171</ele>
        <time>2018-02-24T10:31:21Z</time>
      </trkpt>
      <trkpt lat="45.93009" lon="4.72912">
        <ele>171</ele>
        <time>2018-02-24T10:31:22Z</time>
      </trkpt>
      <trkpt lat="45.93014" lon="4.72907">
        <ele>171</ele>
        <time>2018-02-24T10:31:23Z</time>
      </trkpt>
      <trkpt lat="45.93019" lon="4.72901">
        <ele>172</ele>
        <time>2018-02-24T10:31:24Z</time>
      </trkpt>
      <trkpt lat="45.93023" lon="4.72895">
        <ele>172</ele>
        <time>2018-02-24T10:31:25Z</time>
      </trkpt>
      <trkpt lat="45.93028" lon="4.7289">
        <ele>172</ele>
        <time>2018-02-24T10:31:26Z</time>
      </trkpt>
      <trkpt lat="45.93033" lon="4.72885">
        <ele>172</ele>
        <time>2018-02-24T10:31:27Z</time>
      </trkpt>
      <trkpt lat="45.93037" lon="4.72879">
        <ele>172</ele>
        <time>2018-02-24T10:31:28Z</time>
      </trkpt>
      <trkpt lat="45.93042" lon="4.72874">
        <ele>172</ele>
        <time>2018-02-24T10:31:29Z</time>
      </trkpt>
      <trkpt lat="45.93047" lon="4.72868">
        <ele>172</ele>
        <time>2018-02-24T10:31:30Z</time>
      </trkpt>
      <trkpt lat="45.93051" lon="4.72863">
        <ele>172</ele>
        <time>2018-02-24T10:31:31Z</time>
      </trkpt>
      <trkpt lat="45.93055" lon="4.72858">
        <ele>172</ele>
        <time>2018-02-24T10:31:32Z</time>
      </trkpt>
      <trkpt lat="45.93059" lon="4.72853">
        <ele>172</ele>
        <time>2018-02-24T10:31:33Z</time>
      </trkpt>
      <trkpt lat="45.93061" lon="4.7285">
        <ele>172</ele>
        <time>2018-02-24T10:31:35Z</time>
      </trkpt>
      <trkpt lat="45.93072" lon="4.72835">
        <ele>173</ele>
        <time>2018-02-24T10:31:37Z</time>
      </trkpt>
      <trkpt lat="45.93077" lon="4.72829">
        <ele>173</ele>
        <time>2018-02-24T10:31:38Z</time>
      </trkpt>
      <trkpt lat="45.93081" lon="4.72823">
        <ele>173</ele>
        <time>2018-02-24T10:31:39Z</time>
      </trkpt>
      <trkpt lat="45.9309" lon="4.72821">
        <ele>172</ele>
        <time>2018-02-24T10:31:40Z</time>
      </trkpt>
      <trkpt lat="45.93093" lon="4.72816">
        <ele>172</ele>
        <time>2018-02-24T10:31:41Z</time>
      </trkpt>
      <trkpt lat="45.93097" lon="4.72811">
        <ele>172</ele>
        <time>2018-02-24T10:31:42Z</time>
      </trkpt>
      <trkpt lat="45.93104" lon="4.72803">
        <ele>171</ele>
        <time>2018-02-24T10:31:43Z</time>
      </trkpt>
      <trkpt lat="45.93109" lon="4.72797">
        <ele>171</ele>
        <time>2018-02-24T10:31:44Z</time>
      </trkpt>
      <trkpt lat="45.93114" lon="4.72793">
        <ele>171</ele>
        <time>2018-02-24T10:31:45Z</time>
      </trkpt>
      <trkpt lat="45.93119" lon="4.72786">
        <ele>171</ele>
        <time>2018-02-24T10:31:46Z</time>
      </trkpt>
      <trkpt lat="45.93123" lon="4.72782">
        <ele>171</ele>
        <time>2018-02-24T10:31:47Z</time>
      </trkpt>
      <trkpt lat="45.93128" lon="4.72775">
        <ele>171</ele>
        <time>2018-02-24T10:31:48Z</time>
      </trkpt>
      <trkpt lat="45.93133" lon="4.72769">
        <ele>171</ele>
        <time>2018-02-24T10:31:49Z</time>
      </trkpt>
      <trkpt lat="45.93137" lon="4.72763">
        <ele>171</ele>
        <time>2018-02-24T10:31:50Z</time>
      </trkpt>
      <trkpt lat="45.93143" lon="4.72757">
        <ele>171</ele>
        <time>2018-02-24T10:31:51Z</time>
      </trkpt>
      <trkpt lat="45.93148" lon="4.72751">
        <ele>170</ele>
        <time>2018-02-24T10:31:52Z</time>
      </trkpt>
      <trkpt lat="45.93153" lon="4.72745">
        <ele>170</ele>
        <time>2018-02-24T10:31:53Z</time>
      </trkpt>
      <trkpt lat="45.93158" lon="4.7274">
        <ele>170</ele>
        <time>2018-02-24T10:31:54Z</time>
      </trkpt>
      <trkpt lat="45.93163" lon="4.72733">
        <ele>170</ele>
        <time>2018-02-24T10:31:55Z</time>
      </trkpt>
      <trkpt lat="45.93168" lon="4.72726">
        <ele>170</ele>
        <time>2018-02-24T10:31:56Z</time>
      </trkpt>
      <trkpt lat="45.93173" lon="4.7272">
        <ele>170</ele>
        <time>2018-02-24T10:31:57Z</time>
      </trkpt>
      <trkpt lat="45.93178" lon="4.72713">
        <ele>169</ele>
        <time>2018-02-24T10:31:58Z</time>
      </trkpt>
      <trkpt lat="45.93183" lon="4.72707">
        <ele>169</ele>
        <time>2018-02-24T10:31:59Z</time>
      </trkpt>
      <trkpt lat="45.93188" lon="4.72701">
        <ele>169</ele>
        <time>2018-02-24T10:32:00Z</time>
      </trkpt>
      <trkpt lat="45.93193" lon="4.72696">
        <ele>169</ele>
        <time>2018-02-24T10:32:01Z</time>
      </trkpt>
      <trkpt lat="45.93198" lon="4.72691">
        <ele>169</ele>
        <time>2018-02-24T10:32:02Z</time>
      </trkpt>
      <trkpt lat="45.93203" lon="4.72685">
        <ele>169</ele>
        <time>2018-02-24T10:32:03Z</time>
      </trkpt>
      <trkpt lat="45.93208" lon="4.7268">
        <ele>169</ele>
        <time>2018-02-24T10:32:04Z</time>
      </trkpt>
      <trkpt lat="45.93214" lon="4.72675">
        <ele>169</ele>
        <time>2018-02-24T10:32:05Z</time>
      </trkpt>
      <trkpt lat="45.93218" lon="4.7267">
        <ele>169</ele>
        <time>2018-02-24T10:32:06Z</time>
      </trkpt>
      <trkpt lat="45.93222" lon="4.72665">
        <ele>170</ele>
        <time>2018-02-24T10:32:07Z</time>
      </trkpt>
      <trkpt lat="45.93226" lon="4.7266">
        <ele>170</ele>
        <time>2018-02-24T10:32:08Z</time>
      </trkpt>
      <trkpt lat="45.93231" lon="4.72654">
        <ele>170</ele>
        <time>2018-02-24T10:32:09Z</time>
      </trkpt>
      <trkpt lat="45.93235" lon="4.72648">
        <ele>170</ele>
        <time>2018-02-24T10:32:10Z</time>
      </trkpt>
      <trkpt lat="45.93239" lon="4.72642">
        <ele>170</ele>
        <time>2018-02-24T10:32:11Z</time>
      </trkpt>
      <trkpt lat="45.93244" lon="4.72636">
        <ele>170</ele>
        <time>2018-02-24T10:32:12Z</time>
      </trkpt>
      <trkpt lat="45.93249" lon="4.72631">
        <ele>170</ele>
        <time>2018-02-24T10:32:13Z</time>
      </trkpt>
      <trkpt lat="45.93254" lon="4.72626">
        <ele>170</ele>
        <time>2018-02-24T10:32:14Z</time>
      </trkpt>
      <trkpt lat="45.93258" lon="4.72621">
        <ele>170</ele>
        <time>2018-02-24T10:32:15Z</time>
      </trkpt>
      <trkpt lat="45.93263" lon="4.72615">
        <ele>170</ele>
        <time>2018-02-24T10:32:16Z</time>
      </trkpt>
      <trkpt lat="45.93268" lon="4.7261">
        <ele>170</ele>
        <time>2018-02-24T10:32:17Z</time>
      </trkpt>
      <trkpt lat="45.93272" lon="4.72604">
        <ele>170</ele>
        <time>2018-02-24T10:32:18Z</time>
      </trkpt>
      <trkpt lat="45.93277" lon="4.72599">
        <ele>170</ele>
        <time>2018-02-24T10:32:19Z</time>
      </trkpt>
      <trkpt lat="45.93281" lon="4.72593">
        <ele>170</ele>
        <time>2018-02-24T10:32:20Z</time>
      </trkpt>
      <trkpt lat="45.93285" lon="4.72588">
        <ele>170</ele>
        <time>2018-02-24T10:32:21Z</time>
      </trkpt>
      <trkpt lat="45.93289" lon="4.72583">
        <ele>171</ele>
        <time>2018-02-24T10:32:22Z</time>
      </trkpt>
      <trkpt lat="45.93293" lon="4.72578">
        <ele>171</ele>
        <time>2018-02-24T10:32:23Z</time>
      </trkpt>
      <trkpt lat="45.933" lon="4.72569">
        <ele>171</ele>
        <time>2018-02-24T10:32:25Z</time>
      </trkpt>
      <trkpt lat="45.93304" lon="4.72567">
        <ele>171</ele>
        <time>2018-02-24T10:32:26Z</time>
      </trkpt>
      <trkpt lat="45.93308" lon="4.7256">
        <ele>172</ele>
        <time>2018-02-24T10:32:27Z</time>
      </trkpt>
      <trkpt lat="45.93313" lon="4.72554">
        <ele>172</ele>
        <time>2018-02-24T10:32:28Z</time>
      </trkpt>
      <trkpt lat="45.93317" lon="4.72549">
        <ele>172</ele>
        <time>2018-02-24T10:32:29Z</time>
      </trkpt>
      <trkpt lat="45.93324" lon="4.72542">
        <ele>172</ele>
        <time>2018-02-24T10:32:30Z</time>
      </trkpt>
      <trkpt lat="45.93328" lon="4.72537">
        <ele>172</ele>
        <time>2018-02-24T10:32:31Z</time>
      </trkpt>
      <trkpt lat="45.93333" lon="4.72535">
        <ele>172</ele>
        <time>2018-02-24T10:32:32Z</time>
      </trkpt>
      <trkpt lat="45.93337" lon="4.7253">
        <ele>172</ele>
        <time>2018-02-24T10:32:33Z</time>
      </trkpt>
      <trkpt lat="45.93342" lon="4.72526">
        <ele>172</ele>
        <time>2018-02-24T10:32:34Z</time>
      </trkpt>
      <trkpt lat="45.93347" lon="4.72521">
        <ele>172</ele>
        <time>2018-02-24T10:32:35Z</time>
      </trkpt>
      <trkpt lat="45.93352" lon="4.72514">
        <ele>172</ele>
        <time>2018-02-24T10:32:36Z</time>
      </trkpt>
      <trkpt lat="45.93356" lon="4.7251">
        <ele>172</ele>
        <time>2018-02-24T10:32:37Z</time>
      </trkpt>
      <trkpt lat="45.93361" lon="4.72504">
        <ele>172</ele>
        <time>2018-02-24T10:32:38Z</time>
      </trkpt>
      <trkpt lat="45.93365" lon="4.72499">
        <ele>173</ele>
        <time>2018-02-24T10:32:39Z</time>
      </trkpt>
      <trkpt lat="45.93369" lon="4.72494">
        <ele>173</ele>
        <time>2018-02-24T10:32:40Z</time>
      </trkpt>
      <trkpt lat="45.93373" lon="4.72489">
        <ele>173</ele>
        <time>2018-02-24T10:32:41Z</time>
      </trkpt>
      <trkpt lat="45.93377" lon="4.72484">
        <ele>173</ele>
        <time>2018-02-24T10:32:42Z</time>
      </trkpt>
      <trkpt lat="45.9338" lon="4.7248">
        <ele>173</ele>
        <time>2018-02-24T10:32:43Z</time>
      </trkpt>
      <trkpt lat="45.93385" lon="4.72474">
        <ele>173</ele>
        <time>2018-02-24T10:32:44Z</time>
      </trkpt>
      <trkpt lat="45.93388" lon="4.72469">
        <ele>173</ele>
        <time>2018-02-24T10:32:45Z</time>
      </trkpt>
      <trkpt lat="45.93391" lon="4.72463">
        <ele>173</ele>
        <time>2018-02-24T10:32:46Z</time>
      </trkpt>
      <trkpt lat="45.93392" lon="4.72457">
        <ele>173</ele>
        <time>2018-02-24T10:32:47Z</time>
      </trkpt>
      <trkpt lat="45.93394" lon="4.7245">
        <ele>173</ele>
        <time>2018-02-24T10:32:48Z</time>
      </trkpt>
      <trkpt lat="45.93396" lon="4.72443">
        <ele>173</ele>
        <time>2018-02-24T10:32:49Z</time>
      </trkpt>
      <trkpt lat="45.93398" lon="4.72436">
        <ele>173</ele>
        <time>2018-02-24T10:32:50Z</time>
      </trkpt>
      <trkpt lat="45.93401" lon="4.7243">
        <ele>173</ele>
        <time>2018-02-24T10:32:51Z</time>
      </trkpt>
      <trkpt lat="45.93404" lon="4.72425">
        <ele>174</ele>
        <time>2018-02-24T10:32:52Z</time>
      </trkpt>
      <trkpt lat="45.93408" lon="4.72421">
        <ele>174</ele>
        <time>2018-02-24T10:32:53Z</time>
      </trkpt>
      <trkpt lat="45.93412" lon="4.72416">
        <ele>174</ele>
        <time>2018-02-24T10:32:54Z</time>
      </trkpt>
      <trkpt lat="45.93416" lon="4.72413">
        <ele>174</ele>
        <time>2018-02-24T10:32:55Z</time>
      </trkpt>
      <trkpt lat="45.93422" lon="4.7241">
        <ele>174</ele>
        <time>2018-02-24T10:32:56Z</time>
      </trkpt>
      <trkpt lat="45.93428" lon="4.72408">
        <ele>174</ele>
        <time>2018-02-24T10:32:57Z</time>
      </trkpt>
      <trkpt lat="45.93432" lon="4.72407">
        <ele>174</ele>
        <time>2018-02-24T10:32:58Z</time>
      </trkpt>
      <trkpt lat="45.93439" lon="4.72403">
        <ele>173</ele>
        <time>2018-02-24T10:32:59Z</time>
      </trkpt>
      <trkpt lat="45.93444" lon="4.72401">
        <ele>173</ele>
        <time>2018-02-24T10:33:00Z</time>
      </trkpt>
      <trkpt lat="45.93449" lon="4.72396">
        <ele>173</ele>
        <time>2018-02-24T10:33:01Z</time>
      </trkpt>
      <trkpt lat="45.93454" lon="4.7239">
        <ele>173</ele>
        <time>2018-02-24T10:33:02Z</time>
      </trkpt>
      <trkpt lat="45.93458" lon="4.72386">
        <ele>173</ele>
        <time>2018-02-24T10:33:03Z</time>
      </trkpt>
      <trkpt lat="45.93462" lon="4.72381">
        <ele>173</ele>
        <time>2018-02-24T10:33:04Z</time>
      </trkpt>
      <trkpt lat="45.93466" lon="4.72375">
        <ele>173</ele>
        <time>2018-02-24T10:33:05Z</time>
      </trkpt>
      <trkpt lat="45.9347" lon="4.72369">
        <ele>173</ele>
        <time>2018-02-24T10:33:06Z</time>
      </trkpt>
      <trkpt lat="45.93474" lon="4.72364">
        <ele>173</ele>
        <time>2018-02-24T10:33:07Z</time>
      </trkpt>
      <trkpt lat="45.93478" lon="4.72358">
        <ele>173</ele>
        <time>2018-02-24T10:33:08Z</time>
      </trkpt>
      <trkpt lat="45.93482" lon="4.72353">
        <ele>173</ele>
        <time>2018-02-24T10:33:09Z</time>
      </trkpt>
      <trkpt lat="45.93486" lon="4.72347">
        <ele>173</ele>
        <time>2018-02-24T10:33:10Z</time>
      </trkpt>
      <trkpt lat="45.93489" lon="4.72341">
        <ele>173</ele>
        <time>2018-02-24T10:33:11Z</time>
      </trkpt>
      <trkpt lat="45.93493" lon="4.72336">
        <ele>173</ele>
        <time>2018-02-24T10:33:12Z</time>
      </trkpt>
      <trkpt lat="45.93497" lon="4.72332">
        <ele>173</ele>
        <time>2018-02-24T10:33:13Z</time>
      </trkpt>
      <trkpt lat="45.935" lon="4.72327">
        <ele>173</ele>
        <time>2018-02-24T10:33:14Z</time>
      </trkpt>
      <trkpt lat="45.93503" lon="4.72322">
        <ele>173</ele>
        <time>2018-02-24T10:33:15Z</time>
      </trkpt>
      <trkpt lat="45.93508" lon="4.72317">
        <ele>173</ele>
        <time>2018-02-24T10:33:16Z</time>
      </trkpt>
      <trkpt lat="45.93511" lon="4.72311">
        <ele>173</ele>
        <time>2018-02-24T10:33:17Z</time>
      </trkpt>
      <trkpt lat="45.93515" lon="4.72306">
        <ele>173</ele>
        <time>2018-02-24T10:33:18Z</time>
      </trkpt>
      <trkpt lat="45.93517" lon="4.72301">
        <ele>172</ele>
        <time>2018-02-24T10:33:19Z</time>
      </trkpt>
      <trkpt lat="45.93521" lon="4.72296">
        <ele>172</ele>
        <time>2018-02-24T10:33:20Z</time>
      </trkpt>
      <trkpt lat="45.93523" lon="4.7229">
        <ele>172</ele>
        <time>2018-02-24T10:33:21Z</time>
      </trkpt>
      <trkpt lat="45.93527" lon="4.72282">
        <ele>172</ele>
        <time>2018-02-24T10:33:22Z</time>
      </trkpt>
      <trkpt lat="45.93529" lon="4.72277">
        <ele>172</ele>
        <time>2018-02-24T10:33:23Z</time>
      </trkpt>
      <trkpt lat="45.93531" lon="4.7227">
        <ele>172</ele>
        <time>2018-02-24T10:33:24Z</time>
      </trkpt>
      <trkpt lat="45.93533" lon="4.72263">
        <ele>172</ele>
        <time>2018-02-24T10:33:25Z</time>
      </trkpt>
      <trkpt lat="45.93535" lon="4.72257">
        <ele>172</ele>
        <time>2018-02-24T10:33:26Z</time>
      </trkpt>
      <trkpt lat="45.9354" lon="4.72246">
        <ele>172</ele>
        <time>2018-02-24T10:33:28Z</time>
      </trkpt>
      <trkpt lat="45.93543" lon="4.72241">
        <ele>172</ele>
        <time>2018-02-24T10:33:29Z</time>
      </trkpt>
      <trkpt lat="45.93545" lon="4.72235">
        <ele>172</ele>
        <time>2018-02-24T10:33:30Z</time>
      </trkpt>
      <trkpt lat="45.93548" lon="4.72228">
        <ele>172</ele>
        <time>2018-02-24T10:33:31Z</time>
      </trkpt>
      <trkpt lat="45.93552" lon="4.72222">
        <ele>173</ele>
        <time>2018-02-24T10:33:32Z</time>
      </trkpt>
      <trkpt lat="45.93555" lon="4.72216">
        <ele>173</ele>
        <time>2018-02-24T10:33:33Z</time>
      </trkpt>
      <trkpt lat="45.93561" lon="4.72211">
        <ele>173</ele>
        <time>2018-02-24T10:33:34Z</time>
      </trkpt>
      <trkpt lat="45.93565" lon="4.72206">
        <ele>173</ele>
        <time>2018-02-24T10:33:35Z</time>
      </trkpt>
      <trkpt lat="45.9357" lon="4.72201">
        <ele>173</ele>
        <time>2018-02-24T10:33:36Z</time>
      </trkpt>
      <trkpt lat="45.93576" lon="4.72196">
        <ele>173</ele>
        <time>2018-02-24T10:33:37Z</time>
      </trkpt>
      <trkpt lat="45.9358" lon="4.72191">
        <ele>173</ele>
        <time>2018-02-24T10:33:38Z</time>
      </trkpt>
      <trkpt lat="45.93585" lon="4.72187">
        <ele>173</ele>
        <time>2018-02-24T10:33:39Z</time>
      </trkpt>
      <trkpt lat="45.93589" lon="4.72182">
        <ele>173</ele>
        <time>2018-02-24T10:33:40Z</time>
      </trkpt>
      <trkpt lat="45.93593" lon="4.72177">
        <ele>173</ele>
        <time>2018-02-24T10:33:41Z</time>
      </trkpt>
      <trkpt lat="45.93598" lon="4.72171">
        <ele>173</ele>
        <time>2018-02-24T10:33:42Z</time>
      </trkpt>
      <trkpt lat="45.93604" lon="4.72166">
        <ele>173</ele>
        <time>2018-02-24T10:33:43Z</time>
      </trkpt>
      <trkpt lat="45.93609" lon="4.72161">
        <ele>173</ele>
        <time>2018-02-24T10:33:44Z</time>
      </trkpt>
      <trkpt lat="45.93614" lon="4.72156">
        <ele>173</ele>
        <time>2018-02-24T10:33:45Z</time>
      </trkpt>
      <trkpt lat="45.93618" lon="4.72152">
        <ele>173</ele>
        <time>2018-02-24T10:33:46Z</time>
      </trkpt>
      <trkpt lat="45.93624" lon="4.72145">
        <ele>173</ele>
        <time>2018-02-24T10:33:47Z</time>
      </trkpt>
      <trkpt lat="45.93629" lon="4.7214">
        <ele>173</ele>
        <time>2018-02-24T10:33:48Z</time>
      </trkpt>
      <trkpt lat="45.93632" lon="4.72133">
        <ele>173</ele>
        <time>2018-02-24T10:33:49Z</time>
      </trkpt>
      <trkpt lat="45.93635" lon="4.72126">
        <ele>173</ele>
        <time>2018-02-24T10:33:50Z</time>
      </trkpt>
      <trkpt lat="45.93639" lon="4.7212">
        <ele>173</ele>
        <time>2018-02-24T10:33:51Z</time>
      </trkpt>
      <trkpt lat="45.93642" lon="4.72113">
        <ele>173</ele>
        <time>2018-02-24T10:33:52Z</time>
      </trkpt>
      <trkpt lat="45.93645" lon="4.72107">
        <ele>173</ele>
        <time>2018-02-24T10:33:53Z</time>
      </trkpt>
      <trkpt lat="45.93648" lon="4.72102">
        <ele>173</ele>
        <time>2018-02-24T10:33:54Z</time>
      </trkpt>
      <trkpt lat="45.93651" lon="4.72096">
        <ele>173</ele>
        <time>2018-02-24T10:33:55Z</time>
      </trkpt>
      <trkpt lat="45.93655" lon="4.72089">
        <ele>173</ele>
        <time>2018-02-24T10:33:56Z</time>
      </trkpt>
      <trkpt lat="45.93659" lon="4.72083">
        <ele>173</ele>
        <time>2018-02-24T10:33:57Z</time>
      </trkpt>
      <trkpt lat="45.93662" lon="4.72077">
        <ele>173</ele>
        <time>2018-02-24T10:33:58Z</time>
      </trkpt>
      <trkpt lat="45.93665" lon="4.72068">
        <ele>173</ele>
        <time>2018-02-24T10:33:59Z</time>
      </trkpt>
      <trkpt lat="45.93667" lon="4.72061">
        <ele>172</ele>
        <time>2018-02-24T10:34:00Z</time>
      </trkpt>
      <trkpt lat="45.93671" lon="4.72056">
        <ele>172</ele>
        <time>2018-02-24T10:34:01Z</time>
      </trkpt>
      <trkpt lat="45.93676" lon="4.72052">
        <ele>172</ele>
        <time>2018-02-24T10:34:02Z</time>
      </trkpt>
      <trkpt lat="45.93679" lon="4.72046">
        <ele>172</ele>
        <time>2018-02-24T10:34:03Z</time>
      </trkpt>
      <trkpt lat="45.93682" lon="4.72041">
        <ele>173</ele>
        <time>2018-02-24T10:34:04Z</time>
      </trkpt>
      <trkpt lat="45.93684" lon="4.72035">
        <ele>173</ele>
        <time>2018-02-24T10:34:05Z</time>
      </trkpt>
      <trkpt lat="45.93683" lon="4.72023">
        <ele>173</ele>
        <time>2018-02-24T10:34:07Z</time>
      </trkpt>
      <trkpt lat="45.93682" lon="4.72016">
        <ele>173</ele>
        <time>2018-02-24T10:34:08Z</time>
      </trkpt>
      <trkpt lat="45.93678" lon="4.72005">
        <ele>173</ele>
        <time>2018-02-24T10:34:10Z</time>
      </trkpt>
      <trkpt lat="45.93676" lon="4.71999">
        <ele>173</ele>
        <time>2018-02-24T10:34:11Z</time>
      </trkpt>
      <trkpt lat="45.93673" lon="4.71992">
        <ele>173</ele>
        <time>2018-02-24T10:34:12Z</time>
      </trkpt>
      <trkpt lat="45.93672" lon="4.71986">
        <ele>173</ele>
        <time>2018-02-24T10:34:13Z</time>
      </trkpt>
      <trkpt lat="45.9367" lon="4.7198">
        <ele>173</ele>
        <time>2018-02-24T10:34:14Z</time>
      </trkpt>
      <trkpt lat="45.93667" lon="4.71974">
        <ele>173</ele>
        <time>2018-02-24T10:34:15Z</time>
      </trkpt>
      <trkpt lat="45.93662" lon="4.71965">
        <ele>175</ele>
        <time>2018-02-24T10:34:19Z</time>
      </trkpt>
      <trkpt lat="45.93661" lon="4.71963">
        <ele>175</ele>
        <time>2018-02-24T10:34:20Z</time>
      </trkpt>
      <trkpt lat="45.93655" lon="4.71953">
        <ele>175</ele>
        <time>2018-02-24T10:34:27Z</time>
      </trkpt>
      <trkpt lat="45.93655" lon="4.71952">
        <ele>175</ele>
        <time>2018-02-24T10:34:28Z</time>
      </trkpt>
      <trkpt lat="45.9365" lon="4.71943">
        <ele>175</ele>
        <time>2018-02-24T10:34:32Z</time>
      </trkpt>
      <trkpt lat="45.93646" lon="4.71933">
        <ele>176</ele>
        <time>2018-02-24T10:34:33Z</time>
      </trkpt>
      <trkpt lat="45.93643" lon="4.71923">
        <ele>176</ele>
        <time>2018-02-24T10:34:35Z</time>
      </trkpt>
      <trkpt lat="45.93641" lon="4.71917">
        <ele>176</ele>
        <time>2018-02-24T10:34:36Z</time>
      </trkpt>
      <trkpt lat="45.93639" lon="4.7191">
        <ele>177</ele>
        <time>2018-02-24T10:34:37Z</time>
      </trkpt>
      <trkpt lat="45.93637" lon="4.71905">
        <ele>177</ele>
        <time>2018-02-24T10:34:38Z</time>
      </trkpt>
      <trkpt lat="45.93631" lon="4.71896">
        <ele>177</ele>
        <time>2018-02-24T10:34:40Z</time>
      </trkpt>
      <trkpt lat="45.9363" lon="4.71889">
        <ele>177</ele>
        <time>2018-02-24T10:34:41Z</time>
      </trkpt>
      <trkpt lat="45.93625" lon="4.71879">
        <ele>177</ele>
        <time>2018-02-24T10:34:43Z</time>
      </trkpt>
      <trkpt lat="45.93623" lon="4.71873">
        <ele>178</ele>
        <time>2018-02-24T10:34:44Z</time>
      </trkpt>
      <trkpt lat="45.9362" lon="4.71862">
        <ele>178</ele>
        <time>2018-02-24T10:34:46Z</time>
      </trkpt>
      <trkpt lat="45.93618" lon="4.71858">
        <ele>178</ele>
        <time>2018-02-24T10:34:47Z</time>
      </trkpt>
      <trkpt lat="45.93614" lon="4.71849">
        <ele>178</ele>
        <time>2018-02-24T10:34:50Z</time>
      </trkpt>
      <trkpt lat="45.93613" lon="4.71846">
        <ele>178</ele>
        <time>2018-02-24T10:34:51Z</time>
      </trkpt>
      <trkpt lat="45.93609" lon="4.71836">
        <ele>178</ele>
        <time>2018-02-24T10:34:54Z</time>
      </trkpt>
      <trkpt lat="45.93608" lon="4.71832">
        <ele>179</ele>
        <time>2018-02-24T10:34:55Z</time>
      </trkpt>
      <trkpt lat="45.93603" lon="4.71823">
        <ele>179</ele>
        <time>2018-02-24T10:34:58Z</time>
      </trkpt>
      <trkpt lat="45.93596" lon="4.71819">
        <ele>179</ele>
        <time>2018-02-24T10:34:59Z</time>
      </trkpt>
      <trkpt lat="45.93589" lon="4.71822">
        <ele>180</ele>
        <time>2018-02-24T10:35:02Z</time>
      </trkpt>
      <trkpt lat="45.93586" lon="4.71822">
        <ele>180</ele>
        <time>2018-02-24T10:35:03Z</time>
      </trkpt>
      <trkpt lat="45.93578" lon="4.71823">
        <ele>180</ele>
        <time>2018-02-24T10:35:04Z</time>
      </trkpt>
      <trkpt lat="45.93574" lon="4.71824">
        <ele>180</ele>
        <time>2018-02-24T10:35:05Z</time>
      </trkpt>
      <trkpt lat="45.93567" lon="4.71825">
        <ele>180</ele>
        <time>2018-02-24T10:35:07Z</time>
      </trkpt>
      <trkpt lat="45.93561" lon="4.71826">
        <ele>180</ele>
        <time>2018-02-24T10:35:08Z</time>
      </trkpt>
      <trkpt lat="45.93552" lon="4.71826">
        <ele>180</ele>
        <time>2018-02-24T10:35:10Z</time>
      </trkpt>
      <trkpt lat="45.93547" lon="4.71825">
        <ele>180</ele>
        <time>2018-02-24T10:35:11Z</time>
      </trkpt>
      <trkpt lat="45.93542" lon="4.71826">
        <ele>180</ele>
        <time>2018-02-24T10:35:12Z</time>
      </trkpt>
      <trkpt lat="45.93537" lon="4.71827">
        <ele>179</ele>
        <time>2018-02-24T10:35:13Z</time>
      </trkpt>
      <trkpt lat="45.93533" lon="4.71829">
        <ele>179</ele>
        <time>2018-02-24T10:35:14Z</time>
      </trkpt>
      <trkpt lat="45.93528" lon="4.7183">
        <ele>179</ele>
        <time>2018-02-24T10:35:15Z</time>
      </trkpt>
      <trkpt lat="45.93521" lon="4.71832">
        <ele>179</ele>
        <time>2018-02-24T10:35:16Z</time>
      </trkpt>
      <trkpt lat="45.93516" lon="4.71833">
        <ele>179</ele>
        <time>2018-02-24T10:35:17Z</time>
      </trkpt>
      <trkpt lat="45.93509" lon="4.71831">
        <ele>179</ele>
        <time>2018-02-24T10:35:20Z</time>
      </trkpt>
      <trkpt lat="45.93503" lon="4.7183">
        <ele>179</ele>
        <time>2018-02-24T10:35:21Z</time>
      </trkpt>
      <trkpt lat="45.93496" lon="4.71829">
        <ele>179</ele>
        <time>2018-02-24T10:35:24Z</time>
      </trkpt>
      <trkpt lat="45.93493" lon="4.71831">
        <ele>180</ele>
        <time>2018-02-24T10:35:25Z</time>
      </trkpt>
      <trkpt lat="45.93484" lon="4.71834">
        <ele>180</ele>
        <time>2018-02-24T10:35:26Z</time>
      </trkpt>
      <trkpt lat="45.93481" lon="4.71835">
        <ele>180</ele>
        <time>2018-02-24T10:35:27Z</time>
      </trkpt>
      <trkpt lat="45.93474" lon="4.71836">
        <ele>180</ele>
        <time>2018-02-24T10:35:29Z</time>
      </trkpt>
      <trkpt lat="45.93471" lon="4.71836">
        <ele>180</ele>
        <time>2018-02-24T10:35:30Z</time>
      </trkpt>
      <trkpt lat="45.93469" lon="4.71835">
        <ele>180</ele>
        <time>2018-02-24T10:35:31Z</time>
      </trkpt>
      <trkpt lat="45.93461" lon="4.7183">
        <ele>181</ele>
        <time>2018-02-24T10:35:32Z</time>
      </trkpt>
      <trkpt lat="45.93456" lon="4.71825">
        <ele>181</ele>
        <time>2018-02-24T10:35:34Z</time>
      </trkpt>
      <trkpt lat="45.93451" lon="4.7182">
        <ele>182</ele>
        <time>2018-02-24T10:35:35Z</time>
      </trkpt>
      <trkpt lat="45.93446" lon="4.71812">
        <ele>182</ele>
        <time>2018-02-24T10:35:38Z</time>
      </trkpt>
      <trkpt lat="45.93445" lon="4.71809">
        <ele>182</ele>
        <time>2018-02-24T10:35:39Z</time>
      </trkpt>
      <trkpt lat="45.9344" lon="4.718">
        <ele>182</ele>
        <time>2018-02-24T10:35:42Z</time>
      </trkpt>
      <trkpt lat="45.93435" lon="4.7179">
        <ele>182</ele>
        <time>2018-02-24T10:35:43Z</time>
      </trkpt>
      <trkpt lat="45.93431" lon="4.71782">
        <ele>182</ele>
        <time>2018-02-24T10:35:45Z</time>
      </trkpt>
      <trkpt lat="45.93429" lon="4.71778">
        <ele>182</ele>
        <time>2018-02-24T10:35:46Z</time>
      </trkpt>
      <trkpt lat="45.93424" lon="4.71769">
        <ele>182</ele>
        <time>2018-02-24T10:35:48Z</time>
      </trkpt>
      <trkpt lat="45.93422" lon="4.71765">
        <ele>182</ele>
        <time>2018-02-24T10:35:49Z</time>
      </trkpt>
      <trkpt lat="45.93417" lon="4.71756">
        <ele>183</ele>
        <time>2018-02-24T10:35:51Z</time>
      </trkpt>
      <trkpt lat="45.93415" lon="4.71752">
        <ele>183</ele>
        <time>2018-02-24T10:35:52Z</time>
      </trkpt>
      <trkpt lat="45.9341" lon="4.71743">
        <ele>183</ele>
        <time>2018-02-24T10:35:54Z</time>
      </trkpt>
      <trkpt lat="45.93408" lon="4.71739">
        <ele>184</ele>
        <time>2018-02-24T10:35:55Z</time>
      </trkpt>
      <trkpt lat="45.93404" lon="4.71731">
        <ele>184</ele>
        <time>2018-02-24T10:35:57Z</time>
      </trkpt>
      <trkpt lat="45.93402" lon="4.71726">
        <ele>184</ele>
        <time>2018-02-24T10:35:58Z</time>
      </trkpt>
      <trkpt lat="45.93399" lon="4.71719">
        <ele>184</ele>
        <time>2018-02-24T10:36:00Z</time>
      </trkpt>
      <trkpt lat="45.93396" lon="4.71713">
        <ele>184</ele>
        <time>2018-02-24T10:36:01Z</time>
      </trkpt>
      <trkpt lat="45.93392" lon="4.71704">
        <ele>184</ele>
        <time>2018-02-24T10:36:03Z</time>
      </trkpt>
      <trkpt lat="45.93391" lon="4.71701">
        <ele>184</ele>
        <time>2018-02-24T10:36:04Z</time>
      </trkpt>
      <trkpt lat="45.93386" lon="4.71691">
        <ele>184</ele>
        <time>2018-02-24T10:36:06Z</time>
      </trkpt>
      <trkpt lat="45.93384" lon="4.71686">
        <ele>184</ele>
        <time>2018-02-24T10:36:07Z</time>
      </trkpt>
      <trkpt lat="45.93381" lon="4.71679">
        <ele>185</ele>
        <time>2018-02-24T10:36:09Z</time>
      </trkpt>
      <trkpt lat="45.93378" lon="4.71672">
        <ele>185</ele>
        <time>2018-02-24T10:36:10Z</time>
      </trkpt>
      <trkpt lat="45.93375" lon="4.71667">
        <ele>185</ele>
        <time>2018-02-24T10:36:12Z</time>
      </trkpt>
      <trkpt lat="45.93372" lon="4.71659">
        <ele>185</ele>
        <time>2018-02-24T10:36:13Z</time>
      </trkpt>
      <trkpt lat="45.93368" lon="4.7165">
        <ele>185</ele>
        <time>2018-02-24T10:36:15Z</time>
      </trkpt>
      <trkpt lat="45.93366" lon="4.71645">
        <ele>185</ele>
        <time>2018-02-24T10:36:16Z</time>
      </trkpt>
      <trkpt lat="45.93363" lon="4.71636">
        <ele>185</ele>
        <time>2018-02-24T10:36:18Z</time>
      </trkpt>
      <trkpt lat="45.93361" lon="4.71632">
        <ele>185</ele>
        <time>2018-02-24T10:36:19Z</time>
      </trkpt>
      <trkpt lat="45.93357" lon="4.71622">
        <ele>185</ele>
        <time>2018-02-24T10:36:21Z</time>
      </trkpt>
      <trkpt lat="45.93356" lon="4.7162">
        <ele>185</ele>
        <time>2018-02-24T10:36:22Z</time>
      </trkpt>
      <trkpt lat="45.93351" lon="4.7161">
        <ele>185</ele>
        <time>2018-02-24T10:36:24Z</time>
      </trkpt>
      <trkpt lat="45.93349" lon="4.71605">
        <ele>185</ele>
        <time>2018-02-24T10:36:25Z</time>
      </trkpt>
      <trkpt lat="45.93345" lon="4.71595">
        <ele>185</ele>
        <time>2018-02-24T10:36:27Z</time>
      </trkpt>
      <trkpt lat="45.93343" lon="4.7159">
        <ele>185</ele>
        <time>2018-02-24T10:36:28Z</time>
      </trkpt>
      <trkpt lat="45.93338" lon="4.7158">
        <ele>185</ele>
        <time>2018-02-24T10:36:30Z</time>
      </trkpt>
      <trkpt lat="45.93336" lon="4.71575">
        <ele>185</ele>
        <time>2018-02-24T10:36:31Z</time>
      </trkpt>
      <trkpt lat="45.93331" lon="4.71566">
        <ele>185</ele>
        <time>2018-02-24T10:36:33Z</time>
      </trkpt>
      <trkpt lat="45.93328" lon="4.71561">
        <ele>185</ele>
        <time>2018-02-24T10:36:34Z</time>
      </trkpt>
      <trkpt lat="45.93323" lon="4.71551">
        <ele>184</ele>
        <time>2018-02-24T10:36:36Z</time>
      </trkpt>
      <trkpt lat="45.93321" lon="4.71546">
        <ele>184</ele>
        <time>2018-02-24T10:36:37Z</time>
      </trkpt>
      <trkpt lat="45.93316" lon="4.71536">
        <ele>184</ele>
        <time>2018-02-24T10:36:39Z</time>
      </trkpt>
      <trkpt lat="45.93314" lon="4.7153">
        <ele>184</ele>
        <time>2018-02-24T10:36:40Z</time>
      </trkpt>
      <trkpt lat="45.93311" lon="4.71524">
        <ele>184</ele>
        <time>2018-02-24T10:36:41Z</time>
      </trkpt>
      <trkpt lat="45.93308" lon="4.71518">
        <ele>184</ele>
        <time>2018-02-24T10:36:42Z</time>
      </trkpt>
      <trkpt lat="45.93306" lon="4.71512">
        <ele>184</ele>
        <time>2018-02-24T10:36:43Z</time>
      </trkpt>
      <trkpt lat="45.93303" lon="4.71506">
        <ele>184</ele>
        <time>2018-02-24T10:36:44Z</time>
      </trkpt>
      <trkpt lat="45.933" lon="4.715">
        <ele>184</ele>
        <time>2018-02-24T10:36:45Z</time>
      </trkpt>
      <trkpt lat="45.93298" lon="4.71494">
        <ele>185</ele>
        <time>2018-02-24T10:36:46Z</time>
      </trkpt>
      <trkpt lat="45.93295" lon="4.71487">
        <ele>185</ele>
        <time>2018-02-24T10:36:47Z</time>
      </trkpt>
      <trkpt lat="45.93293" lon="4.71481">
        <ele>185</ele>
        <time>2018-02-24T10:36:48Z</time>
      </trkpt>
      <trkpt lat="45.93291" lon="4.71474">
        <ele>185</ele>
        <time>2018-02-24T10:36:49Z</time>
      </trkpt>
      <trkpt lat="45.93288" lon="4.71468">
        <ele>185</ele>
        <time>2018-02-24T10:36:50Z</time>
      </trkpt>
      <trkpt lat="45.93285" lon="4.71461">
        <ele>185</ele>
        <time>2018-02-24T10:36:51Z</time>
      </trkpt>
      <trkpt lat="45.93283" lon="4.71454">
        <ele>185</ele>
        <time>2018-02-24T10:36:52Z</time>
      </trkpt>
      <trkpt lat="45.9328" lon="4.71447">
        <ele>185</ele>
        <time>2018-02-24T10:36:53Z</time>
      </trkpt>
      <trkpt lat="45.93278" lon="4.7144">
        <ele>185</ele>
        <time>2018-02-24T10:36:54Z</time>
      </trkpt>
      <trkpt lat="45.93275" lon="4.71434">
        <ele>185</ele>
        <time>2018-02-24T10:36:55Z</time>
      </trkpt>
      <trkpt lat="45.93272" lon="4.71426">
        <ele>185</ele>
        <time>2018-02-24T10:36:56Z</time>
      </trkpt>
      <trkpt lat="45.93269" lon="4.71419">
        <ele>186</ele>
        <time>2018-02-24T10:36:57Z</time>
      </trkpt>
      <trkpt lat="45.93266" lon="4.71411">
        <ele>186</ele>
        <time>2018-02-24T10:36:58Z</time>
      </trkpt>
      <trkpt lat="45.93263" lon="4.71404">
        <ele>186</ele>
        <time>2018-02-24T10:36:59Z</time>
      </trkpt>
      <trkpt lat="45.9326" lon="4.71398">
        <ele>186</ele>
        <time>2018-02-24T10:37:00Z</time>
      </trkpt>
      <trkpt lat="45.93257" lon="4.71391">
        <ele>186</ele>
        <time>2018-02-24T10:37:01Z</time>
      </trkpt>
      <trkpt lat="45.93254" lon="4.71385">
        <ele>186</ele>
        <time>2018-02-24T10:37:02Z</time>
      </trkpt>
      <trkpt lat="45.93252" lon="4.7138">
        <ele>186</ele>
        <time>2018-02-24T10:37:03Z</time>
      </trkpt>
      <trkpt lat="45.9325" lon="4.71373">
        <ele>186</ele>
        <time>2018-02-24T10:37:04Z</time>
      </trkpt>
      <trkpt lat="45.93247" lon="4.71367">
        <ele>186</ele>
        <time>2018-02-24T10:37:05Z</time>
      </trkpt>
      <trkpt lat="45.93245" lon="4.71362">
        <ele>186</ele>
        <time>2018-02-24T10:37:06Z</time>
      </trkpt>
      <trkpt lat="45.93242" lon="4.71355">
        <ele>186</ele>
        <time>2018-02-24T10:37:07Z</time>
      </trkpt>
      <trkpt lat="45.93239" lon="4.71349">
        <ele>186</ele>
        <time>2018-02-24T10:37:08Z</time>
      </trkpt>
      <trkpt lat="45.93237" lon="4.71343">
        <ele>186</ele>
        <time>2018-02-24T10:37:09Z</time>
      </trkpt>
      <trkpt lat="45.93234" lon="4.71338">
        <ele>186</ele>
        <time>2018-02-24T10:37:10Z</time>
      </trkpt>
      <trkpt lat="45.93231" lon="4.71332">
        <ele>187</ele>
        <time>2018-02-24T10:37:11Z</time>
      </trkpt>
      <trkpt lat="45.93229" lon="4.71327">
        <ele>187</ele>
        <time>2018-02-24T10:37:12Z</time>
      </trkpt>
      <trkpt lat="45.93226" lon="4.71322">
        <ele>187</ele>
        <time>2018-02-24T10:37:13Z</time>
      </trkpt>
      <trkpt lat="45.93223" lon="4.71316">
        <ele>187</ele>
        <time>2018-02-24T10:37:14Z</time>
      </trkpt>
      <trkpt lat="45.93221" lon="4.7131">
        <ele>188</ele>
        <time>2018-02-24T10:37:15Z</time>
      </trkpt>
      <trkpt lat="45.93218" lon="4.71304">
        <ele>188</ele>
        <time>2018-02-24T10:37:16Z</time>
      </trkpt>
      <trkpt lat="45.93216" lon="4.71298">
        <ele>188</ele>
        <time>2018-02-24T10:37:17Z</time>
      </trkpt>
      <trkpt lat="45.93213" lon="4.71293">
        <ele>188</ele>
        <time>2018-02-24T10:37:18Z</time>
      </trkpt>
      <trkpt lat="45.9321" lon="4.71288">
        <ele>188</ele>
        <time>2018-02-24T10:37:19Z</time>
      </trkpt>
      <trkpt lat="45.93208" lon="4.71283">
        <ele>188</ele>
        <time>2018-02-24T10:37:20Z</time>
      </trkpt>
      <trkpt lat="45.93205" lon="4.71277">
        <ele>188</ele>
        <time>2018-02-24T10:37:21Z</time>
      </trkpt>
      <trkpt lat="45.93203" lon="4.7127">
        <ele>188</ele>
        <time>2018-02-24T10:37:22Z</time>
      </trkpt>
      <trkpt lat="45.932" lon="4.71265">
        <ele>189</ele>
        <time>2018-02-24T10:37:23Z</time>
      </trkpt>
      <trkpt lat="45.93197" lon="4.71259">
        <ele>189</ele>
        <time>2018-02-24T10:37:24Z</time>
      </trkpt>
      <trkpt lat="45.93192" lon="4.7125">
        <ele>190</ele>
        <time>2018-02-24T10:37:26Z</time>
      </trkpt>
      <trkpt lat="45.9319" lon="4.71245">
        <ele>190</ele>
        <time>2018-02-24T10:37:27Z</time>
      </trkpt>
      <trkpt lat="45.93188" lon="4.71238">
        <ele>190</ele>
        <time>2018-02-24T10:37:28Z</time>
      </trkpt>
      <trkpt lat="45.93186" lon="4.71232">
        <ele>190</ele>
        <time>2018-02-24T10:37:29Z</time>
      </trkpt>
      <trkpt lat="45.93181" lon="4.71222">
        <ele>190</ele>
        <time>2018-02-24T10:37:31Z</time>
      </trkpt>
      <trkpt lat="45.93178" lon="4.71216">
        <ele>190</ele>
        <time>2018-02-24T10:37:32Z</time>
      </trkpt>
      <trkpt lat="45.93173" lon="4.71208">
        <ele>190</ele>
        <time>2018-02-24T10:37:34Z</time>
      </trkpt>
      <trkpt lat="45.93171" lon="4.71202">
        <ele>190</ele>
        <time>2018-02-24T10:37:35Z</time>
      </trkpt>
      <trkpt lat="45.93169" lon="4.71196">
        <ele>190</ele>
        <time>2018-02-24T10:37:36Z</time>
      </trkpt>
      <trkpt lat="45.93166" lon="4.71191">
        <ele>190</ele>
        <time>2018-02-24T10:37:37Z</time>
      </trkpt>
      <trkpt lat="45.93163" lon="4.71179">
        <ele>190</ele>
        <time>2018-02-24T10:37:39Z</time>
      </trkpt>
      <trkpt lat="45.9316" lon="4.71174">
        <ele>190</ele>
        <time>2018-02-24T10:37:40Z</time>
      </trkpt>
      <trkpt lat="45.93156" lon="4.71164">
        <ele>191</ele>
        <time>2018-02-24T10:37:42Z</time>
      </trkpt>
      <trkpt lat="45.93154" lon="4.71159">
        <ele>191</ele>
        <time>2018-02-24T10:37:43Z</time>
      </trkpt>
      <trkpt lat="45.93149" lon="4.7115">
        <ele>191</ele>
        <time>2018-02-24T10:37:45Z</time>
      </trkpt>
      <trkpt lat="45.93147" lon="4.71145">
        <ele>191</ele>
        <time>2018-02-24T10:37:46Z</time>
      </trkpt>
      <trkpt lat="45.93142" lon="4.71136">
        <ele>192</ele>
        <time>2018-02-24T10:37:48Z</time>
      </trkpt>
      <trkpt lat="45.9314" lon="4.71131">
        <ele>192</ele>
        <time>2018-02-24T10:37:49Z</time>
      </trkpt>
      <trkpt lat="45.93135" lon="4.71122">
        <ele>192</ele>
        <time>2018-02-24T10:37:51Z</time>
      </trkpt>
      <trkpt lat="45.93133" lon="4.71118">
        <ele>192</ele>
        <time>2018-02-24T10:37:52Z</time>
      </trkpt>
      <trkpt lat="45.93128" lon="4.71107">
        <ele>192</ele>
        <time>2018-02-24T10:37:54Z</time>
      </trkpt>
      <trkpt lat="45.93126" lon="4.71103">
        <ele>192</ele>
        <time>2018-02-24T10:37:55Z</time>
      </trkpt>
      <trkpt lat="45.93122" lon="4.71093">
        <ele>192</ele>
        <time>2018-02-24T10:37:57Z</time>
      </trkpt>
      <trkpt lat="45.9312" lon="4.71089">
        <ele>193</ele>
        <time>2018-02-24T10:37:58Z</time>
      </trkpt>
      <trkpt lat="45.93115" lon="4.7108">
        <ele>195</ele>
        <time>2018-02-24T10:38:00Z</time>
      </trkpt>
      <trkpt lat="45.93113" lon="4.71075">
        <ele>195</ele>
        <time>2018-02-24T10:38:01Z</time>
      </trkpt>
      <trkpt lat="45.93109" lon="4.71068">
        <ele>195</ele>
        <time>2018-02-24T10:38:04Z</time>
      </trkpt>
      <trkpt lat="45.93108" lon="4.71065">
        <ele>195</ele>
        <time>2018-02-24T10:38:05Z</time>
      </trkpt>
      <trkpt lat="45.93103" lon="4.71056">
        <ele>195</ele>
        <time>2018-02-24T10:38:06Z</time>
      </trkpt>
      <trkpt lat="45.93101" lon="4.71054">
        <ele>195</ele>
        <time>2018-02-24T10:38:07Z</time>
      </trkpt>
      <trkpt lat="45.93095" lon="4.71045">
        <ele>196</ele>
        <time>2018-02-24T10:38:09Z</time>
      </trkpt>
      <trkpt lat="45.93093" lon="4.71041">
        <ele>196</ele>
        <time>2018-02-24T10:38:10Z</time>
      </trkpt>
      <trkpt lat="45.93088" lon="4.71034">
        <ele>196</ele>
        <time>2018-02-24T10:38:12Z</time>
      </trkpt>
      <trkpt lat="45.93085" lon="4.7103">
        <ele>196</ele>
        <time>2018-02-24T10:38:13Z</time>
      </trkpt>
      <trkpt lat="45.93079" lon="4.71024">
        <ele>197</ele>
        <time>2018-02-24T10:38:15Z</time>
      </trkpt>
      <trkpt lat="45.93076" lon="4.71021">
        <ele>197</ele>
        <time>2018-02-24T10:38:16Z</time>
      </trkpt>
      <trkpt lat="45.9307" lon="4.71014">
        <ele>197</ele>
        <time>2018-02-24T10:38:18Z</time>
      </trkpt>
      <trkpt lat="45.93067" lon="4.71011">
        <ele>197</ele>
        <time>2018-02-24T10:38:19Z</time>
      </trkpt>
      <trkpt lat="45.93061" lon="4.71005">
        <ele>197</ele>
        <time>2018-02-24T10:38:21Z</time>
      </trkpt>
      <trkpt lat="45.93058" lon="4.71002">
        <ele>197</ele>
        <time>2018-02-24T10:38:22Z</time>
      </trkpt>
      <trkpt lat="45.93051" lon="4.70997">
        <ele>198</ele>
        <time>2018-02-24T10:38:24Z</time>
      </trkpt>
      <trkpt lat="45.93048" lon="4.70995">
        <ele>198</ele>
        <time>2018-02-24T10:38:25Z</time>
      </trkpt>
      <trkpt lat="45.93041" lon="4.7099">
        <ele>198</ele>
        <time>2018-02-24T10:38:27Z</time>
      </trkpt>
      <trkpt lat="45.93037" lon="4.70988">
        <ele>198</ele>
        <time>2018-02-24T10:38:28Z</time>
      </trkpt>
      <trkpt lat="45.93032" lon="4.70985">
        <ele>198</ele>
        <time>2018-02-24T10:38:30Z</time>
      </trkpt>
      <trkpt lat="45.93027" lon="4.70982">
        <ele>198</ele>
        <time>2018-02-24T10:38:31Z</time>
      </trkpt>
      <trkpt lat="45.9302" lon="4.70978">
        <ele>198</ele>
        <time>2018-02-24T10:38:33Z</time>
      </trkpt>
      <trkpt lat="45.93017" lon="4.70975">
        <ele>198</ele>
        <time>2018-02-24T10:38:34Z</time>
      </trkpt>
      <trkpt lat="45.93009" lon="4.70972">
        <ele>198</ele>
        <time>2018-02-24T10:38:36Z</time>
      </trkpt>
      <trkpt lat="45.93006" lon="4.7097">
        <ele>198</ele>
        <time>2018-02-24T10:38:37Z</time>
      </trkpt>
      <trkpt lat="45.92998" lon="4.70968">
        <ele>198</ele>
        <time>2018-02-24T10:38:39Z</time>
      </trkpt>
      <trkpt lat="45.92995" lon="4.70967">
        <ele>198</ele>
        <time>2018-02-24T10:38:40Z</time>
      </trkpt>
      <trkpt lat="45.92987" lon="4.70965">
        <ele>198</ele>
        <time>2018-02-24T10:38:42Z</time>
      </trkpt>
      <trkpt lat="45.92985" lon="4.70964">
        <ele>198</ele>
        <time>2018-02-24T10:38:43Z</time>
      </trkpt>
      <trkpt lat="45.9298" lon="4.70963">
        <ele>198</ele>
        <time>2018-02-24T10:38:44Z</time>
      </trkpt>
      <trkpt lat="45.92976" lon="4.70963">
        <ele>198</ele>
        <time>2018-02-24T10:38:45Z</time>
      </trkpt>
      <trkpt lat="45.92968" lon="4.70961">
        <ele>198</ele>
        <time>2018-02-24T10:38:47Z</time>
      </trkpt>
      <trkpt lat="45.92964" lon="4.70961">
        <ele>198</ele>
        <time>2018-02-24T10:38:48Z</time>
      </trkpt>
      <trkpt lat="45.92956" lon="4.7096">
        <ele>198</ele>
        <time>2018-02-24T10:38:50Z</time>
      </trkpt>
      <trkpt lat="45.92952" lon="4.70959">
        <ele>198</ele>
        <time>2018-02-24T10:38:51Z</time>
      </trkpt>
      <trkpt lat="45.92943" lon="4.70957">
        <ele>198</ele>
        <time>2018-02-24T10:38:53Z</time>
      </trkpt>
      <trkpt lat="45.92939" lon="4.70956">
        <ele>198</ele>
        <time>2018-02-24T10:38:54Z</time>
      </trkpt>
      <trkpt lat="45.92931" lon="4.70954">
        <ele>198</ele>
        <time>2018-02-24T10:38:56Z</time>
      </trkpt>
      <trkpt lat="45.92927" lon="4.70952">
        <ele>198</ele>
        <time>2018-02-24T10:38:57Z</time>
      </trkpt>
      <trkpt lat="45.92919" lon="4.70951">
        <ele>198</ele>
        <time>2018-02-24T10:38:59Z</time>
      </trkpt>
      <trkpt lat="45.92916" lon="4.7095">
        <ele>198</ele>
        <time>2018-02-24T10:39:00Z</time>
      </trkpt>
      <trkpt lat="45.92908" lon="4.70949">
        <ele>198</ele>
        <time>2018-02-24T10:39:02Z</time>
      </trkpt>
      <trkpt lat="45.92904" lon="4.70949">
        <ele>198</ele>
        <time>2018-02-24T10:39:03Z</time>
      </trkpt>
      <trkpt lat="45.92895" lon="4.70948">
        <ele>198</ele>
        <time>2018-02-24T10:39:05Z</time>
      </trkpt>
      <trkpt lat="45.92891" lon="4.70947">
        <ele>198</ele>
        <time>2018-02-24T10:39:06Z</time>
      </trkpt>
      <trkpt lat="45.92884" lon="4.70946">
        <ele>198</ele>
        <time>2018-02-24T10:39:08Z</time>
      </trkpt>
      <trkpt lat="45.9288" lon="4.70945">
        <ele>198</ele>
        <time>2018-02-24T10:39:09Z</time>
      </trkpt>
      <trkpt lat="45.92871" lon="4.70944">
        <ele>198</ele>
        <time>2018-02-24T10:39:11Z</time>
      </trkpt>
      <trkpt lat="45.92868" lon="4.70943">
        <ele>198</ele>
        <time>2018-02-24T10:39:12Z</time>
      </trkpt>
      <trkpt lat="45.9286" lon="4.7094">
        <ele>198</ele>
        <time>2018-02-24T10:39:14Z</time>
      </trkpt>
      <trkpt lat="45.92856" lon="4.70938">
        <ele>198</ele>
        <time>2018-02-24T10:39:15Z</time>
      </trkpt>
      <trkpt lat="45.92848" lon="4.70936">
        <ele>198</ele>
        <time>2018-02-24T10:39:17Z</time>
      </trkpt>
      <trkpt lat="45.92844" lon="4.70936">
        <ele>198</ele>
        <time>2018-02-24T10:39:18Z</time>
      </trkpt>
      <trkpt lat="45.92835" lon="4.70933">
        <ele>198</ele>
        <time>2018-02-24T10:39:20Z</time>
      </trkpt>
      <trkpt lat="45.9283" lon="4.70932">
        <ele>197</ele>
        <time>2018-02-24T10:39:21Z</time>
      </trkpt>
      <trkpt lat="45.92824" lon="4.70925">
        <ele>197</ele>
        <time>2018-02-24T10:39:23Z</time>
      </trkpt>
      <trkpt lat="45.9282" lon="4.70921">
        <ele>197</ele>
        <time>2018-02-24T10:39:24Z</time>
      </trkpt>
      <trkpt lat="45.92812" lon="4.70922">
        <ele>197</ele>
        <time>2018-02-24T10:39:26Z</time>
      </trkpt>
      <trkpt lat="45.92808" lon="4.70924">
        <ele>197</ele>
        <time>2018-02-24T10:39:27Z</time>
      </trkpt>
      <trkpt lat="45.92801" lon="4.70923">
        <ele>197</ele>
        <time>2018-02-24T10:39:29Z</time>
      </trkpt>
      <trkpt lat="45.92796" lon="4.70922">
        <ele>196</ele>
        <time>2018-02-24T10:39:30Z</time>
      </trkpt>
      <trkpt lat="45.9279" lon="4.7092">
        <ele>196</ele>
        <time>2018-02-24T10:39:31Z</time>
      </trkpt>
      <trkpt lat="45.92784" lon="4.70918">
        <ele>196</ele>
        <time>2018-02-24T10:39:32Z</time>
      </trkpt>
      <trkpt lat="45.92778" lon="4.70917">
        <ele>196</ele>
        <time>2018-02-24T10:39:33Z</time>
      </trkpt>
      <trkpt lat="45.92772" lon="4.70916">
        <ele>197</ele>
        <time>2018-02-24T10:39:34Z</time>
      </trkpt>
      <trkpt lat="45.92766" lon="4.70915">
        <ele>197</ele>
        <time>2018-02-24T10:39:35Z</time>
      </trkpt>
      <trkpt lat="45.9276" lon="4.70914">
        <ele>197</ele>
        <time>2018-02-24T10:39:36Z</time>
      </trkpt>
      <trkpt lat="45.92755" lon="4.70913">
        <ele>196</ele>
        <time>2018-02-24T10:39:37Z</time>
      </trkpt>
      <trkpt lat="45.9275" lon="4.70912">
        <ele>196</ele>
        <time>2018-02-24T10:39:38Z</time>
      </trkpt>
      <trkpt lat="45.92745" lon="4.70911">
        <ele>197</ele>
        <time>2018-02-24T10:39:39Z</time>
      </trkpt>
      <trkpt lat="45.92739" lon="4.7091">
        <ele>197</ele>
        <time>2018-02-24T10:39:40Z</time>
      </trkpt>
      <trkpt lat="45.92734" lon="4.70908">
        <ele>197</ele>
        <time>2018-02-24T10:39:41Z</time>
      </trkpt>
      <trkpt lat="45.92729" lon="4.70907">
        <ele>197</ele>
        <time>2018-02-24T10:39:42Z</time>
      </trkpt>
      <trkpt lat="45.92724" lon="4.70906">
        <ele>197</ele>
        <time>2018-02-24T10:39:43Z</time>
      </trkpt>
      <trkpt lat="45.92719" lon="4.70903">
        <ele>197</ele>
        <time>2018-02-24T10:39:44Z</time>
      </trkpt>
      <trkpt lat="45.92714" lon="4.70901">
        <ele>197</ele>
        <time>2018-02-24T10:39:45Z</time>
      </trkpt>
      <trkpt lat="45.9271" lon="4.70898">
        <ele>197</ele>
        <time>2018-02-24T10:39:46Z</time>
      </trkpt>
      <trkpt lat="45.92705" lon="4.70896">
        <ele>198</ele>
        <time>2018-02-24T10:39:47Z</time>
      </trkpt>
      <trkpt lat="45.92701" lon="4.70892">
        <ele>198</ele>
        <time>2018-02-24T10:39:48Z</time>
      </trkpt>
      <trkpt lat="45.92697" lon="4.70889">
        <ele>198</ele>
        <time>2018-02-24T10:39:49Z</time>
      </trkpt>
      <trkpt lat="45.92692" lon="4.70886">
        <ele>198</ele>
        <time>2018-02-24T10:39:50Z</time>
      </trkpt>
      <trkpt lat="45.92688" lon="4.70882">
        <ele>198</ele>
        <time>2018-02-24T10:39:51Z</time>
      </trkpt>
      <trkpt lat="45.92683" lon="4.70879">
        <ele>198</ele>
        <time>2018-02-24T10:39:52Z</time>
      </trkpt>
      <trkpt lat="45.92678" lon="4.70876">
        <ele>198</ele>
        <time>2018-02-24T10:39:53Z</time>
      </trkpt>
      <trkpt lat="45.92674" lon="4.70873">
        <ele>198</ele>
        <time>2018-02-24T10:39:54Z</time>
      </trkpt>
      <trkpt lat="45.9267" lon="4.70869">
        <ele>198</ele>
        <time>2018-02-24T10:39:55Z</time>
      </trkpt>
      <trkpt lat="45.92665" lon="4.70866">
        <ele>198</ele>
        <time>2018-02-24T10:39:56Z</time>
      </trkpt>
      <trkpt lat="45.92661" lon="4.70862">
        <ele>198</ele>
        <time>2018-02-24T10:39:57Z</time>
      </trkpt>
      <trkpt lat="45.92657" lon="4.70858">
        <ele>198</ele>
        <time>2018-02-24T10:39:58Z</time>
      </trkpt>
      <trkpt lat="45.92654" lon="4.70855">
        <ele>198</ele>
        <time>2018-02-24T10:39:59Z</time>
      </trkpt>
      <trkpt lat="45.9265" lon="4.7085">
        <ele>198</ele>
        <time>2018-02-24T10:40:00Z</time>
      </trkpt>
      <trkpt lat="45.92643" lon="4.70842">
        <ele>198</ele>
        <time>2018-02-24T10:40:02Z</time>
      </trkpt>
      <trkpt lat="45.92638" lon="4.70838">
        <ele>198</ele>
        <time>2018-02-24T10:40:03Z</time>
      </trkpt>
      <trkpt lat="45.92633" lon="4.70834">
        <ele>198</ele>
        <time>2018-02-24T10:40:04Z</time>
      </trkpt>
      <trkpt lat="45.92629" lon="4.7083">
        <ele>199</ele>
        <time>2018-02-24T10:40:05Z</time>
      </trkpt>
      <trkpt lat="45.92624" lon="4.70825">
        <ele>199</ele>
        <time>2018-02-24T10:40:06Z</time>
      </trkpt>
      <trkpt lat="45.92619" lon="4.70821">
        <ele>199</ele>
        <time>2018-02-24T10:40:07Z</time>
      </trkpt>
      <trkpt lat="45.92614" lon="4.70817">
        <ele>199</ele>
        <time>2018-02-24T10:40:08Z</time>
      </trkpt>
      <trkpt lat="45.92609" lon="4.70813">
        <ele>198</ele>
        <time>2018-02-24T10:40:09Z</time>
      </trkpt>
      <trkpt lat="45.92605" lon="4.70809">
        <ele>198</ele>
        <time>2018-02-24T10:40:10Z</time>
      </trkpt>
      <trkpt lat="45.926" lon="4.70804">
        <ele>198</ele>
        <time>2018-02-24T10:40:11Z</time>
      </trkpt>
      <trkpt lat="45.92595" lon="4.708">
        <ele>198</ele>
        <time>2018-02-24T10:40:12Z</time>
      </trkpt>
      <trkpt lat="45.9259" lon="4.70796">
        <ele>198</ele>
        <time>2018-02-24T10:40:13Z</time>
      </trkpt>
      <trkpt lat="45.92587" lon="4.70791">
        <ele>198</ele>
        <time>2018-02-24T10:40:14Z</time>
      </trkpt>
      <trkpt lat="45.92582" lon="4.70786">
        <ele>196</ele>
        <time>2018-02-24T10:40:15Z</time>
      </trkpt>
      <trkpt lat="45.92577" lon="4.70783">
        <ele>196</ele>
        <time>2018-02-24T10:40:16Z</time>
      </trkpt>
      <trkpt lat="45.92573" lon="4.70778">
        <ele>196</ele>
        <time>2018-02-24T10:40:17Z</time>
      </trkpt>
      <trkpt lat="45.92568" lon="4.70774">
        <ele>196</ele>
        <time>2018-02-24T10:40:18Z</time>
      </trkpt>
      <trkpt lat="45.92563" lon="4.70771">
        <ele>196</ele>
        <time>2018-02-24T10:40:19Z</time>
      </trkpt>
      <trkpt lat="45.92558" lon="4.70766">
        <ele>196</ele>
        <time>2018-02-24T10:40:20Z</time>
      </trkpt>
      <trkpt lat="45.92553" lon="4.70762">
        <ele>196</ele>
        <time>2018-02-24T10:40:21Z</time>
      </trkpt>
      <trkpt lat="45.92548" lon="4.70759">
        <ele>196</ele>
        <time>2018-02-24T10:40:22Z</time>
      </trkpt>
      <trkpt lat="45.92542" lon="4.70755">
        <ele>195</ele>
        <time>2018-02-24T10:40:23Z</time>
      </trkpt>
      <trkpt lat="45.92536" lon="4.70752">
        <ele>195</ele>
        <time>2018-02-24T10:40:24Z</time>
      </trkpt>
      <trkpt lat="45.92531" lon="4.70748">
        <ele>196</ele>
        <time>2018-02-24T10:40:25Z</time>
      </trkpt>
      <trkpt lat="45.92525" lon="4.70744">
        <ele>196</ele>
        <time>2018-02-24T10:40:26Z</time>
      </trkpt>
      <trkpt lat="45.92518" lon="4.70741">
        <ele>196</ele>
        <time>2018-02-24T10:40:27Z</time>
      </trkpt>
      <trkpt lat="45.92512" lon="4.70738">
        <ele>196</ele>
        <time>2018-02-24T10:40:28Z</time>
      </trkpt>
      <trkpt lat="45.92507" lon="4.70734">
        <ele>196</ele>
        <time>2018-02-24T10:40:29Z</time>
      </trkpt>
      <trkpt lat="45.92501" lon="4.7073">
        <ele>196</ele>
        <time>2018-02-24T10:40:30Z</time>
      </trkpt>
      <trkpt lat="45.92495" lon="4.70727">
        <ele>194</ele>
        <time>2018-02-24T10:40:31Z</time>
      </trkpt>
      <trkpt lat="45.9249" lon="4.70723">
        <ele>194</ele>
        <time>2018-02-24T10:40:32Z</time>
      </trkpt>
      <trkpt lat="45.92485" lon="4.7072">
        <ele>195</ele>
        <time>2018-02-24T10:40:33Z</time>
      </trkpt>
      <trkpt lat="45.9248" lon="4.70716">
        <ele>195</ele>
        <time>2018-02-24T10:40:34Z</time>
      </trkpt>
      <trkpt lat="45.92475" lon="4.70713">
        <ele>195</ele>
        <time>2018-02-24T10:40:35Z</time>
      </trkpt>
      <trkpt lat="45.92469" lon="4.7071">
        <ele>195</ele>
        <time>2018-02-24T10:40:36Z</time>
      </trkpt>
      <trkpt lat="45.92464" lon="4.70707">
        <ele>195</ele>
        <time>2018-02-24T10:40:37Z</time>
      </trkpt>
      <trkpt lat="45.92459" lon="4.70704">
        <ele>195</ele>
        <time>2018-02-24T10:40:38Z</time>
      </trkpt>
      <trkpt lat="45.92454" lon="4.70701">
        <ele>195</ele>
        <time>2018-02-24T10:40:39Z</time>
      </trkpt>
      <trkpt lat="45.92449" lon="4.70697">
        <ele>195</ele>
        <time>2018-02-24T10:40:40Z</time>
      </trkpt>
      <trkpt lat="45.92444" lon="4.70694">
        <ele>195</ele>
        <time>2018-02-24T10:40:41Z</time>
      </trkpt>
      <trkpt lat="45.92439" lon="4.70691">
        <ele>195</ele>
        <time>2018-02-24T10:40:42Z</time>
      </trkpt>
      <trkpt lat="45.92434" lon="4.70688">
        <ele>195</ele>
        <time>2018-02-24T10:40:43Z</time>
      </trkpt>
      <trkpt lat="45.92429" lon="4.70685">
        <ele>195</ele>
        <time>2018-02-24T10:40:44Z</time>
      </trkpt>
      <trkpt lat="45.92424" lon="4.70682">
        <ele>195</ele>
        <time>2018-02-24T10:40:45Z</time>
      </trkpt>
      <trkpt lat="45.92418" lon="4.7068">
        <ele>195</ele>
        <time>2018-02-24T10:40:46Z</time>
      </trkpt>
      <trkpt lat="45.92413" lon="4.70676">
        <ele>195</ele>
        <time>2018-02-24T10:40:47Z</time>
      </trkpt>
      <trkpt lat="45.92408" lon="4.70673">
        <ele>195</ele>
        <time>2018-02-24T10:40:48Z</time>
      </trkpt>
      <trkpt lat="45.92402" lon="4.70671">
        <ele>195</ele>
        <time>2018-02-24T10:40:49Z</time>
      </trkpt>
      <trkpt lat="45.92396" lon="4.70667">
        <ele>195</ele>
        <time>2018-02-24T10:40:50Z</time>
      </trkpt>
      <trkpt lat="45.92391" lon="4.70664">
        <ele>196</ele>
        <time>2018-02-24T10:40:51Z</time>
      </trkpt>
      <trkpt lat="45.92385" lon="4.70661">
        <ele>196</ele>
        <time>2018-02-24T10:40:52Z</time>
      </trkpt>
      <trkpt lat="45.9238" lon="4.70659">
        <ele>196</ele>
        <time>2018-02-24T10:40:53Z</time>
      </trkpt>
      <trkpt lat="45.92375" lon="4.70656">
        <ele>197</ele>
        <time>2018-02-24T10:40:54Z</time>
      </trkpt>
      <trkpt lat="45.92369" lon="4.70652">
        <ele>197</ele>
        <time>2018-02-24T10:40:55Z</time>
      </trkpt>
      <trkpt lat="45.92364" lon="4.70649">
        <ele>197</ele>
        <time>2018-02-24T10:40:56Z</time>
      </trkpt>
      <trkpt lat="45.92358" lon="4.70646">
        <ele>197</ele>
        <time>2018-02-24T10:40:57Z</time>
      </trkpt>
      <trkpt lat="45.92353" lon="4.70643">
        <ele>197</ele>
        <time>2018-02-24T10:40:58Z</time>
      </trkpt>
      <trkpt lat="45.92347" lon="4.7064">
        <ele>197</ele>
        <time>2018-02-24T10:40:59Z</time>
      </trkpt>
      <trkpt lat="45.92342" lon="4.70637">
        <ele>197</ele>
        <time>2018-02-24T10:41:00Z</time>
      </trkpt>
      <trkpt lat="45.92337" lon="4.70634">
        <ele>197</ele>
        <time>2018-02-24T10:41:01Z</time>
      </trkpt>
      <trkpt lat="45.92332" lon="4.7063">
        <ele>196</ele>
        <time>2018-02-24T10:41:02Z</time>
      </trkpt>
      <trkpt lat="45.92326" lon="4.70628">
        <ele>196</ele>
        <time>2018-02-24T10:41:03Z</time>
      </trkpt>
      <trkpt lat="45.9232" lon="4.70625">
        <ele>196</ele>
        <time>2018-02-24T10:41:04Z</time>
      </trkpt>
      <trkpt lat="45.92315" lon="4.70623">
        <ele>196</ele>
        <time>2018-02-24T10:41:05Z</time>
      </trkpt>
      <trkpt lat="45.92311" lon="4.70619">
        <ele>196</ele>
        <time>2018-02-24T10:41:06Z</time>
      </trkpt>
      <trkpt lat="45.92306" lon="4.70615">
        <ele>196</ele>
        <time>2018-02-24T10:41:07Z</time>
      </trkpt>
      <trkpt lat="45.923" lon="4.70613">
        <ele>196</ele>
        <time>2018-02-24T10:41:08Z</time>
      </trkpt>
      <trkpt lat="45.92294" lon="4.70611">
        <ele>196</ele>
        <time>2018-02-24T10:41:09Z</time>
      </trkpt>
      <trkpt lat="45.92289" lon="4.70608">
        <ele>196</ele>
        <time>2018-02-24T10:41:10Z</time>
      </trkpt>
      <trkpt lat="45.92284" lon="4.70605">
        <ele>196</ele>
        <time>2018-02-24T10:41:11Z</time>
      </trkpt>
      <trkpt lat="45.92277" lon="4.70603">
        <ele>196</ele>
        <time>2018-02-24T10:41:12Z</time>
      </trkpt>
      <trkpt lat="45.9227" lon="4.70602">
        <ele>196</ele>
        <time>2018-02-24T10:41:13Z</time>
      </trkpt>
      <trkpt lat="45.92264" lon="4.706">
        <ele>196</ele>
        <time>2018-02-24T10:41:14Z</time>
      </trkpt>
      <trkpt lat="45.92258" lon="4.70598">
        <ele>196</ele>
        <time>2018-02-24T10:41:15Z</time>
      </trkpt>
      <trkpt lat="45.92252" lon="4.70596">
        <ele>196</ele>
        <time>2018-02-24T10:41:16Z</time>
      </trkpt>
      <trkpt lat="45.92246" lon="4.70594">
        <ele>195</ele>
        <time>2018-02-24T10:41:17Z</time>
      </trkpt>
      <trkpt lat="45.9224" lon="4.70591">
        <ele>194</ele>
        <time>2018-02-24T10:41:18Z</time>
      </trkpt>
      <trkpt lat="45.92234" lon="4.70589">
        <ele>194</ele>
        <time>2018-02-24T10:41:19Z</time>
      </trkpt>
      <trkpt lat="45.92228" lon="4.70588">
        <ele>194</ele>
        <time>2018-02-24T10:41:20Z</time>
      </trkpt>
      <trkpt lat="45.92221" lon="4.70585">
        <ele>193</ele>
        <time>2018-02-24T10:41:21Z</time>
      </trkpt>
      <trkpt lat="45.92215" lon="4.70584">
        <ele>193</ele>
        <time>2018-02-24T10:41:22Z</time>
      </trkpt>
      <trkpt lat="45.92209" lon="4.70583">
        <ele>195</ele>
        <time>2018-02-24T10:41:23Z</time>
      </trkpt>
      <trkpt lat="45.92203" lon="4.70581">
        <ele>194</ele>
        <time>2018-02-24T10:41:24Z</time>
      </trkpt>
      <trkpt lat="45.92197" lon="4.7058">
        <ele>194</ele>
        <time>2018-02-24T10:41:25Z</time>
      </trkpt>
      <trkpt lat="45.92191" lon="4.70579">
        <ele>193</ele>
        <time>2018-02-24T10:41:26Z</time>
      </trkpt>
      <trkpt lat="45.92185" lon="4.70579">
        <ele>193</ele>
        <time>2018-02-24T10:41:27Z</time>
      </trkpt>
      <trkpt lat="45.92178" lon="4.70578">
        <ele>192</ele>
        <time>2018-02-24T10:41:28Z</time>
      </trkpt>
      <trkpt lat="45.92172" lon="4.70577">
        <ele>191</ele>
        <time>2018-02-24T10:41:29Z</time>
      </trkpt>
      <trkpt lat="45.92166" lon="4.70577">
        <ele>191</ele>
        <time>2018-02-24T10:41:30Z</time>
      </trkpt>
      <trkpt lat="45.9216" lon="4.70576">
        <ele>191</ele>
        <time>2018-02-24T10:41:31Z</time>
      </trkpt>
      <trkpt lat="45.92154" lon="4.70576">
        <ele>192</ele>
        <time>2018-02-24T10:41:32Z</time>
      </trkpt>
      <trkpt lat="45.92147" lon="4.70576">
        <ele>192</ele>
        <time>2018-02-24T10:41:33Z</time>
      </trkpt>
      <trkpt lat="45.92141" lon="4.70576">
        <ele>192</ele>
        <time>2018-02-24T10:41:34Z</time>
      </trkpt>
      <trkpt lat="45.92136" lon="4.70575">
        <ele>193</ele>
        <time>2018-02-24T10:41:35Z</time>
      </trkpt>
      <trkpt lat="45.92131" lon="4.70575">
        <ele>193</ele>
        <time>2018-02-24T10:41:36Z</time>
      </trkpt>
      <trkpt lat="45.92126" lon="4.70574">
        <ele>193</ele>
        <time>2018-02-24T10:41:37Z</time>
      </trkpt>
      <trkpt lat="45.9212" lon="4.70574">
        <ele>193</ele>
        <time>2018-02-24T10:41:38Z</time>
      </trkpt>
      <trkpt lat="45.92114" lon="4.70575">
        <ele>193</ele>
        <time>2018-02-24T10:41:39Z</time>
      </trkpt>
      <trkpt lat="45.92109" lon="4.70575">
        <ele>194</ele>
        <time>2018-02-24T10:41:40Z</time>
      </trkpt>
      <trkpt lat="45.92103" lon="4.70577">
        <ele>194</ele>
        <time>2018-02-24T10:41:41Z</time>
      </trkpt>
      <trkpt lat="45.92097" lon="4.70579">
        <ele>194</ele>
        <time>2018-02-24T10:41:42Z</time>
      </trkpt>
      <trkpt lat="45.92091" lon="4.7058">
        <ele>194</ele>
        <time>2018-02-24T10:41:43Z</time>
      </trkpt>
      <trkpt lat="45.92086" lon="4.70582">
        <ele>194</ele>
        <time>2018-02-24T10:41:44Z</time>
      </trkpt>
      <trkpt lat="45.92081" lon="4.70583">
        <ele>194</ele>
        <time>2018-02-24T10:41:45Z</time>
      </trkpt>
      <trkpt lat="45.92075" lon="4.70585">
        <ele>194</ele>
        <time>2018-02-24T10:41:46Z</time>
      </trkpt>
      <trkpt lat="45.9207" lon="4.70586">
        <ele>194</ele>
        <time>2018-02-24T10:41:47Z</time>
      </trkpt>
      <trkpt lat="45.92063" lon="4.70587">
        <ele>194</ele>
        <time>2018-02-24T10:41:48Z</time>
      </trkpt>
      <trkpt lat="45.92059" lon="4.70589">
        <ele>193</ele>
        <time>2018-02-24T10:41:49Z</time>
      </trkpt>
      <trkpt lat="45.92053" lon="4.70589">
        <ele>193</ele>
        <time>2018-02-24T10:41:50Z</time>
      </trkpt>
      <trkpt lat="45.92048" lon="4.70588">
        <ele>193</ele>
        <time>2018-02-24T10:41:51Z</time>
      </trkpt>
      <trkpt lat="45.92043" lon="4.7059">
        <ele>194</ele>
        <time>2018-02-24T10:41:52Z</time>
      </trkpt>
      <trkpt lat="45.92038" lon="4.70591">
        <ele>194</ele>
        <time>2018-02-24T10:41:53Z</time>
      </trkpt>
      <trkpt lat="45.92032" lon="4.70591">
        <ele>194</ele>
        <time>2018-02-24T10:41:54Z</time>
      </trkpt>
      <trkpt lat="45.92027" lon="4.70592">
        <ele>194</ele>
        <time>2018-02-24T10:41:55Z</time>
      </trkpt>
      <trkpt lat="45.92021" lon="4.70593">
        <ele>194</ele>
        <time>2018-02-24T10:41:56Z</time>
      </trkpt>
      <trkpt lat="45.92015" lon="4.70595">
        <ele>194</ele>
        <time>2018-02-24T10:41:57Z</time>
      </trkpt>
      <trkpt lat="45.9201" lon="4.70595">
        <ele>194</ele>
        <time>2018-02-24T10:41:58Z</time>
      </trkpt>
      <trkpt lat="45.92005" lon="4.70596">
        <ele>194</ele>
        <time>2018-02-24T10:41:59Z</time>
      </trkpt>
      <trkpt lat="45.92" lon="4.70597">
        <ele>195</ele>
        <time>2018-02-24T10:42:00Z</time>
      </trkpt>
      <trkpt lat="45.91994" lon="4.70599">
        <ele>194</ele>
        <time>2018-02-24T10:42:01Z</time>
      </trkpt>
      <trkpt lat="45.91989" lon="4.70599">
        <ele>194</ele>
        <time>2018-02-24T10:42:02Z</time>
      </trkpt>
      <trkpt lat="45.91984" lon="4.70602">
        <ele>194</ele>
        <time>2018-02-24T10:42:03Z</time>
      </trkpt>
      <trkpt lat="45.91978" lon="4.70601">
        <ele>194</ele>
        <time>2018-02-24T10:42:04Z</time>
      </trkpt>
      <trkpt lat="45.91973" lon="4.70601">
        <ele>194</ele>
        <time>2018-02-24T10:42:05Z</time>
      </trkpt>
      <trkpt lat="45.91967" lon="4.70602">
        <ele>194</ele>
        <time>2018-02-24T10:42:06Z</time>
      </trkpt>
      <trkpt lat="45.91961" lon="4.70603">
        <ele>194</ele>
        <time>2018-02-24T10:42:07Z</time>
      </trkpt>
      <trkpt lat="45.91956" lon="4.70603">
        <ele>194</ele>
        <time>2018-02-24T10:42:08Z</time>
      </trkpt>
      <trkpt lat="45.9195" lon="4.70604">
        <ele>194</ele>
        <time>2018-02-24T10:42:09Z</time>
      </trkpt>
      <trkpt lat="45.91945" lon="4.70604">
        <ele>195</ele>
        <time>2018-02-24T10:42:10Z</time>
      </trkpt>
      <trkpt lat="45.9194" lon="4.70604">
        <ele>195</ele>
        <time>2018-02-24T10:42:11Z</time>
      </trkpt>
      <trkpt lat="45.91935" lon="4.70604">
        <ele>195</ele>
        <time>2018-02-24T10:42:12Z</time>
      </trkpt>
      <trkpt lat="45.9193" lon="4.70603">
        <ele>195</ele>
        <time>2018-02-24T10:42:13Z</time>
      </trkpt>
      <trkpt lat="45.91922" lon="4.70602">
        <ele>195</ele>
        <time>2018-02-24T10:42:15Z</time>
      </trkpt>
      <trkpt lat="45.91917" lon="4.70603">
        <ele>195</ele>
        <time>2018-02-24T10:42:16Z</time>
      </trkpt>
      <trkpt lat="45.91912" lon="4.70602">
        <ele>195</ele>
        <time>2018-02-24T10:42:17Z</time>
      </trkpt>
      <trkpt lat="45.91907" lon="4.70602">
        <ele>195</ele>
        <time>2018-02-24T10:42:18Z</time>
      </trkpt>
      <trkpt lat="45.91902" lon="4.70602">
        <ele>195</ele>
        <time>2018-02-24T10:42:19Z</time>
      </trkpt>
      <trkpt lat="45.91897" lon="4.70601">
        <ele>195</ele>
        <time>2018-02-24T10:42:20Z</time>
      </trkpt>
      <trkpt lat="45.91891" lon="4.70603">
        <ele>194</ele>
        <time>2018-02-24T10:42:21Z</time>
      </trkpt>
      <trkpt lat="45.91884" lon="4.70605">
        <ele>194</ele>
        <time>2018-02-24T10:42:22Z</time>
      </trkpt>
      <trkpt lat="45.91879" lon="4.70605">
        <ele>194</ele>
        <time>2018-02-24T10:42:23Z</time>
      </trkpt>
      <trkpt lat="45.91874" lon="4.70605">
        <ele>194</ele>
        <time>2018-02-24T10:42:24Z</time>
      </trkpt>
      <trkpt lat="45.91869" lon="4.70605">
        <ele>194</ele>
        <time>2018-02-24T10:42:25Z</time>
      </trkpt>
      <trkpt lat="45.91864" lon="4.70605">
        <ele>194</ele>
        <time>2018-02-24T10:42:26Z</time>
      </trkpt>
      <trkpt lat="45.91858" lon="4.70605">
        <ele>194</ele>
        <time>2018-02-24T10:42:27Z</time>
      </trkpt>
      <trkpt lat="45.91852" lon="4.70605">
        <ele>194</ele>
        <time>2018-02-24T10:42:28Z</time>
      </trkpt>
      <trkpt lat="45.91847" lon="4.70603">
        <ele>194</ele>
        <time>2018-02-24T10:42:29Z</time>
      </trkpt>
      <trkpt lat="45.91841" lon="4.70604">
        <ele>194</ele>
        <time>2018-02-24T10:42:30Z</time>
      </trkpt>
      <trkpt lat="45.91836" lon="4.70604">
        <ele>194</ele>
        <time>2018-02-24T10:42:31Z</time>
      </trkpt>
      <trkpt lat="45.91831" lon="4.70604">
        <ele>194</ele>
        <time>2018-02-24T10:42:32Z</time>
      </trkpt>
      <trkpt lat="45.91825" lon="4.70604">
        <ele>194</ele>
        <time>2018-02-24T10:42:33Z</time>
      </trkpt>
      <trkpt lat="45.91819" lon="4.70605">
        <ele>194</ele>
        <time>2018-02-24T10:42:34Z</time>
      </trkpt>
      <trkpt lat="45.91813" lon="4.70604">
        <ele>194</ele>
        <time>2018-02-24T10:42:35Z</time>
      </trkpt>
      <trkpt lat="45.91808" lon="4.70604">
        <ele>194</ele>
        <time>2018-02-24T10:42:36Z</time>
      </trkpt>
      <trkpt lat="45.91803" lon="4.70603">
        <ele>194</ele>
        <time>2018-02-24T10:42:37Z</time>
      </trkpt>
      <trkpt lat="45.91798" lon="4.70602">
        <ele>194</ele>
        <time>2018-02-24T10:42:38Z</time>
      </trkpt>
      <trkpt lat="45.91792" lon="4.70604">
        <ele>194</ele>
        <time>2018-02-24T10:42:39Z</time>
      </trkpt>
      <trkpt lat="45.91787" lon="4.70603">
        <ele>194</ele>
        <time>2018-02-24T10:42:40Z</time>
      </trkpt>
      <trkpt lat="45.91782" lon="4.70602">
        <ele>195</ele>
        <time>2018-02-24T10:42:41Z</time>
      </trkpt>
      <trkpt lat="45.91777" lon="4.70601">
        <ele>195</ele>
        <time>2018-02-24T10:42:42Z</time>
      </trkpt>
      <trkpt lat="45.91771" lon="4.706">
        <ele>195</ele>
        <time>2018-02-24T10:42:43Z</time>
      </trkpt>
      <trkpt lat="45.91766" lon="4.70598">
        <ele>195</ele>
        <time>2018-02-24T10:42:44Z</time>
      </trkpt>
      <trkpt lat="45.91761" lon="4.70597">
        <ele>195</ele>
        <time>2018-02-24T10:42:45Z</time>
      </trkpt>
      <trkpt lat="45.91756" lon="4.70595">
        <ele>195</ele>
        <time>2018-02-24T10:42:46Z</time>
      </trkpt>
      <trkpt lat="45.91752" lon="4.70595">
        <ele>195</ele>
        <time>2018-02-24T10:42:47Z</time>
      </trkpt>
      <trkpt lat="45.91747" lon="4.70592">
        <ele>196</ele>
        <time>2018-02-24T10:42:48Z</time>
      </trkpt>
      <trkpt lat="45.91743" lon="4.7059">
        <ele>196</ele>
        <time>2018-02-24T10:42:49Z</time>
      </trkpt>
      <trkpt lat="45.91738" lon="4.70587">
        <ele>196</ele>
        <time>2018-02-24T10:42:50Z</time>
      </trkpt>
      <trkpt lat="45.91731" lon="4.70579">
        <ele>197</ele>
        <time>2018-02-24T10:42:52Z</time>
      </trkpt>
      <trkpt lat="45.91728" lon="4.70575">
        <ele>197</ele>
        <time>2018-02-24T10:42:53Z</time>
      </trkpt>
      <trkpt lat="45.91721" lon="4.70569">
        <ele>197</ele>
        <time>2018-02-24T10:42:55Z</time>
      </trkpt>
      <trkpt lat="45.91716" lon="4.70567">
        <ele>197</ele>
        <time>2018-02-24T10:42:56Z</time>
      </trkpt>
      <trkpt lat="45.91709" lon="4.70563">
        <ele>197</ele>
        <time>2018-02-24T10:42:58Z</time>
      </trkpt>
      <trkpt lat="45.91704" lon="4.70562">
        <ele>197</ele>
        <time>2018-02-24T10:42:59Z</time>
      </trkpt>
      <trkpt lat="45.91699" lon="4.70559">
        <ele>198</ele>
        <time>2018-02-24T10:43:00Z</time>
      </trkpt>
      <trkpt lat="45.91694" lon="4.70557">
        <ele>198</ele>
        <time>2018-02-24T10:43:01Z</time>
      </trkpt>
      <trkpt lat="45.9169" lon="4.70553">
        <ele>198</ele>
        <time>2018-02-24T10:43:02Z</time>
      </trkpt>
      <trkpt lat="45.91686" lon="4.7055">
        <ele>198</ele>
        <time>2018-02-24T10:43:03Z</time>
      </trkpt>
      <trkpt lat="45.91682" lon="4.70547">
        <ele>198</ele>
        <time>2018-02-24T10:43:04Z</time>
      </trkpt>
      <trkpt lat="45.91678" lon="4.70544">
        <ele>198</ele>
        <time>2018-02-24T10:43:05Z</time>
      </trkpt>
      <trkpt lat="45.91674" lon="4.70541">
        <ele>198</ele>
        <time>2018-02-24T10:43:06Z</time>
      </trkpt>
      <trkpt lat="45.91669" lon="4.7054">
        <ele>198</ele>
        <time>2018-02-24T10:43:07Z</time>
      </trkpt>
      <trkpt lat="45.91662" lon="4.70533">
        <ele>198</ele>
        <time>2018-02-24T10:43:09Z</time>
      </trkpt>
      <trkpt lat="45.91658" lon="4.7053">
        <ele>198</ele>
        <time>2018-02-24T10:43:10Z</time>
      </trkpt>
      <trkpt lat="45.9165" lon="4.70525">
        <ele>199</ele>
        <time>2018-02-24T10:43:12Z</time>
      </trkpt>
      <trkpt lat="45.91647" lon="4.70521">
        <ele>199</ele>
        <time>2018-02-24T10:43:13Z</time>
      </trkpt>
      <trkpt lat="45.91641" lon="4.70514">
        <ele>199</ele>
        <time>2018-02-24T10:43:15Z</time>
      </trkpt>
      <trkpt lat="45.91638" lon="4.70511">
        <ele>199</ele>
        <time>2018-02-24T10:43:16Z</time>
      </trkpt>
      <trkpt lat="45.91633" lon="4.70508">
        <ele>199</ele>
        <time>2018-02-24T10:43:17Z</time>
      </trkpt>
      <trkpt lat="45.91629" lon="4.70505">
        <ele>199</ele>
        <time>2018-02-24T10:43:18Z</time>
      </trkpt>
      <trkpt lat="45.91621" lon="4.70499">
        <ele>202</ele>
        <time>2018-02-24T10:43:20Z</time>
      </trkpt>
      <trkpt lat="45.91618" lon="4.70495">
        <ele>202</ele>
        <time>2018-02-24T10:43:21Z</time>
      </trkpt>
      <trkpt lat="45.9161" lon="4.70488">
        <ele>202</ele>
        <time>2018-02-24T10:43:23Z</time>
      </trkpt>
      <trkpt lat="45.91605" lon="4.70485">
        <ele>202</ele>
        <time>2018-02-24T10:43:24Z</time>
      </trkpt>
      <trkpt lat="45.91598" lon="4.70477">
        <ele>202</ele>
        <time>2018-02-24T10:43:26Z</time>
      </trkpt>
      <trkpt lat="45.91595" lon="4.70474">
        <ele>202</ele>
        <time>2018-02-24T10:43:27Z</time>
      </trkpt>
      <trkpt lat="45.91588" lon="4.70467">
        <ele>203</ele>
        <time>2018-02-24T10:43:29Z</time>
      </trkpt>
      <trkpt lat="45.91584" lon="4.70464">
        <ele>203</ele>
        <time>2018-02-24T10:43:30Z</time>
      </trkpt>
      <trkpt lat="45.91578" lon="4.70458">
        <ele>203</ele>
        <time>2018-02-24T10:43:32Z</time>
      </trkpt>
      <trkpt lat="45.91576" lon="4.70457">
        <ele>203</ele>
        <time>2018-02-24T10:43:33Z</time>
      </trkpt>
      <trkpt lat="45.91571" lon="4.70453">
        <ele>203</ele>
        <time>2018-02-24T10:43:34Z</time>
      </trkpt>
      <trkpt lat="45.91567" lon="4.70451">
        <ele>203</ele>
        <time>2018-02-24T10:43:35Z</time>
      </trkpt>
      <trkpt lat="45.91561" lon="4.70446">
        <ele>203</ele>
        <time>2018-02-24T10:43:37Z</time>
      </trkpt>
      <trkpt lat="45.91558" lon="4.70443">
        <ele>203</ele>
        <time>2018-02-24T10:43:38Z</time>
      </trkpt>
      <trkpt lat="45.91551" lon="4.70438">
        <ele>203</ele>
        <time>2018-02-24T10:43:40Z</time>
      </trkpt>
      <trkpt lat="45.91547" lon="4.70435">
        <ele>203</ele>
        <time>2018-02-24T10:43:41Z</time>
      </trkpt>
      <trkpt lat="45.9154" lon="4.70429">
        <ele>203</ele>
        <time>2018-02-24T10:43:43Z</time>
      </trkpt>
      <trkpt lat="45.91537" lon="4.70426">
        <ele>203</ele>
        <time>2018-02-24T10:43:44Z</time>
      </trkpt>
      <trkpt lat="45.9153" lon="4.70421">
        <ele>203</ele>
        <time>2018-02-24T10:43:46Z</time>
      </trkpt>
      <trkpt lat="45.91527" lon="4.70418">
        <ele>203</ele>
        <time>2018-02-24T10:43:47Z</time>
      </trkpt>
      <trkpt lat="45.91521" lon="4.70413">
        <ele>205</ele>
        <time>2018-02-24T10:43:49Z</time>
      </trkpt>
      <trkpt lat="45.91518" lon="4.7041">
        <ele>205</ele>
        <time>2018-02-24T10:43:50Z</time>
      </trkpt>
      <trkpt lat="45.91511" lon="4.70405">
        <ele>205</ele>
        <time>2018-02-24T10:43:52Z</time>
      </trkpt>
      <trkpt lat="45.91508" lon="4.70402">
        <ele>205</ele>
        <time>2018-02-24T10:43:53Z</time>
      </trkpt>
      <trkpt lat="45.91501" lon="4.70397">
        <ele>205</ele>
        <time>2018-02-24T10:43:55Z</time>
      </trkpt>
      <trkpt lat="45.915" lon="4.70396">
        <ele>205</ele>
        <time>2018-02-24T10:43:56Z</time>
      </trkpt>
      <trkpt lat="45.91492" lon="4.7039">
        <ele>205</ele>
        <time>2018-02-24T10:43:58Z</time>
      </trkpt>
      <trkpt lat="45.9149" lon="4.70389">
        <ele>205</ele>
        <time>2018-02-24T10:43:59Z</time>
      </trkpt>
      <trkpt lat="45.91483" lon="4.70384">
        <ele>206</ele>
        <time>2018-02-24T10:44:02Z</time>
      </trkpt>
      <trkpt lat="45.91481" lon="4.70382">
        <ele>206</ele>
        <time>2018-02-24T10:44:03Z</time>
      </trkpt>
      <trkpt lat="45.91475" lon="4.70377">
        <ele>206</ele>
        <time>2018-02-24T10:44:05Z</time>
      </trkpt>
      <trkpt lat="45.91472" lon="4.70375">
        <ele>206</ele>
        <time>2018-02-24T10:44:06Z</time>
      </trkpt>
      <trkpt lat="45.91467" lon="4.70371">
        <ele>206</ele>
        <time>2018-02-24T10:44:08Z</time>
      </trkpt>
      <trkpt lat="45.91463" lon="4.70369">
        <ele>206</ele>
        <time>2018-02-24T10:44:09Z</time>
      </trkpt>
      <trkpt lat="45.9146" lon="4.70366">
        <ele>206</ele>
        <time>2018-02-24T10:44:10Z</time>
      </trkpt>
      <trkpt lat="45.91451" lon="4.7036">
        <ele>206</ele>
        <time>2018-02-24T10:44:11Z</time>
      </trkpt>
      <trkpt lat="45.91445" lon="4.70355">
        <ele>207</ele>
        <time>2018-02-24T10:44:13Z</time>
      </trkpt>
      <trkpt lat="45.91442" lon="4.70352">
        <ele>207</ele>
        <time>2018-02-24T10:44:14Z</time>
      </trkpt>
      <trkpt lat="45.91438" lon="4.70349">
        <ele>207</ele>
        <time>2018-02-24T10:44:16Z</time>
      </trkpt>
      <trkpt lat="45.91433" lon="4.70344">
        <ele>207</ele>
        <time>2018-02-24T10:44:17Z</time>
      </trkpt>
      <trkpt lat="45.91427" lon="4.70339">
        <ele>207</ele>
        <time>2018-02-24T10:44:20Z</time>
      </trkpt>
      <trkpt lat="45.91421" lon="4.70334">
        <ele>208</ele>
        <time>2018-02-24T10:44:21Z</time>
      </trkpt>
      <trkpt lat="45.91414" lon="4.70329">
        <ele>208</ele>
        <time>2018-02-24T10:44:23Z</time>
      </trkpt>
      <trkpt lat="45.9141" lon="4.70326">
        <ele>208</ele>
        <time>2018-02-24T10:44:24Z</time>
      </trkpt>
      <trkpt lat="45.91403" lon="4.70321">
        <ele>209</ele>
        <time>2018-02-24T10:44:26Z</time>
      </trkpt>
      <trkpt lat="45.914" lon="4.70318">
        <ele>209</ele>
        <time>2018-02-24T10:44:27Z</time>
      </trkpt>
      <trkpt lat="45.91393" lon="4.70312">
        <ele>209</ele>
        <time>2018-02-24T10:44:29Z</time>
      </trkpt>
      <trkpt lat="45.91389" lon="4.70309">
        <ele>209</ele>
        <time>2018-02-24T10:44:30Z</time>
      </trkpt>
      <trkpt lat="45.91382" lon="4.70303">
        <ele>209</ele>
        <time>2018-02-24T10:44:32Z</time>
      </trkpt>
      <trkpt lat="45.91378" lon="4.703">
        <ele>209</ele>
        <time>2018-02-24T10:44:33Z</time>
      </trkpt>
      <trkpt lat="45.91371" lon="4.70294">
        <ele>209</ele>
        <time>2018-02-24T10:44:35Z</time>
      </trkpt>
      <trkpt lat="45.91368" lon="4.70291">
        <ele>210</ele>
        <time>2018-02-24T10:44:36Z</time>
      </trkpt>
      <trkpt lat="45.91361" lon="4.70284">
        <ele>210</ele>
        <time>2018-02-24T10:44:38Z</time>
      </trkpt>
      <trkpt lat="45.91358" lon="4.7028">
        <ele>210</ele>
        <time>2018-02-24T10:44:39Z</time>
      </trkpt>
      <trkpt lat="45.9135" lon="4.70274">
        <ele>210</ele>
        <time>2018-02-24T10:44:41Z</time>
      </trkpt>
      <trkpt lat="45.91346" lon="4.70271">
        <ele>210</ele>
        <time>2018-02-24T10:44:42Z</time>
      </trkpt>
      <trkpt lat="45.91339" lon="4.70265">
        <ele>211</ele>
        <time>2018-02-24T10:44:44Z</time>
      </trkpt>
      <trkpt lat="45.91335" lon="4.70263">
        <ele>211</ele>
        <time>2018-02-24T10:44:45Z</time>
      </trkpt>
      <trkpt lat="45.91328" lon="4.70258">
        <ele>211</ele>
        <time>2018-02-24T10:44:47Z</time>
      </trkpt>
      <trkpt lat="45.91324" lon="4.70256">
        <ele>211</ele>
        <time>2018-02-24T10:44:48Z</time>
      </trkpt>
      <trkpt lat="45.91319" lon="4.70252">
        <ele>211</ele>
        <time>2018-02-24T10:44:50Z</time>
      </trkpt>
      <trkpt lat="45.91315" lon="4.70249">
        <ele>213</ele>
        <time>2018-02-24T10:44:51Z</time>
      </trkpt>
      <trkpt lat="45.91308" lon="4.70244">
        <ele>214</ele>
        <time>2018-02-24T10:44:53Z</time>
      </trkpt>
      <trkpt lat="45.91304" lon="4.70242">
        <ele>214</ele>
        <time>2018-02-24T10:44:54Z</time>
      </trkpt>
      <trkpt lat="45.91296" lon="4.70239">
        <ele>214</ele>
        <time>2018-02-24T10:44:56Z</time>
      </trkpt>
      <trkpt lat="45.91292" lon="4.70238">
        <ele>214</ele>
        <time>2018-02-24T10:44:57Z</time>
      </trkpt>
      <trkpt lat="45.91284" lon="4.70235">
        <ele>214</ele>
        <time>2018-02-24T10:44:59Z</time>
      </trkpt>
      <trkpt lat="45.9128" lon="4.70234">
        <ele>214</ele>
        <time>2018-02-24T10:45:00Z</time>
      </trkpt>
      <trkpt lat="45.91272" lon="4.70232">
        <ele>214</ele>
        <time>2018-02-24T10:45:02Z</time>
      </trkpt>
      <trkpt lat="45.91268" lon="4.70231">
        <ele>213</ele>
        <time>2018-02-24T10:45:03Z</time>
      </trkpt>
      <trkpt lat="45.9126" lon="4.70229">
        <ele>213</ele>
        <time>2018-02-24T10:45:05Z</time>
      </trkpt>
      <trkpt lat="45.91256" lon="4.70229">
        <ele>213</ele>
        <time>2018-02-24T10:45:06Z</time>
      </trkpt>
      <trkpt lat="45.91247" lon="4.70227">
        <ele>213</ele>
        <time>2018-02-24T10:45:08Z</time>
      </trkpt>
      <trkpt lat="45.91242" lon="4.70227">
        <ele>213</ele>
        <time>2018-02-24T10:45:09Z</time>
      </trkpt>
      <trkpt lat="45.91234" lon="4.70226">
        <ele>213</ele>
        <time>2018-02-24T10:45:11Z</time>
      </trkpt>
      <trkpt lat="45.9123" lon="4.70225">
        <ele>213</ele>
        <time>2018-02-24T10:45:12Z</time>
      </trkpt>
      <trkpt lat="45.91222" lon="4.70222">
        <ele>213</ele>
        <time>2018-02-24T10:45:14Z</time>
      </trkpt>
      <trkpt lat="45.91218" lon="4.70221">
        <ele>214</ele>
        <time>2018-02-24T10:45:15Z</time>
      </trkpt>
      <trkpt lat="45.9121" lon="4.70219">
        <ele>214</ele>
        <time>2018-02-24T10:45:17Z</time>
      </trkpt>
      <trkpt lat="45.91206" lon="4.70218">
        <ele>214</ele>
        <time>2018-02-24T10:45:18Z</time>
      </trkpt>
      <trkpt lat="45.91198" lon="4.70216">
        <ele>214</ele>
        <time>2018-02-24T10:45:20Z</time>
      </trkpt>
      <trkpt lat="45.91194" lon="4.70215">
        <ele>214</ele>
        <time>2018-02-24T10:45:21Z</time>
      </trkpt>
      <trkpt lat="45.91186" lon="4.70213">
        <ele>214</ele>
        <time>2018-02-24T10:45:23Z</time>
      </trkpt>
      <trkpt lat="45.91182" lon="4.70211">
        <ele>214</ele>
        <time>2018-02-24T10:45:24Z</time>
      </trkpt>
      <trkpt lat="45.91175" lon="4.70209">
        <ele>214</ele>
        <time>2018-02-24T10:45:26Z</time>
      </trkpt>
      <trkpt lat="45.91171" lon="4.70208">
        <ele>214</ele>
        <time>2018-02-24T10:45:27Z</time>
      </trkpt>
      <trkpt lat="45.91164" lon="4.70205">
        <ele>215</ele>
        <time>2018-02-24T10:45:29Z</time>
      </trkpt>
      <trkpt lat="45.9116" lon="4.70203">
        <ele>215</ele>
        <time>2018-02-24T10:45:30Z</time>
      </trkpt>
      <trkpt lat="45.91153" lon="4.702">
        <ele>215</ele>
        <time>2018-02-24T10:45:32Z</time>
      </trkpt>
      <trkpt lat="45.91149" lon="4.70198">
        <ele>215</ele>
        <time>2018-02-24T10:45:33Z</time>
      </trkpt>
      <trkpt lat="45.91142" lon="4.70195">
        <ele>215</ele>
        <time>2018-02-24T10:45:35Z</time>
      </trkpt>
      <trkpt lat="45.91138" lon="4.70194">
        <ele>215</ele>
        <time>2018-02-24T10:45:36Z</time>
      </trkpt>
      <trkpt lat="45.91131" lon="4.70191">
        <ele>215</ele>
        <time>2018-02-24T10:45:38Z</time>
      </trkpt>
      <trkpt lat="45.91127" lon="4.7019">
        <ele>215</ele>
        <time>2018-02-24T10:45:39Z</time>
      </trkpt>
      <trkpt lat="45.91119" lon="4.70187">
        <ele>215</ele>
        <time>2018-02-24T10:45:41Z</time>
      </trkpt>
      <trkpt lat="45.91115" lon="4.70185">
        <ele>215</ele>
        <time>2018-02-24T10:45:42Z</time>
      </trkpt>
      <trkpt lat="45.91108" lon="4.70182">
        <ele>215</ele>
        <time>2018-02-24T10:45:44Z</time>
      </trkpt>
      <trkpt lat="45.91104" lon="4.70181">
        <ele>216</ele>
        <time>2018-02-24T10:45:45Z</time>
      </trkpt>
      <trkpt lat="45.91095" lon="4.70179">
        <ele>216</ele>
        <time>2018-02-24T10:45:47Z</time>
      </trkpt>
      <trkpt lat="45.91091" lon="4.70178">
        <ele>216</ele>
        <time>2018-02-24T10:45:48Z</time>
      </trkpt>
      <trkpt lat="45.91083" lon="4.70176">
        <ele>216</ele>
        <time>2018-02-24T10:45:50Z</time>
      </trkpt>
      <trkpt lat="45.91079" lon="4.70175">
        <ele>216</ele>
        <time>2018-02-24T10:45:51Z</time>
      </trkpt>
      <trkpt lat="45.91072" lon="4.70172">
        <ele>216</ele>
        <time>2018-02-24T10:45:53Z</time>
      </trkpt>
      <trkpt lat="45.91068" lon="4.70171">
        <ele>216</ele>
        <time>2018-02-24T10:45:54Z</time>
      </trkpt>
      <trkpt lat="45.9106" lon="4.70168">
        <ele>216</ele>
        <time>2018-02-24T10:45:57Z</time>
      </trkpt>
      <trkpt lat="45.91053" lon="4.70166">
        <ele>218</ele>
        <time>2018-02-24T10:45:58Z</time>
      </trkpt>
      <trkpt lat="45.91045" lon="4.70164">
        <ele>218</ele>
        <time>2018-02-24T10:46:00Z</time>
      </trkpt>
      <trkpt lat="45.91041" lon="4.70163">
        <ele>218</ele>
        <time>2018-02-24T10:46:01Z</time>
      </trkpt>
      <trkpt lat="45.91033" lon="4.70161">
        <ele>218</ele>
        <time>2018-02-24T10:46:03Z</time>
      </trkpt>
      <trkpt lat="45.91031" lon="4.70161">
        <ele>218</ele>
        <time>2018-02-24T10:46:04Z</time>
      </trkpt>
      <trkpt lat="45.91024" lon="4.70158">
        <ele>218</ele>
        <time>2018-02-24T10:46:06Z</time>
      </trkpt>
      <trkpt lat="45.91019" lon="4.70155">
        <ele>218</ele>
        <time>2018-02-24T10:46:07Z</time>
      </trkpt>
      <trkpt lat="45.91012" lon="4.70153">
        <ele>218</ele>
        <time>2018-02-24T10:46:09Z</time>
      </trkpt>
      <trkpt lat="45.91008" lon="4.70151">
        <ele>218</ele>
        <time>2018-02-24T10:46:10Z</time>
      </trkpt>
      <trkpt lat="45.91001" lon="4.70148">
        <ele>218</ele>
        <time>2018-02-24T10:46:12Z</time>
      </trkpt>
      <trkpt lat="45.90997" lon="4.70147">
        <ele>218</ele>
        <time>2018-02-24T10:46:13Z</time>
      </trkpt>
      <trkpt lat="45.9099" lon="4.70144">
        <ele>218</ele>
        <time>2018-02-24T10:46:15Z</time>
      </trkpt>
      <trkpt lat="45.90986" lon="4.70142">
        <ele>218</ele>
        <time>2018-02-24T10:46:16Z</time>
      </trkpt>
      <trkpt lat="45.90979" lon="4.70138">
        <ele>218</ele>
        <time>2018-02-24T10:46:18Z</time>
      </trkpt>
      <trkpt lat="45.90975" lon="4.70137">
        <ele>219</ele>
        <time>2018-02-24T10:46:19Z</time>
      </trkpt>
      <trkpt lat="45.90967" lon="4.70134">
        <ele>219</ele>
        <time>2018-02-24T10:46:21Z</time>
      </trkpt>
      <trkpt lat="45.90963" lon="4.70133">
        <ele>219</ele>
        <time>2018-02-24T10:46:22Z</time>
      </trkpt>
      <trkpt lat="45.90955" lon="4.7013">
        <ele>219</ele>
        <time>2018-02-24T10:46:24Z</time>
      </trkpt>
      <trkpt lat="45.90951" lon="4.70129">
        <ele>219</ele>
        <time>2018-02-24T10:46:25Z</time>
      </trkpt>
      <trkpt lat="45.90943" lon="4.70126">
        <ele>219</ele>
        <time>2018-02-24T10:46:27Z</time>
      </trkpt>
      <trkpt lat="45.90939" lon="4.70125">
        <ele>219</ele>
        <time>2018-02-24T10:46:28Z</time>
      </trkpt>
      <trkpt lat="45.9093" lon="4.70125">
        <ele>219</ele>
        <time>2018-02-24T10:46:30Z</time>
      </trkpt>
      <trkpt lat="45.90926" lon="4.70124">
        <ele>219</ele>
        <time>2018-02-24T10:46:31Z</time>
      </trkpt>
      <trkpt lat="45.90918" lon="4.70124">
        <ele>219</ele>
        <time>2018-02-24T10:46:33Z</time>
      </trkpt>
      <trkpt lat="45.90914" lon="4.70124">
        <ele>219</ele>
        <time>2018-02-24T10:46:34Z</time>
      </trkpt>
      <trkpt lat="45.90908" lon="4.70126">
        <ele>219</ele>
        <time>2018-02-24T10:46:35Z</time>
      </trkpt>
      <trkpt lat="45.90904" lon="4.70126">
        <ele>219</ele>
        <time>2018-02-24T10:46:36Z</time>
      </trkpt>
      <trkpt lat="45.909" lon="4.70126">
        <ele>219</ele>
        <time>2018-02-24T10:46:37Z</time>
      </trkpt>
      <trkpt lat="45.90894" lon="4.70127">
        <ele>219</ele>
        <time>2018-02-24T10:46:38Z</time>
      </trkpt>
      <trkpt lat="45.90888" lon="4.70128">
        <ele>219</ele>
        <time>2018-02-24T10:46:39Z</time>
      </trkpt>
      <trkpt lat="45.90884" lon="4.70129">
        <ele>219</ele>
        <time>2018-02-24T10:46:40Z</time>
      </trkpt>
      <trkpt lat="45.9088" lon="4.70129">
        <ele>219</ele>
        <time>2018-02-24T10:46:41Z</time>
      </trkpt>
      <trkpt lat="45.90874" lon="4.70131">
        <ele>219</ele>
        <time>2018-02-24T10:46:42Z</time>
      </trkpt>
      <trkpt lat="45.90869" lon="4.70131">
        <ele>219</ele>
        <time>2018-02-24T10:46:43Z</time>
      </trkpt>
      <trkpt lat="45.90864" lon="4.70131">
        <ele>219</ele>
        <time>2018-02-24T10:46:44Z</time>
      </trkpt>
      <trkpt lat="45.9086" lon="4.7013">
        <ele>219</ele>
        <time>2018-02-24T10:46:45Z</time>
      </trkpt>
      <trkpt lat="45.90854" lon="4.70131">
        <ele>218</ele>
        <time>2018-02-24T10:46:46Z</time>
      </trkpt>
      <trkpt lat="45.90849" lon="4.70131">
        <ele>218</ele>
        <time>2018-02-24T10:46:47Z</time>
      </trkpt>
      <trkpt lat="45.90844" lon="4.70131">
        <ele>218</ele>
        <time>2018-02-24T10:46:48Z</time>
      </trkpt>
      <trkpt lat="45.90839" lon="4.70132">
        <ele>218</ele>
        <time>2018-02-24T10:46:49Z</time>
      </trkpt>
      <trkpt lat="45.90834" lon="4.70133">
        <ele>218</ele>
        <time>2018-02-24T10:46:50Z</time>
      </trkpt>
      <trkpt lat="45.9083" lon="4.70133">
        <ele>219</ele>
        <time>2018-02-24T10:46:51Z</time>
      </trkpt>
      <trkpt lat="45.90825" lon="4.70132">
        <ele>219</ele>
        <time>2018-02-24T10:46:52Z</time>
      </trkpt>
      <trkpt lat="45.9082" lon="4.70132">
        <ele>219</ele>
        <time>2018-02-24T10:46:53Z</time>
      </trkpt>
      <trkpt lat="45.90815" lon="4.70133">
        <ele>219</ele>
        <time>2018-02-24T10:46:54Z</time>
      </trkpt>
      <trkpt lat="45.9081" lon="4.70133">
        <ele>219</ele>
        <time>2018-02-24T10:46:55Z</time>
      </trkpt>
      <trkpt lat="45.90805" lon="4.70133">
        <ele>219</ele>
        <time>2018-02-24T10:46:56Z</time>
      </trkpt>
      <trkpt lat="45.90797" lon="4.70133">
        <ele>219</ele>
        <time>2018-02-24T10:46:58Z</time>
      </trkpt>
      <trkpt lat="45.90793" lon="4.70133">
        <ele>219</ele>
        <time>2018-02-24T10:46:59Z</time>
      </trkpt>
      <trkpt lat="45.90784" lon="4.70133">
        <ele>219</ele>
        <time>2018-02-24T10:47:01Z</time>
      </trkpt>
      <trkpt lat="45.90779" lon="4.70134">
        <ele>219</ele>
        <time>2018-02-24T10:47:02Z</time>
      </trkpt>
      <trkpt lat="45.90774" lon="4.70135">
        <ele>219</ele>
        <time>2018-02-24T10:47:03Z</time>
      </trkpt>
      <trkpt lat="45.9077" lon="4.70135">
        <ele>219</ele>
        <time>2018-02-24T10:47:04Z</time>
      </trkpt>
      <trkpt lat="45.90762" lon="4.70134">
        <ele>219</ele>
        <time>2018-02-24T10:47:06Z</time>
      </trkpt>
      <trkpt lat="45.90758" lon="4.70134">
        <ele>219</ele>
        <time>2018-02-24T10:47:07Z</time>
      </trkpt>
      <trkpt lat="45.90751" lon="4.70135">
        <ele>219</ele>
        <time>2018-02-24T10:47:08Z</time>
      </trkpt>
      <trkpt lat="45.90747" lon="4.70135">
        <ele>220</ele>
        <time>2018-02-24T10:47:09Z</time>
      </trkpt>
      <trkpt lat="45.90739" lon="4.70136">
        <ele>220</ele>
        <time>2018-02-24T10:47:11Z</time>
      </trkpt>
      <trkpt lat="45.90735" lon="4.70135">
        <ele>220</ele>
        <time>2018-02-24T10:47:12Z</time>
      </trkpt>
      <trkpt lat="45.90728" lon="4.70133">
        <ele>221</ele>
        <time>2018-02-24T10:47:14Z</time>
      </trkpt>
      <trkpt lat="45.90725" lon="4.70131">
        <ele>221</ele>
        <time>2018-02-24T10:47:15Z</time>
      </trkpt>
      <trkpt lat="45.90717" lon="4.70126">
        <ele>221</ele>
        <time>2018-02-24T10:47:17Z</time>
      </trkpt>
      <trkpt lat="45.90712" lon="4.70124">
        <ele>221</ele>
        <time>2018-02-24T10:47:18Z</time>
      </trkpt>
      <trkpt lat="45.90705" lon="4.70119">
        <ele>221</ele>
        <time>2018-02-24T10:47:20Z</time>
      </trkpt>
      <trkpt lat="45.90702" lon="4.70117">
        <ele>221</ele>
        <time>2018-02-24T10:47:21Z</time>
      </trkpt>
      <trkpt lat="45.90694" lon="4.70114">
        <ele>221</ele>
        <time>2018-02-24T10:47:23Z</time>
      </trkpt>
      <trkpt lat="45.90689" lon="4.70113">
        <ele>222</ele>
        <time>2018-02-24T10:47:24Z</time>
      </trkpt>
      <trkpt lat="45.90683" lon="4.70117">
        <ele>221</ele>
        <time>2018-02-24T10:47:25Z</time>
      </trkpt>
      <trkpt lat="45.90678" lon="4.70116">
        <ele>222</ele>
        <time>2018-02-24T10:47:26Z</time>
      </trkpt>
      <trkpt lat="45.90673" lon="4.70114">
        <ele>222</ele>
        <time>2018-02-24T10:47:27Z</time>
      </trkpt>
      <trkpt lat="45.90669" lon="4.70111">
        <ele>222</ele>
        <time>2018-02-24T10:47:28Z</time>
      </trkpt>
      <trkpt lat="45.90662" lon="4.70106">
        <ele>222</ele>
        <time>2018-02-24T10:47:30Z</time>
      </trkpt>
      <trkpt lat="45.90658" lon="4.70103">
        <ele>222</ele>
        <time>2018-02-24T10:47:31Z</time>
      </trkpt>
      <trkpt lat="45.9065" lon="4.70099">
        <ele>222</ele>
        <time>2018-02-24T10:47:33Z</time>
      </trkpt>
      <trkpt lat="45.90646" lon="4.70096">
        <ele>222</ele>
        <time>2018-02-24T10:47:34Z</time>
      </trkpt>
      <trkpt lat="45.90639" lon="4.70091">
        <ele>221</ele>
        <time>2018-02-24T10:47:36Z</time>
      </trkpt>
      <trkpt lat="45.90635" lon="4.70088">
        <ele>221</ele>
        <time>2018-02-24T10:47:37Z</time>
      </trkpt>
      <trkpt lat="45.90627" lon="4.70084">
        <ele>221</ele>
        <time>2018-02-24T10:47:39Z</time>
      </trkpt>
      <trkpt lat="45.90623" lon="4.70082">
        <ele>224</ele>
        <time>2018-02-24T10:47:40Z</time>
      </trkpt>
      <trkpt lat="45.90616" lon="4.70078">
        <ele>224</ele>
        <time>2018-02-24T10:47:42Z</time>
      </trkpt>
      <trkpt lat="45.90612" lon="4.70076">
        <ele>224</ele>
        <time>2018-02-24T10:47:43Z</time>
      </trkpt>
      <trkpt lat="45.90604" lon="4.70072">
        <ele>223</ele>
        <time>2018-02-24T10:47:45Z</time>
      </trkpt>
      <trkpt lat="45.906" lon="4.70069">
        <ele>223</ele>
        <time>2018-02-24T10:47:46Z</time>
      </trkpt>
      <trkpt lat="45.90593" lon="4.70065">
        <ele>223</ele>
        <time>2018-02-24T10:47:48Z</time>
      </trkpt>
      <trkpt lat="45.90589" lon="4.70063">
        <ele>223</ele>
        <time>2018-02-24T10:47:49Z</time>
      </trkpt>
      <trkpt lat="45.90581" lon="4.70059">
        <ele>223</ele>
        <time>2018-02-24T10:47:51Z</time>
      </trkpt>
      <trkpt lat="45.90578" lon="4.70057">
        <ele>223</ele>
        <time>2018-02-24T10:47:52Z</time>
      </trkpt>
      <trkpt lat="45.9057" lon="4.70053">
        <ele>223</ele>
        <time>2018-02-24T10:47:54Z</time>
      </trkpt>
      <trkpt lat="45.90566" lon="4.70051">
        <ele>224</ele>
        <time>2018-02-24T10:47:55Z</time>
      </trkpt>
      <trkpt lat="45.90559" lon="4.70047">
        <ele>224</ele>
        <time>2018-02-24T10:47:57Z</time>
      </trkpt>
      <trkpt lat="45.90555" lon="4.70045">
        <ele>224</ele>
        <time>2018-02-24T10:47:58Z</time>
      </trkpt>
      <trkpt lat="45.90547" lon="4.70041">
        <ele>224</ele>
        <time>2018-02-24T10:48:00Z</time>
      </trkpt>
      <trkpt lat="45.90543" lon="4.7004">
        <ele>224</ele>
        <time>2018-02-24T10:48:01Z</time>
      </trkpt>
      <trkpt lat="45.90539" lon="4.70038">
        <ele>224</ele>
        <time>2018-02-24T10:48:02Z</time>
      </trkpt>
      <trkpt lat="45.90534" lon="4.70037">
        <ele>224</ele>
        <time>2018-02-24T10:48:03Z</time>
      </trkpt>
      <trkpt lat="45.90529" lon="4.70036">
        <ele>224</ele>
        <time>2018-02-24T10:48:04Z</time>
      </trkpt>
      <trkpt lat="45.90525" lon="4.70035">
        <ele>224</ele>
        <time>2018-02-24T10:48:05Z</time>
      </trkpt>
      <trkpt lat="45.9052" lon="4.70034">
        <ele>224</ele>
        <time>2018-02-24T10:48:06Z</time>
      </trkpt>
      <trkpt lat="45.90516" lon="4.70033">
        <ele>224</ele>
        <time>2018-02-24T10:48:07Z</time>
      </trkpt>
      <trkpt lat="45.90511" lon="4.70032">
        <ele>224</ele>
        <time>2018-02-24T10:48:08Z</time>
      </trkpt>
      <trkpt lat="45.90506" lon="4.70031">
        <ele>225</ele>
        <time>2018-02-24T10:48:09Z</time>
      </trkpt>
      <trkpt lat="45.90501" lon="4.70031">
        <ele>225</ele>
        <time>2018-02-24T10:48:10Z</time>
      </trkpt>
      <trkpt lat="45.90496" lon="4.7003">
        <ele>225</ele>
        <time>2018-02-24T10:48:11Z</time>
      </trkpt>
      <trkpt lat="45.90491" lon="4.70028">
        <ele>225</ele>
        <time>2018-02-24T10:48:12Z</time>
      </trkpt>
      <trkpt lat="45.90486" lon="4.70028">
        <ele>225</ele>
        <time>2018-02-24T10:48:13Z</time>
      </trkpt>
      <trkpt lat="45.90477" lon="4.70028">
        <ele>225</ele>
        <time>2018-02-24T10:48:15Z</time>
      </trkpt>
      <trkpt lat="45.90472" lon="4.70027">
        <ele>225</ele>
        <time>2018-02-24T10:48:16Z</time>
      </trkpt>
      <trkpt lat="45.90467" lon="4.70027">
        <ele>225</ele>
        <time>2018-02-24T10:48:17Z</time>
      </trkpt>
      <trkpt lat="45.90463" lon="4.70026">
        <ele>225</ele>
        <time>2018-02-24T10:48:18Z</time>
      </trkpt>
      <trkpt lat="45.90454" lon="4.70026">
        <ele>225</ele>
        <time>2018-02-24T10:48:20Z</time>
      </trkpt>
      <trkpt lat="45.9045" lon="4.70025">
        <ele>225</ele>
        <time>2018-02-24T10:48:21Z</time>
      </trkpt>
      <trkpt lat="45.90445" lon="4.70025">
        <ele>225</ele>
        <time>2018-02-24T10:48:22Z</time>
      </trkpt>
      <trkpt lat="45.9044" lon="4.70025">
        <ele>225</ele>
        <time>2018-02-24T10:48:23Z</time>
      </trkpt>
      <trkpt lat="45.90432" lon="4.70024">
        <ele>226</ele>
        <time>2018-02-24T10:48:25Z</time>
      </trkpt>
      <trkpt lat="45.90428" lon="4.70023">
        <ele>226</ele>
        <time>2018-02-24T10:48:26Z</time>
      </trkpt>
      <trkpt lat="45.90424" lon="4.70023">
        <ele>226</ele>
        <time>2018-02-24T10:48:27Z</time>
      </trkpt>
      <trkpt lat="45.90419" lon="4.70024">
        <ele>226</ele>
        <time>2018-02-24T10:48:28Z</time>
      </trkpt>
      <trkpt lat="45.90414" lon="4.70025">
        <ele>226</ele>
        <time>2018-02-24T10:48:29Z</time>
      </trkpt>
      <trkpt lat="45.90409" lon="4.70026">
        <ele>225</ele>
        <time>2018-02-24T10:48:30Z</time>
      </trkpt>
      <trkpt lat="45.90404" lon="4.70026">
        <ele>225</ele>
        <time>2018-02-24T10:48:31Z</time>
      </trkpt>
      <trkpt lat="45.90399" lon="4.70025">
        <ele>225</ele>
        <time>2018-02-24T10:48:32Z</time>
      </trkpt>
      <trkpt lat="45.9039" lon="4.70025">
        <ele>225</ele>
        <time>2018-02-24T10:48:34Z</time>
      </trkpt>
      <trkpt lat="45.90385" lon="4.70026">
        <ele>225</ele>
        <time>2018-02-24T10:48:35Z</time>
      </trkpt>
      <trkpt lat="45.90381" lon="4.70027">
        <ele>225</ele>
        <time>2018-02-24T10:48:36Z</time>
      </trkpt>
      <trkpt lat="45.90376" lon="4.70027">
        <ele>225</ele>
        <time>2018-02-24T10:48:37Z</time>
      </trkpt>
      <trkpt lat="45.90371" lon="4.70028">
        <ele>225</ele>
        <time>2018-02-24T10:48:38Z</time>
      </trkpt>
      <trkpt lat="45.90365" lon="4.70028">
        <ele>225</ele>
        <time>2018-02-24T10:48:39Z</time>
      </trkpt>
      <trkpt lat="45.9036" lon="4.70029">
        <ele>225</ele>
        <time>2018-02-24T10:48:40Z</time>
      </trkpt>
      <trkpt lat="45.90355" lon="4.7003">
        <ele>225</ele>
        <time>2018-02-24T10:48:41Z</time>
      </trkpt>
      <trkpt lat="45.9035" lon="4.70032">
        <ele>224</ele>
        <time>2018-02-24T10:48:42Z</time>
      </trkpt>
      <trkpt lat="45.90346" lon="4.70033">
        <ele>224</ele>
        <time>2018-02-24T10:48:43Z</time>
      </trkpt>
      <trkpt lat="45.90341" lon="4.70034">
        <ele>224</ele>
        <time>2018-02-24T10:48:44Z</time>
      </trkpt>
      <trkpt lat="45.90336" lon="4.70035">
        <ele>224</ele>
        <time>2018-02-24T10:48:45Z</time>
      </trkpt>
      <trkpt lat="45.90331" lon="4.70038">
        <ele>224</ele>
        <time>2018-02-24T10:48:46Z</time>
      </trkpt>
      <trkpt lat="45.90324" lon="4.70039">
        <ele>224</ele>
        <time>2018-02-24T10:48:47Z</time>
      </trkpt>
      <trkpt lat="45.90319" lon="4.70041">
        <ele>224</ele>
        <time>2018-02-24T10:48:48Z</time>
      </trkpt>
      <trkpt lat="45.90314" lon="4.70041">
        <ele>224</ele>
        <time>2018-02-24T10:48:49Z</time>
      </trkpt>
      <trkpt lat="45.90305" lon="4.70042">
        <ele>224</ele>
        <time>2018-02-24T10:48:51Z</time>
      </trkpt>
      <trkpt lat="45.903" lon="4.70043">
        <ele>224</ele>
        <time>2018-02-24T10:48:52Z</time>
      </trkpt>
      <trkpt lat="45.90296" lon="4.70044">
        <ele>224</ele>
        <time>2018-02-24T10:48:53Z</time>
      </trkpt>
      <trkpt lat="45.90291" lon="4.70045">
        <ele>224</ele>
        <time>2018-02-24T10:48:54Z</time>
      </trkpt>
      <trkpt lat="45.90282" lon="4.70047">
        <ele>224</ele>
        <time>2018-02-24T10:48:56Z</time>
      </trkpt>
      <trkpt lat="45.90277" lon="4.70047">
        <ele>224</ele>
        <time>2018-02-24T10:48:57Z</time>
      </trkpt>
      <trkpt lat="45.90273" lon="4.70047">
        <ele>225</ele>
        <time>2018-02-24T10:48:58Z</time>
      </trkpt>
      <trkpt lat="45.90267" lon="4.70049">
        <ele>224</ele>
        <time>2018-02-24T10:48:59Z</time>
      </trkpt>
      <trkpt lat="45.90261" lon="4.70051">
        <ele>224</ele>
        <time>2018-02-24T10:49:00Z</time>
      </trkpt>
      <trkpt lat="45.90256" lon="4.70051">
        <ele>224</ele>
        <time>2018-02-24T10:49:01Z</time>
      </trkpt>
      <trkpt lat="45.9025" lon="4.70053">
        <ele>225</ele>
        <time>2018-02-24T10:49:02Z</time>
      </trkpt>
      <trkpt lat="45.90244" lon="4.70055">
        <ele>225</ele>
        <time>2018-02-24T10:49:03Z</time>
      </trkpt>
      <trkpt lat="45.90238" lon="4.70057">
        <ele>225</ele>
        <time>2018-02-24T10:49:04Z</time>
      </trkpt>
      <trkpt lat="45.90233" lon="4.70058">
        <ele>225</ele>
        <time>2018-02-24T10:49:05Z</time>
      </trkpt>
      <trkpt lat="45.90228" lon="4.70059">
        <ele>225</ele>
        <time>2018-02-24T10:49:06Z</time>
      </trkpt>
      <trkpt lat="45.90223" lon="4.7006">
        <ele>226</ele>
        <time>2018-02-24T10:49:07Z</time>
      </trkpt>
      <trkpt lat="45.90218" lon="4.70061">
        <ele>226</ele>
        <time>2018-02-24T10:49:08Z</time>
      </trkpt>
      <trkpt lat="45.90214" lon="4.70061">
        <ele>226</ele>
        <time>2018-02-24T10:49:09Z</time>
      </trkpt>
      <trkpt lat="45.90209" lon="4.70063">
        <ele>226</ele>
        <time>2018-02-24T10:49:10Z</time>
      </trkpt>
      <trkpt lat="45.90204" lon="4.70064">
        <ele>226</ele>
        <time>2018-02-24T10:49:11Z</time>
      </trkpt>
      <trkpt lat="45.90199" lon="4.70065">
        <ele>226</ele>
        <time>2018-02-24T10:49:12Z</time>
      </trkpt>
      <trkpt lat="45.90194" lon="4.70066">
        <ele>226</ele>
        <time>2018-02-24T10:49:13Z</time>
      </trkpt>
      <trkpt lat="45.90189" lon="4.70065">
        <ele>226</ele>
        <time>2018-02-24T10:49:14Z</time>
      </trkpt>
      <trkpt lat="45.90182" lon="4.70065">
        <ele>226</ele>
        <time>2018-02-24T10:49:15Z</time>
      </trkpt>
      <trkpt lat="45.90177" lon="4.70067">
        <ele>226</ele>
        <time>2018-02-24T10:49:16Z</time>
      </trkpt>
      <trkpt lat="45.90172" lon="4.70067">
        <ele>226</ele>
        <time>2018-02-24T10:49:17Z</time>
      </trkpt>
      <trkpt lat="45.90163" lon="4.70068">
        <ele>226</ele>
        <time>2018-02-24T10:49:19Z</time>
      </trkpt>
      <trkpt lat="45.90158" lon="4.70068">
        <ele>226</ele>
        <time>2018-02-24T10:49:20Z</time>
      </trkpt>
      <trkpt lat="45.90153" lon="4.70068">
        <ele>226</ele>
        <time>2018-02-24T10:49:21Z</time>
      </trkpt>
      <trkpt lat="45.90148" lon="4.70068">
        <ele>226</ele>
        <time>2018-02-24T10:49:22Z</time>
      </trkpt>
      <trkpt lat="45.90143" lon="4.70069">
        <ele>226</ele>
        <time>2018-02-24T10:49:23Z</time>
      </trkpt>
      <trkpt lat="45.90138" lon="4.7007">
        <ele>226</ele>
        <time>2018-02-24T10:49:24Z</time>
      </trkpt>
      <trkpt lat="45.90132" lon="4.70072">
        <ele>226</ele>
        <time>2018-02-24T10:49:25Z</time>
      </trkpt>
      <trkpt lat="45.90127" lon="4.70073">
        <ele>226</ele>
        <time>2018-02-24T10:49:26Z</time>
      </trkpt>
      <trkpt lat="45.90122" lon="4.70074">
        <ele>226</ele>
        <time>2018-02-24T10:49:27Z</time>
      </trkpt>
      <trkpt lat="45.90117" lon="4.70075">
        <ele>226</ele>
        <time>2018-02-24T10:49:28Z</time>
      </trkpt>
      <trkpt lat="45.90109" lon="4.70076">
        <ele>226</ele>
        <time>2018-02-24T10:49:30Z</time>
      </trkpt>
      <trkpt lat="45.90105" lon="4.70077">
        <ele>226</ele>
        <time>2018-02-24T10:49:31Z</time>
      </trkpt>
      <trkpt lat="45.901" lon="4.70078">
        <ele>225</ele>
        <time>2018-02-24T10:49:32Z</time>
      </trkpt>
      <trkpt lat="45.90095" lon="4.70078">
        <ele>225</ele>
        <time>2018-02-24T10:49:33Z</time>
      </trkpt>
      <trkpt lat="45.9009" lon="4.70079">
        <ele>225</ele>
        <time>2018-02-24T10:49:34Z</time>
      </trkpt>
      <trkpt lat="45.90084" lon="4.7008">
        <ele>224</ele>
        <time>2018-02-24T10:49:35Z</time>
      </trkpt>
      <trkpt lat="45.90079" lon="4.7008">
        <ele>224</ele>
        <time>2018-02-24T10:49:36Z</time>
      </trkpt>
      <trkpt lat="45.90073" lon="4.7008">
        <ele>225</ele>
        <time>2018-02-24T10:49:37Z</time>
      </trkpt>
      <trkpt lat="45.90068" lon="4.70082">
        <ele>225</ele>
        <time>2018-02-24T10:49:38Z</time>
      </trkpt>
      <trkpt lat="45.90061" lon="4.70083">
        <ele>225</ele>
        <time>2018-02-24T10:49:39Z</time>
      </trkpt>
      <trkpt lat="45.90056" lon="4.70082">
        <ele>225</ele>
        <time>2018-02-24T10:49:40Z</time>
      </trkpt>
      <trkpt lat="45.9005" lon="4.70083">
        <ele>225</ele>
        <time>2018-02-24T10:49:41Z</time>
      </trkpt>
      <trkpt lat="45.90044" lon="4.70083">
        <ele>225</ele>
        <time>2018-02-24T10:49:42Z</time>
      </trkpt>
      <trkpt lat="45.90037" lon="4.70083">
        <ele>225</ele>
        <time>2018-02-24T10:49:43Z</time>
      </trkpt>
      <trkpt lat="45.90032" lon="4.70082">
        <ele>224</ele>
        <time>2018-02-24T10:49:44Z</time>
      </trkpt>
      <trkpt lat="45.90026" lon="4.70081">
        <ele>224</ele>
        <time>2018-02-24T10:49:45Z</time>
      </trkpt>
      <trkpt lat="45.90019" lon="4.70081">
        <ele>224</ele>
        <time>2018-02-24T10:49:46Z</time>
      </trkpt>
      <trkpt lat="45.90014" lon="4.7008">
        <ele>224</ele>
        <time>2018-02-24T10:49:47Z</time>
      </trkpt>
      <trkpt lat="45.90008" lon="4.70079">
        <ele>223</ele>
        <time>2018-02-24T10:49:48Z</time>
      </trkpt>
      <trkpt lat="45.90002" lon="4.70079">
        <ele>223</ele>
        <time>2018-02-24T10:49:49Z</time>
      </trkpt>
      <trkpt lat="45.89996" lon="4.70079">
        <ele>222</ele>
        <time>2018-02-24T10:49:50Z</time>
      </trkpt>
      <trkpt lat="45.8999" lon="4.70079">
        <ele>222</ele>
        <time>2018-02-24T10:49:51Z</time>
      </trkpt>
      <trkpt lat="45.89984" lon="4.70079">
        <ele>223</ele>
        <time>2018-02-24T10:49:52Z</time>
      </trkpt>
      <trkpt lat="45.89979" lon="4.70078">
        <ele>223</ele>
        <time>2018-02-24T10:49:53Z</time>
      </trkpt>
      <trkpt lat="45.89972" lon="4.70078">
        <ele>223</ele>
        <time>2018-02-24T10:49:54Z</time>
      </trkpt>
      <trkpt lat="45.89965" lon="4.70078">
        <ele>223</ele>
        <time>2018-02-24T10:49:55Z</time>
      </trkpt>
      <trkpt lat="45.89959" lon="4.70078">
        <ele>223</ele>
        <time>2018-02-24T10:49:56Z</time>
      </trkpt>
      <trkpt lat="45.89955" lon="4.70078">
        <ele>223</ele>
        <time>2018-02-24T10:49:57Z</time>
      </trkpt>
      <trkpt lat="45.89948" lon="4.70077">
        <ele>222</ele>
        <time>2018-02-24T10:49:58Z</time>
      </trkpt>
      <trkpt lat="45.89942" lon="4.70076">
        <ele>222</ele>
        <time>2018-02-24T10:49:59Z</time>
      </trkpt>
      <trkpt lat="45.89937" lon="4.70076">
        <ele>222</ele>
        <time>2018-02-24T10:50:00Z</time>
      </trkpt>
      <trkpt lat="45.8993" lon="4.70076">
        <ele>222</ele>
        <time>2018-02-24T10:50:01Z</time>
      </trkpt>
      <trkpt lat="45.89924" lon="4.70076">
        <ele>222</ele>
        <time>2018-02-24T10:50:02Z</time>
      </trkpt>
      <trkpt lat="45.89919" lon="4.70075">
        <ele>222</ele>
        <time>2018-02-24T10:50:03Z</time>
      </trkpt>
      <trkpt lat="45.89914" lon="4.70075">
        <ele>221</ele>
        <time>2018-02-24T10:50:04Z</time>
      </trkpt>
      <trkpt lat="45.89908" lon="4.70074">
        <ele>221</ele>
        <time>2018-02-24T10:50:05Z</time>
      </trkpt>
      <trkpt lat="45.89903" lon="4.70073">
        <ele>221</ele>
        <time>2018-02-24T10:50:06Z</time>
      </trkpt>
      <trkpt lat="45.89896" lon="4.70073">
        <ele>221</ele>
        <time>2018-02-24T10:50:07Z</time>
      </trkpt>
      <trkpt lat="45.89891" lon="4.70074">
        <ele>221</ele>
        <time>2018-02-24T10:50:08Z</time>
      </trkpt>
      <trkpt lat="45.89886" lon="4.70074">
        <ele>221</ele>
        <time>2018-02-24T10:50:09Z</time>
      </trkpt>
      <trkpt lat="45.8988" lon="4.70074">
        <ele>221</ele>
        <time>2018-02-24T10:50:10Z</time>
      </trkpt>
      <trkpt lat="45.89876" lon="4.70073">
        <ele>221</ele>
        <time>2018-02-24T10:50:11Z</time>
      </trkpt>
      <trkpt lat="45.8987" lon="4.70074">
        <ele>221</ele>
        <time>2018-02-24T10:50:12Z</time>
      </trkpt>
      <trkpt lat="45.89865" lon="4.70072">
        <ele>221</ele>
        <time>2018-02-24T10:50:13Z</time>
      </trkpt>
      <trkpt lat="45.89857" lon="4.70071">
        <ele>221</ele>
        <time>2018-02-24T10:50:16Z</time>
      </trkpt>
      <trkpt lat="45.89855" lon="4.70071">
        <ele>221</ele>
        <time>2018-02-24T10:50:17Z</time>
      </trkpt>
      <trkpt lat="45.89846" lon="4.70068">
        <ele>221</ele>
        <time>2018-02-24T10:50:24Z</time>
      </trkpt>
      <trkpt lat="45.89846" lon="4.70068">
        <ele>221</ele>
        <time>2018-02-24T10:50:25Z</time>
      </trkpt>
      <trkpt lat="45.89837" lon="4.7007">
        <ele>221</ele>
        <time>2018-02-24T10:50:37Z</time>
      </trkpt>
      <trkpt lat="45.89829" lon="4.7007">
        <ele>221</ele>
        <time>2018-02-24T10:50:38Z</time>
      </trkpt>
      <trkpt lat="45.89821" lon="4.7007">
        <ele>221</ele>
        <time>2018-02-24T10:50:40Z</time>
      </trkpt>
      <trkpt lat="45.89816" lon="4.70071">
        <ele>221</ele>
        <time>2018-02-24T10:50:41Z</time>
      </trkpt>
      <trkpt lat="45.89812" lon="4.7007">
        <ele>221</ele>
        <time>2018-02-24T10:50:42Z</time>
      </trkpt>
      <trkpt lat="45.89807" lon="4.70068">
        <ele>221</ele>
        <time>2018-02-24T10:50:43Z</time>
      </trkpt>
      <trkpt lat="45.89802" lon="4.70068">
        <ele>221</ele>
        <time>2018-02-24T10:50:44Z</time>
      </trkpt>
      <trkpt lat="45.89797" lon="4.70067">
        <ele>221</ele>
        <time>2018-02-24T10:50:45Z</time>
      </trkpt>
      <trkpt lat="45.89791" lon="4.70066">
        <ele>221</ele>
        <time>2018-02-24T10:50:46Z</time>
      </trkpt>
      <trkpt lat="45.89786" lon="4.70066">
        <ele>221</ele>
        <time>2018-02-24T10:50:47Z</time>
      </trkpt>
      <trkpt lat="45.89779" lon="4.70067">
        <ele>221</ele>
        <time>2018-02-24T10:50:48Z</time>
      </trkpt>
      <trkpt lat="45.89775" lon="4.70067">
        <ele>221</ele>
        <time>2018-02-24T10:50:49Z</time>
      </trkpt>
      <trkpt lat="45.8977" lon="4.70067">
        <ele>220</ele>
        <time>2018-02-24T10:50:50Z</time>
      </trkpt>
      <trkpt lat="45.89765" lon="4.70067">
        <ele>220</ele>
        <time>2018-02-24T10:50:51Z</time>
      </trkpt>
      <trkpt lat="45.8976" lon="4.70066">
        <ele>220</ele>
        <time>2018-02-24T10:50:52Z</time>
      </trkpt>
      <trkpt lat="45.89756" lon="4.70066">
        <ele>220</ele>
        <time>2018-02-24T10:50:53Z</time>
      </trkpt>
      <trkpt lat="45.89751" lon="4.70065">
        <ele>220</ele>
        <time>2018-02-24T10:50:54Z</time>
      </trkpt>
      <trkpt lat="45.89745" lon="4.70064">
        <ele>221</ele>
        <time>2018-02-24T10:50:55Z</time>
      </trkpt>
      <trkpt lat="45.8974" lon="4.70063">
        <ele>221</ele>
        <time>2018-02-24T10:50:56Z</time>
      </trkpt>
      <trkpt lat="45.89735" lon="4.70062">
        <ele>221</ele>
        <time>2018-02-24T10:50:57Z</time>
      </trkpt>
      <trkpt lat="45.8973" lon="4.70061">
        <ele>221</ele>
        <time>2018-02-24T10:50:58Z</time>
      </trkpt>
      <trkpt lat="45.89725" lon="4.70061">
        <ele>221</ele>
        <time>2018-02-24T10:50:59Z</time>
      </trkpt>
      <trkpt lat="45.89716" lon="4.70059">
        <ele>221</ele>
        <time>2018-02-24T10:51:01Z</time>
      </trkpt>
      <trkpt lat="45.89711" lon="4.70058">
        <ele>221</ele>
        <time>2018-02-24T10:51:02Z</time>
      </trkpt>
      <trkpt lat="45.89707" lon="4.70056">
        <ele>221</ele>
        <time>2018-02-24T10:51:03Z</time>
      </trkpt>
      <trkpt lat="45.89702" lon="4.70056">
        <ele>222</ele>
        <time>2018-02-24T10:51:04Z</time>
      </trkpt>
      <trkpt lat="45.89697" lon="4.70055">
        <ele>222</ele>
        <time>2018-02-24T10:51:05Z</time>
      </trkpt>
      <trkpt lat="45.89692" lon="4.70054">
        <ele>222</ele>
        <time>2018-02-24T10:51:06Z</time>
      </trkpt>
      <trkpt lat="45.89687" lon="4.70052">
        <ele>222</ele>
        <time>2018-02-24T10:51:07Z</time>
      </trkpt>
      <trkpt lat="45.89682" lon="4.70052">
        <ele>222</ele>
        <time>2018-02-24T10:51:08Z</time>
      </trkpt>
      <trkpt lat="45.89674" lon="4.70049">
        <ele>222</ele>
        <time>2018-02-24T10:51:10Z</time>
      </trkpt>
      <trkpt lat="45.89669" lon="4.70048">
        <ele>222</ele>
        <time>2018-02-24T10:51:11Z</time>
      </trkpt>
      <trkpt lat="45.89662" lon="4.70045">
        <ele>222</ele>
        <time>2018-02-24T10:51:13Z</time>
      </trkpt>
      <trkpt lat="45.89656" lon="4.70045">
        <ele>222</ele>
        <time>2018-02-24T10:51:14Z</time>
      </trkpt>
      <trkpt lat="45.89652" lon="4.70045">
        <ele>222</ele>
        <time>2018-02-24T10:51:15Z</time>
      </trkpt>
      <trkpt lat="45.89647" lon="4.70044">
        <ele>222</ele>
        <time>2018-02-24T10:51:16Z</time>
      </trkpt>
      <trkpt lat="45.89638" lon="4.70042">
        <ele>222</ele>
        <time>2018-02-24T10:51:18Z</time>
      </trkpt>
      <trkpt lat="45.89633" lon="4.70041">
        <ele>222</ele>
        <time>2018-02-24T10:51:19Z</time>
      </trkpt>
      <trkpt lat="45.89624" lon="4.70041">
        <ele>222</ele>
        <time>2018-02-24T10:51:21Z</time>
      </trkpt>
      <trkpt lat="45.89619" lon="4.70039">
        <ele>222</ele>
        <time>2018-02-24T10:51:22Z</time>
      </trkpt>
      <trkpt lat="45.89614" lon="4.70038">
        <ele>222</ele>
        <time>2018-02-24T10:51:23Z</time>
      </trkpt>
      <trkpt lat="45.89609" lon="4.70037">
        <ele>222</ele>
        <time>2018-02-24T10:51:24Z</time>
      </trkpt>
      <trkpt lat="45.89604" lon="4.70037">
        <ele>222</ele>
        <time>2018-02-24T10:51:25Z</time>
      </trkpt>
      <trkpt lat="45.89599" lon="4.70036">
        <ele>222</ele>
        <time>2018-02-24T10:51:26Z</time>
      </trkpt>
      <trkpt lat="45.89595" lon="4.70035">
        <ele>222</ele>
        <time>2018-02-24T10:51:27Z</time>
      </trkpt>
      <trkpt lat="45.8959" lon="4.70034">
        <ele>222</ele>
        <time>2018-02-24T10:51:28Z</time>
      </trkpt>
      <trkpt lat="45.89581" lon="4.70032">
        <ele>222</ele>
        <time>2018-02-24T10:51:30Z</time>
      </trkpt>
      <trkpt lat="45.89577" lon="4.70031">
        <ele>222</ele>
        <time>2018-02-24T10:51:31Z</time>
      </trkpt>
      <trkpt lat="45.89568" lon="4.7003">
        <ele>222</ele>
        <time>2018-02-24T10:51:33Z</time>
      </trkpt>
      <trkpt lat="45.89564" lon="4.70029">
        <ele>222</ele>
        <time>2018-02-24T10:51:34Z</time>
      </trkpt>
      <trkpt lat="45.89556" lon="4.70028">
        <ele>222</ele>
        <time>2018-02-24T10:51:36Z</time>
      </trkpt>
      <trkpt lat="45.89552" lon="4.70026">
        <ele>222</ele>
        <time>2018-02-24T10:51:37Z</time>
      </trkpt>
      <trkpt lat="45.89544" lon="4.70024">
        <ele>223</ele>
        <time>2018-02-24T10:51:39Z</time>
      </trkpt>
      <trkpt lat="45.8954" lon="4.70024">
        <ele>223</ele>
        <time>2018-02-24T10:51:40Z</time>
      </trkpt>
      <trkpt lat="45.89532" lon="4.70022">
        <ele>223</ele>
        <time>2018-02-24T10:51:42Z</time>
      </trkpt>
      <trkpt lat="45.89527" lon="4.70021">
        <ele>223</ele>
        <time>2018-02-24T10:51:43Z</time>
      </trkpt>
      <trkpt lat="45.89519" lon="4.7002">
        <ele>223</ele>
        <time>2018-02-24T10:51:45Z</time>
      </trkpt>
      <trkpt lat="45.89515" lon="4.70019">
        <ele>223</ele>
        <time>2018-02-24T10:51:46Z</time>
      </trkpt>
      <trkpt lat="45.89507" lon="4.70017">
        <ele>224</ele>
        <time>2018-02-24T10:51:48Z</time>
      </trkpt>
      <trkpt lat="45.89503" lon="4.70017">
        <ele>224</ele>
        <time>2018-02-24T10:51:49Z</time>
      </trkpt>
      <trkpt lat="45.89494" lon="4.70015">
        <ele>225</ele>
        <time>2018-02-24T10:51:51Z</time>
      </trkpt>
      <trkpt lat="45.8949" lon="4.70015">
        <ele>225</ele>
        <time>2018-02-24T10:51:52Z</time>
      </trkpt>
      <trkpt lat="45.89481" lon="4.70013">
        <ele>225</ele>
        <time>2018-02-24T10:51:54Z</time>
      </trkpt>
      <trkpt lat="45.89476" lon="4.70013">
        <ele>225</ele>
        <time>2018-02-24T10:51:55Z</time>
      </trkpt>
      <trkpt lat="45.89468" lon="4.70011">
        <ele>225</ele>
        <time>2018-02-24T10:51:57Z</time>
      </trkpt>
      <trkpt lat="45.89463" lon="4.7001">
        <ele>225</ele>
        <time>2018-02-24T10:51:58Z</time>
      </trkpt>
      <trkpt lat="45.89455" lon="4.70009">
        <ele>225</ele>
        <time>2018-02-24T10:52:00Z</time>
      </trkpt>
      <trkpt lat="45.89451" lon="4.70008">
        <ele>225</ele>
        <time>2018-02-24T10:52:01Z</time>
      </trkpt>
      <trkpt lat="45.89443" lon="4.70006">
        <ele>225</ele>
        <time>2018-02-24T10:52:03Z</time>
      </trkpt>
      <trkpt lat="45.89438" lon="4.70006">
        <ele>225</ele>
        <time>2018-02-24T10:52:04Z</time>
      </trkpt>
      <trkpt lat="45.89431" lon="4.70004">
        <ele>226</ele>
        <time>2018-02-24T10:52:06Z</time>
      </trkpt>
      <trkpt lat="45.89427" lon="4.70002">
        <ele>226</ele>
        <time>2018-02-24T10:52:07Z</time>
      </trkpt>
      <trkpt lat="45.89419" lon="4.70001">
        <ele>227</ele>
        <time>2018-02-24T10:52:09Z</time>
      </trkpt>
      <trkpt lat="45.89415" lon="4.70001">
        <ele>227</ele>
        <time>2018-02-24T10:52:10Z</time>
      </trkpt>
      <trkpt lat="45.89411" lon="4.70001">
        <ele>227</ele>
        <time>2018-02-24T10:52:11Z</time>
      </trkpt>
      <trkpt lat="45.89405" lon="4.70002">
        <ele>226</ele>
        <time>2018-02-24T10:52:12Z</time>
      </trkpt>
      <trkpt lat="45.89398" lon="4.70001">
        <ele>226</ele>
        <time>2018-02-24T10:52:14Z</time>
      </trkpt>
      <trkpt lat="45.89393" lon="4.70001">
        <ele>226</ele>
        <time>2018-02-24T10:52:15Z</time>
      </trkpt>
      <trkpt lat="45.89385" lon="4.7">
        <ele>227</ele>
        <time>2018-02-24T10:52:17Z</time>
      </trkpt>
      <trkpt lat="45.89382" lon="4.69999">
        <ele>227</ele>
        <time>2018-02-24T10:52:18Z</time>
      </trkpt>
      <trkpt lat="45.89374" lon="4.69997">
        <ele>227</ele>
        <time>2018-02-24T10:52:20Z</time>
      </trkpt>
      <trkpt lat="45.89371" lon="4.69997">
        <ele>227</ele>
        <time>2018-02-24T10:52:21Z</time>
      </trkpt>
      <trkpt lat="45.89363" lon="4.69994">
        <ele>227</ele>
        <time>2018-02-24T10:52:23Z</time>
      </trkpt>
      <trkpt lat="45.89359" lon="4.69994">
        <ele>227</ele>
        <time>2018-02-24T10:52:24Z</time>
      </trkpt>
      <trkpt lat="45.89351" lon="4.69993">
        <ele>227</ele>
        <time>2018-02-24T10:52:26Z</time>
      </trkpt>
      <trkpt lat="45.89348" lon="4.69992">
        <ele>227</ele>
        <time>2018-02-24T10:52:27Z</time>
      </trkpt>
      <trkpt lat="45.8934" lon="4.69992">
        <ele>227</ele>
        <time>2018-02-24T10:52:29Z</time>
      </trkpt>
      <trkpt lat="45.89337" lon="4.69992">
        <ele>227</ele>
        <time>2018-02-24T10:52:30Z</time>
      </trkpt>
      <trkpt lat="45.89329" lon="4.69992">
        <ele>227</ele>
        <time>2018-02-24T10:52:32Z</time>
      </trkpt>
      <trkpt lat="45.89325" lon="4.69993">
        <ele>227</ele>
        <time>2018-02-24T10:52:33Z</time>
      </trkpt>
      <trkpt lat="45.89318" lon="4.69994">
        <ele>228</ele>
        <time>2018-02-24T10:52:35Z</time>
      </trkpt>
      <trkpt lat="45.89314" lon="4.69995">
        <ele>228</ele>
        <time>2018-02-24T10:52:36Z</time>
      </trkpt>
      <trkpt lat="45.89306" lon="4.69997">
        <ele>229</ele>
        <time>2018-02-24T10:52:38Z</time>
      </trkpt>
      <trkpt lat="45.89302" lon="4.69998">
        <ele>229</ele>
        <time>2018-02-24T10:52:39Z</time>
      </trkpt>
      <trkpt lat="45.89294" lon="4.70001">
        <ele>226</ele>
        <time>2018-02-24T10:52:41Z</time>
      </trkpt>
      <trkpt lat="45.8929" lon="4.70002">
        <ele>226</ele>
        <time>2018-02-24T10:52:42Z</time>
      </trkpt>
      <trkpt lat="45.89282" lon="4.70005">
        <ele>226</ele>
        <time>2018-02-24T10:52:44Z</time>
      </trkpt>
      <trkpt lat="45.89278" lon="4.70006">
        <ele>227</ele>
        <time>2018-02-24T10:52:45Z</time>
      </trkpt>
      <trkpt lat="45.89269" lon="4.70009">
        <ele>227</ele>
        <time>2018-02-24T10:52:47Z</time>
      </trkpt>
      <trkpt lat="45.89265" lon="4.7001">
        <ele>227</ele>
        <time>2018-02-24T10:52:48Z</time>
      </trkpt>
      <trkpt lat="45.89257" lon="4.70013">
        <ele>227</ele>
        <time>2018-02-24T10:52:50Z</time>
      </trkpt>
      <trkpt lat="45.89253" lon="4.70014">
        <ele>227</ele>
        <time>2018-02-24T10:52:51Z</time>
      </trkpt>
      <trkpt lat="45.89245" lon="4.70017">
        <ele>229</ele>
        <time>2018-02-24T10:52:53Z</time>
      </trkpt>
      <trkpt lat="45.89241" lon="4.70018">
        <ele>229</ele>
        <time>2018-02-24T10:52:54Z</time>
      </trkpt>
      <trkpt lat="45.89233" lon="4.70021">
        <ele>229</ele>
        <time>2018-02-24T10:52:56Z</time>
      </trkpt>
      <trkpt lat="45.89229" lon="4.70023">
        <ele>229</ele>
        <time>2018-02-24T10:52:57Z</time>
      </trkpt>
      <trkpt lat="45.89221" lon="4.70026">
        <ele>229</ele>
        <time>2018-02-24T10:52:59Z</time>
      </trkpt>
      <trkpt lat="45.89217" lon="4.70027">
        <ele>229</ele>
        <time>2018-02-24T10:53:00Z</time>
      </trkpt>
      <trkpt lat="45.89209" lon="4.7003">
        <ele>229</ele>
        <time>2018-02-24T10:53:02Z</time>
      </trkpt>
      <trkpt lat="45.89206" lon="4.70032">
        <ele>229</ele>
        <time>2018-02-24T10:53:03Z</time>
      </trkpt>
      <trkpt lat="45.89198" lon="4.70036">
        <ele>229</ele>
        <time>2018-02-24T10:53:05Z</time>
      </trkpt>
      <trkpt lat="45.89193" lon="4.70038">
        <ele>229</ele>
        <time>2018-02-24T10:53:06Z</time>
      </trkpt>
      <trkpt lat="45.89186" lon="4.70041">
        <ele>229</ele>
        <time>2018-02-24T10:53:08Z</time>
      </trkpt>
      <trkpt lat="45.89182" lon="4.70042">
        <ele>229</ele>
        <time>2018-02-24T10:53:09Z</time>
      </trkpt>
      <trkpt lat="45.89174" lon="4.70046">
        <ele>229</ele>
        <time>2018-02-24T10:53:11Z</time>
      </trkpt>
      <trkpt lat="45.8917" lon="4.70047">
        <ele>229</ele>
        <time>2018-02-24T10:53:12Z</time>
      </trkpt>
      <trkpt lat="45.89162" lon="4.7005">
        <ele>231</ele>
        <time>2018-02-24T10:53:14Z</time>
      </trkpt>
      <trkpt lat="45.89158" lon="4.70052">
        <ele>231</ele>
        <time>2018-02-24T10:53:15Z</time>
      </trkpt>
      <trkpt lat="45.89151" lon="4.70056">
        <ele>231</ele>
        <time>2018-02-24T10:53:17Z</time>
      </trkpt>
      <trkpt lat="45.89147" lon="4.70059">
        <ele>231</ele>
        <time>2018-02-24T10:53:18Z</time>
      </trkpt>
      <trkpt lat="45.89139" lon="4.70063">
        <ele>231</ele>
        <time>2018-02-24T10:53:20Z</time>
      </trkpt>
      <trkpt lat="45.89135" lon="4.70067">
        <ele>231</ele>
        <time>2018-02-24T10:53:21Z</time>
      </trkpt>
      <trkpt lat="45.89127" lon="4.70069">
        <ele>231</ele>
        <time>2018-02-24T10:53:23Z</time>
      </trkpt>
      <trkpt lat="45.89124" lon="4.70072">
        <ele>231</ele>
        <time>2018-02-24T10:53:24Z</time>
      </trkpt>
      <trkpt lat="45.89119" lon="4.70074">
        <ele>231</ele>
        <time>2018-02-24T10:53:25Z</time>
      </trkpt>
      <trkpt lat="45.89115" lon="4.70077">
        <ele>231</ele>
        <time>2018-02-24T10:53:26Z</time>
      </trkpt>
      <trkpt lat="45.8911" lon="4.70079">
        <ele>231</ele>
        <time>2018-02-24T10:53:27Z</time>
      </trkpt>
      <trkpt lat="45.89105" lon="4.70082">
        <ele>231</ele>
        <time>2018-02-24T10:53:28Z</time>
      </trkpt>
      <trkpt lat="45.89097" lon="4.70086">
        <ele>229</ele>
        <time>2018-02-24T10:53:30Z</time>
      </trkpt>
      <trkpt lat="45.89093" lon="4.70088">
        <ele>229</ele>
        <time>2018-02-24T10:53:31Z</time>
      </trkpt>
      <trkpt lat="45.89085" lon="4.70093">
        <ele>229</ele>
        <time>2018-02-24T10:53:33Z</time>
      </trkpt>
      <trkpt lat="45.89081" lon="4.70095">
        <ele>230</ele>
        <time>2018-02-24T10:53:34Z</time>
      </trkpt>
      <trkpt lat="45.89073" lon="4.701">
        <ele>230</ele>
        <time>2018-02-24T10:53:36Z</time>
      </trkpt>
      <trkpt lat="45.89069" lon="4.70102">
        <ele>231</ele>
        <time>2018-02-24T10:53:37Z</time>
      </trkpt>
      <trkpt lat="45.89062" lon="4.70107">
        <ele>231</ele>
        <time>2018-02-24T10:53:39Z</time>
      </trkpt>
      <trkpt lat="45.89058" lon="4.70109">
        <ele>231</ele>
        <time>2018-02-24T10:53:40Z</time>
      </trkpt>
      <trkpt lat="45.8905" lon="4.70114">
        <ele>231</ele>
        <time>2018-02-24T10:53:42Z</time>
      </trkpt>
      <trkpt lat="45.89046" lon="4.70116">
        <ele>231</ele>
        <time>2018-02-24T10:53:43Z</time>
      </trkpt>
      <trkpt lat="45.89039" lon="4.70121">
        <ele>231</ele>
        <time>2018-02-24T10:53:45Z</time>
      </trkpt>
      <trkpt lat="45.89035" lon="4.70123">
        <ele>231</ele>
        <time>2018-02-24T10:53:46Z</time>
      </trkpt>
      <trkpt lat="45.89027" lon="4.70128">
        <ele>232</ele>
        <time>2018-02-24T10:53:48Z</time>
      </trkpt>
      <trkpt lat="45.89023" lon="4.7013">
        <ele>232</ele>
        <time>2018-02-24T10:53:49Z</time>
      </trkpt>
      <trkpt lat="45.89016" lon="4.70134">
        <ele>232</ele>
        <time>2018-02-24T10:53:51Z</time>
      </trkpt>
      <trkpt lat="45.89011" lon="4.70136">
        <ele>232</ele>
        <time>2018-02-24T10:53:52Z</time>
      </trkpt>
      <trkpt lat="45.89007" lon="4.70139">
        <ele>232</ele>
        <time>2018-02-24T10:53:53Z</time>
      </trkpt>
      <trkpt lat="45.89003" lon="4.70141">
        <ele>232</ele>
        <time>2018-02-24T10:53:54Z</time>
      </trkpt>
      <trkpt lat="45.88998" lon="4.70144">
        <ele>236</ele>
        <time>2018-02-24T10:53:55Z</time>
      </trkpt>
      <trkpt lat="45.88993" lon="4.70147">
        <ele>236</ele>
        <time>2018-02-24T10:53:56Z</time>
      </trkpt>
      <trkpt lat="45.88988" lon="4.70151">
        <ele>236</ele>
        <time>2018-02-24T10:53:57Z</time>
      </trkpt>
      <trkpt lat="45.88984" lon="4.70153">
        <ele>236</ele>
        <time>2018-02-24T10:53:58Z</time>
      </trkpt>
      <trkpt lat="45.88976" lon="4.70157">
        <ele>236</ele>
        <time>2018-02-24T10:54:00Z</time>
      </trkpt>
      <trkpt lat="45.88972" lon="4.7016">
        <ele>237</ele>
        <time>2018-02-24T10:54:01Z</time>
      </trkpt>
      <trkpt lat="45.88968" lon="4.70163">
        <ele>237</ele>
        <time>2018-02-24T10:54:02Z</time>
      </trkpt>
      <trkpt lat="45.88964" lon="4.70165">
        <ele>237</ele>
        <time>2018-02-24T10:54:03Z</time>
      </trkpt>
      <trkpt lat="45.88959" lon="4.70168">
        <ele>234</ele>
        <time>2018-02-24T10:54:04Z</time>
      </trkpt>
      <trkpt lat="45.88954" lon="4.7017">
        <ele>235</ele>
        <time>2018-02-24T10:54:05Z</time>
      </trkpt>
      <trkpt lat="45.88946" lon="4.70174">
        <ele>235</ele>
        <time>2018-02-24T10:54:07Z</time>
      </trkpt>
      <trkpt lat="45.88941" lon="4.70177">
        <ele>236</ele>
        <time>2018-02-24T10:54:08Z</time>
      </trkpt>
      <trkpt lat="45.88933" lon="4.7018">
        <ele>237</ele>
        <time>2018-02-24T10:54:10Z</time>
      </trkpt>
      <trkpt lat="45.88928" lon="4.70182">
        <ele>237</ele>
        <time>2018-02-24T10:54:11Z</time>
      </trkpt>
      <trkpt lat="45.88923" lon="4.70185">
        <ele>237</ele>
        <time>2018-02-24T10:54:12Z</time>
      </trkpt>
      <trkpt lat="45.88918" lon="4.70188">
        <ele>237</ele>
        <time>2018-02-24T10:54:13Z</time>
      </trkpt>
      <trkpt lat="45.8891" lon="4.70192">
        <ele>240</ele>
        <time>2018-02-24T10:54:15Z</time>
      </trkpt>
      <trkpt lat="45.88908" lon="4.70193">
        <ele>240</ele>
        <time>2018-02-24T10:54:16Z</time>
      </trkpt>
      <trkpt lat="45.88902" lon="4.70196">
        <ele>240</ele>
        <time>2018-02-24T10:54:17Z</time>
      </trkpt>
      <trkpt lat="45.88898" lon="4.70198">
        <ele>239</ele>
        <time>2018-02-24T10:54:18Z</time>
      </trkpt>
      <trkpt lat="45.8889" lon="4.70203">
        <ele>239</ele>
        <time>2018-02-24T10:54:20Z</time>
      </trkpt>
      <trkpt lat="45.88886" lon="4.70205">
        <ele>239</ele>
        <time>2018-02-24T10:54:21Z</time>
      </trkpt>
      <trkpt lat="45.88881" lon="4.70208">
        <ele>239</ele>
        <time>2018-02-24T10:54:22Z</time>
      </trkpt>
      <trkpt lat="45.88877" lon="4.70209">
        <ele>239</ele>
        <time>2018-02-24T10:54:23Z</time>
      </trkpt>
      <trkpt lat="45.88869" lon="4.70214">
        <ele>239</ele>
        <time>2018-02-24T10:54:25Z</time>
      </trkpt>
      <trkpt lat="45.88866" lon="4.70216">
        <ele>239</ele>
        <time>2018-02-24T10:54:26Z</time>
      </trkpt>
      <trkpt lat="45.88861" lon="4.70219">
        <ele>239</ele>
        <time>2018-02-24T10:54:27Z</time>
      </trkpt>
      <trkpt lat="45.88856" lon="4.70223">
        <ele>239</ele>
        <time>2018-02-24T10:54:28Z</time>
      </trkpt>
      <trkpt lat="45.8885" lon="4.70228">
        <ele>239</ele>
        <time>2018-02-24T10:54:30Z</time>
      </trkpt>
      <trkpt lat="45.88844" lon="4.70231">
        <ele>238</ele>
        <time>2018-02-24T10:54:31Z</time>
      </trkpt>
      <trkpt lat="45.88841" lon="4.70234">
        <ele>238</ele>
        <time>2018-02-24T10:54:32Z</time>
      </trkpt>
      <trkpt lat="45.88836" lon="4.70238">
        <ele>238</ele>
        <time>2018-02-24T10:54:33Z</time>
      </trkpt>
      <trkpt lat="45.88831" lon="4.70242">
        <ele>239</ele>
        <time>2018-02-24T10:54:34Z</time>
      </trkpt>
      <trkpt lat="45.88827" lon="4.70246">
        <ele>239</ele>
        <time>2018-02-24T10:54:35Z</time>
      </trkpt>
      <trkpt lat="45.88822" lon="4.7025">
        <ele>236</ele>
        <time>2018-02-24T10:54:36Z</time>
      </trkpt>
      <trkpt lat="45.88816" lon="4.70254">
        <ele>236</ele>
        <time>2018-02-24T10:54:37Z</time>
      </trkpt>
      <trkpt lat="45.88812" lon="4.70259">
        <ele>235</ele>
        <time>2018-02-24T10:54:38Z</time>
      </trkpt>
      <trkpt lat="45.88807" lon="4.70263">
        <ele>235</ele>
        <time>2018-02-24T10:54:39Z</time>
      </trkpt>
      <trkpt lat="45.88803" lon="4.70266">
        <ele>235</ele>
        <time>2018-02-24T10:54:40Z</time>
      </trkpt>
      <trkpt lat="45.88797" lon="4.70269">
        <ele>235</ele>
        <time>2018-02-24T10:54:41Z</time>
      </trkpt>
      <trkpt lat="45.88793" lon="4.70273">
        <ele>235</ele>
        <time>2018-02-24T10:54:42Z</time>
      </trkpt>
      <trkpt lat="45.8879" lon="4.70277">
        <ele>234</ele>
        <time>2018-02-24T10:54:43Z</time>
      </trkpt>
      <trkpt lat="45.88785" lon="4.7028">
        <ele>234</ele>
        <time>2018-02-24T10:54:44Z</time>
      </trkpt>
      <trkpt lat="45.8878" lon="4.70283">
        <ele>234</ele>
        <time>2018-02-24T10:54:45Z</time>
      </trkpt>
      <trkpt lat="45.88775" lon="4.70288">
        <ele>234</ele>
        <time>2018-02-24T10:54:46Z</time>
      </trkpt>
      <trkpt lat="45.8877" lon="4.70293">
        <ele>234</ele>
        <time>2018-02-24T10:54:47Z</time>
      </trkpt>
      <trkpt lat="45.88765" lon="4.70297">
        <ele>233</ele>
        <time>2018-02-24T10:54:48Z</time>
      </trkpt>
      <trkpt lat="45.88761" lon="4.70301">
        <ele>233</ele>
        <time>2018-02-24T10:54:49Z</time>
      </trkpt>
      <trkpt lat="45.88755" lon="4.70305">
        <ele>233</ele>
        <time>2018-02-24T10:54:50Z</time>
      </trkpt>
      <trkpt lat="45.8875" lon="4.70309">
        <ele>232</ele>
        <time>2018-02-24T10:54:51Z</time>
      </trkpt>
      <trkpt lat="45.88746" lon="4.70312">
        <ele>233</ele>
        <time>2018-02-24T10:54:52Z</time>
      </trkpt>
      <trkpt lat="45.8874" lon="4.70316">
        <ele>233</ele>
        <time>2018-02-24T10:54:53Z</time>
      </trkpt>
      <trkpt lat="45.88734" lon="4.70321">
        <ele>233</ele>
        <time>2018-02-24T10:54:54Z</time>
      </trkpt>
      <trkpt lat="45.88729" lon="4.70326">
        <ele>233</ele>
        <time>2018-02-24T10:54:55Z</time>
      </trkpt>
      <trkpt lat="45.88723" lon="4.7033">
        <ele>233</ele>
        <time>2018-02-24T10:54:56Z</time>
      </trkpt>
      <trkpt lat="45.88718" lon="4.70334">
        <ele>229</ele>
        <time>2018-02-24T10:54:57Z</time>
      </trkpt>
      <trkpt lat="45.88715" lon="4.70339">
        <ele>229</ele>
        <time>2018-02-24T10:54:58Z</time>
      </trkpt>
      <trkpt lat="45.88712" lon="4.70344">
        <ele>229</ele>
        <time>2018-02-24T10:54:59Z</time>
      </trkpt>
      <trkpt lat="45.88708" lon="4.70347">
        <ele>229</ele>
        <time>2018-02-24T10:55:00Z</time>
      </trkpt>
      <trkpt lat="45.88703" lon="4.7035">
        <ele>229</ele>
        <time>2018-02-24T10:55:01Z</time>
      </trkpt>
      <trkpt lat="45.88699" lon="4.70353">
        <ele>229</ele>
        <time>2018-02-24T10:55:02Z</time>
      </trkpt>
      <trkpt lat="45.88694" lon="4.70357">
        <ele>229</ele>
        <time>2018-02-24T10:55:03Z</time>
      </trkpt>
      <trkpt lat="45.88689" lon="4.70361">
        <ele>229</ele>
        <time>2018-02-24T10:55:04Z</time>
      </trkpt>
      <trkpt lat="45.88685" lon="4.70365">
        <ele>229</ele>
        <time>2018-02-24T10:55:05Z</time>
      </trkpt>
      <trkpt lat="45.88681" lon="4.70368">
        <ele>229</ele>
        <time>2018-02-24T10:55:06Z</time>
      </trkpt>
      <trkpt lat="45.88676" lon="4.70372">
        <ele>229</ele>
        <time>2018-02-24T10:55:07Z</time>
      </trkpt>
      <trkpt lat="45.88671" lon="4.70375">
        <ele>229</ele>
        <time>2018-02-24T10:55:08Z</time>
      </trkpt>
      <trkpt lat="45.88667" lon="4.70378">
        <ele>228</ele>
        <time>2018-02-24T10:55:09Z</time>
      </trkpt>
      <trkpt lat="45.88661" lon="4.70382">
        <ele>231</ele>
        <time>2018-02-24T10:55:10Z</time>
      </trkpt>
      <trkpt lat="45.88658" lon="4.70385">
        <ele>230</ele>
        <time>2018-02-24T10:55:11Z</time>
      </trkpt>
      <trkpt lat="45.88653" lon="4.70388">
        <ele>230</ele>
        <time>2018-02-24T10:55:12Z</time>
      </trkpt>
      <trkpt lat="45.88649" lon="4.70391">
        <ele>230</ele>
        <time>2018-02-24T10:55:13Z</time>
      </trkpt>
      <trkpt lat="45.88644" lon="4.70394">
        <ele>230</ele>
        <time>2018-02-24T10:55:14Z</time>
      </trkpt>
      <trkpt lat="45.88639" lon="4.70399">
        <ele>230</ele>
        <time>2018-02-24T10:55:15Z</time>
      </trkpt>
      <trkpt lat="45.88635" lon="4.70401">
        <ele>230</ele>
        <time>2018-02-24T10:55:16Z</time>
      </trkpt>
      <trkpt lat="45.8863" lon="4.70405">
        <ele>231</ele>
        <time>2018-02-24T10:55:17Z</time>
      </trkpt>
      <trkpt lat="45.88626" lon="4.70408">
        <ele>231</ele>
        <time>2018-02-24T10:55:18Z</time>
      </trkpt>
      <trkpt lat="45.88621" lon="4.70412">
        <ele>231</ele>
        <time>2018-02-24T10:55:19Z</time>
      </trkpt>
      <trkpt lat="45.88617" lon="4.70415">
        <ele>231</ele>
        <time>2018-02-24T10:55:20Z</time>
      </trkpt>
      <trkpt lat="45.88612" lon="4.70418">
        <ele>229</ele>
        <time>2018-02-24T10:55:21Z</time>
      </trkpt>
      <trkpt lat="45.88608" lon="4.70421">
        <ele>229</ele>
        <time>2018-02-24T10:55:22Z</time>
      </trkpt>
      <trkpt lat="45.88603" lon="4.70425">
        <ele>229</ele>
        <time>2018-02-24T10:55:23Z</time>
      </trkpt>
      <trkpt lat="45.88598" lon="4.70429">
        <ele>229</ele>
        <time>2018-02-24T10:55:24Z</time>
      </trkpt>
      <trkpt lat="45.88594" lon="4.70432">
        <ele>229</ele>
        <time>2018-02-24T10:55:25Z</time>
      </trkpt>
      <trkpt lat="45.8859" lon="4.70435">
        <ele>229</ele>
        <time>2018-02-24T10:55:26Z</time>
      </trkpt>
      <trkpt lat="45.88586" lon="4.70439">
        <ele>229</ele>
        <time>2018-02-24T10:55:27Z</time>
      </trkpt>
      <trkpt lat="45.88581" lon="4.70442">
        <ele>232</ele>
        <time>2018-02-24T10:55:28Z</time>
      </trkpt>
      <trkpt lat="45.88578" lon="4.70446">
        <ele>232</ele>
        <time>2018-02-24T10:55:29Z</time>
      </trkpt>
      <trkpt lat="45.88573" lon="4.70449">
        <ele>232</ele>
        <time>2018-02-24T10:55:30Z</time>
      </trkpt>
      <trkpt lat="45.88569" lon="4.70453">
        <ele>232</ele>
        <time>2018-02-24T10:55:31Z</time>
      </trkpt>
      <trkpt lat="45.88564" lon="4.70456">
        <ele>232</ele>
        <time>2018-02-24T10:55:32Z</time>
      </trkpt>
      <trkpt lat="45.8856" lon="4.70459">
        <ele>232</ele>
        <time>2018-02-24T10:55:33Z</time>
      </trkpt>
      <trkpt lat="45.88555" lon="4.70462">
        <ele>232</ele>
        <time>2018-02-24T10:55:34Z</time>
      </trkpt>
      <trkpt lat="45.88551" lon="4.70466">
        <ele>232</ele>
        <time>2018-02-24T10:55:35Z</time>
      </trkpt>
      <trkpt lat="45.88547" lon="4.70468">
        <ele>232</ele>
        <time>2018-02-24T10:55:36Z</time>
      </trkpt>
      <trkpt lat="45.88543" lon="4.70472">
        <ele>232</ele>
        <time>2018-02-24T10:55:37Z</time>
      </trkpt>
      <trkpt lat="45.88538" lon="4.70477">
        <ele>232</ele>
        <time>2018-02-24T10:55:38Z</time>
      </trkpt>
      <trkpt lat="45.88534" lon="4.70481">
        <ele>232</ele>
        <time>2018-02-24T10:55:39Z</time>
      </trkpt>
      <trkpt lat="45.8853" lon="4.70484">
        <ele>232</ele>
        <time>2018-02-24T10:55:40Z</time>
      </trkpt>
      <trkpt lat="45.88525" lon="4.70488">
        <ele>232</ele>
        <time>2018-02-24T10:55:41Z</time>
      </trkpt>
      <trkpt lat="45.88521" lon="4.70492">
        <ele>233</ele>
        <time>2018-02-24T10:55:42Z</time>
      </trkpt>
      <trkpt lat="45.88516" lon="4.70496">
        <ele>233</ele>
        <time>2018-02-24T10:55:43Z</time>
      </trkpt>
      <trkpt lat="45.88513" lon="4.70499">
        <ele>233</ele>
        <time>2018-02-24T10:55:44Z</time>
      </trkpt>
      <trkpt lat="45.88509" lon="4.70503">
        <ele>231</ele>
        <time>2018-02-24T10:55:45Z</time>
      </trkpt>
      <trkpt lat="45.88501" lon="4.70509">
        <ele>231</ele>
        <time>2018-02-24T10:55:47Z</time>
      </trkpt>
      <trkpt lat="45.88497" lon="4.70512">
        <ele>233</ele>
        <time>2018-02-24T10:55:48Z</time>
      </trkpt>
      <trkpt lat="45.88493" lon="4.70515">
        <ele>234</ele>
        <time>2018-02-24T10:55:49Z</time>
      </trkpt>
      <trkpt lat="45.88488" lon="4.70519">
        <ele>234</ele>
        <time>2018-02-24T10:55:50Z</time>
      </trkpt>
      <trkpt lat="45.88484" lon="4.70523">
        <ele>234</ele>
        <time>2018-02-24T10:55:51Z</time>
      </trkpt>
      <trkpt lat="45.88479" lon="4.70526">
        <ele>234</ele>
        <time>2018-02-24T10:55:52Z</time>
      </trkpt>
      <trkpt lat="45.88475" lon="4.70531">
        <ele>234</ele>
        <time>2018-02-24T10:55:53Z</time>
      </trkpt>
      <trkpt lat="45.8847" lon="4.70533">
        <ele>234</ele>
        <time>2018-02-24T10:55:54Z</time>
      </trkpt>
      <trkpt lat="45.88466" lon="4.70536">
        <ele>234</ele>
        <time>2018-02-24T10:55:55Z</time>
      </trkpt>
      <trkpt lat="45.88461" lon="4.70539">
        <ele>234</ele>
        <time>2018-02-24T10:55:56Z</time>
      </trkpt>
      <trkpt lat="45.88456" lon="4.70543">
        <ele>234</ele>
        <time>2018-02-24T10:55:57Z</time>
      </trkpt>
      <trkpt lat="45.88452" lon="4.70547">
        <ele>234</ele>
        <time>2018-02-24T10:55:58Z</time>
      </trkpt>
      <trkpt lat="45.88448" lon="4.70551">
        <ele>234</ele>
        <time>2018-02-24T10:55:59Z</time>
      </trkpt>
      <trkpt lat="45.88443" lon="4.70554">
        <ele>234</ele>
        <time>2018-02-24T10:56:00Z</time>
      </trkpt>
      <trkpt lat="45.88439" lon="4.70559">
        <ele>235</ele>
        <time>2018-02-24T10:56:01Z</time>
      </trkpt>
      <trkpt lat="45.88435" lon="4.70562">
        <ele>235</ele>
        <time>2018-02-24T10:56:02Z</time>
      </trkpt>
      <trkpt lat="45.8843" lon="4.70566">
        <ele>235</ele>
        <time>2018-02-24T10:56:03Z</time>
      </trkpt>
      <trkpt lat="45.88425" lon="4.7057">
        <ele>235</ele>
        <time>2018-02-24T10:56:04Z</time>
      </trkpt>
      <trkpt lat="45.88421" lon="4.70573">
        <ele>235</ele>
        <time>2018-02-24T10:56:05Z</time>
      </trkpt>
      <trkpt lat="45.88416" lon="4.70578">
        <ele>236</ele>
        <time>2018-02-24T10:56:06Z</time>
      </trkpt>
      <trkpt lat="45.88412" lon="4.70581">
        <ele>236</ele>
        <time>2018-02-24T10:56:07Z</time>
      </trkpt>
      <trkpt lat="45.88407" lon="4.70585">
        <ele>235</ele>
        <time>2018-02-24T10:56:08Z</time>
      </trkpt>
      <trkpt lat="45.88403" lon="4.70588">
        <ele>235</ele>
        <time>2018-02-24T10:56:09Z</time>
      </trkpt>
      <trkpt lat="45.88399" lon="4.70594">
        <ele>235</ele>
        <time>2018-02-24T10:56:10Z</time>
      </trkpt>
      <trkpt lat="45.88395" lon="4.70597">
        <ele>235</ele>
        <time>2018-02-24T10:56:11Z</time>
      </trkpt>
      <trkpt lat="45.8839" lon="4.70601">
        <ele>235</ele>
        <time>2018-02-24T10:56:12Z</time>
      </trkpt>
      <trkpt lat="45.88385" lon="4.70604">
        <ele>235</ele>
        <time>2018-02-24T10:56:13Z</time>
      </trkpt>
      <trkpt lat="45.8838" lon="4.70608">
        <ele>235</ele>
        <time>2018-02-24T10:56:14Z</time>
      </trkpt>
      <trkpt lat="45.88376" lon="4.70611">
        <ele>235</ele>
        <time>2018-02-24T10:56:15Z</time>
      </trkpt>
      <trkpt lat="45.88371" lon="4.70615">
        <ele>235</ele>
        <time>2018-02-24T10:56:16Z</time>
      </trkpt>
      <trkpt lat="45.88364" lon="4.7062">
        <ele>235</ele>
        <time>2018-02-24T10:56:18Z</time>
      </trkpt>
      <trkpt lat="45.8836" lon="4.70624">
        <ele>235</ele>
        <time>2018-02-24T10:56:19Z</time>
      </trkpt>
      <trkpt lat="45.88356" lon="4.70627">
        <ele>235</ele>
        <time>2018-02-24T10:56:20Z</time>
      </trkpt>
      <trkpt lat="45.88352" lon="4.7063">
        <ele>235</ele>
        <time>2018-02-24T10:56:21Z</time>
      </trkpt>
      <trkpt lat="45.88348" lon="4.70633">
        <ele>235</ele>
        <time>2018-02-24T10:56:22Z</time>
      </trkpt>
      <trkpt lat="45.88343" lon="4.70636">
        <ele>235</ele>
        <time>2018-02-24T10:56:23Z</time>
      </trkpt>
      <trkpt lat="45.88336" lon="4.70642">
        <ele>235</ele>
        <time>2018-02-24T10:56:25Z</time>
      </trkpt>
      <trkpt lat="45.88331" lon="4.70646">
        <ele>238</ele>
        <time>2018-02-24T10:56:26Z</time>
      </trkpt>
      <trkpt lat="45.88326" lon="4.7065">
        <ele>237</ele>
        <time>2018-02-24T10:56:27Z</time>
      </trkpt>
      <trkpt lat="45.8832" lon="4.70653">
        <ele>237</ele>
        <time>2018-02-24T10:56:28Z</time>
      </trkpt>
      <trkpt lat="45.88315" lon="4.70657">
        <ele>238</ele>
        <time>2018-02-24T10:56:29Z</time>
      </trkpt>
      <trkpt lat="45.8831" lon="4.7066">
        <ele>238</ele>
        <time>2018-02-24T10:56:30Z</time>
      </trkpt>
      <trkpt lat="45.88306" lon="4.70663">
        <ele>238</ele>
        <time>2018-02-24T10:56:31Z</time>
      </trkpt>
      <trkpt lat="45.88302" lon="4.70666">
        <ele>238</ele>
        <time>2018-02-24T10:56:32Z</time>
      </trkpt>
      <trkpt lat="45.88294" lon="4.70672">
        <ele>235</ele>
        <time>2018-02-24T10:56:34Z</time>
      </trkpt>
      <trkpt lat="45.8829" lon="4.70676">
        <ele>235</ele>
        <time>2018-02-24T10:56:35Z</time>
      </trkpt>
      <trkpt lat="45.88286" lon="4.70679">
        <ele>235</ele>
        <time>2018-02-24T10:56:36Z</time>
      </trkpt>
      <trkpt lat="45.88282" lon="4.70683">
        <ele>235</ele>
        <time>2018-02-24T10:56:37Z</time>
      </trkpt>
      <trkpt lat="45.88277" lon="4.70686">
        <ele>235</ele>
        <time>2018-02-24T10:56:38Z</time>
      </trkpt>
      <trkpt lat="45.88274" lon="4.70689">
        <ele>235</ele>
        <time>2018-02-24T10:56:39Z</time>
      </trkpt>
      <trkpt lat="45.88266" lon="4.70695">
        <ele>235</ele>
        <time>2018-02-24T10:56:41Z</time>
      </trkpt>
      <trkpt lat="45.88262" lon="4.70699">
        <ele>235</ele>
        <time>2018-02-24T10:56:42Z</time>
      </trkpt>
      <trkpt lat="45.88258" lon="4.70702">
        <ele>235</ele>
        <time>2018-02-24T10:56:43Z</time>
      </trkpt>
      <trkpt lat="45.88253" lon="4.70705">
        <ele>235</ele>
        <time>2018-02-24T10:56:44Z</time>
      </trkpt>
      <trkpt lat="45.88245" lon="4.70711">
        <ele>236</ele>
        <time>2018-02-24T10:56:46Z</time>
      </trkpt>
      <trkpt lat="45.88244" lon="4.70712">
        <ele>236</ele>
        <time>2018-02-24T10:56:47Z</time>
      </trkpt>
      <trkpt lat="45.88236" lon="4.70717">
        <ele>235</ele>
        <time>2018-02-24T10:56:48Z</time>
      </trkpt>
      <trkpt lat="45.88233" lon="4.70719">
        <ele>235</ele>
        <time>2018-02-24T10:56:49Z</time>
      </trkpt>
      <trkpt lat="45.88229" lon="4.70722">
        <ele>235</ele>
        <time>2018-02-24T10:56:50Z</time>
      </trkpt>
      <trkpt lat="45.88222" lon="4.70726">
        <ele>235</ele>
        <time>2018-02-24T10:56:51Z</time>
      </trkpt>
      <trkpt lat="45.88217" lon="4.7073">
        <ele>235</ele>
        <time>2018-02-24T10:56:52Z</time>
      </trkpt>
      <trkpt lat="45.88212" lon="4.70735">
        <ele>235</ele>
        <time>2018-02-24T10:56:53Z</time>
      </trkpt>
      <trkpt lat="45.88207" lon="4.70739">
        <ele>235</ele>
        <time>2018-02-24T10:56:54Z</time>
      </trkpt>
      <trkpt lat="45.88202" lon="4.70741">
        <ele>235</ele>
        <time>2018-02-24T10:56:55Z</time>
      </trkpt>
      <trkpt lat="45.88196" lon="4.70743">
        <ele>235</ele>
        <time>2018-02-24T10:56:56Z</time>
      </trkpt>
      <trkpt lat="45.88192" lon="4.70746">
        <ele>235</ele>
        <time>2018-02-24T10:56:57Z</time>
      </trkpt>
      <trkpt lat="45.88186" lon="4.70749">
        <ele>234</ele>
        <time>2018-02-24T10:56:58Z</time>
      </trkpt>
      <trkpt lat="45.8818" lon="4.70753">
        <ele>232</ele>
        <time>2018-02-24T10:56:59Z</time>
      </trkpt>
      <trkpt lat="45.88175" lon="4.70755">
        <ele>232</ele>
        <time>2018-02-24T10:57:00Z</time>
      </trkpt>
      <trkpt lat="45.8817" lon="4.70759">
        <ele>232</ele>
        <time>2018-02-24T10:57:01Z</time>
      </trkpt>
      <trkpt lat="45.88165" lon="4.70763">
        <ele>232</ele>
        <time>2018-02-24T10:57:02Z</time>
      </trkpt>
      <trkpt lat="45.8816" lon="4.70767">
        <ele>232</ele>
        <time>2018-02-24T10:57:03Z</time>
      </trkpt>
      <trkpt lat="45.88156" lon="4.7077">
        <ele>231</ele>
        <time>2018-02-24T10:57:04Z</time>
      </trkpt>
      <trkpt lat="45.88151" lon="4.70773">
        <ele>231</ele>
        <time>2018-02-24T10:57:05Z</time>
      </trkpt>
      <trkpt lat="45.88147" lon="4.70778">
        <ele>231</ele>
        <time>2018-02-24T10:57:06Z</time>
      </trkpt>
      <trkpt lat="45.88142" lon="4.70783">
        <ele>231</ele>
        <time>2018-02-24T10:57:07Z</time>
      </trkpt>
      <trkpt lat="45.88136" lon="4.70789">
        <ele>231</ele>
        <time>2018-02-24T10:57:08Z</time>
      </trkpt>
      <trkpt lat="45.88132" lon="4.70794">
        <ele>231</ele>
        <time>2018-02-24T10:57:09Z</time>
      </trkpt>
      <trkpt lat="45.88126" lon="4.70799">
        <ele>230</ele>
        <time>2018-02-24T10:57:10Z</time>
      </trkpt>
      <trkpt lat="45.88121" lon="4.70805">
        <ele>230</ele>
        <time>2018-02-24T10:57:11Z</time>
      </trkpt>
      <trkpt lat="45.88116" lon="4.70809">
        <ele>230</ele>
        <time>2018-02-24T10:57:12Z</time>
      </trkpt>
      <trkpt lat="45.8811" lon="4.70813">
        <ele>230</ele>
        <time>2018-02-24T10:57:13Z</time>
      </trkpt>
      <trkpt lat="45.88105" lon="4.70815">
        <ele>230</ele>
        <time>2018-02-24T10:57:14Z</time>
      </trkpt>
      <trkpt lat="45.88099" lon="4.70818">
        <ele>230</ele>
        <time>2018-02-24T10:57:15Z</time>
      </trkpt>
      <trkpt lat="45.88093" lon="4.7082">
        <ele>230</ele>
        <time>2018-02-24T10:57:16Z</time>
      </trkpt>
      <trkpt lat="45.88087" lon="4.70824">
        <ele>229</ele>
        <time>2018-02-24T10:57:17Z</time>
      </trkpt>
      <trkpt lat="45.88081" lon="4.70827">
        <ele>229</ele>
        <time>2018-02-24T10:57:18Z</time>
      </trkpt>
      <trkpt lat="45.88075" lon="4.70831">
        <ele>229</ele>
        <time>2018-02-24T10:57:19Z</time>
      </trkpt>
      <trkpt lat="45.88069" lon="4.70835">
        <ele>228</ele>
        <time>2018-02-24T10:57:20Z</time>
      </trkpt>
      <trkpt lat="45.88063" lon="4.70839">
        <ele>227</ele>
        <time>2018-02-24T10:57:21Z</time>
      </trkpt>
      <trkpt lat="45.88057" lon="4.70842">
        <ele>227</ele>
        <time>2018-02-24T10:57:22Z</time>
      </trkpt>
      <trkpt lat="45.88051" lon="4.70845">
        <ele>227</ele>
        <time>2018-02-24T10:57:23Z</time>
      </trkpt>
      <trkpt lat="45.88045" lon="4.70849">
        <ele>227</ele>
        <time>2018-02-24T10:57:24Z</time>
      </trkpt>
      <trkpt lat="45.88039" lon="4.70852">
        <ele>227</ele>
        <time>2018-02-24T10:57:25Z</time>
      </trkpt>
      <trkpt lat="45.88033" lon="4.70856">
        <ele>226</ele>
        <time>2018-02-24T10:57:26Z</time>
      </trkpt>
      <trkpt lat="45.88028" lon="4.70861">
        <ele>226</ele>
        <time>2018-02-24T10:57:27Z</time>
      </trkpt>
      <trkpt lat="45.88022" lon="4.70865">
        <ele>226</ele>
        <time>2018-02-24T10:57:28Z</time>
      </trkpt>
      <trkpt lat="45.88016" lon="4.70869">
        <ele>226</ele>
        <time>2018-02-24T10:57:29Z</time>
      </trkpt>
      <trkpt lat="45.88011" lon="4.70872">
        <ele>226</ele>
        <time>2018-02-24T10:57:30Z</time>
      </trkpt>
      <trkpt lat="45.88005" lon="4.70876">
        <ele>226</ele>
        <time>2018-02-24T10:57:31Z</time>
      </trkpt>
      <trkpt lat="45.87999" lon="4.70879">
        <ele>225</ele>
        <time>2018-02-24T10:57:32Z</time>
      </trkpt>
      <trkpt lat="45.87994" lon="4.70882">
        <ele>225</ele>
        <time>2018-02-24T10:57:33Z</time>
      </trkpt>
      <trkpt lat="45.87988" lon="4.70886">
        <ele>225</ele>
        <time>2018-02-24T10:57:34Z</time>
      </trkpt>
      <trkpt lat="45.87981" lon="4.7089">
        <ele>225</ele>
        <time>2018-02-24T10:57:35Z</time>
      </trkpt>
      <trkpt lat="45.87976" lon="4.70894">
        <ele>225</ele>
        <time>2018-02-24T10:57:36Z</time>
      </trkpt>
      <trkpt lat="45.8797" lon="4.70899">
        <ele>225</ele>
        <time>2018-02-24T10:57:37Z</time>
      </trkpt>
      <trkpt lat="45.87965" lon="4.70903">
        <ele>225</ele>
        <time>2018-02-24T10:57:38Z</time>
      </trkpt>
      <trkpt lat="45.87958" lon="4.70907">
        <ele>224</ele>
        <time>2018-02-24T10:57:39Z</time>
      </trkpt>
      <trkpt lat="45.87953" lon="4.70911">
        <ele>224</ele>
        <time>2018-02-24T10:57:40Z</time>
      </trkpt>
      <trkpt lat="45.87947" lon="4.70915">
        <ele>224</ele>
        <time>2018-02-24T10:57:41Z</time>
      </trkpt>
      <trkpt lat="45.87941" lon="4.70919">
        <ele>225</ele>
        <time>2018-02-24T10:57:42Z</time>
      </trkpt>
      <trkpt lat="45.87935" lon="4.70923">
        <ele>225</ele>
        <time>2018-02-24T10:57:43Z</time>
      </trkpt>
      <trkpt lat="45.87929" lon="4.70927">
        <ele>225</ele>
        <time>2018-02-24T10:57:44Z</time>
      </trkpt>
      <trkpt lat="45.87924" lon="4.70931">
        <ele>225</ele>
        <time>2018-02-24T10:57:45Z</time>
      </trkpt>
      <trkpt lat="45.87918" lon="4.70934">
        <ele>225</ele>
        <time>2018-02-24T10:57:46Z</time>
      </trkpt>
      <trkpt lat="45.87912" lon="4.70938">
        <ele>224</ele>
        <time>2018-02-24T10:57:47Z</time>
      </trkpt>
      <trkpt lat="45.87905" lon="4.70942">
        <ele>224</ele>
        <time>2018-02-24T10:57:48Z</time>
      </trkpt>
      <trkpt lat="45.879" lon="4.70946">
        <ele>224</ele>
        <time>2018-02-24T10:57:49Z</time>
      </trkpt>
      <trkpt lat="45.87893" lon="4.70951">
        <ele>225</ele>
        <time>2018-02-24T10:57:50Z</time>
      </trkpt>
      <trkpt lat="45.87887" lon="4.70955">
        <ele>225</ele>
        <time>2018-02-24T10:57:51Z</time>
      </trkpt>
      <trkpt lat="45.8788" lon="4.7096">
        <ele>225</ele>
        <time>2018-02-24T10:57:52Z</time>
      </trkpt>
      <trkpt lat="45.87874" lon="4.70963">
        <ele>225</ele>
        <time>2018-02-24T10:57:53Z</time>
      </trkpt>
      <trkpt lat="45.87868" lon="4.70967">
        <ele>225</ele>
        <time>2018-02-24T10:57:54Z</time>
      </trkpt>
      <trkpt lat="45.87862" lon="4.70972">
        <ele>224</ele>
        <time>2018-02-24T10:57:55Z</time>
      </trkpt>
      <trkpt lat="45.87855" lon="4.70976">
        <ele>224</ele>
        <time>2018-02-24T10:57:56Z</time>
      </trkpt>
      <trkpt lat="45.87849" lon="4.7098">
        <ele>224</ele>
        <time>2018-02-24T10:57:57Z</time>
      </trkpt>
      <trkpt lat="45.87842" lon="4.70983">
        <ele>224</ele>
        <time>2018-02-24T10:57:58Z</time>
      </trkpt>
      <trkpt lat="45.87835" lon="4.70986">
        <ele>224</ele>
        <time>2018-02-24T10:57:59Z</time>
      </trkpt>
      <trkpt lat="45.87828" lon="4.7099">
        <ele>223</ele>
        <time>2018-02-24T10:58:00Z</time>
      </trkpt>
      <trkpt lat="45.87822" lon="4.70993">
        <ele>223</ele>
        <time>2018-02-24T10:58:01Z</time>
      </trkpt>
      <trkpt lat="45.87815" lon="4.70996">
        <ele>223</ele>
        <time>2018-02-24T10:58:02Z</time>
      </trkpt>
      <trkpt lat="45.87808" lon="4.70999">
        <ele>222</ele>
        <time>2018-02-24T10:58:03Z</time>
      </trkpt>
      <trkpt lat="45.87802" lon="4.71001">
        <ele>223</ele>
        <time>2018-02-24T10:58:04Z</time>
      </trkpt>
      <trkpt lat="45.87796" lon="4.71004">
        <ele>223</ele>
        <time>2018-02-24T10:58:05Z</time>
      </trkpt>
      <trkpt lat="45.87789" lon="4.71007">
        <ele>223</ele>
        <time>2018-02-24T10:58:06Z</time>
      </trkpt>
      <trkpt lat="45.87782" lon="4.71011">
        <ele>222</ele>
        <time>2018-02-24T10:58:07Z</time>
      </trkpt>
      <trkpt lat="45.87774" lon="4.71012">
        <ele>222</ele>
        <time>2018-02-24T10:58:08Z</time>
      </trkpt>
      <trkpt lat="45.87767" lon="4.71016">
        <ele>222</ele>
        <time>2018-02-24T10:58:09Z</time>
      </trkpt>
      <trkpt lat="45.8776" lon="4.7102">
        <ele>222</ele>
        <time>2018-02-24T10:58:10Z</time>
      </trkpt>
      <trkpt lat="45.87752" lon="4.71024">
        <ele>222</ele>
        <time>2018-02-24T10:58:11Z</time>
      </trkpt>
      <trkpt lat="45.87745" lon="4.71027">
        <ele>220</ele>
        <time>2018-02-24T10:58:12Z</time>
      </trkpt>
      <trkpt lat="45.8774" lon="4.71029">
        <ele>220</ele>
        <time>2018-02-24T10:58:13Z</time>
      </trkpt>
      <trkpt lat="45.87735" lon="4.71031">
        <ele>220</ele>
        <time>2018-02-24T10:58:14Z</time>
      </trkpt>
      <trkpt lat="45.87731" lon="4.71032">
        <ele>220</ele>
        <time>2018-02-24T10:58:15Z</time>
      </trkpt>
      <trkpt lat="45.87723" lon="4.71035">
        <ele>220</ele>
        <time>2018-02-24T10:58:19Z</time>
      </trkpt>
      <trkpt lat="45.87722" lon="4.71036">
        <ele>220</ele>
        <time>2018-02-24T10:58:20Z</time>
      </trkpt>
      <trkpt lat="45.87714" lon="4.7104">
        <ele>220</ele>
        <time>2018-02-24T10:58:32Z</time>
      </trkpt>
      <trkpt lat="45.87712" lon="4.7104">
        <ele>220</ele>
        <time>2018-02-24T10:58:33Z</time>
      </trkpt>
      <trkpt lat="45.87705" lon="4.71043">
        <ele>220</ele>
        <time>2018-02-24T10:58:34Z</time>
      </trkpt>
      <trkpt lat="45.87702" lon="4.71044">
        <ele>220</ele>
        <time>2018-02-24T10:58:35Z</time>
      </trkpt>
      <trkpt lat="45.87694" lon="4.71046">
        <ele>220</ele>
        <time>2018-02-24T10:58:37Z</time>
      </trkpt>
      <trkpt lat="45.8769" lon="4.71046">
        <ele>220</ele>
        <time>2018-02-24T10:58:38Z</time>
      </trkpt>
      <trkpt lat="45.87684" lon="4.71047">
        <ele>220</ele>
        <time>2018-02-24T10:58:39Z</time>
      </trkpt>
      <trkpt lat="45.87679" lon="4.7105">
        <ele>220</ele>
        <time>2018-02-24T10:58:40Z</time>
      </trkpt>
      <trkpt lat="45.87673" lon="4.71052">
        <ele>220</ele>
        <time>2018-02-24T10:58:41Z</time>
      </trkpt>
      <trkpt lat="45.87666" lon="4.71056">
        <ele>218</ele>
        <time>2018-02-24T10:58:42Z</time>
      </trkpt>
      <trkpt lat="45.8766" lon="4.71059">
        <ele>218</ele>
        <time>2018-02-24T10:58:43Z</time>
      </trkpt>
      <trkpt lat="45.87655" lon="4.71061">
        <ele>218</ele>
        <time>2018-02-24T10:58:44Z</time>
      </trkpt>
      <trkpt lat="45.8765" lon="4.71061">
        <ele>218</ele>
        <time>2018-02-24T10:58:45Z</time>
      </trkpt>
      <trkpt lat="45.87644" lon="4.71064">
        <ele>218</ele>
        <time>2018-02-24T10:58:46Z</time>
      </trkpt>
      <trkpt lat="45.87639" lon="4.71066">
        <ele>218</ele>
        <time>2018-02-24T10:58:47Z</time>
      </trkpt>
      <trkpt lat="45.87634" lon="4.71067">
        <ele>218</ele>
        <time>2018-02-24T10:58:48Z</time>
      </trkpt>
      <trkpt lat="45.87629" lon="4.7107">
        <ele>218</ele>
        <time>2018-02-24T10:58:49Z</time>
      </trkpt>
      <trkpt lat="45.87624" lon="4.71071">
        <ele>217</ele>
        <time>2018-02-24T10:58:50Z</time>
      </trkpt>
      <trkpt lat="45.87618" lon="4.71073">
        <ele>217</ele>
        <time>2018-02-24T10:58:51Z</time>
      </trkpt>
      <trkpt lat="45.87613" lon="4.71074">
        <ele>217</ele>
        <time>2018-02-24T10:58:52Z</time>
      </trkpt>
      <trkpt lat="45.87607" lon="4.71077">
        <ele>217</ele>
        <time>2018-02-24T10:58:53Z</time>
      </trkpt>
      <trkpt lat="45.87601" lon="4.71077">
        <ele>217</ele>
        <time>2018-02-24T10:58:54Z</time>
      </trkpt>
      <trkpt lat="45.87595" lon="4.71078">
        <ele>217</ele>
        <time>2018-02-24T10:58:55Z</time>
      </trkpt>
      <trkpt lat="45.87589" lon="4.71082">
        <ele>217</ele>
        <time>2018-02-24T10:58:56Z</time>
      </trkpt>
      <trkpt lat="45.87583" lon="4.71082">
        <ele>217</ele>
        <time>2018-02-24T10:58:57Z</time>
      </trkpt>
      <trkpt lat="45.87577" lon="4.7108">
        <ele>217</ele>
        <time>2018-02-24T10:58:58Z</time>
      </trkpt>
      <trkpt lat="45.8757" lon="4.71078">
        <ele>216</ele>
        <time>2018-02-24T10:58:59Z</time>
      </trkpt>
      <trkpt lat="45.87565" lon="4.71075">
        <ele>216</ele>
        <time>2018-02-24T10:59:00Z</time>
      </trkpt>
      <trkpt lat="45.87558" lon="4.71072">
        <ele>216</ele>
        <time>2018-02-24T10:59:01Z</time>
      </trkpt>
      <trkpt lat="45.87552" lon="4.71068">
        <ele>216</ele>
        <time>2018-02-24T10:59:02Z</time>
      </trkpt>
      <trkpt lat="45.87547" lon="4.71061">
        <ele>216</ele>
        <time>2018-02-24T10:59:03Z</time>
      </trkpt>
      <trkpt lat="45.87542" lon="4.71054">
        <ele>215</ele>
        <time>2018-02-24T10:59:04Z</time>
      </trkpt>
      <trkpt lat="45.87537" lon="4.71046">
        <ele>215</ele>
        <time>2018-02-24T10:59:05Z</time>
      </trkpt>
      <trkpt lat="45.87531" lon="4.71039">
        <ele>215</ele>
        <time>2018-02-24T10:59:06Z</time>
      </trkpt>
      <trkpt lat="45.87527" lon="4.71031">
        <ele>215</ele>
        <time>2018-02-24T10:59:07Z</time>
      </trkpt>
      <trkpt lat="45.87523" lon="4.71023">
        <ele>215</ele>
        <time>2018-02-24T10:59:08Z</time>
      </trkpt>
      <trkpt lat="45.87518" lon="4.71015">
        <ele>215</ele>
        <time>2018-02-24T10:59:09Z</time>
      </trkpt>
      <trkpt lat="45.87513" lon="4.71008">
        <ele>215</ele>
        <time>2018-02-24T10:59:10Z</time>
      </trkpt>
      <trkpt lat="45.87507" lon="4.71">
        <ele>214</ele>
        <time>2018-02-24T10:59:11Z</time>
      </trkpt>
      <trkpt lat="45.87501" lon="4.70993">
        <ele>214</ele>
        <time>2018-02-24T10:59:12Z</time>
      </trkpt>
      <trkpt lat="45.87497" lon="4.70984">
        <ele>214</ele>
        <time>2018-02-24T10:59:13Z</time>
      </trkpt>
      <trkpt lat="45.87493" lon="4.70977">
        <ele>215</ele>
        <time>2018-02-24T10:59:14Z</time>
      </trkpt>
      <trkpt lat="45.8749" lon="4.70967">
        <ele>215</ele>
        <time>2018-02-24T10:59:15Z</time>
      </trkpt>
      <trkpt lat="45.87486" lon="4.70958">
        <ele>215</ele>
        <time>2018-02-24T10:59:16Z</time>
      </trkpt>
      <trkpt lat="45.87484" lon="4.70949">
        <ele>215</ele>
        <time>2018-02-24T10:59:17Z</time>
      </trkpt>
      <trkpt lat="45.87481" lon="4.7094">
        <ele>215</ele>
        <time>2018-02-24T10:59:18Z</time>
      </trkpt>
      <trkpt lat="45.87478" lon="4.70931">
        <ele>215</ele>
        <time>2018-02-24T10:59:19Z</time>
      </trkpt>
      <trkpt lat="45.87476" lon="4.70923">
        <ele>215</ele>
        <time>2018-02-24T10:59:20Z</time>
      </trkpt>
      <trkpt lat="45.87473" lon="4.70915">
        <ele>214</ele>
        <time>2018-02-24T10:59:21Z</time>
      </trkpt>
      <trkpt lat="45.87471" lon="4.70906">
        <ele>214</ele>
        <time>2018-02-24T10:59:22Z</time>
      </trkpt>
      <trkpt lat="45.8747" lon="4.70898">
        <ele>214</ele>
        <time>2018-02-24T10:59:23Z</time>
      </trkpt>
      <trkpt lat="45.87468" lon="4.70889">
        <ele>214</ele>
        <time>2018-02-24T10:59:24Z</time>
      </trkpt>
      <trkpt lat="45.87467" lon="4.70879">
        <ele>214</ele>
        <time>2018-02-24T10:59:25Z</time>
      </trkpt>
      <trkpt lat="45.87465" lon="4.7087">
        <ele>213</ele>
        <time>2018-02-24T10:59:26Z</time>
      </trkpt>
      <trkpt lat="45.87463" lon="4.70861">
        <ele>213</ele>
        <time>2018-02-24T10:59:27Z</time>
      </trkpt>
      <trkpt lat="45.87461" lon="4.70852">
        <ele>213</ele>
        <time>2018-02-24T10:59:28Z</time>
      </trkpt>
      <trkpt lat="45.87458" lon="4.70844">
        <ele>213</ele>
        <time>2018-02-24T10:59:29Z</time>
      </trkpt>
      <trkpt lat="45.87456" lon="4.70836">
        <ele>213</ele>
        <time>2018-02-24T10:59:30Z</time>
      </trkpt>
      <trkpt lat="45.87454" lon="4.70827">
        <ele>211</ele>
        <time>2018-02-24T10:59:31Z</time>
      </trkpt>
      <trkpt lat="45.87453" lon="4.70817">
        <ele>211</ele>
        <time>2018-02-24T10:59:32Z</time>
      </trkpt>
      <trkpt lat="45.87451" lon="4.70808">
        <ele>211</ele>
        <time>2018-02-24T10:59:33Z</time>
      </trkpt>
      <trkpt lat="45.87448" lon="4.70799">
        <ele>211</ele>
        <time>2018-02-24T10:59:34Z</time>
      </trkpt>
      <trkpt lat="45.87446" lon="4.70789">
        <ele>211</ele>
        <time>2018-02-24T10:59:35Z</time>
      </trkpt>
      <trkpt lat="45.87444" lon="4.70779">
        <ele>211</ele>
        <time>2018-02-24T10:59:36Z</time>
      </trkpt>
      <trkpt lat="45.87442" lon="4.70769">
        <ele>210</ele>
        <time>2018-02-24T10:59:37Z</time>
      </trkpt>
      <trkpt lat="45.87439" lon="4.70759">
        <ele>210</ele>
        <time>2018-02-24T10:59:38Z</time>
      </trkpt>
      <trkpt lat="45.87438" lon="4.70749">
        <ele>209</ele>
        <time>2018-02-24T10:59:39Z</time>
      </trkpt>
      <trkpt lat="45.87436" lon="4.70737">
        <ele>209</ele>
        <time>2018-02-24T10:59:40Z</time>
      </trkpt>
      <trkpt lat="45.87434" lon="4.70727">
        <ele>209</ele>
        <time>2018-02-24T10:59:41Z</time>
      </trkpt>
      <trkpt lat="45.87433" lon="4.70715">
        <ele>209</ele>
        <time>2018-02-24T10:59:42Z</time>
      </trkpt>
      <trkpt lat="45.87432" lon="4.70705">
        <ele>209</ele>
        <time>2018-02-24T10:59:43Z</time>
      </trkpt>
      <trkpt lat="45.87431" lon="4.70693">
        <ele>209</ele>
        <time>2018-02-24T10:59:44Z</time>
      </trkpt>
      <trkpt lat="45.8743" lon="4.70683">
        <ele>209</ele>
        <time>2018-02-24T10:59:45Z</time>
      </trkpt>
      <trkpt lat="45.87428" lon="4.70673">
        <ele>208</ele>
        <time>2018-02-24T10:59:46Z</time>
      </trkpt>
      <trkpt lat="45.87427" lon="4.70662">
        <ele>208</ele>
        <time>2018-02-24T10:59:47Z</time>
      </trkpt>
      <trkpt lat="45.87426" lon="4.70652">
        <ele>209</ele>
        <time>2018-02-24T10:59:48Z</time>
      </trkpt>
      <trkpt lat="45.87424" lon="4.70641">
        <ele>209</ele>
        <time>2018-02-24T10:59:49Z</time>
      </trkpt>
      <trkpt lat="45.87421" lon="4.70631">
        <ele>209</ele>
        <time>2018-02-24T10:59:50Z</time>
      </trkpt>
      <trkpt lat="45.8742" lon="4.70621">
        <ele>210</ele>
        <time>2018-02-24T10:59:51Z</time>
      </trkpt>
      <trkpt lat="45.87417" lon="4.70612">
        <ele>210</ele>
        <time>2018-02-24T10:59:52Z</time>
      </trkpt>
      <trkpt lat="45.87414" lon="4.70603">
        <ele>210</ele>
        <time>2018-02-24T10:59:53Z</time>
      </trkpt>
      <trkpt lat="45.87412" lon="4.70594">
        <ele>210</ele>
        <time>2018-02-24T10:59:54Z</time>
      </trkpt>
      <trkpt lat="45.87408" lon="4.70587">
        <ele>210</ele>
        <time>2018-02-24T10:59:55Z</time>
      </trkpt>
      <trkpt lat="45.87405" lon="4.7058">
        <ele>211</ele>
        <time>2018-02-24T10:59:56Z</time>
      </trkpt>
      <trkpt lat="45.87401" lon="4.70575">
        <ele>211</ele>
        <time>2018-02-24T10:59:57Z</time>
      </trkpt>
      <trkpt lat="45.87396" lon="4.70569">
        <ele>211</ele>
        <time>2018-02-24T10:59:58Z</time>
      </trkpt>
      <trkpt lat="45.87391" lon="4.70564">
        <ele>211</ele>
        <time>2018-02-24T10:59:59Z</time>
      </trkpt>
      <trkpt lat="45.87382" lon="4.70553">
        <ele>212</ele>
        <time>2018-02-24T11:00:01Z</time>
      </trkpt>
      <trkpt lat="45.87378" lon="4.70548">
        <ele>212</ele>
        <time>2018-02-24T11:00:02Z</time>
      </trkpt>
      <trkpt lat="45.87373" lon="4.70543">
        <ele>212</ele>
        <time>2018-02-24T11:00:03Z</time>
      </trkpt>
      <trkpt lat="45.8737" lon="4.70537">
        <ele>212</ele>
        <time>2018-02-24T11:00:04Z</time>
      </trkpt>
      <trkpt lat="45.87366" lon="4.70531">
        <ele>212</ele>
        <time>2018-02-24T11:00:05Z</time>
      </trkpt>
      <trkpt lat="45.87362" lon="4.70526">
        <ele>212</ele>
        <time>2018-02-24T11:00:06Z</time>
      </trkpt>
      <trkpt lat="45.87359" lon="4.70519">
        <ele>212</ele>
        <time>2018-02-24T11:00:07Z</time>
      </trkpt>
      <trkpt lat="45.87355" lon="4.70513">
        <ele>212</ele>
        <time>2018-02-24T11:00:08Z</time>
      </trkpt>
      <trkpt lat="45.87351" lon="4.70508">
        <ele>212</ele>
        <time>2018-02-24T11:00:09Z</time>
      </trkpt>
      <trkpt lat="45.87348" lon="4.70503">
        <ele>212</ele>
        <time>2018-02-24T11:00:10Z</time>
      </trkpt>
      <trkpt lat="45.87345" lon="4.70497">
        <ele>213</ele>
        <time>2018-02-24T11:00:11Z</time>
      </trkpt>
      <trkpt lat="45.87342" lon="4.7049">
        <ele>213</ele>
        <time>2018-02-24T11:00:12Z</time>
      </trkpt>
      <trkpt lat="45.87339" lon="4.70485">
        <ele>213</ele>
        <time>2018-02-24T11:00:13Z</time>
      </trkpt>
      <trkpt lat="45.87335" lon="4.7048">
        <ele>213</ele>
        <time>2018-02-24T11:00:14Z</time>
      </trkpt>
      <trkpt lat="45.87332" lon="4.70476">
        <ele>214</ele>
        <time>2018-02-24T11:00:15Z</time>
      </trkpt>
      <trkpt lat="45.87328" lon="4.7047">
        <ele>214</ele>
        <time>2018-02-24T11:00:16Z</time>
      </trkpt>
      <trkpt lat="45.87326" lon="4.70464">
        <ele>214</ele>
        <time>2018-02-24T11:00:17Z</time>
      </trkpt>
      <trkpt lat="45.87323" lon="4.70458">
        <ele>214</ele>
        <time>2018-02-24T11:00:18Z</time>
      </trkpt>
      <trkpt lat="45.8732" lon="4.70453">
        <ele>214</ele>
        <time>2018-02-24T11:00:19Z</time>
      </trkpt>
      <trkpt lat="45.87316" lon="4.70448">
        <ele>214</ele>
        <time>2018-02-24T11:00:20Z</time>
      </trkpt>
      <trkpt lat="45.87313" lon="4.70443">
        <ele>214</ele>
        <time>2018-02-24T11:00:21Z</time>
      </trkpt>
      <trkpt lat="45.8731" lon="4.70437">
        <ele>214</ele>
        <time>2018-02-24T11:00:22Z</time>
      </trkpt>
      <trkpt lat="45.87305" lon="4.70433">
        <ele>214</ele>
        <time>2018-02-24T11:00:23Z</time>
      </trkpt>
      <trkpt lat="45.87302" lon="4.70427">
        <ele>214</ele>
        <time>2018-02-24T11:00:24Z</time>
      </trkpt>
      <trkpt lat="45.87298" lon="4.70421">
        <ele>214</ele>
        <time>2018-02-24T11:00:25Z</time>
      </trkpt>
      <trkpt lat="45.87295" lon="4.70416">
        <ele>215</ele>
        <time>2018-02-24T11:00:26Z</time>
      </trkpt>
      <trkpt lat="45.87292" lon="4.70409">
        <ele>215</ele>
        <time>2018-02-24T11:00:27Z</time>
      </trkpt>
      <trkpt lat="45.87289" lon="4.70403">
        <ele>216</ele>
        <time>2018-02-24T11:00:28Z</time>
      </trkpt>
      <trkpt lat="45.87287" lon="4.70397">
        <ele>216</ele>
        <time>2018-02-24T11:00:29Z</time>
      </trkpt>
      <trkpt lat="45.87284" lon="4.70391">
        <ele>216</ele>
        <time>2018-02-24T11:00:30Z</time>
      </trkpt>
      <trkpt lat="45.87282" lon="4.70385">
        <ele>216</ele>
        <time>2018-02-24T11:00:31Z</time>
      </trkpt>
      <trkpt lat="45.87277" lon="4.70381">
        <ele>216</ele>
        <time>2018-02-24T11:00:32Z</time>
      </trkpt>
      <trkpt lat="45.87273" lon="4.70377">
        <ele>216</ele>
        <time>2018-02-24T11:00:33Z</time>
      </trkpt>
      <trkpt lat="45.87269" lon="4.70373">
        <ele>216</ele>
        <time>2018-02-24T11:00:34Z</time>
      </trkpt>
      <trkpt lat="45.87266" lon="4.70368">
        <ele>216</ele>
        <time>2018-02-24T11:00:35Z</time>
      </trkpt>
      <trkpt lat="45.87262" lon="4.70363">
        <ele>216</ele>
        <time>2018-02-24T11:00:36Z</time>
      </trkpt>
      <trkpt lat="45.87259" lon="4.70359">
        <ele>216</ele>
        <time>2018-02-24T11:00:37Z</time>
      </trkpt>
      <trkpt lat="45.87255" lon="4.70353">
        <ele>217</ele>
        <time>2018-02-24T11:00:38Z</time>
      </trkpt>
      <trkpt lat="45.87251" lon="4.70349">
        <ele>217</ele>
        <time>2018-02-24T11:00:39Z</time>
      </trkpt>
      <trkpt lat="45.87247" lon="4.70345">
        <ele>217</ele>
        <time>2018-02-24T11:00:40Z</time>
      </trkpt>
      <trkpt lat="45.87244" lon="4.7034">
        <ele>217</ele>
        <time>2018-02-24T11:00:41Z</time>
      </trkpt>
      <trkpt lat="45.8724" lon="4.70336">
        <ele>217</ele>
        <time>2018-02-24T11:00:42Z</time>
      </trkpt>
      <trkpt lat="45.87236" lon="4.70331">
        <ele>217</ele>
        <time>2018-02-24T11:00:43Z</time>
      </trkpt>
      <trkpt lat="45.87233" lon="4.70325">
        <ele>217</ele>
        <time>2018-02-24T11:00:44Z</time>
      </trkpt>
      <trkpt lat="45.8723" lon="4.70321">
        <ele>217</ele>
        <time>2018-02-24T11:00:45Z</time>
      </trkpt>
      <trkpt lat="45.87227" lon="4.70317">
        <ele>217</ele>
        <time>2018-02-24T11:00:46Z</time>
      </trkpt>
      <trkpt lat="45.87223" lon="4.70312">
        <ele>217</ele>
        <time>2018-02-24T11:00:47Z</time>
      </trkpt>
      <trkpt lat="45.8722" lon="4.70307">
        <ele>217</ele>
        <time>2018-02-24T11:00:48Z</time>
      </trkpt>
      <trkpt lat="45.87216" lon="4.70302">
        <ele>217</ele>
        <time>2018-02-24T11:00:49Z</time>
      </trkpt>
      <trkpt lat="45.87213" lon="4.70299">
        <ele>217</ele>
        <time>2018-02-24T11:00:50Z</time>
      </trkpt>
      <trkpt lat="45.87209" lon="4.70294">
        <ele>217</ele>
        <time>2018-02-24T11:00:51Z</time>
      </trkpt>
      <trkpt lat="45.87206" lon="4.7029">
        <ele>217</ele>
        <time>2018-02-24T11:00:52Z</time>
      </trkpt>
      <trkpt lat="45.87202" lon="4.70284">
        <ele>217</ele>
        <time>2018-02-24T11:00:53Z</time>
      </trkpt>
      <trkpt lat="45.87199" lon="4.7028">
        <ele>217</ele>
        <time>2018-02-24T11:00:54Z</time>
      </trkpt>
      <trkpt lat="45.87195" lon="4.70276">
        <ele>217</ele>
        <time>2018-02-24T11:00:55Z</time>
      </trkpt>
      <trkpt lat="45.87191" lon="4.70271">
        <ele>217</ele>
        <time>2018-02-24T11:00:56Z</time>
      </trkpt>
      <trkpt lat="45.87188" lon="4.70268">
        <ele>217</ele>
        <time>2018-02-24T11:00:57Z</time>
      </trkpt>
      <trkpt lat="45.87184" lon="4.70264">
        <ele>216</ele>
        <time>2018-02-24T11:00:58Z</time>
      </trkpt>
      <trkpt lat="45.8718" lon="4.7026">
        <ele>216</ele>
        <time>2018-02-24T11:00:59Z</time>
      </trkpt>
      <trkpt lat="45.87173" lon="4.70252">
        <ele>216</ele>
        <time>2018-02-24T11:01:01Z</time>
      </trkpt>
      <trkpt lat="45.8717" lon="4.70249">
        <ele>216</ele>
        <time>2018-02-24T11:01:02Z</time>
      </trkpt>
      <trkpt lat="45.87164" lon="4.70239">
        <ele>216</ele>
        <time>2018-02-24T11:01:04Z</time>
      </trkpt>
      <trkpt lat="45.8716" lon="4.70234">
        <ele>216</ele>
        <time>2018-02-24T11:01:05Z</time>
      </trkpt>
      <trkpt lat="45.87154" lon="4.70226">
        <ele>216</ele>
        <time>2018-02-24T11:01:07Z</time>
      </trkpt>
      <trkpt lat="45.87151" lon="4.70221">
        <ele>216</ele>
        <time>2018-02-24T11:01:08Z</time>
      </trkpt>
      <trkpt lat="45.87148" lon="4.70217">
        <ele>216</ele>
        <time>2018-02-24T11:01:09Z</time>
      </trkpt>
      <trkpt lat="45.87145" lon="4.70212">
        <ele>216</ele>
        <time>2018-02-24T11:01:10Z</time>
      </trkpt>
      <trkpt lat="45.87141" lon="4.70207">
        <ele>216</ele>
        <time>2018-02-24T11:01:11Z</time>
      </trkpt>
      <trkpt lat="45.87138" lon="4.70203">
        <ele>216</ele>
        <time>2018-02-24T11:01:12Z</time>
      </trkpt>
      <trkpt lat="45.87135" lon="4.70198">
        <ele>216</ele>
        <time>2018-02-24T11:01:13Z</time>
      </trkpt>
      <trkpt lat="45.87131" lon="4.70194">
        <ele>216</ele>
        <time>2018-02-24T11:01:14Z</time>
      </trkpt>
      <trkpt lat="45.87128" lon="4.70188">
        <ele>216</ele>
        <time>2018-02-24T11:01:15Z</time>
      </trkpt>
      <trkpt lat="45.87125" lon="4.70184">
        <ele>216</ele>
        <time>2018-02-24T11:01:16Z</time>
      </trkpt>
      <trkpt lat="45.87121" lon="4.7018">
        <ele>216</ele>
        <time>2018-02-24T11:01:17Z</time>
      </trkpt>
      <trkpt lat="45.87118" lon="4.70175">
        <ele>216</ele>
        <time>2018-02-24T11:01:18Z</time>
      </trkpt>
      <trkpt lat="45.87114" lon="4.7017">
        <ele>216</ele>
        <time>2018-02-24T11:01:19Z</time>
      </trkpt>
      <trkpt lat="45.87111" lon="4.70165">
        <ele>217</ele>
        <time>2018-02-24T11:01:20Z</time>
      </trkpt>
      <trkpt lat="45.87108" lon="4.70159">
        <ele>217</ele>
        <time>2018-02-24T11:01:21Z</time>
      </trkpt>
      <trkpt lat="45.87105" lon="4.70152">
        <ele>217</ele>
        <time>2018-02-24T11:01:22Z</time>
      </trkpt>
      <trkpt lat="45.87102" lon="4.70147">
        <ele>217</ele>
        <time>2018-02-24T11:01:23Z</time>
      </trkpt>
      <trkpt lat="45.87099" lon="4.70141">
        <ele>217</ele>
        <time>2018-02-24T11:01:24Z</time>
      </trkpt>
      <trkpt lat="45.87095" lon="4.70135">
        <ele>217</ele>
        <time>2018-02-24T11:01:25Z</time>
      </trkpt>
      <trkpt lat="45.87092" lon="4.70129">
        <ele>217</ele>
        <time>2018-02-24T11:01:26Z</time>
      </trkpt>
      <trkpt lat="45.87089" lon="4.70123">
        <ele>217</ele>
        <time>2018-02-24T11:01:27Z</time>
      </trkpt>
      <trkpt lat="45.87085" lon="4.70117">
        <ele>217</ele>
        <time>2018-02-24T11:01:28Z</time>
      </trkpt>
      <trkpt lat="45.87082" lon="4.70111">
        <ele>217</ele>
        <time>2018-02-24T11:01:29Z</time>
      </trkpt>
      <trkpt lat="45.87079" lon="4.70105">
        <ele>217</ele>
        <time>2018-02-24T11:01:30Z</time>
      </trkpt>
      <trkpt lat="45.87076" lon="4.70099">
        <ele>217</ele>
        <time>2018-02-24T11:01:31Z</time>
      </trkpt>
      <trkpt lat="45.87073" lon="4.70092">
        <ele>217</ele>
        <time>2018-02-24T11:01:32Z</time>
      </trkpt>
      <trkpt lat="45.8707" lon="4.70087">
        <ele>217</ele>
        <time>2018-02-24T11:01:33Z</time>
      </trkpt>
      <trkpt lat="45.87066" lon="4.70079">
        <ele>217</ele>
        <time>2018-02-24T11:01:34Z</time>
      </trkpt>
      <trkpt lat="45.87063" lon="4.70073">
        <ele>217</ele>
        <time>2018-02-24T11:01:35Z</time>
      </trkpt>
      <trkpt lat="45.8706" lon="4.70068">
        <ele>217</ele>
        <time>2018-02-24T11:01:36Z</time>
      </trkpt>
      <trkpt lat="45.87057" lon="4.70061">
        <ele>217</ele>
        <time>2018-02-24T11:01:37Z</time>
      </trkpt>
      <trkpt lat="45.87054" lon="4.70055">
        <ele>217</ele>
        <time>2018-02-24T11:01:38Z</time>
      </trkpt>
      <trkpt lat="45.87052" lon="4.70049">
        <ele>217</ele>
        <time>2018-02-24T11:01:39Z</time>
      </trkpt>
      <trkpt lat="45.87049" lon="4.70044">
        <ele>217</ele>
        <time>2018-02-24T11:01:40Z</time>
      </trkpt>
      <trkpt lat="45.87046" lon="4.70038">
        <ele>217</ele>
        <time>2018-02-24T11:01:41Z</time>
      </trkpt>
      <trkpt lat="45.87043" lon="4.70034">
        <ele>217</ele>
        <time>2018-02-24T11:01:42Z</time>
      </trkpt>
      <trkpt lat="45.87039" lon="4.70029">
        <ele>217</ele>
        <time>2018-02-24T11:01:43Z</time>
      </trkpt>
      <trkpt lat="45.87036" lon="4.70023">
        <ele>217</ele>
        <time>2018-02-24T11:01:44Z</time>
      </trkpt>
      <trkpt lat="45.87032" lon="4.70019">
        <ele>217</ele>
        <time>2018-02-24T11:01:45Z</time>
      </trkpt>
      <trkpt lat="45.87029" lon="4.70014">
        <ele>217</ele>
        <time>2018-02-24T11:01:46Z</time>
      </trkpt>
      <trkpt lat="45.87025" lon="4.7001">
        <ele>217</ele>
        <time>2018-02-24T11:01:47Z</time>
      </trkpt>
      <trkpt lat="45.87021" lon="4.70006">
        <ele>217</ele>
        <time>2018-02-24T11:01:48Z</time>
      </trkpt>
      <trkpt lat="45.87016" lon="4.70001">
        <ele>217</ele>
        <time>2018-02-24T11:01:49Z</time>
      </trkpt>
      <trkpt lat="45.87012" lon="4.69997">
        <ele>218</ele>
        <time>2018-02-24T11:01:50Z</time>
      </trkpt>
      <trkpt lat="45.87008" lon="4.69993">
        <ele>218</ele>
        <time>2018-02-24T11:01:51Z</time>
      </trkpt>
      <trkpt lat="45.87004" lon="4.69988">
        <ele>218</ele>
        <time>2018-02-24T11:01:52Z</time>
      </trkpt>
      <trkpt lat="45.87001" lon="4.69982">
        <ele>218</ele>
        <time>2018-02-24T11:01:53Z</time>
      </trkpt>
      <trkpt lat="45.86998" lon="4.69976">
        <ele>217</ele>
        <time>2018-02-24T11:01:54Z</time>
      </trkpt>
      <trkpt lat="45.86996" lon="4.6997">
        <ele>217</ele>
        <time>2018-02-24T11:01:55Z</time>
      </trkpt>
      <trkpt lat="45.86994" lon="4.69964">
        <ele>217</ele>
        <time>2018-02-24T11:01:56Z</time>
      </trkpt>
      <trkpt lat="45.86986" lon="4.6996">
        <ele>217</ele>
        <time>2018-02-24T11:01:58Z</time>
      </trkpt>
      <trkpt lat="45.86982" lon="4.69961">
        <ele>217</ele>
        <time>2018-02-24T11:01:59Z</time>
      </trkpt>
      <trkpt lat="45.86977" lon="4.69962">
        <ele>217</ele>
        <time>2018-02-24T11:02:00Z</time>
      </trkpt>
      <trkpt lat="45.86972" lon="4.69962">
        <ele>217</ele>
        <time>2018-02-24T11:02:01Z</time>
      </trkpt>
      <trkpt lat="45.86967" lon="4.69962">
        <ele>217</ele>
        <time>2018-02-24T11:02:02Z</time>
      </trkpt>
      <trkpt lat="45.86962" lon="4.6996">
        <ele>217</ele>
        <time>2018-02-24T11:02:03Z</time>
      </trkpt>
      <trkpt lat="45.86957" lon="4.69957">
        <ele>217</ele>
        <time>2018-02-24T11:02:04Z</time>
      </trkpt>
      <trkpt lat="45.86952" lon="4.69953">
        <ele>217</ele>
        <time>2018-02-24T11:02:05Z</time>
      </trkpt>
      <trkpt lat="45.86948" lon="4.69949">
        <ele>217</ele>
        <time>2018-02-24T11:02:06Z</time>
      </trkpt>
      <trkpt lat="45.86943" lon="4.69946">
        <ele>217</ele>
        <time>2018-02-24T11:02:07Z</time>
      </trkpt>
      <trkpt lat="45.86938" lon="4.69943">
        <ele>217</ele>
        <time>2018-02-24T11:02:08Z</time>
      </trkpt>
      <trkpt lat="45.86934" lon="4.6994">
        <ele>217</ele>
        <time>2018-02-24T11:02:09Z</time>
      </trkpt>
      <trkpt lat="45.8693" lon="4.69937">
        <ele>217</ele>
        <time>2018-02-24T11:02:10Z</time>
      </trkpt>
      <trkpt lat="45.86925" lon="4.69934">
        <ele>217</ele>
        <time>2018-02-24T11:02:11Z</time>
      </trkpt>
      <trkpt lat="45.8692" lon="4.6993">
        <ele>217</ele>
        <time>2018-02-24T11:02:12Z</time>
      </trkpt>
      <trkpt lat="45.86916" lon="4.69927">
        <ele>217</ele>
        <time>2018-02-24T11:02:13Z</time>
      </trkpt>
      <trkpt lat="45.86912" lon="4.69923">
        <ele>217</ele>
        <time>2018-02-24T11:02:14Z</time>
      </trkpt>
      <trkpt lat="45.86908" lon="4.6992">
        <ele>217</ele>
        <time>2018-02-24T11:02:15Z</time>
      </trkpt>
      <trkpt lat="45.86904" lon="4.69916">
        <ele>217</ele>
        <time>2018-02-24T11:02:16Z</time>
      </trkpt>
      <trkpt lat="45.869" lon="4.69912">
        <ele>217</ele>
        <time>2018-02-24T11:02:17Z</time>
      </trkpt>
      <trkpt lat="45.86896" lon="4.69908">
        <ele>217</ele>
        <time>2018-02-24T11:02:18Z</time>
      </trkpt>
      <trkpt lat="45.86891" lon="4.69905">
        <ele>217</ele>
        <time>2018-02-24T11:02:19Z</time>
      </trkpt>
      <trkpt lat="45.86887" lon="4.69901">
        <ele>217</ele>
        <time>2018-02-24T11:02:20Z</time>
      </trkpt>
      <trkpt lat="45.86882" lon="4.69898">
        <ele>217</ele>
        <time>2018-02-24T11:02:21Z</time>
      </trkpt>
      <trkpt lat="45.86878" lon="4.69895">
        <ele>217</ele>
        <time>2018-02-24T11:02:22Z</time>
      </trkpt>
      <trkpt lat="45.86873" lon="4.69891">
        <ele>217</ele>
        <time>2018-02-24T11:02:23Z</time>
      </trkpt>
      <trkpt lat="45.86869" lon="4.69886">
        <ele>217</ele>
        <time>2018-02-24T11:02:24Z</time>
      </trkpt>
      <trkpt lat="45.86864" lon="4.69883">
        <ele>217</ele>
        <time>2018-02-24T11:02:25Z</time>
      </trkpt>
      <trkpt lat="45.8686" lon="4.69879">
        <ele>217</ele>
        <time>2018-02-24T11:02:26Z</time>
      </trkpt>
      <trkpt lat="45.86856" lon="4.69875">
        <ele>217</ele>
        <time>2018-02-24T11:02:27Z</time>
      </trkpt>
      <trkpt lat="45.86851" lon="4.6987">
        <ele>217</ele>
        <time>2018-02-24T11:02:28Z</time>
      </trkpt>
      <trkpt lat="45.86847" lon="4.69867">
        <ele>217</ele>
        <time>2018-02-24T11:02:29Z</time>
      </trkpt>
      <trkpt lat="45.86842" lon="4.69863">
        <ele>217</ele>
        <time>2018-02-24T11:02:30Z</time>
      </trkpt>
      <trkpt lat="45.86838" lon="4.69859">
        <ele>217</ele>
        <time>2018-02-24T11:02:31Z</time>
      </trkpt>
      <trkpt lat="45.86835" lon="4.69856">
        <ele>217</ele>
        <time>2018-02-24T11:02:32Z</time>
      </trkpt>
      <trkpt lat="45.8683" lon="4.69851">
        <ele>217</ele>
        <time>2018-02-24T11:02:33Z</time>
      </trkpt>
      <trkpt lat="45.86826" lon="4.69848">
        <ele>217</ele>
        <time>2018-02-24T11:02:34Z</time>
      </trkpt>
      <trkpt lat="45.86821" lon="4.69843">
        <ele>217</ele>
        <time>2018-02-24T11:02:35Z</time>
      </trkpt>
      <trkpt lat="45.86817" lon="4.69839">
        <ele>217</ele>
        <time>2018-02-24T11:02:36Z</time>
      </trkpt>
      <trkpt lat="45.86812" lon="4.69835">
        <ele>217</ele>
        <time>2018-02-24T11:02:37Z</time>
      </trkpt>
      <trkpt lat="45.86807" lon="4.69832">
        <ele>217</ele>
        <time>2018-02-24T11:02:38Z</time>
      </trkpt>
      <trkpt lat="45.86803" lon="4.69828">
        <ele>217</ele>
        <time>2018-02-24T11:02:39Z</time>
      </trkpt>
      <trkpt lat="45.86798" lon="4.69824">
        <ele>217</ele>
        <time>2018-02-24T11:02:40Z</time>
      </trkpt>
      <trkpt lat="45.86793" lon="4.6982">
        <ele>217</ele>
        <time>2018-02-24T11:02:41Z</time>
      </trkpt>
      <trkpt lat="45.8679" lon="4.69816">
        <ele>217</ele>
        <time>2018-02-24T11:02:42Z</time>
      </trkpt>
      <trkpt lat="45.86785" lon="4.69813">
        <ele>217</ele>
        <time>2018-02-24T11:02:43Z</time>
      </trkpt>
      <trkpt lat="45.8678" lon="4.69808">
        <ele>217</ele>
        <time>2018-02-24T11:02:44Z</time>
      </trkpt>
      <trkpt lat="45.86776" lon="4.69804">
        <ele>217</ele>
        <time>2018-02-24T11:02:45Z</time>
      </trkpt>
      <trkpt lat="45.86771" lon="4.69799">
        <ele>217</ele>
        <time>2018-02-24T11:02:46Z</time>
      </trkpt>
      <trkpt lat="45.86767" lon="4.69795">
        <ele>217</ele>
        <time>2018-02-24T11:02:47Z</time>
      </trkpt>
      <trkpt lat="45.86763" lon="4.69791">
        <ele>217</ele>
        <time>2018-02-24T11:02:48Z</time>
      </trkpt>
      <trkpt lat="45.86758" lon="4.69787">
        <ele>217</ele>
        <time>2018-02-24T11:02:49Z</time>
      </trkpt>
      <trkpt lat="45.86754" lon="4.69784">
        <ele>217</ele>
        <time>2018-02-24T11:02:50Z</time>
      </trkpt>
      <trkpt lat="45.86749" lon="4.69781">
        <ele>217</ele>
        <time>2018-02-24T11:02:51Z</time>
      </trkpt>
      <trkpt lat="45.86745" lon="4.69777">
        <ele>217</ele>
        <time>2018-02-24T11:02:52Z</time>
      </trkpt>
      <trkpt lat="45.8674" lon="4.69773">
        <ele>217</ele>
        <time>2018-02-24T11:02:53Z</time>
      </trkpt>
      <trkpt lat="45.86736" lon="4.69769">
        <ele>217</ele>
        <time>2018-02-24T11:02:54Z</time>
      </trkpt>
      <trkpt lat="45.86732" lon="4.69765">
        <ele>217</ele>
        <time>2018-02-24T11:02:55Z</time>
      </trkpt>
      <trkpt lat="45.86728" lon="4.69761">
        <ele>217</ele>
        <time>2018-02-24T11:02:56Z</time>
      </trkpt>
      <trkpt lat="45.86724" lon="4.69757">
        <ele>217</ele>
        <time>2018-02-24T11:02:57Z</time>
      </trkpt>
      <trkpt lat="45.8672" lon="4.69754">
        <ele>217</ele>
        <time>2018-02-24T11:02:58Z</time>
      </trkpt>
      <trkpt lat="45.86715" lon="4.6975">
        <ele>217</ele>
        <time>2018-02-24T11:02:59Z</time>
      </trkpt>
      <trkpt lat="45.86711" lon="4.69746">
        <ele>217</ele>
        <time>2018-02-24T11:03:00Z</time>
      </trkpt>
      <trkpt lat="45.86707" lon="4.69742">
        <ele>217</ele>
        <time>2018-02-24T11:03:01Z</time>
      </trkpt>
      <trkpt lat="45.86703" lon="4.69738">
        <ele>217</ele>
        <time>2018-02-24T11:03:02Z</time>
      </trkpt>
      <trkpt lat="45.86699" lon="4.69735">
        <ele>217</ele>
        <time>2018-02-24T11:03:03Z</time>
      </trkpt>
      <trkpt lat="45.86691" lon="4.6973">
        <ele>217</ele>
        <time>2018-02-24T11:03:05Z</time>
      </trkpt>
      <trkpt lat="45.86687" lon="4.69726">
        <ele>217</ele>
        <time>2018-02-24T11:03:06Z</time>
      </trkpt>
      <trkpt lat="45.86682" lon="4.69721">
        <ele>217</ele>
        <time>2018-02-24T11:03:07Z</time>
      </trkpt>
      <trkpt lat="45.86678" lon="4.69716">
        <ele>217</ele>
        <time>2018-02-24T11:03:08Z</time>
      </trkpt>
      <trkpt lat="45.86674" lon="4.69713">
        <ele>217</ele>
        <time>2018-02-24T11:03:09Z</time>
      </trkpt>
      <trkpt lat="45.8667" lon="4.69709">
        <ele>217</ele>
        <time>2018-02-24T11:03:10Z</time>
      </trkpt>
      <trkpt lat="45.86666" lon="4.69705">
        <ele>218</ele>
        <time>2018-02-24T11:03:11Z</time>
      </trkpt>
      <trkpt lat="45.86662" lon="4.69701">
        <ele>218</ele>
        <time>2018-02-24T11:03:12Z</time>
      </trkpt>
      <trkpt lat="45.86655" lon="4.69693">
        <ele>218</ele>
        <time>2018-02-24T11:03:14Z</time>
      </trkpt>
      <trkpt lat="45.86651" lon="4.69689">
        <ele>218</ele>
        <time>2018-02-24T11:03:15Z</time>
      </trkpt>
      <trkpt lat="45.86647" lon="4.69685">
        <ele>218</ele>
        <time>2018-02-24T11:03:16Z</time>
      </trkpt>
      <trkpt lat="45.86643" lon="4.69681">
        <ele>218</ele>
        <time>2018-02-24T11:03:17Z</time>
      </trkpt>
      <trkpt lat="45.8664" lon="4.69677">
        <ele>218</ele>
        <time>2018-02-24T11:03:18Z</time>
      </trkpt>
      <trkpt lat="45.86636" lon="4.69672">
        <ele>218</ele>
        <time>2018-02-24T11:03:19Z</time>
      </trkpt>
      <trkpt lat="45.86632" lon="4.69667">
        <ele>218</ele>
        <time>2018-02-24T11:03:20Z</time>
      </trkpt>
      <trkpt lat="45.86629" lon="4.69662">
        <ele>218</ele>
        <time>2018-02-24T11:03:21Z</time>
      </trkpt>
      <trkpt lat="45.86625" lon="4.69657">
        <ele>218</ele>
        <time>2018-02-24T11:03:22Z</time>
      </trkpt>
      <trkpt lat="45.86622" lon="4.69652">
        <ele>219</ele>
        <time>2018-02-24T11:03:23Z</time>
      </trkpt>
      <trkpt lat="45.86618" lon="4.69648">
        <ele>219</ele>
        <time>2018-02-24T11:03:24Z</time>
      </trkpt>
      <trkpt lat="45.86614" lon="4.69644">
        <ele>219</ele>
        <time>2018-02-24T11:03:25Z</time>
      </trkpt>
      <trkpt lat="45.86611" lon="4.69637">
        <ele>219</ele>
        <time>2018-02-24T11:03:26Z</time>
      </trkpt>
      <trkpt lat="45.86608" lon="4.69632">
        <ele>219</ele>
        <time>2018-02-24T11:03:27Z</time>
      </trkpt>
      <trkpt lat="45.86605" lon="4.69626">
        <ele>219</ele>
        <time>2018-02-24T11:03:28Z</time>
      </trkpt>
      <trkpt lat="45.86602" lon="4.69621">
        <ele>219</ele>
        <time>2018-02-24T11:03:29Z</time>
      </trkpt>
      <trkpt lat="45.86599" lon="4.69616">
        <ele>219</ele>
        <time>2018-02-24T11:03:30Z</time>
      </trkpt>
      <trkpt lat="45.86595" lon="4.69611">
        <ele>219</ele>
        <time>2018-02-24T11:03:31Z</time>
      </trkpt>
      <trkpt lat="45.86593" lon="4.69605">
        <ele>219</ele>
        <time>2018-02-24T11:03:32Z</time>
      </trkpt>
      <trkpt lat="45.8659" lon="4.696">
        <ele>219</ele>
        <time>2018-02-24T11:03:33Z</time>
      </trkpt>
      <trkpt lat="45.86586" lon="4.69595">
        <ele>219</ele>
        <time>2018-02-24T11:03:34Z</time>
      </trkpt>
      <trkpt lat="45.86583" lon="4.69589">
        <ele>219</ele>
        <time>2018-02-24T11:03:35Z</time>
      </trkpt>
      <trkpt lat="45.86579" lon="4.69585">
        <ele>219</ele>
        <time>2018-02-24T11:03:36Z</time>
      </trkpt>
      <trkpt lat="45.86576" lon="4.6958">
        <ele>219</ele>
        <time>2018-02-24T11:03:37Z</time>
      </trkpt>
      <trkpt lat="45.86573" lon="4.69575">
        <ele>219</ele>
        <time>2018-02-24T11:03:38Z</time>
      </trkpt>
      <trkpt lat="45.86569" lon="4.6957">
        <ele>219</ele>
        <time>2018-02-24T11:03:39Z</time>
      </trkpt>
      <trkpt lat="45.86566" lon="4.69564">
        <ele>219</ele>
        <time>2018-02-24T11:03:40Z</time>
      </trkpt>
      <trkpt lat="45.86562" lon="4.69559">
        <ele>219</ele>
        <time>2018-02-24T11:03:41Z</time>
      </trkpt>
      <trkpt lat="45.86559" lon="4.69554">
        <ele>219</ele>
        <time>2018-02-24T11:03:42Z</time>
      </trkpt>
      <trkpt lat="45.86554" lon="4.69549">
        <ele>219</ele>
        <time>2018-02-24T11:03:43Z</time>
      </trkpt>
      <trkpt lat="45.8655" lon="4.69544">
        <ele>219</ele>
        <time>2018-02-24T11:03:44Z</time>
      </trkpt>
      <trkpt lat="45.86547" lon="4.69539">
        <ele>219</ele>
        <time>2018-02-24T11:03:45Z</time>
      </trkpt>
      <trkpt lat="45.86544" lon="4.69535">
        <ele>219</ele>
        <time>2018-02-24T11:03:46Z</time>
      </trkpt>
      <trkpt lat="45.86541" lon="4.69529">
        <ele>219</ele>
        <time>2018-02-24T11:03:47Z</time>
      </trkpt>
      <trkpt lat="45.86538" lon="4.69524">
        <ele>219</ele>
        <time>2018-02-24T11:03:48Z</time>
      </trkpt>
      <trkpt lat="45.86534" lon="4.69519">
        <ele>219</ele>
        <time>2018-02-24T11:03:49Z</time>
      </trkpt>
      <trkpt lat="45.86531" lon="4.69514">
        <ele>219</ele>
        <time>2018-02-24T11:03:50Z</time>
      </trkpt>
      <trkpt lat="45.86527" lon="4.69509">
        <ele>219</ele>
        <time>2018-02-24T11:03:51Z</time>
      </trkpt>
      <trkpt lat="45.86523" lon="4.69504">
        <ele>219</ele>
        <time>2018-02-24T11:03:52Z</time>
      </trkpt>
      <trkpt lat="45.8652" lon="4.69498">
        <ele>219</ele>
        <time>2018-02-24T11:03:53Z</time>
      </trkpt>
      <trkpt lat="45.86517" lon="4.69492">
        <ele>219</ele>
        <time>2018-02-24T11:03:54Z</time>
      </trkpt>
      <trkpt lat="45.86513" lon="4.69487">
        <ele>219</ele>
        <time>2018-02-24T11:03:55Z</time>
      </trkpt>
      <trkpt lat="45.8651" lon="4.69481">
        <ele>219</ele>
        <time>2018-02-24T11:03:56Z</time>
      </trkpt>
      <trkpt lat="45.86506" lon="4.69476">
        <ele>219</ele>
        <time>2018-02-24T11:03:57Z</time>
      </trkpt>
      <trkpt lat="45.86503" lon="4.6947">
        <ele>219</ele>
        <time>2018-02-24T11:03:58Z</time>
      </trkpt>
      <trkpt lat="45.865" lon="4.69464">
        <ele>218</ele>
        <time>2018-02-24T11:03:59Z</time>
      </trkpt>
      <trkpt lat="45.86496" lon="4.69459">
        <ele>218</ele>
        <time>2018-02-24T11:04:00Z</time>
      </trkpt>
      <trkpt lat="45.86492" lon="4.69453">
        <ele>218</ele>
        <time>2018-02-24T11:04:01Z</time>
      </trkpt>
      <trkpt lat="45.86489" lon="4.69447">
        <ele>218</ele>
        <time>2018-02-24T11:04:02Z</time>
      </trkpt>
      <trkpt lat="45.86486" lon="4.69441">
        <ele>218</ele>
        <time>2018-02-24T11:04:03Z</time>
      </trkpt>
      <trkpt lat="45.86482" lon="4.69435">
        <ele>218</ele>
        <time>2018-02-24T11:04:04Z</time>
      </trkpt>
      <trkpt lat="45.86478" lon="4.69429">
        <ele>218</ele>
        <time>2018-02-24T11:04:05Z</time>
      </trkpt>
      <trkpt lat="45.86474" lon="4.69424">
        <ele>218</ele>
        <time>2018-02-24T11:04:06Z</time>
      </trkpt>
      <trkpt lat="45.86471" lon="4.69418">
        <ele>218</ele>
        <time>2018-02-24T11:04:07Z</time>
      </trkpt>
      <trkpt lat="45.86468" lon="4.69412">
        <ele>219</ele>
        <time>2018-02-24T11:04:08Z</time>
      </trkpt>
      <trkpt lat="45.86463" lon="4.69407">
        <ele>219</ele>
        <time>2018-02-24T11:04:09Z</time>
      </trkpt>
      <trkpt lat="45.86459" lon="4.69401">
        <ele>219</ele>
        <time>2018-02-24T11:04:10Z</time>
      </trkpt>
      <trkpt lat="45.86455" lon="4.69395">
        <ele>219</ele>
        <time>2018-02-24T11:04:11Z</time>
      </trkpt>
      <trkpt lat="45.86452" lon="4.69389">
        <ele>219</ele>
        <time>2018-02-24T11:04:12Z</time>
      </trkpt>
      <trkpt lat="45.86448" lon="4.69383">
        <ele>219</ele>
        <time>2018-02-24T11:04:13Z</time>
      </trkpt>
      <trkpt lat="45.86446" lon="4.69377">
        <ele>219</ele>
        <time>2018-02-24T11:04:14Z</time>
      </trkpt>
      <trkpt lat="45.86443" lon="4.6937">
        <ele>219</ele>
        <time>2018-02-24T11:04:15Z</time>
      </trkpt>
      <trkpt lat="45.8644" lon="4.69364">
        <ele>219</ele>
        <time>2018-02-24T11:04:16Z</time>
      </trkpt>
      <trkpt lat="45.86437" lon="4.69357">
        <ele>219</ele>
        <time>2018-02-24T11:04:17Z</time>
      </trkpt>
      <trkpt lat="45.86434" lon="4.6935">
        <ele>219</ele>
        <time>2018-02-24T11:04:18Z</time>
      </trkpt>
      <trkpt lat="45.8643" lon="4.69344">
        <ele>219</ele>
        <time>2018-02-24T11:04:19Z</time>
      </trkpt>
      <trkpt lat="45.86427" lon="4.69337">
        <ele>219</ele>
        <time>2018-02-24T11:04:20Z</time>
      </trkpt>
      <trkpt lat="45.86424" lon="4.6933">
        <ele>219</ele>
        <time>2018-02-24T11:04:21Z</time>
      </trkpt>
      <trkpt lat="45.8642" lon="4.69323">
        <ele>219</ele>
        <time>2018-02-24T11:04:22Z</time>
      </trkpt>
      <trkpt lat="45.86417" lon="4.69317">
        <ele>219</ele>
        <time>2018-02-24T11:04:23Z</time>
      </trkpt>
      <trkpt lat="45.86415" lon="4.69309">
        <ele>219</ele>
        <time>2018-02-24T11:04:24Z</time>
      </trkpt>
      <trkpt lat="45.86412" lon="4.69302">
        <ele>219</ele>
        <time>2018-02-24T11:04:25Z</time>
      </trkpt>
      <trkpt lat="45.86408" lon="4.69295">
        <ele>219</ele>
        <time>2018-02-24T11:04:26Z</time>
      </trkpt>
      <trkpt lat="45.86405" lon="4.69287">
        <ele>219</ele>
        <time>2018-02-24T11:04:27Z</time>
      </trkpt>
      <trkpt lat="45.86401" lon="4.6928">
        <ele>219</ele>
        <time>2018-02-24T11:04:28Z</time>
      </trkpt>
      <trkpt lat="45.86398" lon="4.69273">
        <ele>219</ele>
        <time>2018-02-24T11:04:29Z</time>
      </trkpt>
      <trkpt lat="45.86395" lon="4.69265">
        <ele>219</ele>
        <time>2018-02-24T11:04:30Z</time>
      </trkpt>
      <trkpt lat="45.86391" lon="4.69257">
        <ele>219</ele>
        <time>2018-02-24T11:04:31Z</time>
      </trkpt>
      <trkpt lat="45.86388" lon="4.69249">
        <ele>219</ele>
        <time>2018-02-24T11:04:32Z</time>
      </trkpt>
      <trkpt lat="45.86385" lon="4.69241">
        <ele>219</ele>
        <time>2018-02-24T11:04:33Z</time>
      </trkpt>
      <trkpt lat="45.86381" lon="4.69234">
        <ele>219</ele>
        <time>2018-02-24T11:04:34Z</time>
      </trkpt>
      <trkpt lat="45.86377" lon="4.69226">
        <ele>219</ele>
        <time>2018-02-24T11:04:35Z</time>
      </trkpt>
      <trkpt lat="45.86374" lon="4.69218">
        <ele>219</ele>
        <time>2018-02-24T11:04:36Z</time>
      </trkpt>
      <trkpt lat="45.8637" lon="4.69209">
        <ele>219</ele>
        <time>2018-02-24T11:04:37Z</time>
      </trkpt>
      <trkpt lat="45.86367" lon="4.69201">
        <ele>219</ele>
        <time>2018-02-24T11:04:38Z</time>
      </trkpt>
      <trkpt lat="45.86363" lon="4.69191">
        <ele>218</ele>
        <time>2018-02-24T11:04:39Z</time>
      </trkpt>
      <trkpt lat="45.86358" lon="4.69183">
        <ele>218</ele>
        <time>2018-02-24T11:04:40Z</time>
      </trkpt>
      <trkpt lat="45.86354" lon="4.69174">
        <ele>218</ele>
        <time>2018-02-24T11:04:41Z</time>
      </trkpt>
      <trkpt lat="45.86349" lon="4.69165">
        <ele>217</ele>
        <time>2018-02-24T11:04:42Z</time>
      </trkpt>
      <trkpt lat="45.86344" lon="4.69156">
        <ele>217</ele>
        <time>2018-02-24T11:04:43Z</time>
      </trkpt>
      <trkpt lat="45.86339" lon="4.69146">
        <ele>217</ele>
        <time>2018-02-24T11:04:44Z</time>
      </trkpt>
      <trkpt lat="45.86333" lon="4.69136">
        <ele>215</ele>
        <time>2018-02-24T11:04:45Z</time>
      </trkpt>
      <trkpt lat="45.86326" lon="4.69126">
        <ele>215</ele>
        <time>2018-02-24T11:04:46Z</time>
      </trkpt>
      <trkpt lat="45.86319" lon="4.69117">
        <ele>214</ele>
        <time>2018-02-24T11:04:47Z</time>
      </trkpt>
      <trkpt lat="45.86312" lon="4.69108">
        <ele>214</ele>
        <time>2018-02-24T11:04:48Z</time>
      </trkpt>
      <trkpt lat="45.86304" lon="4.691">
        <ele>214</ele>
        <time>2018-02-24T11:04:49Z</time>
      </trkpt>
      <trkpt lat="45.86295" lon="4.69093">
        <ele>214</ele>
        <time>2018-02-24T11:04:50Z</time>
      </trkpt>
      <trkpt lat="45.86285" lon="4.69086">
        <ele>213</ele>
        <time>2018-02-24T11:04:51Z</time>
      </trkpt>
      <trkpt lat="45.86275" lon="4.69081">
        <ele>213</ele>
        <time>2018-02-24T11:04:52Z</time>
      </trkpt>
      <trkpt lat="45.86265" lon="4.69076">
        <ele>213</ele>
        <time>2018-02-24T11:04:53Z</time>
      </trkpt>
      <trkpt lat="45.86255" lon="4.69073">
        <ele>212</ele>
        <time>2018-02-24T11:04:54Z</time>
      </trkpt>
      <trkpt lat="45.86244" lon="4.6907">
        <ele>211</ele>
        <time>2018-02-24T11:04:55Z</time>
      </trkpt>
      <trkpt lat="45.86233" lon="4.69067">
        <ele>211</ele>
        <time>2018-02-24T11:04:56Z</time>
      </trkpt>
      <trkpt lat="45.86223" lon="4.69066">
        <ele>210</ele>
        <time>2018-02-24T11:04:57Z</time>
      </trkpt>
      <trkpt lat="45.86212" lon="4.69066">
        <ele>210</ele>
        <time>2018-02-24T11:04:58Z</time>
      </trkpt>
      <trkpt lat="45.86202" lon="4.69066">
        <ele>210</ele>
        <time>2018-02-24T11:04:59Z</time>
      </trkpt>
      <trkpt lat="45.86193" lon="4.69065">
        <ele>209</ele>
        <time>2018-02-24T11:05:00Z</time>
      </trkpt>
      <trkpt lat="45.86182" lon="4.69066">
        <ele>208</ele>
        <time>2018-02-24T11:05:01Z</time>
      </trkpt>
      <trkpt lat="45.86172" lon="4.69069">
        <ele>208</ele>
        <time>2018-02-24T11:05:02Z</time>
      </trkpt>
      <trkpt lat="45.86158" lon="4.69068">
        <ele>204</ele>
        <time>2018-02-24T11:05:03Z</time>
      </trkpt>
      <trkpt lat="45.86147" lon="4.6907">
        <ele>204</ele>
        <time>2018-02-24T11:05:04Z</time>
      </trkpt>
      <trkpt lat="45.86137" lon="4.69071">
        <ele>203</ele>
        <time>2018-02-24T11:05:05Z</time>
      </trkpt>
      <trkpt lat="45.86127" lon="4.69073">
        <ele>203</ele>
        <time>2018-02-24T11:05:06Z</time>
      </trkpt>
      <trkpt lat="45.86117" lon="4.69073">
        <ele>202</ele>
        <time>2018-02-24T11:05:07Z</time>
      </trkpt>
      <trkpt lat="45.86106" lon="4.69075">
        <ele>201</ele>
        <time>2018-02-24T11:05:08Z</time>
      </trkpt>
      <trkpt lat="45.86096" lon="4.69076">
        <ele>200</ele>
        <time>2018-02-24T11:05:09Z</time>
      </trkpt>
      <trkpt lat="45.86086" lon="4.69077">
        <ele>199</ele>
        <time>2018-02-24T11:05:10Z</time>
      </trkpt>
      <trkpt lat="45.86075" lon="4.69078">
        <ele>198</ele>
        <time>2018-02-24T11:05:11Z</time>
      </trkpt>
      <trkpt lat="45.86065" lon="4.69079">
        <ele>198</ele>
        <time>2018-02-24T11:05:12Z</time>
      </trkpt>
      <trkpt lat="45.86055" lon="4.69081">
        <ele>198</ele>
        <time>2018-02-24T11:05:13Z</time>
      </trkpt>
      <trkpt lat="45.86045" lon="4.69083">
        <ele>198</ele>
        <time>2018-02-24T11:05:14Z</time>
      </trkpt>
      <trkpt lat="45.86036" lon="4.69084">
        <ele>197</ele>
        <time>2018-02-24T11:05:15Z</time>
      </trkpt>
      <trkpt lat="45.86028" lon="4.69084">
        <ele>197</ele>
        <time>2018-02-24T11:05:16Z</time>
      </trkpt>
      <trkpt lat="45.8602" lon="4.69086">
        <ele>197</ele>
        <time>2018-02-24T11:05:17Z</time>
      </trkpt>
      <trkpt lat="45.86012" lon="4.69087">
        <ele>196</ele>
        <time>2018-02-24T11:05:18Z</time>
      </trkpt>
      <trkpt lat="45.86004" lon="4.69088">
        <ele>196</ele>
        <time>2018-02-24T11:05:19Z</time>
      </trkpt>
      <trkpt lat="45.85995" lon="4.6909">
        <ele>196</ele>
        <time>2018-02-24T11:05:20Z</time>
      </trkpt>
      <trkpt lat="45.85988" lon="4.6909">
        <ele>196</ele>
        <time>2018-02-24T11:05:21Z</time>
      </trkpt>
      <trkpt lat="45.85981" lon="4.69091">
        <ele>197</ele>
        <time>2018-02-24T11:05:22Z</time>
      </trkpt>
      <trkpt lat="45.85974" lon="4.69091">
        <ele>197</ele>
        <time>2018-02-24T11:05:23Z</time>
      </trkpt>
      <trkpt lat="45.85966" lon="4.69091">
        <ele>197</ele>
        <time>2018-02-24T11:05:24Z</time>
      </trkpt>
      <trkpt lat="45.85959" lon="4.69091">
        <ele>197</ele>
        <time>2018-02-24T11:05:25Z</time>
      </trkpt>
      <trkpt lat="45.85953" lon="4.6909">
        <ele>197</ele>
        <time>2018-02-24T11:05:26Z</time>
      </trkpt>
      <trkpt lat="45.85946" lon="4.69088">
        <ele>197</ele>
        <time>2018-02-24T11:05:27Z</time>
      </trkpt>
      <trkpt lat="45.85939" lon="4.69087">
        <ele>197</ele>
        <time>2018-02-24T11:05:28Z</time>
      </trkpt>
      <trkpt lat="45.85932" lon="4.69086">
        <ele>198</ele>
        <time>2018-02-24T11:05:29Z</time>
      </trkpt>
      <trkpt lat="45.85926" lon="4.69084">
        <ele>198</ele>
        <time>2018-02-24T11:05:30Z</time>
      </trkpt>
      <trkpt lat="45.85919" lon="4.69082">
        <ele>198</ele>
        <time>2018-02-24T11:05:31Z</time>
      </trkpt>
      <trkpt lat="45.85914" lon="4.69078">
        <ele>198</ele>
        <time>2018-02-24T11:05:32Z</time>
      </trkpt>
      <trkpt lat="45.85908" lon="4.69073">
        <ele>198</ele>
        <time>2018-02-24T11:05:33Z</time>
      </trkpt>
      <trkpt lat="45.85903" lon="4.69068">
        <ele>198</ele>
        <time>2018-02-24T11:05:34Z</time>
      </trkpt>
      <trkpt lat="45.85898" lon="4.69063">
        <ele>198</ele>
        <time>2018-02-24T11:05:35Z</time>
      </trkpt>
      <trkpt lat="45.85893" lon="4.69057">
        <ele>198</ele>
        <time>2018-02-24T11:05:36Z</time>
      </trkpt>
      <trkpt lat="45.85888" lon="4.69051">
        <ele>198</ele>
        <time>2018-02-24T11:05:37Z</time>
      </trkpt>
      <trkpt lat="45.85884" lon="4.69044">
        <ele>198</ele>
        <time>2018-02-24T11:05:38Z</time>
      </trkpt>
      <trkpt lat="45.8588" lon="4.69037">
        <ele>198</ele>
        <time>2018-02-24T11:05:39Z</time>
      </trkpt>
      <trkpt lat="45.85878" lon="4.69028">
        <ele>198</ele>
        <time>2018-02-24T11:05:40Z</time>
      </trkpt>
      <trkpt lat="45.85875" lon="4.69019">
        <ele>197</ele>
        <time>2018-02-24T11:05:41Z</time>
      </trkpt>
      <trkpt lat="45.85872" lon="4.6901">
        <ele>197</ele>
        <time>2018-02-24T11:05:42Z</time>
      </trkpt>
      <trkpt lat="45.85871" lon="4.69001">
        <ele>197</ele>
        <time>2018-02-24T11:05:43Z</time>
      </trkpt>
      <trkpt lat="45.85869" lon="4.68992">
        <ele>197</ele>
        <time>2018-02-24T11:05:44Z</time>
      </trkpt>
      <trkpt lat="45.85867" lon="4.68983">
        <ele>197</ele>
        <time>2018-02-24T11:05:45Z</time>
      </trkpt>
      <trkpt lat="45.85866" lon="4.68974">
        <ele>197</ele>
        <time>2018-02-24T11:05:46Z</time>
      </trkpt>
      <trkpt lat="45.85865" lon="4.68966">
        <ele>197</ele>
        <time>2018-02-24T11:05:47Z</time>
      </trkpt>
      <trkpt lat="45.85865" lon="4.68957">
        <ele>197</ele>
        <time>2018-02-24T11:05:48Z</time>
      </trkpt>
      <trkpt lat="45.85867" lon="4.6895">
        <ele>197</ele>
        <time>2018-02-24T11:05:49Z</time>
      </trkpt>
      <trkpt lat="45.85867" lon="4.68942">
        <ele>197</ele>
        <time>2018-02-24T11:05:50Z</time>
      </trkpt>
      <trkpt lat="45.85867" lon="4.68934">
        <ele>197</ele>
        <time>2018-02-24T11:05:51Z</time>
      </trkpt>
      <trkpt lat="45.85868" lon="4.68926">
        <ele>197</ele>
        <time>2018-02-24T11:05:52Z</time>
      </trkpt>
      <trkpt lat="45.85868" lon="4.68918">
        <ele>197</ele>
        <time>2018-02-24T11:05:53Z</time>
      </trkpt>
      <trkpt lat="45.8587" lon="4.6891">
        <ele>197</ele>
        <time>2018-02-24T11:05:54Z</time>
      </trkpt>
      <trkpt lat="45.8587" lon="4.68901">
        <ele>197</ele>
        <time>2018-02-24T11:05:55Z</time>
      </trkpt>
      <trkpt lat="45.8587" lon="4.68892">
        <ele>197</ele>
        <time>2018-02-24T11:05:56Z</time>
      </trkpt>
      <trkpt lat="45.8587" lon="4.68884">
        <ele>197</ele>
        <time>2018-02-24T11:05:57Z</time>
      </trkpt>
      <trkpt lat="45.85871" lon="4.68876">
        <ele>197</ele>
        <time>2018-02-24T11:05:58Z</time>
      </trkpt>
      <trkpt lat="45.85871" lon="4.68868">
        <ele>198</ele>
        <time>2018-02-24T11:05:59Z</time>
      </trkpt>
      <trkpt lat="45.85872" lon="4.6886">
        <ele>198</ele>
        <time>2018-02-24T11:06:00Z</time>
      </trkpt>
      <trkpt lat="45.85873" lon="4.68852">
        <ele>198</ele>
        <time>2018-02-24T11:06:01Z</time>
      </trkpt>
      <trkpt lat="45.85873" lon="4.68843">
        <ele>198</ele>
        <time>2018-02-24T11:06:02Z</time>
      </trkpt>
      <trkpt lat="45.85875" lon="4.68836">
        <ele>198</ele>
        <time>2018-02-24T11:06:03Z</time>
      </trkpt>
      <trkpt lat="45.85874" lon="4.68828">
        <ele>198</ele>
        <time>2018-02-24T11:06:04Z</time>
      </trkpt>
      <trkpt lat="45.85875" lon="4.68821">
        <ele>198</ele>
        <time>2018-02-24T11:06:05Z</time>
      </trkpt>
      <trkpt lat="45.85876" lon="4.68812">
        <ele>198</ele>
        <time>2018-02-24T11:06:06Z</time>
      </trkpt>
      <trkpt lat="45.85877" lon="4.68805">
        <ele>198</ele>
        <time>2018-02-24T11:06:07Z</time>
      </trkpt>
      <trkpt lat="45.85878" lon="4.68797">
        <ele>198</ele>
        <time>2018-02-24T11:06:08Z</time>
      </trkpt>
      <trkpt lat="45.85879" lon="4.6879">
        <ele>198</ele>
        <time>2018-02-24T11:06:09Z</time>
      </trkpt>
      <trkpt lat="45.85881" lon="4.68782">
        <ele>198</ele>
        <time>2018-02-24T11:06:10Z</time>
      </trkpt>
      <trkpt lat="45.85882" lon="4.68774">
        <ele>198</ele>
        <time>2018-02-24T11:06:11Z</time>
      </trkpt>
      <trkpt lat="45.85884" lon="4.68767">
        <ele>198</ele>
        <time>2018-02-24T11:06:12Z</time>
      </trkpt>
      <trkpt lat="45.85884" lon="4.6876">
        <ele>198</ele>
        <time>2018-02-24T11:06:13Z</time>
      </trkpt>
      <trkpt lat="45.85886" lon="4.68752">
        <ele>198</ele>
        <time>2018-02-24T11:06:14Z</time>
      </trkpt>
      <trkpt lat="45.85888" lon="4.68744">
        <ele>198</ele>
        <time>2018-02-24T11:06:15Z</time>
      </trkpt>
      <trkpt lat="45.85889" lon="4.68737">
        <ele>198</ele>
        <time>2018-02-24T11:06:16Z</time>
      </trkpt>
      <trkpt lat="45.8589" lon="4.68731">
        <ele>198</ele>
        <time>2018-02-24T11:06:17Z</time>
      </trkpt>
      <trkpt lat="45.8589" lon="4.68724">
        <ele>198</ele>
        <time>2018-02-24T11:06:18Z</time>
      </trkpt>
      <trkpt lat="45.8589" lon="4.68717">
        <ele>198</ele>
        <time>2018-02-24T11:06:19Z</time>
      </trkpt>
      <trkpt lat="45.85891" lon="4.68709">
        <ele>198</ele>
        <time>2018-02-24T11:06:20Z</time>
      </trkpt>
      <trkpt lat="45.85892" lon="4.68703">
        <ele>198</ele>
        <time>2018-02-24T11:06:21Z</time>
      </trkpt>
      <trkpt lat="45.85893" lon="4.68695">
        <ele>198</ele>
        <time>2018-02-24T11:06:22Z</time>
      </trkpt>
      <trkpt lat="45.85895" lon="4.68688">
        <ele>198</ele>
        <time>2018-02-24T11:06:23Z</time>
      </trkpt>
      <trkpt lat="45.85895" lon="4.68681">
        <ele>198</ele>
        <time>2018-02-24T11:06:24Z</time>
      </trkpt>
      <trkpt lat="45.85896" lon="4.68674">
        <ele>198</ele>
        <time>2018-02-24T11:06:25Z</time>
      </trkpt>
      <trkpt lat="45.85896" lon="4.68667">
        <ele>198</ele>
        <time>2018-02-24T11:06:26Z</time>
      </trkpt>
      <trkpt lat="45.85897" lon="4.6866">
        <ele>198</ele>
        <time>2018-02-24T11:06:27Z</time>
      </trkpt>
      <trkpt lat="45.85896" lon="4.68654">
        <ele>198</ele>
        <time>2018-02-24T11:06:28Z</time>
      </trkpt>
      <trkpt lat="45.85896" lon="4.68646">
        <ele>198</ele>
        <time>2018-02-24T11:06:29Z</time>
      </trkpt>
      <trkpt lat="45.85896" lon="4.6864">
        <ele>198</ele>
        <time>2018-02-24T11:06:30Z</time>
      </trkpt>
      <trkpt lat="45.85895" lon="4.68633">
        <ele>198</ele>
        <time>2018-02-24T11:06:31Z</time>
      </trkpt>
      <trkpt lat="45.85895" lon="4.68626">
        <ele>198</ele>
        <time>2018-02-24T11:06:32Z</time>
      </trkpt>
      <trkpt lat="45.85894" lon="4.68619">
        <ele>199</ele>
        <time>2018-02-24T11:06:33Z</time>
      </trkpt>
      <trkpt lat="45.85893" lon="4.68611">
        <ele>199</ele>
        <time>2018-02-24T11:06:34Z</time>
      </trkpt>
      <trkpt lat="45.85893" lon="4.68604">
        <ele>199</ele>
        <time>2018-02-24T11:06:35Z</time>
      </trkpt>
      <trkpt lat="45.85893" lon="4.68596">
        <ele>199</ele>
        <time>2018-02-24T11:06:36Z</time>
      </trkpt>
      <trkpt lat="45.85892" lon="4.68589">
        <ele>199</ele>
        <time>2018-02-24T11:06:37Z</time>
      </trkpt>
      <trkpt lat="45.85891" lon="4.68582">
        <ele>199</ele>
        <time>2018-02-24T11:06:38Z</time>
      </trkpt>
      <trkpt lat="45.85891" lon="4.68574">
        <ele>199</ele>
        <time>2018-02-24T11:06:39Z</time>
      </trkpt>
      <trkpt lat="45.8589" lon="4.68567">
        <ele>200</ele>
        <time>2018-02-24T11:06:40Z</time>
      </trkpt>
      <trkpt lat="45.8589" lon="4.68559">
        <ele>200</ele>
        <time>2018-02-24T11:06:41Z</time>
      </trkpt>
      <trkpt lat="45.85889" lon="4.68551">
        <ele>200</ele>
        <time>2018-02-24T11:06:42Z</time>
      </trkpt>
      <trkpt lat="45.85888" lon="4.68543">
        <ele>200</ele>
        <time>2018-02-24T11:06:43Z</time>
      </trkpt>
      <trkpt lat="45.85887" lon="4.68535">
        <ele>200</ele>
        <time>2018-02-24T11:06:44Z</time>
      </trkpt>
      <trkpt lat="45.85887" lon="4.68526">
        <ele>200</ele>
        <time>2018-02-24T11:06:45Z</time>
      </trkpt>
      <trkpt lat="45.85885" lon="4.68519">
        <ele>200</ele>
        <time>2018-02-24T11:06:46Z</time>
      </trkpt>
      <trkpt lat="45.85884" lon="4.68512">
        <ele>200</ele>
        <time>2018-02-24T11:06:47Z</time>
      </trkpt>
      <trkpt lat="45.85884" lon="4.68504">
        <ele>200</ele>
        <time>2018-02-24T11:06:48Z</time>
      </trkpt>
      <trkpt lat="45.85882" lon="4.68497">
        <ele>201</ele>
        <time>2018-02-24T11:06:49Z</time>
      </trkpt>
      <trkpt lat="45.85881" lon="4.6849">
        <ele>201</ele>
        <time>2018-02-24T11:06:50Z</time>
      </trkpt>
      <trkpt lat="45.8588" lon="4.68482">
        <ele>201</ele>
        <time>2018-02-24T11:06:51Z</time>
      </trkpt>
      <trkpt lat="45.85879" lon="4.68475">
        <ele>201</ele>
        <time>2018-02-24T11:06:52Z</time>
      </trkpt>
      <trkpt lat="45.85879" lon="4.68467">
        <ele>201</ele>
        <time>2018-02-24T11:06:53Z</time>
      </trkpt>
      <trkpt lat="45.85878" lon="4.68459">
        <ele>201</ele>
        <time>2018-02-24T11:06:54Z</time>
      </trkpt>
      <trkpt lat="45.85877" lon="4.68453">
        <ele>201</ele>
        <time>2018-02-24T11:06:55Z</time>
      </trkpt>
      <trkpt lat="45.85875" lon="4.68446">
        <ele>201</ele>
        <time>2018-02-24T11:06:56Z</time>
      </trkpt>
      <trkpt lat="45.85873" lon="4.68439">
        <ele>200</ele>
        <time>2018-02-24T11:06:57Z</time>
      </trkpt>
      <trkpt lat="45.85872" lon="4.68433">
        <ele>200</ele>
        <time>2018-02-24T11:06:58Z</time>
      </trkpt>
      <trkpt lat="45.8587" lon="4.68426">
        <ele>200</ele>
        <time>2018-02-24T11:06:59Z</time>
      </trkpt>
      <trkpt lat="45.85868" lon="4.6842">
        <ele>200</ele>
        <time>2018-02-24T11:07:00Z</time>
      </trkpt>
      <trkpt lat="45.85867" lon="4.68412">
        <ele>201</ele>
        <time>2018-02-24T11:07:01Z</time>
      </trkpt>
      <trkpt lat="45.85866" lon="4.68406">
        <ele>201</ele>
        <time>2018-02-24T11:07:02Z</time>
      </trkpt>
      <trkpt lat="45.85863" lon="4.684">
        <ele>201</ele>
        <time>2018-02-24T11:07:03Z</time>
      </trkpt>
      <trkpt lat="45.85861" lon="4.68394">
        <ele>201</ele>
        <time>2018-02-24T11:07:04Z</time>
      </trkpt>
      <trkpt lat="45.85859" lon="4.68387">
        <ele>201</ele>
        <time>2018-02-24T11:07:05Z</time>
      </trkpt>
      <trkpt lat="45.85856" lon="4.68376">
        <ele>201</ele>
        <time>2018-02-24T11:07:07Z</time>
      </trkpt>
      <trkpt lat="45.85854" lon="4.68369">
        <ele>201</ele>
        <time>2018-02-24T11:07:08Z</time>
      </trkpt>
      <trkpt lat="45.85852" lon="4.68363">
        <ele>201</ele>
        <time>2018-02-24T11:07:09Z</time>
      </trkpt>
      <trkpt lat="45.8585" lon="4.68356">
        <ele>201</ele>
        <time>2018-02-24T11:07:10Z</time>
      </trkpt>
      <trkpt lat="45.85847" lon="4.6835">
        <ele>201</ele>
        <time>2018-02-24T11:07:11Z</time>
      </trkpt>
      <trkpt lat="45.85844" lon="4.68344">
        <ele>201</ele>
        <time>2018-02-24T11:07:12Z</time>
      </trkpt>
      <trkpt lat="45.85841" lon="4.68337">
        <ele>200</ele>
        <time>2018-02-24T11:07:13Z</time>
      </trkpt>
      <trkpt lat="45.85839" lon="4.68331">
        <ele>201</ele>
        <time>2018-02-24T11:07:14Z</time>
      </trkpt>
      <trkpt lat="45.85836" lon="4.68324">
        <ele>201</ele>
        <time>2018-02-24T11:07:15Z</time>
      </trkpt>
      <trkpt lat="45.85834" lon="4.68318">
        <ele>202</ele>
        <time>2018-02-24T11:07:16Z</time>
      </trkpt>
      <trkpt lat="45.85831" lon="4.68312">
        <ele>200</ele>
        <time>2018-02-24T11:07:17Z</time>
      </trkpt>
      <trkpt lat="45.85828" lon="4.68307">
        <ele>200</ele>
        <time>2018-02-24T11:07:18Z</time>
      </trkpt>
      <trkpt lat="45.85824" lon="4.68302">
        <ele>201</ele>
        <time>2018-02-24T11:07:19Z</time>
      </trkpt>
      <trkpt lat="45.85821" lon="4.68296">
        <ele>201</ele>
        <time>2018-02-24T11:07:20Z</time>
      </trkpt>
      <trkpt lat="45.85817" lon="4.6829">
        <ele>201</ele>
        <time>2018-02-24T11:07:21Z</time>
      </trkpt>
      <trkpt lat="45.85812" lon="4.68286">
        <ele>201</ele>
        <time>2018-02-24T11:07:22Z</time>
      </trkpt>
      <trkpt lat="45.85809" lon="4.6828">
        <ele>201</ele>
        <time>2018-02-24T11:07:23Z</time>
      </trkpt>
      <trkpt lat="45.85806" lon="4.68274">
        <ele>201</ele>
        <time>2018-02-24T11:07:24Z</time>
      </trkpt>
      <trkpt lat="45.85802" lon="4.68267">
        <ele>201</ele>
        <time>2018-02-24T11:07:25Z</time>
      </trkpt>
      <trkpt lat="45.85798" lon="4.68262">
        <ele>201</ele>
        <time>2018-02-24T11:07:26Z</time>
      </trkpt>
      <trkpt lat="45.85793" lon="4.68257">
        <ele>201</ele>
        <time>2018-02-24T11:07:27Z</time>
      </trkpt>
      <trkpt lat="45.85789" lon="4.68251">
        <ele>200</ele>
        <time>2018-02-24T11:07:28Z</time>
      </trkpt>
      <trkpt lat="45.85786" lon="4.68246">
        <ele>202</ele>
        <time>2018-02-24T11:07:29Z</time>
      </trkpt>
      <trkpt lat="45.85783" lon="4.68241">
        <ele>202</ele>
        <time>2018-02-24T11:07:30Z</time>
      </trkpt>
      <trkpt lat="45.85779" lon="4.68236">
        <ele>202</ele>
        <time>2018-02-24T11:07:31Z</time>
      </trkpt>
      <trkpt lat="45.85774" lon="4.68231">
        <ele>202</ele>
        <time>2018-02-24T11:07:32Z</time>
      </trkpt>
      <trkpt lat="45.85769" lon="4.68225">
        <ele>202</ele>
        <time>2018-02-24T11:07:33Z</time>
      </trkpt>
      <trkpt lat="45.85765" lon="4.6822">
        <ele>202</ele>
        <time>2018-02-24T11:07:34Z</time>
      </trkpt>
      <trkpt lat="45.8576" lon="4.68215">
        <ele>202</ele>
        <time>2018-02-24T11:07:35Z</time>
      </trkpt>
      <trkpt lat="45.85757" lon="4.6821">
        <ele>202</ele>
        <time>2018-02-24T11:07:36Z</time>
      </trkpt>
      <trkpt lat="45.85752" lon="4.68204">
        <ele>202</ele>
        <time>2018-02-24T11:07:37Z</time>
      </trkpt>
      <trkpt lat="45.85748" lon="4.68201">
        <ele>199</ele>
        <time>2018-02-24T11:07:38Z</time>
      </trkpt>
      <trkpt lat="45.85744" lon="4.68195">
        <ele>199</ele>
        <time>2018-02-24T11:07:39Z</time>
      </trkpt>
      <trkpt lat="45.85741" lon="4.68189">
        <ele>199</ele>
        <time>2018-02-24T11:07:40Z</time>
      </trkpt>
      <trkpt lat="45.85736" lon="4.68185">
        <ele>199</ele>
        <time>2018-02-24T11:07:41Z</time>
      </trkpt>
      <trkpt lat="45.85733" lon="4.6818">
        <ele>199</ele>
        <time>2018-02-24T11:07:42Z</time>
      </trkpt>
      <trkpt lat="45.85729" lon="4.68175">
        <ele>199</ele>
        <time>2018-02-24T11:07:43Z</time>
      </trkpt>
      <trkpt lat="45.85725" lon="4.6817">
        <ele>199</ele>
        <time>2018-02-24T11:07:44Z</time>
      </trkpt>
      <trkpt lat="45.85721" lon="4.68166">
        <ele>200</ele>
        <time>2018-02-24T11:07:45Z</time>
      </trkpt>
      <trkpt lat="45.85717" lon="4.68162">
        <ele>200</ele>
        <time>2018-02-24T11:07:46Z</time>
      </trkpt>
      <trkpt lat="45.85713" lon="4.68158">
        <ele>200</ele>
        <time>2018-02-24T11:07:47Z</time>
      </trkpt>
      <trkpt lat="45.8571" lon="4.68153">
        <ele>200</ele>
        <time>2018-02-24T11:07:48Z</time>
      </trkpt>
      <trkpt lat="45.85706" lon="4.68148">
        <ele>200</ele>
        <time>2018-02-24T11:07:49Z</time>
      </trkpt>
      <trkpt lat="45.85702" lon="4.68144">
        <ele>200</ele>
        <time>2018-02-24T11:07:50Z</time>
      </trkpt>
      <trkpt lat="45.85698" lon="4.68139">
        <ele>200</ele>
        <time>2018-02-24T11:07:51Z</time>
      </trkpt>
      <trkpt lat="45.85694" lon="4.68135">
        <ele>200</ele>
        <time>2018-02-24T11:07:52Z</time>
      </trkpt>
      <trkpt lat="45.8569" lon="4.68131">
        <ele>200</ele>
        <time>2018-02-24T11:07:53Z</time>
      </trkpt>
      <trkpt lat="45.85686" lon="4.68127">
        <ele>200</ele>
        <time>2018-02-24T11:07:54Z</time>
      </trkpt>
      <trkpt lat="45.85683" lon="4.68122">
        <ele>200</ele>
        <time>2018-02-24T11:07:55Z</time>
      </trkpt>
      <trkpt lat="45.85679" lon="4.68118">
        <ele>200</ele>
        <time>2018-02-24T11:07:56Z</time>
      </trkpt>
      <trkpt lat="45.85672" lon="4.6811">
        <ele>200</ele>
        <time>2018-02-24T11:07:58Z</time>
      </trkpt>
      <trkpt lat="45.85669" lon="4.68106">
        <ele>200</ele>
        <time>2018-02-24T11:07:59Z</time>
      </trkpt>
      <trkpt lat="45.85663" lon="4.68098">
        <ele>200</ele>
        <time>2018-02-24T11:08:01Z</time>
      </trkpt>
      <trkpt lat="45.85659" lon="4.68094">
        <ele>200</ele>
        <time>2018-02-24T11:08:02Z</time>
      </trkpt>
      <trkpt lat="45.85651" lon="4.68089">
        <ele>200</ele>
        <time>2018-02-24T11:08:04Z</time>
      </trkpt>
      <trkpt lat="45.85648" lon="4.68086">
        <ele>200</ele>
        <time>2018-02-24T11:08:05Z</time>
      </trkpt>
      <trkpt lat="45.85642" lon="4.68079">
        <ele>200</ele>
        <time>2018-02-24T11:08:07Z</time>
      </trkpt>
      <trkpt lat="45.85639" lon="4.68076">
        <ele>200</ele>
        <time>2018-02-24T11:08:08Z</time>
      </trkpt>
      <trkpt lat="45.85633" lon="4.68069">
        <ele>200</ele>
        <time>2018-02-24T11:08:11Z</time>
      </trkpt>
      <trkpt lat="45.85631" lon="4.68067">
        <ele>200</ele>
        <time>2018-02-24T11:08:12Z</time>
      </trkpt>
      <trkpt lat="45.85625" lon="4.68059">
        <ele>200</ele>
        <time>2018-02-24T11:08:15Z</time>
      </trkpt>
      <trkpt lat="45.85624" lon="4.68057">
        <ele>200</ele>
        <time>2018-02-24T11:08:16Z</time>
      </trkpt>
      <trkpt lat="45.85625" lon="4.68046">
        <ele>200</ele>
        <time>2018-02-24T11:13:07Z</time>
      </trkpt>
      <trkpt lat="45.85625" lon="4.68046">
        <ele>200</ele>
        <time>2018-02-24T11:13:08Z</time>
      </trkpt>
      <trkpt lat="45.85622" lon="4.68043">
        <ele>200</ele>
        <time>2018-02-24T11:20:30Z</time>
      </trkpt>
      <trkpt lat="45.85622" lon="4.68044">
        <ele>200</ele>
        <time>2018-02-24T11:20:31Z</time>
      </trkpt>
      <trkpt lat="45.85615" lon="4.68038">
        <ele>200</ele>
        <time>2018-02-24T11:21:16Z</time>
      </trkpt>
      <trkpt lat="45.85614" lon="4.68036">
        <ele>201</ele>
        <time>2018-02-24T11:21:17Z</time>
      </trkpt>
      <trkpt lat="45.8561" lon="4.68026">
        <ele>201</ele>
        <time>2018-02-24T11:21:21Z</time>
      </trkpt>
      <trkpt lat="45.8561" lon="4.68023">
        <ele>201</ele>
        <time>2018-02-24T11:21:22Z</time>
      </trkpt>
      <trkpt lat="45.85608" lon="4.68012">
        <ele>201</ele>
        <time>2018-02-24T11:21:25Z</time>
      </trkpt>
      <trkpt lat="45.85607" lon="4.68007">
        <ele>201</ele>
        <time>2018-02-24T11:21:26Z</time>
      </trkpt>
      <trkpt lat="45.85605" lon="4.67999">
        <ele>202</ele>
        <time>2018-02-24T11:21:28Z</time>
      </trkpt>
      <trkpt lat="45.85603" lon="4.67994">
        <ele>202</ele>
        <time>2018-02-24T11:21:29Z</time>
      </trkpt>
      <trkpt lat="45.85599" lon="4.67981">
        <ele>203</ele>
        <time>2018-02-24T11:21:30Z</time>
      </trkpt>
      <trkpt lat="45.85596" lon="4.67972">
        <ele>203</ele>
        <time>2018-02-24T11:21:32Z</time>
      </trkpt>
      <trkpt lat="45.85594" lon="4.67967">
        <ele>203</ele>
        <time>2018-02-24T11:21:33Z</time>
      </trkpt>
      <trkpt lat="45.8559" lon="4.67958">
        <ele>203</ele>
        <time>2018-02-24T11:21:36Z</time>
      </trkpt>
      <trkpt lat="45.85589" lon="4.67955">
        <ele>203</ele>
        <time>2018-02-24T11:21:37Z</time>
      </trkpt>
      <trkpt lat="45.85585" lon="4.67945">
        <ele>204</ele>
        <time>2018-02-24T11:21:40Z</time>
      </trkpt>
      <trkpt lat="45.85583" lon="4.67942">
        <ele>204</ele>
        <time>2018-02-24T11:21:41Z</time>
      </trkpt>
      <trkpt lat="45.85579" lon="4.67933">
        <ele>205</ele>
        <time>2018-02-24T11:21:44Z</time>
      </trkpt>
      <trkpt lat="45.85578" lon="4.67929">
        <ele>204</ele>
        <time>2018-02-24T11:21:45Z</time>
      </trkpt>
      <trkpt lat="45.85572" lon="4.67921">
        <ele>205</ele>
        <time>2018-02-24T11:21:48Z</time>
      </trkpt>
      <trkpt lat="45.85569" lon="4.67921">
        <ele>205</ele>
        <time>2018-02-24T11:21:49Z</time>
      </trkpt>
      <trkpt lat="45.85564" lon="4.67925">
        <ele>205</ele>
        <time>2018-02-24T11:21:51Z</time>
      </trkpt>
      <trkpt lat="45.85557" lon="4.67933">
        <ele>205</ele>
        <time>2018-02-24T11:21:52Z</time>
      </trkpt>
      <trkpt lat="45.8555" lon="4.67941">
        <ele>205</ele>
        <time>2018-02-24T11:21:54Z</time>
      </trkpt>
      <trkpt lat="45.85547" lon="4.67944">
        <ele>205</ele>
        <time>2018-02-24T11:21:55Z</time>
      </trkpt>
      <trkpt lat="45.8554" lon="4.67951">
        <ele>205</ele>
        <time>2018-02-24T11:21:57Z</time>
      </trkpt>
      <trkpt lat="45.85536" lon="4.67955">
        <ele>206</ele>
        <time>2018-02-24T11:21:58Z</time>
      </trkpt>
      <trkpt lat="45.85529" lon="4.67961">
        <ele>206</ele>
        <time>2018-02-24T11:22:00Z</time>
      </trkpt>
      <trkpt lat="45.85526" lon="4.67963">
        <ele>206</ele>
        <time>2018-02-24T11:22:01Z</time>
      </trkpt>
      <trkpt lat="45.8552" lon="4.67967">
        <ele>206</ele>
        <time>2018-02-24T11:22:03Z</time>
      </trkpt>
      <trkpt lat="45.85515" lon="4.6797">
        <ele>206</ele>
        <time>2018-02-24T11:22:04Z</time>
      </trkpt>
      <trkpt lat="45.85511" lon="4.67975">
        <ele>206</ele>
        <time>2018-02-24T11:22:05Z</time>
      </trkpt>
      <trkpt lat="45.85507" lon="4.67979">
        <ele>206</ele>
        <time>2018-02-24T11:22:06Z</time>
      </trkpt>
      <trkpt lat="45.85501" lon="4.67986">
        <ele>206</ele>
        <time>2018-02-24T11:22:09Z</time>
      </trkpt>
      <trkpt lat="45.85495" lon="4.67991">
        <ele>208</ele>
        <time>2018-02-24T11:22:10Z</time>
      </trkpt>
      <trkpt lat="45.85491" lon="4.67996">
        <ele>208</ele>
        <time>2018-02-24T11:22:12Z</time>
      </trkpt>
      <trkpt lat="45.85484" lon="4.68">
        <ele>207</ele>
        <time>2018-02-24T11:22:13Z</time>
      </trkpt>
      <trkpt lat="45.85479" lon="4.68004">
        <ele>207</ele>
        <time>2018-02-24T11:22:14Z</time>
      </trkpt>
      <trkpt lat="45.85476" lon="4.68006">
        <ele>207</ele>
        <time>2018-02-24T11:22:15Z</time>
      </trkpt>
      <trkpt lat="45.85479" lon="4.68017">
        <ele>207</ele>
        <time>2018-02-24T11:22:17Z</time>
      </trkpt>
      <trkpt lat="45.8548" lon="4.68023">
        <ele>207</ele>
        <time>2018-02-24T11:22:18Z</time>
      </trkpt>
      <trkpt lat="45.85481" lon="4.68031">
        <ele>207</ele>
        <time>2018-02-24T11:22:19Z</time>
      </trkpt>
      <trkpt lat="45.85484" lon="4.68039">
        <ele>207</ele>
        <time>2018-02-24T11:22:20Z</time>
      </trkpt>
      <trkpt lat="45.85484" lon="4.68048">
        <ele>206</ele>
        <time>2018-02-24T11:22:21Z</time>
      </trkpt>
      <trkpt lat="45.85484" lon="4.68055">
        <ele>206</ele>
        <time>2018-02-24T11:22:22Z</time>
      </trkpt>
      <trkpt lat="45.85486" lon="4.68062">
        <ele>206</ele>
        <time>2018-02-24T11:22:23Z</time>
      </trkpt>
      <trkpt lat="45.85486" lon="4.68069">
        <ele>206</ele>
        <time>2018-02-24T11:22:24Z</time>
      </trkpt>
      <trkpt lat="45.85486" lon="4.68077">
        <ele>205</ele>
        <time>2018-02-24T11:22:25Z</time>
      </trkpt>
      <trkpt lat="45.85487" lon="4.68085">
        <ele>204</ele>
        <time>2018-02-24T11:22:26Z</time>
      </trkpt>
      <trkpt lat="45.85488" lon="4.68093">
        <ele>204</ele>
        <time>2018-02-24T11:22:27Z</time>
      </trkpt>
      <trkpt lat="45.85488" lon="4.681">
        <ele>204</ele>
        <time>2018-02-24T11:22:28Z</time>
      </trkpt>
      <trkpt lat="45.85489" lon="4.68107">
        <ele>205</ele>
        <time>2018-02-24T11:22:29Z</time>
      </trkpt>
      <trkpt lat="45.8549" lon="4.68115">
        <ele>205</ele>
        <time>2018-02-24T11:22:30Z</time>
      </trkpt>
      <trkpt lat="45.85492" lon="4.68122">
        <ele>205</ele>
        <time>2018-02-24T11:22:31Z</time>
      </trkpt>
      <trkpt lat="45.85492" lon="4.68129">
        <ele>204</ele>
        <time>2018-02-24T11:22:32Z</time>
      </trkpt>
      <trkpt lat="45.85493" lon="4.68137">
        <ele>204</ele>
        <time>2018-02-24T11:22:33Z</time>
      </trkpt>
      <trkpt lat="45.85494" lon="4.68146">
        <ele>204</ele>
        <time>2018-02-24T11:22:34Z</time>
      </trkpt>
      <trkpt lat="45.85494" lon="4.68153">
        <ele>204</ele>
        <time>2018-02-24T11:22:35Z</time>
      </trkpt>
      <trkpt lat="45.85495" lon="4.6816">
        <ele>204</ele>
        <time>2018-02-24T11:22:36Z</time>
      </trkpt>
      <trkpt lat="45.85496" lon="4.68167">
        <ele>204</ele>
        <time>2018-02-24T11:22:37Z</time>
      </trkpt>
      <trkpt lat="45.85498" lon="4.68174">
        <ele>204</ele>
        <time>2018-02-24T11:22:38Z</time>
      </trkpt>
      <trkpt lat="45.85499" lon="4.68182">
        <ele>204</ele>
        <time>2018-02-24T11:22:39Z</time>
      </trkpt>
      <trkpt lat="45.855" lon="4.68189">
        <ele>204</ele>
        <time>2018-02-24T11:22:40Z</time>
      </trkpt>
      <trkpt lat="45.85501" lon="4.68197">
        <ele>203</ele>
        <time>2018-02-24T11:22:41Z</time>
      </trkpt>
      <trkpt lat="45.85502" lon="4.68206">
        <ele>203</ele>
        <time>2018-02-24T11:22:42Z</time>
      </trkpt>
      <trkpt lat="45.85503" lon="4.68213">
        <ele>203</ele>
        <time>2018-02-24T11:22:43Z</time>
      </trkpt>
      <trkpt lat="45.85503" lon="4.68222">
        <ele>203</ele>
        <time>2018-02-24T11:22:44Z</time>
      </trkpt>
      <trkpt lat="45.85505" lon="4.68229">
        <ele>203</ele>
        <time>2018-02-24T11:22:45Z</time>
      </trkpt>
      <trkpt lat="45.85504" lon="4.68236">
        <ele>203</ele>
        <time>2018-02-24T11:22:46Z</time>
      </trkpt>
      <trkpt lat="45.85505" lon="4.68243">
        <ele>203</ele>
        <time>2018-02-24T11:22:47Z</time>
      </trkpt>
      <trkpt lat="45.85505" lon="4.68251">
        <ele>203</ele>
        <time>2018-02-24T11:22:48Z</time>
      </trkpt>
      <trkpt lat="45.85504" lon="4.68259">
        <ele>203</ele>
        <time>2018-02-24T11:22:49Z</time>
      </trkpt>
      <trkpt lat="45.85505" lon="4.68267">
        <ele>203</ele>
        <time>2018-02-24T11:22:50Z</time>
      </trkpt>
      <trkpt lat="45.85505" lon="4.68275">
        <ele>202</ele>
        <time>2018-02-24T11:22:51Z</time>
      </trkpt>
      <trkpt lat="45.85507" lon="4.68282">
        <ele>202</ele>
        <time>2018-02-24T11:22:52Z</time>
      </trkpt>
      <trkpt lat="45.85507" lon="4.68289">
        <ele>202</ele>
        <time>2018-02-24T11:22:53Z</time>
      </trkpt>
      <trkpt lat="45.85509" lon="4.68297">
        <ele>202</ele>
        <time>2018-02-24T11:22:54Z</time>
      </trkpt>
      <trkpt lat="45.8551" lon="4.68304">
        <ele>202</ele>
        <time>2018-02-24T11:22:55Z</time>
      </trkpt>
      <trkpt lat="45.85509" lon="4.6831">
        <ele>202</ele>
        <time>2018-02-24T11:22:56Z</time>
      </trkpt>
      <trkpt lat="45.85511" lon="4.68317">
        <ele>202</ele>
        <time>2018-02-24T11:22:57Z</time>
      </trkpt>
      <trkpt lat="45.85512" lon="4.68324">
        <ele>202</ele>
        <time>2018-02-24T11:22:58Z</time>
      </trkpt>
      <trkpt lat="45.85513" lon="4.6833">
        <ele>202</ele>
        <time>2018-02-24T11:22:59Z</time>
      </trkpt>
      <trkpt lat="45.85513" lon="4.68337">
        <ele>201</ele>
        <time>2018-02-24T11:23:00Z</time>
      </trkpt>
      <trkpt lat="45.85515" lon="4.68343">
        <ele>201</ele>
        <time>2018-02-24T11:23:01Z</time>
      </trkpt>
      <trkpt lat="45.85514" lon="4.6835">
        <ele>201</ele>
        <time>2018-02-24T11:23:02Z</time>
      </trkpt>
      <trkpt lat="45.85515" lon="4.68358">
        <ele>201</ele>
        <time>2018-02-24T11:23:03Z</time>
      </trkpt>
      <trkpt lat="45.85513" lon="4.68366">
        <ele>201</ele>
        <time>2018-02-24T11:23:04Z</time>
      </trkpt>
      <trkpt lat="45.85512" lon="4.68374">
        <ele>201</ele>
        <time>2018-02-24T11:23:05Z</time>
      </trkpt>
      <trkpt lat="45.85513" lon="4.68382">
        <ele>201</ele>
        <time>2018-02-24T11:23:06Z</time>
      </trkpt>
      <trkpt lat="45.85514" lon="4.6839">
        <ele>200</ele>
        <time>2018-02-24T11:23:07Z</time>
      </trkpt>
      <trkpt lat="45.85515" lon="4.68398">
        <ele>200</ele>
        <time>2018-02-24T11:23:08Z</time>
      </trkpt>
      <trkpt lat="45.85517" lon="4.68406">
        <ele>200</ele>
        <time>2018-02-24T11:23:09Z</time>
      </trkpt>
      <trkpt lat="45.85518" lon="4.68414">
        <ele>200</ele>
        <time>2018-02-24T11:23:10Z</time>
      </trkpt>
      <trkpt lat="45.85519" lon="4.68422">
        <ele>200</ele>
        <time>2018-02-24T11:23:11Z</time>
      </trkpt>
      <trkpt lat="45.85518" lon="4.68429">
        <ele>200</ele>
        <time>2018-02-24T11:23:12Z</time>
      </trkpt>
      <trkpt lat="45.85519" lon="4.68436">
        <ele>200</ele>
        <time>2018-02-24T11:23:13Z</time>
      </trkpt>
      <trkpt lat="45.8552" lon="4.68443">
        <ele>200</ele>
        <time>2018-02-24T11:23:14Z</time>
      </trkpt>
      <trkpt lat="45.8552" lon="4.68449">
        <ele>200</ele>
        <time>2018-02-24T11:23:15Z</time>
      </trkpt>
      <trkpt lat="45.8552" lon="4.68456">
        <ele>200</ele>
        <time>2018-02-24T11:23:16Z</time>
      </trkpt>
      <trkpt lat="45.85521" lon="4.68463">
        <ele>200</ele>
        <time>2018-02-24T11:23:17Z</time>
      </trkpt>
      <trkpt lat="45.85522" lon="4.6847">
        <ele>200</ele>
        <time>2018-02-24T11:23:18Z</time>
      </trkpt>
      <trkpt lat="45.85522" lon="4.68477">
        <ele>200</ele>
        <time>2018-02-24T11:23:19Z</time>
      </trkpt>
      <trkpt lat="45.85522" lon="4.68484">
        <ele>201</ele>
        <time>2018-02-24T11:23:20Z</time>
      </trkpt>
      <trkpt lat="45.85523" lon="4.6849">
        <ele>201</ele>
        <time>2018-02-24T11:23:21Z</time>
      </trkpt>
      <trkpt lat="45.85523" lon="4.68498">
        <ele>201</ele>
        <time>2018-02-24T11:23:22Z</time>
      </trkpt>
      <trkpt lat="45.85524" lon="4.68504">
        <ele>201</ele>
        <time>2018-02-24T11:23:23Z</time>
      </trkpt>
      <trkpt lat="45.85525" lon="4.68512">
        <ele>201</ele>
        <time>2018-02-24T11:23:24Z</time>
      </trkpt>
      <trkpt lat="45.85525" lon="4.6852">
        <ele>201</ele>
        <time>2018-02-24T11:23:25Z</time>
      </trkpt>
      <trkpt lat="45.85527" lon="4.68528">
        <ele>201</ele>
        <time>2018-02-24T11:23:26Z</time>
      </trkpt>
      <trkpt lat="45.85527" lon="4.68535">
        <ele>201</ele>
        <time>2018-02-24T11:23:27Z</time>
      </trkpt>
      <trkpt lat="45.85528" lon="4.68542">
        <ele>201</ele>
        <time>2018-02-24T11:23:28Z</time>
      </trkpt>
      <trkpt lat="45.85529" lon="4.6855">
        <ele>201</ele>
        <time>2018-02-24T11:23:29Z</time>
      </trkpt>
      <trkpt lat="45.8553" lon="4.68557">
        <ele>201</ele>
        <time>2018-02-24T11:23:30Z</time>
      </trkpt>
      <trkpt lat="45.85532" lon="4.68566">
        <ele>201</ele>
        <time>2018-02-24T11:23:31Z</time>
      </trkpt>
      <trkpt lat="45.85532" lon="4.68574">
        <ele>201</ele>
        <time>2018-02-24T11:23:32Z</time>
      </trkpt>
      <trkpt lat="45.85534" lon="4.68582">
        <ele>201</ele>
        <time>2018-02-24T11:23:33Z</time>
      </trkpt>
      <trkpt lat="45.85534" lon="4.6859">
        <ele>201</ele>
        <time>2018-02-24T11:23:34Z</time>
      </trkpt>
      <trkpt lat="45.85534" lon="4.68597">
        <ele>201</ele>
        <time>2018-02-24T11:23:35Z</time>
      </trkpt>
      <trkpt lat="45.85535" lon="4.68605">
        <ele>201</ele>
        <time>2018-02-24T11:23:36Z</time>
      </trkpt>
      <trkpt lat="45.85536" lon="4.68612">
        <ele>201</ele>
        <time>2018-02-24T11:23:37Z</time>
      </trkpt>
      <trkpt lat="45.85536" lon="4.6862">
        <ele>201</ele>
        <time>2018-02-24T11:23:38Z</time>
      </trkpt>
      <trkpt lat="45.85536" lon="4.68627">
        <ele>201</ele>
        <time>2018-02-24T11:23:39Z</time>
      </trkpt>
      <trkpt lat="45.85537" lon="4.68635">
        <ele>201</ele>
        <time>2018-02-24T11:23:40Z</time>
      </trkpt>
      <trkpt lat="45.85539" lon="4.68642">
        <ele>201</ele>
        <time>2018-02-24T11:23:41Z</time>
      </trkpt>
      <trkpt lat="45.85538" lon="4.68651">
        <ele>201</ele>
        <time>2018-02-24T11:23:42Z</time>
      </trkpt>
      <trkpt lat="45.85539" lon="4.6866">
        <ele>200</ele>
        <time>2018-02-24T11:23:43Z</time>
      </trkpt>
      <trkpt lat="45.8554" lon="4.68669">
        <ele>200</ele>
        <time>2018-02-24T11:23:44Z</time>
      </trkpt>
      <trkpt lat="45.85541" lon="4.68677">
        <ele>200</ele>
        <time>2018-02-24T11:23:45Z</time>
      </trkpt>
      <trkpt lat="45.85542" lon="4.68685">
        <ele>200</ele>
        <time>2018-02-24T11:23:46Z</time>
      </trkpt>
      <trkpt lat="45.85542" lon="4.68693">
        <ele>200</ele>
        <time>2018-02-24T11:23:47Z</time>
      </trkpt>
      <trkpt lat="45.85544" lon="4.687">
        <ele>200</ele>
        <time>2018-02-24T11:23:48Z</time>
      </trkpt>
      <trkpt lat="45.85544" lon="4.68708">
        <ele>200</ele>
        <time>2018-02-24T11:23:49Z</time>
      </trkpt>
      <trkpt lat="45.85545" lon="4.68716">
        <ele>200</ele>
        <time>2018-02-24T11:23:50Z</time>
      </trkpt>
      <trkpt lat="45.85545" lon="4.68722">
        <ele>200</ele>
        <time>2018-02-24T11:23:51Z</time>
      </trkpt>
      <trkpt lat="45.85547" lon="4.6873">
        <ele>200</ele>
        <time>2018-02-24T11:23:52Z</time>
      </trkpt>
      <trkpt lat="45.85546" lon="4.68738">
        <ele>200</ele>
        <time>2018-02-24T11:23:53Z</time>
      </trkpt>
      <trkpt lat="45.85546" lon="4.68745">
        <ele>200</ele>
        <time>2018-02-24T11:23:54Z</time>
      </trkpt>
      <trkpt lat="45.85546" lon="4.68751">
        <ele>200</ele>
        <time>2018-02-24T11:23:55Z</time>
      </trkpt>
      <trkpt lat="45.85546" lon="4.68761">
        <ele>200</ele>
        <time>2018-02-24T11:23:56Z</time>
      </trkpt>
      <trkpt lat="45.85548" lon="4.68769">
        <ele>200</ele>
        <time>2018-02-24T11:23:57Z</time>
      </trkpt>
      <trkpt lat="45.85548" lon="4.68774">
        <ele>200</ele>
        <time>2018-02-24T11:23:58Z</time>
      </trkpt>
      <trkpt lat="45.8555" lon="4.6878">
        <ele>200</ele>
        <time>2018-02-24T11:23:59Z</time>
      </trkpt>
      <trkpt lat="45.85551" lon="4.68787">
        <ele>200</ele>
        <time>2018-02-24T11:24:00Z</time>
      </trkpt>
      <trkpt lat="45.85552" lon="4.68793">
        <ele>200</ele>
        <time>2018-02-24T11:24:01Z</time>
      </trkpt>
      <trkpt lat="45.85553" lon="4.68801">
        <ele>200</ele>
        <time>2018-02-24T11:24:02Z</time>
      </trkpt>
      <trkpt lat="45.85554" lon="4.68808">
        <ele>200</ele>
        <time>2018-02-24T11:24:03Z</time>
      </trkpt>
      <trkpt lat="45.85555" lon="4.68815">
        <ele>200</ele>
        <time>2018-02-24T11:24:04Z</time>
      </trkpt>
      <trkpt lat="45.85555" lon="4.68823">
        <ele>200</ele>
        <time>2018-02-24T11:24:05Z</time>
      </trkpt>
      <trkpt lat="45.85554" lon="4.68829">
        <ele>200</ele>
        <time>2018-02-24T11:24:06Z</time>
      </trkpt>
      <trkpt lat="45.85556" lon="4.68836">
        <ele>200</ele>
        <time>2018-02-24T11:24:07Z</time>
      </trkpt>
      <trkpt lat="45.85556" lon="4.68843">
        <ele>200</ele>
        <time>2018-02-24T11:24:08Z</time>
      </trkpt>
      <trkpt lat="45.85555" lon="4.68849">
        <ele>200</ele>
        <time>2018-02-24T11:24:09Z</time>
      </trkpt>
      <trkpt lat="45.85555" lon="4.68856">
        <ele>200</ele>
        <time>2018-02-24T11:24:10Z</time>
      </trkpt>
      <trkpt lat="45.85555" lon="4.68863">
        <ele>200</ele>
        <time>2018-02-24T11:24:11Z</time>
      </trkpt>
      <trkpt lat="45.85556" lon="4.6887">
        <ele>200</ele>
        <time>2018-02-24T11:24:12Z</time>
      </trkpt>
      <trkpt lat="45.85557" lon="4.68877">
        <ele>200</ele>
        <time>2018-02-24T11:24:13Z</time>
      </trkpt>
      <trkpt lat="45.85558" lon="4.68883">
        <ele>200</ele>
        <time>2018-02-24T11:24:14Z</time>
      </trkpt>
      <trkpt lat="45.85558" lon="4.6889">
        <ele>200</ele>
        <time>2018-02-24T11:24:15Z</time>
      </trkpt>
      <trkpt lat="45.8556" lon="4.68897">
        <ele>200</ele>
        <time>2018-02-24T11:24:16Z</time>
      </trkpt>
      <trkpt lat="45.8556" lon="4.68904">
        <ele>200</ele>
        <time>2018-02-24T11:24:17Z</time>
      </trkpt>
      <trkpt lat="45.85559" lon="4.68913">
        <ele>200</ele>
        <time>2018-02-24T11:24:18Z</time>
      </trkpt>
      <trkpt lat="45.85559" lon="4.68921">
        <ele>200</ele>
        <time>2018-02-24T11:24:19Z</time>
      </trkpt>
      <trkpt lat="45.85559" lon="4.68928">
        <ele>200</ele>
        <time>2018-02-24T11:24:20Z</time>
      </trkpt>
      <trkpt lat="45.85561" lon="4.68938">
        <ele>200</ele>
        <time>2018-02-24T11:24:21Z</time>
      </trkpt>
      <trkpt lat="45.85563" lon="4.68945">
        <ele>200</ele>
        <time>2018-02-24T11:24:22Z</time>
      </trkpt>
      <trkpt lat="45.85564" lon="4.68953">
        <ele>200</ele>
        <time>2018-02-24T11:24:23Z</time>
      </trkpt>
      <trkpt lat="45.85564" lon="4.68961">
        <ele>200</ele>
        <time>2018-02-24T11:24:24Z</time>
      </trkpt>
      <trkpt lat="45.85565" lon="4.6897">
        <ele>200</ele>
        <time>2018-02-24T11:24:25Z</time>
      </trkpt>
      <trkpt lat="45.85567" lon="4.68978">
        <ele>200</ele>
        <time>2018-02-24T11:24:26Z</time>
      </trkpt>
      <trkpt lat="45.85567" lon="4.68986">
        <ele>200</ele>
        <time>2018-02-24T11:24:27Z</time>
      </trkpt>
      <trkpt lat="45.85568" lon="4.68993">
        <ele>200</ele>
        <time>2018-02-24T11:24:28Z</time>
      </trkpt>
      <trkpt lat="45.85568" lon="4.69001">
        <ele>200</ele>
        <time>2018-02-24T11:24:29Z</time>
      </trkpt>
      <trkpt lat="45.85569" lon="4.69008">
        <ele>200</ele>
        <time>2018-02-24T11:24:30Z</time>
      </trkpt>
      <trkpt lat="45.8557" lon="4.69015">
        <ele>200</ele>
        <time>2018-02-24T11:24:31Z</time>
      </trkpt>
      <trkpt lat="45.8557" lon="4.69022">
        <ele>200</ele>
        <time>2018-02-24T11:24:32Z</time>
      </trkpt>
      <trkpt lat="45.85571" lon="4.69028">
        <ele>200</ele>
        <time>2018-02-24T11:24:33Z</time>
      </trkpt>
      <trkpt lat="45.85572" lon="4.69035">
        <ele>200</ele>
        <time>2018-02-24T11:24:34Z</time>
      </trkpt>
      <trkpt lat="45.85573" lon="4.69042">
        <ele>199</ele>
        <time>2018-02-24T11:24:35Z</time>
      </trkpt>
      <trkpt lat="45.85573" lon="4.69049">
        <ele>199</ele>
        <time>2018-02-24T11:24:36Z</time>
      </trkpt>
      <trkpt lat="45.85574" lon="4.69056">
        <ele>199</ele>
        <time>2018-02-24T11:24:37Z</time>
      </trkpt>
      <trkpt lat="45.85576" lon="4.69063">
        <ele>199</ele>
        <time>2018-02-24T11:24:38Z</time>
      </trkpt>
      <trkpt lat="45.85577" lon="4.6907">
        <ele>199</ele>
        <time>2018-02-24T11:24:39Z</time>
      </trkpt>
      <trkpt lat="45.85578" lon="4.69077">
        <ele>199</ele>
        <time>2018-02-24T11:24:40Z</time>
      </trkpt>
      <trkpt lat="45.85579" lon="4.69084">
        <ele>199</ele>
        <time>2018-02-24T11:24:41Z</time>
      </trkpt>
      <trkpt lat="45.85579" lon="4.6909">
        <ele>199</ele>
        <time>2018-02-24T11:24:42Z</time>
      </trkpt>
      <trkpt lat="45.85579" lon="4.69097">
        <ele>199</ele>
        <time>2018-02-24T11:24:43Z</time>
      </trkpt>
      <trkpt lat="45.8558" lon="4.69104">
        <ele>199</ele>
        <time>2018-02-24T11:24:44Z</time>
      </trkpt>
      <trkpt lat="45.85581" lon="4.69112">
        <ele>199</ele>
        <time>2018-02-24T11:24:45Z</time>
      </trkpt>
      <trkpt lat="45.85582" lon="4.69119">
        <ele>199</ele>
        <time>2018-02-24T11:24:46Z</time>
      </trkpt>
      <trkpt lat="45.85583" lon="4.69127">
        <ele>199</ele>
        <time>2018-02-24T11:24:47Z</time>
      </trkpt>
      <trkpt lat="45.85583" lon="4.69134">
        <ele>199</ele>
        <time>2018-02-24T11:24:48Z</time>
      </trkpt>
      <trkpt lat="45.85583" lon="4.69141">
        <ele>199</ele>
        <time>2018-02-24T11:24:49Z</time>
      </trkpt>
      <trkpt lat="45.85584" lon="4.69148">
        <ele>199</ele>
        <time>2018-02-24T11:24:50Z</time>
      </trkpt>
      <trkpt lat="45.85585" lon="4.69156">
        <ele>199</ele>
        <time>2018-02-24T11:24:51Z</time>
      </trkpt>
      <trkpt lat="45.85585" lon="4.69164">
        <ele>199</ele>
        <time>2018-02-24T11:24:52Z</time>
      </trkpt>
      <trkpt lat="45.85586" lon="4.69171">
        <ele>199</ele>
        <time>2018-02-24T11:24:53Z</time>
      </trkpt>
      <trkpt lat="45.85586" lon="4.69179">
        <ele>199</ele>
        <time>2018-02-24T11:24:54Z</time>
      </trkpt>
      <trkpt lat="45.85587" lon="4.69191">
        <ele>199</ele>
        <time>2018-02-24T11:24:56Z</time>
      </trkpt>
      <trkpt lat="45.85588" lon="4.69197">
        <ele>199</ele>
        <time>2018-02-24T11:24:57Z</time>
      </trkpt>
      <trkpt lat="45.85589" lon="4.69203">
        <ele>199</ele>
        <time>2018-02-24T11:24:58Z</time>
      </trkpt>
      <trkpt lat="45.85589" lon="4.69211">
        <ele>199</ele>
        <time>2018-02-24T11:24:59Z</time>
      </trkpt>
      <trkpt lat="45.8559" lon="4.69223">
        <ele>199</ele>
        <time>2018-02-24T11:25:01Z</time>
      </trkpt>
      <trkpt lat="45.85591" lon="4.69231">
        <ele>199</ele>
        <time>2018-02-24T11:25:02Z</time>
      </trkpt>
      <trkpt lat="45.85593" lon="4.69243">
        <ele>199</ele>
        <time>2018-02-24T11:25:05Z</time>
      </trkpt>
      <trkpt lat="45.85593" lon="4.69245">
        <ele>199</ele>
        <time>2018-02-24T11:25:06Z</time>
      </trkpt>
      <trkpt lat="45.8559" lon="4.69256">
        <ele>199</ele>
        <time>2018-02-24T11:25:11Z</time>
      </trkpt>
      <trkpt lat="45.85589" lon="4.69259">
        <ele>199</ele>
        <time>2018-02-24T11:25:12Z</time>
      </trkpt>
      <trkpt lat="45.85589" lon="4.6927">
        <ele>199</ele>
        <time>2018-02-24T11:25:15Z</time>
      </trkpt>
      <trkpt lat="45.85593" lon="4.69282">
        <ele>198</ele>
        <time>2018-02-24T11:25:16Z</time>
      </trkpt>
      <trkpt lat="45.85597" lon="4.69292">
        <ele>198</ele>
        <time>2018-02-24T11:25:18Z</time>
      </trkpt>
      <trkpt lat="45.85599" lon="4.69298">
        <ele>198</ele>
        <time>2018-02-24T11:25:19Z</time>
      </trkpt>
      <trkpt lat="45.85601" lon="4.69309">
        <ele>198</ele>
        <time>2018-02-24T11:25:21Z</time>
      </trkpt>
      <trkpt lat="45.85603" lon="4.69315">
        <ele>198</ele>
        <time>2018-02-24T11:25:22Z</time>
      </trkpt>
      <trkpt lat="45.85604" lon="4.69323">
        <ele>198</ele>
        <time>2018-02-24T11:25:23Z</time>
      </trkpt>
      <trkpt lat="45.85605" lon="4.6933">
        <ele>198</ele>
        <time>2018-02-24T11:25:24Z</time>
      </trkpt>
      <trkpt lat="45.85605" lon="4.69338">
        <ele>198</ele>
        <time>2018-02-24T11:25:25Z</time>
      </trkpt>
      <trkpt lat="45.85606" lon="4.69345">
        <ele>198</ele>
        <time>2018-02-24T11:25:26Z</time>
      </trkpt>
      <trkpt lat="45.85606" lon="4.69353">
        <ele>198</ele>
        <time>2018-02-24T11:25:27Z</time>
      </trkpt>
      <trkpt lat="45.85607" lon="4.69361">
        <ele>198</ele>
        <time>2018-02-24T11:25:28Z</time>
      </trkpt>
      <trkpt lat="45.85608" lon="4.69369">
        <ele>198</ele>
        <time>2018-02-24T11:25:29Z</time>
      </trkpt>
      <trkpt lat="45.85609" lon="4.69376">
        <ele>198</ele>
        <time>2018-02-24T11:25:30Z</time>
      </trkpt>
      <trkpt lat="45.85611" lon="4.69384">
        <ele>198</ele>
        <time>2018-02-24T11:25:31Z</time>
      </trkpt>
      <trkpt lat="45.85611" lon="4.69392">
        <ele>198</ele>
        <time>2018-02-24T11:25:32Z</time>
      </trkpt>
      <trkpt lat="45.85612" lon="4.694">
        <ele>198</ele>
        <time>2018-02-24T11:25:33Z</time>
      </trkpt>
      <trkpt lat="45.85613" lon="4.69409">
        <ele>198</ele>
        <time>2018-02-24T11:25:34Z</time>
      </trkpt>
      <trkpt lat="45.85614" lon="4.69417">
        <ele>198</ele>
        <time>2018-02-24T11:25:35Z</time>
      </trkpt>
      <trkpt lat="45.85613" lon="4.69426">
        <ele>198</ele>
        <time>2018-02-24T11:25:36Z</time>
      </trkpt>
      <trkpt lat="45.85614" lon="4.69434">
        <ele>198</ele>
        <time>2018-02-24T11:25:37Z</time>
      </trkpt>
      <trkpt lat="45.85615" lon="4.69443">
        <ele>198</ele>
        <time>2018-02-24T11:25:38Z</time>
      </trkpt>
      <trkpt lat="45.85616" lon="4.69451">
        <ele>198</ele>
        <time>2018-02-24T11:25:39Z</time>
      </trkpt>
      <trkpt lat="45.85618" lon="4.69459">
        <ele>198</ele>
        <time>2018-02-24T11:25:40Z</time>
      </trkpt>
      <trkpt lat="45.85618" lon="4.69466">
        <ele>198</ele>
        <time>2018-02-24T11:25:41Z</time>
      </trkpt>
      <trkpt lat="45.85619" lon="4.69473">
        <ele>198</ele>
        <time>2018-02-24T11:25:42Z</time>
      </trkpt>
      <trkpt lat="45.8562" lon="4.69481">
        <ele>198</ele>
        <time>2018-02-24T11:25:43Z</time>
      </trkpt>
      <trkpt lat="45.85621" lon="4.69488">
        <ele>198</ele>
        <time>2018-02-24T11:25:44Z</time>
      </trkpt>
      <trkpt lat="45.85621" lon="4.69497">
        <ele>198</ele>
        <time>2018-02-24T11:25:45Z</time>
      </trkpt>
      <trkpt lat="45.85622" lon="4.69504">
        <ele>198</ele>
        <time>2018-02-24T11:25:46Z</time>
      </trkpt>
      <trkpt lat="45.85622" lon="4.69512">
        <ele>198</ele>
        <time>2018-02-24T11:25:47Z</time>
      </trkpt>
      <trkpt lat="45.85622" lon="4.69519">
        <ele>198</ele>
        <time>2018-02-24T11:25:48Z</time>
      </trkpt>
      <trkpt lat="45.85623" lon="4.69526">
        <ele>198</ele>
        <time>2018-02-24T11:25:49Z</time>
      </trkpt>
      <trkpt lat="45.85623" lon="4.69534">
        <ele>198</ele>
        <time>2018-02-24T11:25:50Z</time>
      </trkpt>
      <trkpt lat="45.85624" lon="4.69542">
        <ele>198</ele>
        <time>2018-02-24T11:25:51Z</time>
      </trkpt>
      <trkpt lat="45.85625" lon="4.69549">
        <ele>198</ele>
        <time>2018-02-24T11:25:52Z</time>
      </trkpt>
      <trkpt lat="45.85625" lon="4.69557">
        <ele>198</ele>
        <time>2018-02-24T11:25:53Z</time>
      </trkpt>
      <trkpt lat="45.85625" lon="4.69565">
        <ele>198</ele>
        <time>2018-02-24T11:25:54Z</time>
      </trkpt>
      <trkpt lat="45.85626" lon="4.69572">
        <ele>198</ele>
        <time>2018-02-24T11:25:55Z</time>
      </trkpt>
      <trkpt lat="45.85626" lon="4.6958">
        <ele>198</ele>
        <time>2018-02-24T11:25:56Z</time>
      </trkpt>
      <trkpt lat="45.85627" lon="4.69588">
        <ele>197</ele>
        <time>2018-02-24T11:25:57Z</time>
      </trkpt>
      <trkpt lat="45.85626" lon="4.69595">
        <ele>197</ele>
        <time>2018-02-24T11:25:58Z</time>
      </trkpt>
      <trkpt lat="45.85626" lon="4.69602">
        <ele>197</ele>
        <time>2018-02-24T11:25:59Z</time>
      </trkpt>
      <trkpt lat="45.85626" lon="4.6961">
        <ele>197</ele>
        <time>2018-02-24T11:26:00Z</time>
      </trkpt>
      <trkpt lat="45.85627" lon="4.69618">
        <ele>197</ele>
        <time>2018-02-24T11:26:01Z</time>
      </trkpt>
      <trkpt lat="45.85628" lon="4.69626">
        <ele>197</ele>
        <time>2018-02-24T11:26:02Z</time>
      </trkpt>
      <trkpt lat="45.85629" lon="4.69634">
        <ele>197</ele>
        <time>2018-02-24T11:26:03Z</time>
      </trkpt>
      <trkpt lat="45.85629" lon="4.69642">
        <ele>197</ele>
        <time>2018-02-24T11:26:04Z</time>
      </trkpt>
      <trkpt lat="45.8563" lon="4.6965">
        <ele>197</ele>
        <time>2018-02-24T11:26:05Z</time>
      </trkpt>
      <trkpt lat="45.8563" lon="4.69658">
        <ele>197</ele>
        <time>2018-02-24T11:26:06Z</time>
      </trkpt>
      <trkpt lat="45.85632" lon="4.69667">
        <ele>196</ele>
        <time>2018-02-24T11:26:07Z</time>
      </trkpt>
      <trkpt lat="45.85632" lon="4.69677">
        <ele>196</ele>
        <time>2018-02-24T11:26:08Z</time>
      </trkpt>
      <trkpt lat="45.85632" lon="4.69685">
        <ele>196</ele>
        <time>2018-02-24T11:26:09Z</time>
      </trkpt>
      <trkpt lat="45.85633" lon="4.69692">
        <ele>196</ele>
        <time>2018-02-24T11:26:10Z</time>
      </trkpt>
      <trkpt lat="45.85634" lon="4.697">
        <ele>196</ele>
        <time>2018-02-24T11:26:11Z</time>
      </trkpt>
      <trkpt lat="45.85635" lon="4.69708">
        <ele>196</ele>
        <time>2018-02-24T11:26:12Z</time>
      </trkpt>
      <trkpt lat="45.85636" lon="4.69716">
        <ele>196</ele>
        <time>2018-02-24T11:26:13Z</time>
      </trkpt>
      <trkpt lat="45.85637" lon="4.69724">
        <ele>196</ele>
        <time>2018-02-24T11:26:14Z</time>
      </trkpt>
      <trkpt lat="45.85637" lon="4.69731">
        <ele>196</ele>
        <time>2018-02-24T11:26:15Z</time>
      </trkpt>
      <trkpt lat="45.85638" lon="4.69739">
        <ele>196</ele>
        <time>2018-02-24T11:26:16Z</time>
      </trkpt>
      <trkpt lat="45.85639" lon="4.69747">
        <ele>195</ele>
        <time>2018-02-24T11:26:17Z</time>
      </trkpt>
      <trkpt lat="45.8564" lon="4.69755">
        <ele>195</ele>
        <time>2018-02-24T11:26:18Z</time>
      </trkpt>
      <trkpt lat="45.85641" lon="4.69762">
        <ele>195</ele>
        <time>2018-02-24T11:26:19Z</time>
      </trkpt>
      <trkpt lat="45.85642" lon="4.6977">
        <ele>195</ele>
        <time>2018-02-24T11:26:20Z</time>
      </trkpt>
      <trkpt lat="45.85643" lon="4.69777">
        <ele>195</ele>
        <time>2018-02-24T11:26:21Z</time>
      </trkpt>
      <trkpt lat="45.85644" lon="4.69786">
        <ele>195</ele>
        <time>2018-02-24T11:26:22Z</time>
      </trkpt>
      <trkpt lat="45.85645" lon="4.69794">
        <ele>195</ele>
        <time>2018-02-24T11:26:23Z</time>
      </trkpt>
      <trkpt lat="45.85646" lon="4.69801">
        <ele>195</ele>
        <time>2018-02-24T11:26:24Z</time>
      </trkpt>
      <trkpt lat="45.85647" lon="4.69809">
        <ele>195</ele>
        <time>2018-02-24T11:26:25Z</time>
      </trkpt>
      <trkpt lat="45.85648" lon="4.69816">
        <ele>195</ele>
        <time>2018-02-24T11:26:26Z</time>
      </trkpt>
      <trkpt lat="45.8565" lon="4.69824">
        <ele>195</ele>
        <time>2018-02-24T11:26:27Z</time>
      </trkpt>
      <trkpt lat="45.85652" lon="4.69831">
        <ele>195</ele>
        <time>2018-02-24T11:26:28Z</time>
      </trkpt>
      <trkpt lat="45.85653" lon="4.6984">
        <ele>195</ele>
        <time>2018-02-24T11:26:29Z</time>
      </trkpt>
      <trkpt lat="45.85654" lon="4.69847">
        <ele>195</ele>
        <time>2018-02-24T11:26:30Z</time>
      </trkpt>
      <trkpt lat="45.85654" lon="4.69856">
        <ele>195</ele>
        <time>2018-02-24T11:26:31Z</time>
      </trkpt>
      <trkpt lat="45.85655" lon="4.69864">
        <ele>195</ele>
        <time>2018-02-24T11:26:32Z</time>
      </trkpt>
      <trkpt lat="45.85656" lon="4.69872">
        <ele>195</ele>
        <time>2018-02-24T11:26:33Z</time>
      </trkpt>
      <trkpt lat="45.85657" lon="4.6988">
        <ele>195</ele>
        <time>2018-02-24T11:26:34Z</time>
      </trkpt>
      <trkpt lat="45.85658" lon="4.69888">
        <ele>195</ele>
        <time>2018-02-24T11:26:35Z</time>
      </trkpt>
      <trkpt lat="45.85659" lon="4.69895">
        <ele>195</ele>
        <time>2018-02-24T11:26:36Z</time>
      </trkpt>
      <trkpt lat="45.8566" lon="4.69902">
        <ele>195</ele>
        <time>2018-02-24T11:26:37Z</time>
      </trkpt>
      <trkpt lat="45.85661" lon="4.69911">
        <ele>195</ele>
        <time>2018-02-24T11:26:38Z</time>
      </trkpt>
      <trkpt lat="45.85662" lon="4.69919">
        <ele>195</ele>
        <time>2018-02-24T11:26:39Z</time>
      </trkpt>
      <trkpt lat="45.85664" lon="4.69927">
        <ele>195</ele>
        <time>2018-02-24T11:26:40Z</time>
      </trkpt>
      <trkpt lat="45.85666" lon="4.69934">
        <ele>195</ele>
        <time>2018-02-24T11:26:41Z</time>
      </trkpt>
      <trkpt lat="45.85669" lon="4.69941">
        <ele>195</ele>
        <time>2018-02-24T11:26:42Z</time>
      </trkpt>
      <trkpt lat="45.85671" lon="4.69948">
        <ele>195</ele>
        <time>2018-02-24T11:26:43Z</time>
      </trkpt>
      <trkpt lat="45.85673" lon="4.69955">
        <ele>195</ele>
        <time>2018-02-24T11:26:44Z</time>
      </trkpt>
      <trkpt lat="45.85675" lon="4.69962">
        <ele>195</ele>
        <time>2018-02-24T11:26:45Z</time>
      </trkpt>
      <trkpt lat="45.85677" lon="4.69968">
        <ele>195</ele>
        <time>2018-02-24T11:26:46Z</time>
      </trkpt>
      <trkpt lat="45.85679" lon="4.69974">
        <ele>195</ele>
        <time>2018-02-24T11:26:47Z</time>
      </trkpt>
      <trkpt lat="45.8568" lon="4.69981">
        <ele>195</ele>
        <time>2018-02-24T11:26:48Z</time>
      </trkpt>
      <trkpt lat="45.85681" lon="4.69988">
        <ele>195</ele>
        <time>2018-02-24T11:26:49Z</time>
      </trkpt>
      <trkpt lat="45.85682" lon="4.69995">
        <ele>195</ele>
        <time>2018-02-24T11:26:50Z</time>
      </trkpt>
      <trkpt lat="45.85683" lon="4.70003">
        <ele>195</ele>
        <time>2018-02-24T11:26:51Z</time>
      </trkpt>
      <trkpt lat="45.85685" lon="4.70011">
        <ele>195</ele>
        <time>2018-02-24T11:26:52Z</time>
      </trkpt>
      <trkpt lat="45.85685" lon="4.70019">
        <ele>195</ele>
        <time>2018-02-24T11:26:53Z</time>
      </trkpt>
      <trkpt lat="45.85684" lon="4.70028">
        <ele>195</ele>
        <time>2018-02-24T11:26:54Z</time>
      </trkpt>
      <trkpt lat="45.85684" lon="4.70035">
        <ele>195</ele>
        <time>2018-02-24T11:26:55Z</time>
      </trkpt>
      <trkpt lat="45.85682" lon="4.70043">
        <ele>195</ele>
        <time>2018-02-24T11:26:56Z</time>
      </trkpt>
      <trkpt lat="45.85681" lon="4.70049">
        <ele>195</ele>
        <time>2018-02-24T11:26:57Z</time>
      </trkpt>
      <trkpt lat="45.85679" lon="4.70056">
        <ele>195</ele>
        <time>2018-02-24T11:26:58Z</time>
      </trkpt>
      <trkpt lat="45.85678" lon="4.70063">
        <ele>196</ele>
        <time>2018-02-24T11:26:59Z</time>
      </trkpt>
      <trkpt lat="45.85676" lon="4.7007">
        <ele>196</ele>
        <time>2018-02-24T11:27:00Z</time>
      </trkpt>
      <trkpt lat="45.85673" lon="4.70081">
        <ele>196</ele>
        <time>2018-02-24T11:27:02Z</time>
      </trkpt>
      <trkpt lat="45.85671" lon="4.70088">
        <ele>196</ele>
        <time>2018-02-24T11:27:03Z</time>
      </trkpt>
      <trkpt lat="45.85671" lon="4.70096">
        <ele>196</ele>
        <time>2018-02-24T11:27:04Z</time>
      </trkpt>
      <trkpt lat="45.85669" lon="4.70104">
        <ele>196</ele>
        <time>2018-02-24T11:27:05Z</time>
      </trkpt>
      <trkpt lat="45.85669" lon="4.70112">
        <ele>197</ele>
        <time>2018-02-24T11:27:06Z</time>
      </trkpt>
      <trkpt lat="45.85669" lon="4.7012">
        <ele>197</ele>
        <time>2018-02-24T11:27:07Z</time>
      </trkpt>
      <trkpt lat="45.85669" lon="4.70128">
        <ele>197</ele>
        <time>2018-02-24T11:27:08Z</time>
      </trkpt>
      <trkpt lat="45.8567" lon="4.70136">
        <ele>197</ele>
        <time>2018-02-24T11:27:09Z</time>
      </trkpt>
      <trkpt lat="45.85671" lon="4.70144">
        <ele>197</ele>
        <time>2018-02-24T11:27:10Z</time>
      </trkpt>
      <trkpt lat="45.85673" lon="4.70152">
        <ele>197</ele>
        <time>2018-02-24T11:27:11Z</time>
      </trkpt>
      <trkpt lat="45.85674" lon="4.70161">
        <ele>197</ele>
        <time>2018-02-24T11:27:12Z</time>
      </trkpt>
      <trkpt lat="45.85676" lon="4.70169">
        <ele>197</ele>
        <time>2018-02-24T11:27:13Z</time>
      </trkpt>
      <trkpt lat="45.85678" lon="4.70177">
        <ele>197</ele>
        <time>2018-02-24T11:27:14Z</time>
      </trkpt>
      <trkpt lat="45.85679" lon="4.70187">
        <ele>197</ele>
        <time>2018-02-24T11:27:15Z</time>
      </trkpt>
      <trkpt lat="45.85681" lon="4.70195">
        <ele>197</ele>
        <time>2018-02-24T11:27:16Z</time>
      </trkpt>
      <trkpt lat="45.85682" lon="4.70203">
        <ele>197</ele>
        <time>2018-02-24T11:27:17Z</time>
      </trkpt>
      <trkpt lat="45.85682" lon="4.70213">
        <ele>197</ele>
        <time>2018-02-24T11:27:18Z</time>
      </trkpt>
      <trkpt lat="45.85684" lon="4.7022">
        <ele>197</ele>
        <time>2018-02-24T11:27:19Z</time>
      </trkpt>
      <trkpt lat="45.85684" lon="4.70228">
        <ele>197</ele>
        <time>2018-02-24T11:27:20Z</time>
      </trkpt>
      <trkpt lat="45.85686" lon="4.70236">
        <ele>197</ele>
        <time>2018-02-24T11:27:21Z</time>
      </trkpt>
      <trkpt lat="45.85688" lon="4.70243">
        <ele>197</ele>
        <time>2018-02-24T11:27:22Z</time>
      </trkpt>
      <trkpt lat="45.8569" lon="4.7025">
        <ele>197</ele>
        <time>2018-02-24T11:27:23Z</time>
      </trkpt>
      <trkpt lat="45.85691" lon="4.70256">
        <ele>197</ele>
        <time>2018-02-24T11:27:24Z</time>
      </trkpt>
      <trkpt lat="45.85692" lon="4.70263">
        <ele>197</ele>
        <time>2018-02-24T11:27:25Z</time>
      </trkpt>
      <trkpt lat="45.85693" lon="4.7027">
        <ele>197</ele>
        <time>2018-02-24T11:27:26Z</time>
      </trkpt>
      <trkpt lat="45.85694" lon="4.70277">
        <ele>197</ele>
        <time>2018-02-24T11:27:27Z</time>
      </trkpt>
      <trkpt lat="45.85694" lon="4.70284">
        <ele>197</ele>
        <time>2018-02-24T11:27:28Z</time>
      </trkpt>
      <trkpt lat="45.85695" lon="4.70292">
        <ele>197</ele>
        <time>2018-02-24T11:27:29Z</time>
      </trkpt>
      <trkpt lat="45.85696" lon="4.703">
        <ele>197</ele>
        <time>2018-02-24T11:27:30Z</time>
      </trkpt>
      <trkpt lat="45.85697" lon="4.70308">
        <ele>197</ele>
        <time>2018-02-24T11:27:31Z</time>
      </trkpt>
      <trkpt lat="45.85698" lon="4.70318">
        <ele>197</ele>
        <time>2018-02-24T11:27:32Z</time>
      </trkpt>
      <trkpt lat="45.85699" lon="4.70326">
        <ele>197</ele>
        <time>2018-02-24T11:27:33Z</time>
      </trkpt>
      <trkpt lat="45.85701" lon="4.70335">
        <ele>196</ele>
        <time>2018-02-24T11:27:34Z</time>
      </trkpt>
      <trkpt lat="45.85702" lon="4.70344">
        <ele>196</ele>
        <time>2018-02-24T11:27:35Z</time>
      </trkpt>
      <trkpt lat="45.85704" lon="4.70352">
        <ele>196</ele>
        <time>2018-02-24T11:27:36Z</time>
      </trkpt>
      <trkpt lat="45.85704" lon="4.7036">
        <ele>196</ele>
        <time>2018-02-24T11:27:37Z</time>
      </trkpt>
      <trkpt lat="45.85705" lon="4.70369">
        <ele>196</ele>
        <time>2018-02-24T11:27:38Z</time>
      </trkpt>
      <trkpt lat="45.85704" lon="4.70376">
        <ele>196</ele>
        <time>2018-02-24T11:27:39Z</time>
      </trkpt>
      <trkpt lat="45.85705" lon="4.70384">
        <ele>196</ele>
        <time>2018-02-24T11:27:40Z</time>
      </trkpt>
      <trkpt lat="45.85706" lon="4.70393">
        <ele>196</ele>
        <time>2018-02-24T11:27:41Z</time>
      </trkpt>
      <trkpt lat="45.85707" lon="4.70402">
        <ele>196</ele>
        <time>2018-02-24T11:27:42Z</time>
      </trkpt>
      <trkpt lat="45.8571" lon="4.7041">
        <ele>196</ele>
        <time>2018-02-24T11:27:43Z</time>
      </trkpt>
      <trkpt lat="45.85712" lon="4.70418">
        <ele>196</ele>
        <time>2018-02-24T11:27:44Z</time>
      </trkpt>
      <trkpt lat="45.85712" lon="4.70425">
        <ele>196</ele>
        <time>2018-02-24T11:27:45Z</time>
      </trkpt>
      <trkpt lat="45.85714" lon="4.70431">
        <ele>196</ele>
        <time>2018-02-24T11:27:46Z</time>
      </trkpt>
      <trkpt lat="45.85716" lon="4.70441">
        <ele>196</ele>
        <time>2018-02-24T11:27:47Z</time>
      </trkpt>
      <trkpt lat="45.85718" lon="4.70449">
        <ele>196</ele>
        <time>2018-02-24T11:27:48Z</time>
      </trkpt>
      <trkpt lat="45.85719" lon="4.70457">
        <ele>196</ele>
        <time>2018-02-24T11:27:49Z</time>
      </trkpt>
      <trkpt lat="45.8572" lon="4.70463">
        <ele>196</ele>
        <time>2018-02-24T11:27:50Z</time>
      </trkpt>
      <trkpt lat="45.8572" lon="4.70472">
        <ele>196</ele>
        <time>2018-02-24T11:27:51Z</time>
      </trkpt>
      <trkpt lat="45.85723" lon="4.70483">
        <ele>196</ele>
        <time>2018-02-24T11:27:53Z</time>
      </trkpt>
      <trkpt lat="45.85722" lon="4.70485">
        <ele>196</ele>
        <time>2018-02-24T11:27:54Z</time>
      </trkpt>
      <trkpt lat="45.85717" lon="4.70489">
        <ele>196</ele>
        <time>2018-02-24T11:27:56Z</time>
      </trkpt>
      <trkpt lat="45.85715" lon="4.70493">
        <ele>196</ele>
        <time>2018-02-24T11:27:57Z</time>
      </trkpt>
      <trkpt lat="45.85711" lon="4.70499">
        <ele>196</ele>
        <time>2018-02-24T11:27:58Z</time>
      </trkpt>
      <trkpt lat="45.8571" lon="4.70506">
        <ele>196</ele>
        <time>2018-02-24T11:27:59Z</time>
      </trkpt>
      <trkpt lat="45.85712" lon="4.70517">
        <ele>196</ele>
        <time>2018-02-24T11:28:01Z</time>
      </trkpt>
      <trkpt lat="45.85714" lon="4.7052">
        <ele>196</ele>
        <time>2018-02-24T11:28:02Z</time>
      </trkpt>
      <trkpt lat="45.85721" lon="4.70524">
        <ele>196</ele>
        <time>2018-02-24T11:28:04Z</time>
      </trkpt>
      <trkpt lat="45.85726" lon="4.70523">
        <ele>196</ele>
        <time>2018-02-24T11:28:05Z</time>
      </trkpt>
      <trkpt lat="45.8573" lon="4.70521">
        <ele>196</ele>
        <time>2018-02-24T11:28:06Z</time>
      </trkpt>
      <trkpt lat="45.85734" lon="4.70519">
        <ele>196</ele>
        <time>2018-02-24T11:28:07Z</time>
      </trkpt>
      <trkpt lat="45.85739" lon="4.70518">
        <ele>196</ele>
        <time>2018-02-24T11:28:08Z</time>
      </trkpt>
      <trkpt lat="45.85744" lon="4.70517">
        <ele>196</ele>
        <time>2018-02-24T11:28:09Z</time>
      </trkpt>
      <trkpt lat="45.85749" lon="4.70519">
        <ele>196</ele>
        <time>2018-02-24T11:28:10Z</time>
      </trkpt>
      <trkpt lat="45.85753" lon="4.70521">
        <ele>196</ele>
        <time>2018-02-24T11:28:11Z</time>
      </trkpt>
      <trkpt lat="45.85758" lon="4.70523">
        <ele>196</ele>
        <time>2018-02-24T11:28:12Z</time>
      </trkpt>
      <trkpt lat="45.85762" lon="4.70526">
        <ele>196</ele>
        <time>2018-02-24T11:28:13Z</time>
      </trkpt>
      <trkpt lat="45.85767" lon="4.7053">
        <ele>196</ele>
        <time>2018-02-24T11:28:14Z</time>
      </trkpt>
      <trkpt lat="45.85771" lon="4.70534">
        <ele>196</ele>
        <time>2018-02-24T11:28:15Z</time>
      </trkpt>
      <trkpt lat="45.85776" lon="4.70538">
        <ele>196</ele>
        <time>2018-02-24T11:28:16Z</time>
      </trkpt>
      <trkpt lat="45.8578" lon="4.7054">
        <ele>196</ele>
        <time>2018-02-24T11:28:17Z</time>
      </trkpt>
      <trkpt lat="45.85787" lon="4.70547">
        <ele>196</ele>
        <time>2018-02-24T11:28:19Z</time>
      </trkpt>
      <trkpt lat="45.85792" lon="4.70549">
        <ele>195</ele>
        <time>2018-02-24T11:28:20Z</time>
      </trkpt>
      <trkpt lat="45.85796" lon="4.70552">
        <ele>195</ele>
        <time>2018-02-24T11:28:21Z</time>
      </trkpt>
      <trkpt lat="45.85801" lon="4.70555">
        <ele>195</ele>
        <time>2018-02-24T11:28:22Z</time>
      </trkpt>
      <trkpt lat="45.8581" lon="4.70558">
        <ele>195</ele>
        <time>2018-02-24T11:28:24Z</time>
      </trkpt>
      <trkpt lat="45.85814" lon="4.7056">
        <ele>195</ele>
        <time>2018-02-24T11:28:25Z</time>
      </trkpt>
      <trkpt lat="45.85819" lon="4.70561">
        <ele>195</ele>
        <time>2018-02-24T11:28:26Z</time>
      </trkpt>
      <trkpt lat="45.85823" lon="4.70563">
        <ele>195</ele>
        <time>2018-02-24T11:28:27Z</time>
      </trkpt>
      <trkpt lat="45.85828" lon="4.70567">
        <ele>195</ele>
        <time>2018-02-24T11:28:28Z</time>
      </trkpt>
      <trkpt lat="45.85833" lon="4.70569">
        <ele>195</ele>
        <time>2018-02-24T11:28:29Z</time>
      </trkpt>
      <trkpt lat="45.85841" lon="4.70572">
        <ele>195</ele>
        <time>2018-02-24T11:28:31Z</time>
      </trkpt>
      <trkpt lat="45.85845" lon="4.70573">
        <ele>195</ele>
        <time>2018-02-24T11:28:32Z</time>
      </trkpt>
      <trkpt lat="45.85851" lon="4.70575">
        <ele>195</ele>
        <time>2018-02-24T11:28:33Z</time>
      </trkpt>
      <trkpt lat="45.85855" lon="4.70577">
        <ele>195</ele>
        <time>2018-02-24T11:28:34Z</time>
      </trkpt>
      <trkpt lat="45.8586" lon="4.70576">
        <ele>195</ele>
        <time>2018-02-24T11:28:35Z</time>
      </trkpt>
      <trkpt lat="45.85865" lon="4.70576">
        <ele>195</ele>
        <time>2018-02-24T11:28:36Z</time>
      </trkpt>
      <trkpt lat="45.85872" lon="4.70576">
        <ele>195</ele>
        <time>2018-02-24T11:28:39Z</time>
      </trkpt>
      <trkpt lat="45.85874" lon="4.70575">
        <ele>195</ele>
        <time>2018-02-24T11:28:40Z</time>
      </trkpt>
      <trkpt lat="45.85876" lon="4.70575">
        <ele>195</ele>
        <time>2018-02-24T11:28:41Z</time>
      </trkpt>
      <trkpt lat="45.85887" lon="4.70581">
        <ele>195</ele>
        <time>2018-02-24T11:28:42Z</time>
      </trkpt>
      <trkpt lat="45.85893" lon="4.70584">
        <ele>195</ele>
        <time>2018-02-24T11:28:43Z</time>
      </trkpt>
      <trkpt lat="45.85897" lon="4.7059">
        <ele>195</ele>
        <time>2018-02-24T11:28:44Z</time>
      </trkpt>
      <trkpt lat="45.85904" lon="4.70595">
        <ele>195</ele>
        <time>2018-02-24T11:28:45Z</time>
      </trkpt>
      <trkpt lat="45.85909" lon="4.70599">
        <ele>195</ele>
        <time>2018-02-24T11:28:46Z</time>
      </trkpt>
      <trkpt lat="45.85912" lon="4.70605">
        <ele>195</ele>
        <time>2018-02-24T11:28:47Z</time>
      </trkpt>
      <trkpt lat="45.85916" lon="4.70612">
        <ele>195</ele>
        <time>2018-02-24T11:28:48Z</time>
      </trkpt>
      <trkpt lat="45.85919" lon="4.70618">
        <ele>194</ele>
        <time>2018-02-24T11:28:49Z</time>
      </trkpt>
      <trkpt lat="45.85923" lon="4.70625">
        <ele>194</ele>
        <time>2018-02-24T11:28:50Z</time>
      </trkpt>
      <trkpt lat="45.85925" lon="4.70631">
        <ele>194</ele>
        <time>2018-02-24T11:28:51Z</time>
      </trkpt>
      <trkpt lat="45.8593" lon="4.70637">
        <ele>194</ele>
        <time>2018-02-24T11:28:52Z</time>
      </trkpt>
      <trkpt lat="45.85933" lon="4.70641">
        <ele>194</ele>
        <time>2018-02-24T11:28:53Z</time>
      </trkpt>
      <trkpt lat="45.85937" lon="4.70647">
        <ele>194</ele>
        <time>2018-02-24T11:28:54Z</time>
      </trkpt>
      <trkpt lat="45.85941" lon="4.70651">
        <ele>194</ele>
        <time>2018-02-24T11:28:55Z</time>
      </trkpt>
      <trkpt lat="45.85944" lon="4.70657">
        <ele>194</ele>
        <time>2018-02-24T11:28:56Z</time>
      </trkpt>
      <trkpt lat="45.85947" lon="4.70664">
        <ele>194</ele>
        <time>2018-02-24T11:28:57Z</time>
      </trkpt>
      <trkpt lat="45.85951" lon="4.70669">
        <ele>194</ele>
        <time>2018-02-24T11:28:58Z</time>
      </trkpt>
      <trkpt lat="45.85954" lon="4.70674">
        <ele>194</ele>
        <time>2018-02-24T11:28:59Z</time>
      </trkpt>
      <trkpt lat="45.85957" lon="4.70681">
        <ele>194</ele>
        <time>2018-02-24T11:29:00Z</time>
      </trkpt>
      <trkpt lat="45.85958" lon="4.70687">
        <ele>194</ele>
        <time>2018-02-24T11:29:01Z</time>
      </trkpt>
      <trkpt lat="45.85959" lon="4.70695">
        <ele>194</ele>
        <time>2018-02-24T11:29:02Z</time>
      </trkpt>
      <trkpt lat="45.8596" lon="4.70702">
        <ele>194</ele>
        <time>2018-02-24T11:29:03Z</time>
      </trkpt>
      <trkpt lat="45.8596" lon="4.70708">
        <ele>194</ele>
        <time>2018-02-24T11:29:04Z</time>
      </trkpt>
      <trkpt lat="45.8596" lon="4.70721">
        <ele>194</ele>
        <time>2018-02-24T11:29:06Z</time>
      </trkpt>
      <trkpt lat="45.85959" lon="4.70727">
        <ele>194</ele>
        <time>2018-02-24T11:29:07Z</time>
      </trkpt>
      <trkpt lat="45.85958" lon="4.70735">
        <ele>194</ele>
        <time>2018-02-24T11:29:08Z</time>
      </trkpt>
      <trkpt lat="45.85958" lon="4.70742">
        <ele>194</ele>
        <time>2018-02-24T11:29:09Z</time>
      </trkpt>
      <trkpt lat="45.85957" lon="4.70748">
        <ele>194</ele>
        <time>2018-02-24T11:29:10Z</time>
      </trkpt>
      <trkpt lat="45.85957" lon="4.70755">
        <ele>195</ele>
        <time>2018-02-24T11:29:11Z</time>
      </trkpt>
      <trkpt lat="45.85957" lon="4.70762">
        <ele>195</ele>
        <time>2018-02-24T11:29:12Z</time>
      </trkpt>
      <trkpt lat="45.85957" lon="4.70768">
        <ele>195</ele>
        <time>2018-02-24T11:29:13Z</time>
      </trkpt>
      <trkpt lat="45.85957" lon="4.70775">
        <ele>195</ele>
        <time>2018-02-24T11:29:14Z</time>
      </trkpt>
      <trkpt lat="45.85956" lon="4.70781">
        <ele>195</ele>
        <time>2018-02-24T11:29:15Z</time>
      </trkpt>
      <trkpt lat="45.85955" lon="4.70794">
        <ele>195</ele>
        <time>2018-02-24T11:29:17Z</time>
      </trkpt>
      <trkpt lat="45.85956" lon="4.70798">
        <ele>195</ele>
        <time>2018-02-24T11:29:18Z</time>
      </trkpt>
      <trkpt lat="45.85955" lon="4.70808">
        <ele>195</ele>
        <time>2018-02-24T11:29:19Z</time>
      </trkpt>
      <trkpt lat="45.85956" lon="4.70812">
        <ele>195</ele>
        <time>2018-02-24T11:29:20Z</time>
      </trkpt>
      <trkpt lat="45.85958" lon="4.70823">
        <ele>195</ele>
        <time>2018-02-24T11:29:22Z</time>
      </trkpt>
      <trkpt lat="45.85958" lon="4.70825">
        <ele>196</ele>
        <time>2018-02-24T11:29:23Z</time>
      </trkpt>
      <trkpt lat="45.85958" lon="4.70833">
        <ele>196</ele>
        <time>2018-02-24T11:29:24Z</time>
      </trkpt>
      <trkpt lat="45.85959" lon="4.70839">
        <ele>196</ele>
        <time>2018-02-24T11:29:25Z</time>
      </trkpt>
      <trkpt lat="45.85958" lon="4.70851">
        <ele>196</ele>
        <time>2018-02-24T11:29:28Z</time>
      </trkpt>
      <trkpt lat="45.85958" lon="4.70855">
        <ele>196</ele>
        <time>2018-02-24T11:29:29Z</time>
      </trkpt>
      <trkpt lat="45.85957" lon="4.70866">
        <ele>196</ele>
        <time>2018-02-24T11:29:30Z</time>
      </trkpt>
      <trkpt lat="45.85957" lon="4.70869">
        <ele>196</ele>
        <time>2018-02-24T11:29:31Z</time>
      </trkpt>
      <trkpt lat="45.85955" lon="4.70877">
        <ele>197</ele>
        <time>2018-02-24T11:29:32Z</time>
      </trkpt>
      <trkpt lat="45.85954" lon="4.70882">
        <ele>197</ele>
        <time>2018-02-24T11:29:33Z</time>
      </trkpt>
      <trkpt lat="45.85952" lon="4.70894">
        <ele>197</ele>
        <time>2018-02-24T11:29:35Z</time>
      </trkpt>
      <trkpt lat="45.8595" lon="4.70902">
        <ele>197</ele>
        <time>2018-02-24T11:29:36Z</time>
      </trkpt>
      <trkpt lat="45.85949" lon="4.70908">
        <ele>197</ele>
        <time>2018-02-24T11:29:37Z</time>
      </trkpt>
      <trkpt lat="45.85948" lon="4.70915">
        <ele>197</ele>
        <time>2018-02-24T11:29:38Z</time>
      </trkpt>
      <trkpt lat="45.85945" lon="4.70921">
        <ele>197</ele>
        <time>2018-02-24T11:29:39Z</time>
      </trkpt>
      <trkpt lat="45.85943" lon="4.70928">
        <ele>197</ele>
        <time>2018-02-24T11:29:40Z</time>
      </trkpt>
      <trkpt lat="45.85941" lon="4.70934">
        <ele>197</ele>
        <time>2018-02-24T11:29:41Z</time>
      </trkpt>
      <trkpt lat="45.85939" lon="4.7094">
        <ele>197</ele>
        <time>2018-02-24T11:29:42Z</time>
      </trkpt>
      <trkpt lat="45.85938" lon="4.70952">
        <ele>197</ele>
        <time>2018-02-24T11:29:44Z</time>
      </trkpt>
      <trkpt lat="45.85938" lon="4.70958">
        <ele>197</ele>
        <time>2018-02-24T11:29:45Z</time>
      </trkpt>
      <trkpt lat="45.8594" lon="4.70964">
        <ele>197</ele>
        <time>2018-02-24T11:29:46Z</time>
      </trkpt>
      <trkpt lat="45.85942" lon="4.70969">
        <ele>197</ele>
        <time>2018-02-24T11:29:47Z</time>
      </trkpt>
      <trkpt lat="45.85951" lon="4.70972">
        <ele>197</ele>
        <time>2018-02-24T11:29:49Z</time>
      </trkpt>
      <trkpt lat="45.85955" lon="4.70972">
        <ele>197</ele>
        <time>2018-02-24T11:29:50Z</time>
      </trkpt>
      <trkpt lat="45.85964" lon="4.70973">
        <ele>197</ele>
        <time>2018-02-24T11:29:52Z</time>
      </trkpt>
      <trkpt lat="45.85969" lon="4.70974">
        <ele>197</ele>
        <time>2018-02-24T11:29:53Z</time>
      </trkpt>
      <trkpt lat="45.85974" lon="4.70975">
        <ele>197</ele>
        <time>2018-02-24T11:29:54Z</time>
      </trkpt>
      <trkpt lat="45.85978" lon="4.70976">
        <ele>197</ele>
        <time>2018-02-24T11:29:55Z</time>
      </trkpt>
      <trkpt lat="45.85983" lon="4.70978">
        <ele>197</ele>
        <time>2018-02-24T11:29:56Z</time>
      </trkpt>
      <trkpt lat="45.85987" lon="4.70982">
        <ele>197</ele>
        <time>2018-02-24T11:29:57Z</time>
      </trkpt>
      <trkpt lat="45.85992" lon="4.70987">
        <ele>197</ele>
        <time>2018-02-24T11:29:58Z</time>
      </trkpt>
      <trkpt lat="45.85996" lon="4.70992">
        <ele>197</ele>
        <time>2018-02-24T11:29:59Z</time>
      </trkpt>
      <trkpt lat="45.86001" lon="4.70995">
        <ele>197</ele>
        <time>2018-02-24T11:30:00Z</time>
      </trkpt>
      <trkpt lat="45.86005" lon="4.70999">
        <ele>197</ele>
        <time>2018-02-24T11:30:01Z</time>
      </trkpt>
      <trkpt lat="45.86007" lon="4.71005">
        <ele>197</ele>
        <time>2018-02-24T11:30:02Z</time>
      </trkpt>
      <trkpt lat="45.8601" lon="4.71009">
        <ele>197</ele>
        <time>2018-02-24T11:30:03Z</time>
      </trkpt>
      <trkpt lat="45.86015" lon="4.71016">
        <ele>197</ele>
        <time>2018-02-24T11:30:05Z</time>
      </trkpt>
      <trkpt lat="45.86019" lon="4.71022">
        <ele>197</ele>
        <time>2018-02-24T11:30:06Z</time>
      </trkpt>
      <trkpt lat="45.86023" lon="4.71029">
        <ele>197</ele>
        <time>2018-02-24T11:30:08Z</time>
      </trkpt>
      <trkpt lat="45.86025" lon="4.71034">
        <ele>197</ele>
        <time>2018-02-24T11:30:09Z</time>
      </trkpt>
      <trkpt lat="45.86028" lon="4.71045">
        <ele>197</ele>
        <time>2018-02-24T11:30:11Z</time>
      </trkpt>
      <trkpt lat="45.8603" lon="4.71052">
        <ele>197</ele>
        <time>2018-02-24T11:30:12Z</time>
      </trkpt>
      <trkpt lat="45.86031" lon="4.71058">
        <ele>197</ele>
        <time>2018-02-24T11:30:13Z</time>
      </trkpt>
      <trkpt lat="45.86032" lon="4.71065">
        <ele>197</ele>
        <time>2018-02-24T11:30:14Z</time>
      </trkpt>
      <trkpt lat="45.86033" lon="4.71072">
        <ele>197</ele>
        <time>2018-02-24T11:30:15Z</time>
      </trkpt>
      <trkpt lat="45.86034" lon="4.71078">
        <ele>197</ele>
        <time>2018-02-24T11:30:16Z</time>
      </trkpt>
      <trkpt lat="45.86037" lon="4.71089">
        <ele>197</ele>
        <time>2018-02-24T11:30:18Z</time>
      </trkpt>
      <trkpt lat="45.86042" lon="4.71095">
        <ele>197</ele>
        <time>2018-02-24T11:30:19Z</time>
      </trkpt>
      <trkpt lat="45.86046" lon="4.71106">
        <ele>197</ele>
        <time>2018-02-24T11:30:21Z</time>
      </trkpt>
      <trkpt lat="45.86049" lon="4.71111">
        <ele>197</ele>
        <time>2018-02-24T11:30:22Z</time>
      </trkpt>
      <trkpt lat="45.86053" lon="4.71115">
        <ele>197</ele>
        <time>2018-02-24T11:30:23Z</time>
      </trkpt>
      <trkpt lat="45.86056" lon="4.7112">
        <ele>197</ele>
        <time>2018-02-24T11:30:24Z</time>
      </trkpt>
      <trkpt lat="45.8606" lon="4.71124">
        <ele>197</ele>
        <time>2018-02-24T11:30:25Z</time>
      </trkpt>
      <trkpt lat="45.86064" lon="4.71129">
        <ele>197</ele>
        <time>2018-02-24T11:30:26Z</time>
      </trkpt>
      <trkpt lat="45.86069" lon="4.71134">
        <ele>197</ele>
        <time>2018-02-24T11:30:27Z</time>
      </trkpt>
      <trkpt lat="45.86073" lon="4.71138">
        <ele>197</ele>
        <time>2018-02-24T11:30:28Z</time>
      </trkpt>
      <trkpt lat="45.8608" lon="4.71143">
        <ele>197</ele>
        <time>2018-02-24T11:30:30Z</time>
      </trkpt>
      <trkpt lat="45.86084" lon="4.71146">
        <ele>197</ele>
        <time>2018-02-24T11:30:31Z</time>
      </trkpt>
      <trkpt lat="45.86087" lon="4.71152">
        <ele>197</ele>
        <time>2018-02-24T11:30:32Z</time>
      </trkpt>
      <trkpt lat="45.86087" lon="4.71158">
        <ele>197</ele>
        <time>2018-02-24T11:30:33Z</time>
      </trkpt>
      <trkpt lat="45.86087" lon="4.7117">
        <ele>198</ele>
        <time>2018-02-24T11:30:35Z</time>
      </trkpt>
      <trkpt lat="45.86086" lon="4.71175">
        <ele>198</ele>
        <time>2018-02-24T11:30:36Z</time>
      </trkpt>
      <trkpt lat="45.86089" lon="4.71187">
        <ele>197</ele>
        <time>2018-02-24T11:30:38Z</time>
      </trkpt>
      <trkpt lat="45.86089" lon="4.71194">
        <ele>197</ele>
        <time>2018-02-24T11:30:39Z</time>
      </trkpt>
      <trkpt lat="45.86086" lon="4.71203">
        <ele>197</ele>
        <time>2018-02-24T11:30:41Z</time>
      </trkpt>
      <trkpt lat="45.86085" lon="4.71209">
        <ele>197</ele>
        <time>2018-02-24T11:30:42Z</time>
      </trkpt>
      <trkpt lat="45.86084" lon="4.7122">
        <ele>197</ele>
        <time>2018-02-24T11:30:44Z</time>
      </trkpt>
      <trkpt lat="45.86084" lon="4.71227">
        <ele>197</ele>
        <time>2018-02-24T11:30:45Z</time>
      </trkpt>
      <trkpt lat="45.86084" lon="4.71234">
        <ele>197</ele>
        <time>2018-02-24T11:30:46Z</time>
      </trkpt>
      <trkpt lat="45.86084" lon="4.71242">
        <ele>198</ele>
        <time>2018-02-24T11:30:47Z</time>
      </trkpt>
      <trkpt lat="45.86083" lon="4.71254">
        <ele>198</ele>
        <time>2018-02-24T11:30:49Z</time>
      </trkpt>
      <trkpt lat="45.86086" lon="4.71259">
        <ele>197</ele>
        <time>2018-02-24T11:30:50Z</time>
      </trkpt>
      <trkpt lat="45.86091" lon="4.71268">
        <ele>197</ele>
        <time>2018-02-24T11:30:54Z</time>
      </trkpt>
      <trkpt lat="45.86092" lon="4.71271">
        <ele>197</ele>
        <time>2018-02-24T11:30:55Z</time>
      </trkpt>
      <trkpt lat="45.86093" lon="4.71274">
        <ele>197</ele>
        <time>2018-02-24T11:30:56Z</time>
      </trkpt>
      <trkpt lat="45.86096" lon="4.71285">
        <ele>197</ele>
        <time>2018-02-24T11:30:57Z</time>
      </trkpt>
      <trkpt lat="45.86099" lon="4.71297">
        <ele>197</ele>
        <time>2018-02-24T11:30:59Z</time>
      </trkpt>
      <trkpt lat="45.86101" lon="4.71303">
        <ele>197</ele>
        <time>2018-02-24T11:31:00Z</time>
      </trkpt>
      <trkpt lat="45.86103" lon="4.71315">
        <ele>197</ele>
        <time>2018-02-24T11:31:02Z</time>
      </trkpt>
      <trkpt lat="45.86104" lon="4.71321">
        <ele>197</ele>
        <time>2018-02-24T11:31:03Z</time>
      </trkpt>
      <trkpt lat="45.86106" lon="4.71329">
        <ele>197</ele>
        <time>2018-02-24T11:31:04Z</time>
      </trkpt>
      <trkpt lat="45.86107" lon="4.71337">
        <ele>196</ele>
        <time>2018-02-24T11:31:05Z</time>
      </trkpt>
      <trkpt lat="45.86109" lon="4.71343">
        <ele>196</ele>
        <time>2018-02-24T11:31:06Z</time>
      </trkpt>
      <trkpt lat="45.8611" lon="4.7135">
        <ele>196</ele>
        <time>2018-02-24T11:31:07Z</time>
      </trkpt>
      <trkpt lat="45.86111" lon="4.71356">
        <ele>196</ele>
        <time>2018-02-24T11:31:08Z</time>
      </trkpt>
      <trkpt lat="45.86112" lon="4.71363">
        <ele>196</ele>
        <time>2018-02-24T11:31:09Z</time>
      </trkpt>
      <trkpt lat="45.86113" lon="4.71375">
        <ele>196</ele>
        <time>2018-02-24T11:31:11Z</time>
      </trkpt>
      <trkpt lat="45.86113" lon="4.71382">
        <ele>196</ele>
        <time>2018-02-24T11:31:12Z</time>
      </trkpt>
      <trkpt lat="45.86114" lon="4.71388">
        <ele>196</ele>
        <time>2018-02-24T11:31:13Z</time>
      </trkpt>
      <trkpt lat="45.86114" lon="4.71395">
        <ele>196</ele>
        <time>2018-02-24T11:31:14Z</time>
      </trkpt>
      <trkpt lat="45.86114" lon="4.71403">
        <ele>196</ele>
        <time>2018-02-24T11:31:15Z</time>
      </trkpt>
      <trkpt lat="45.86115" lon="4.7141">
        <ele>196</ele>
        <time>2018-02-24T11:31:16Z</time>
      </trkpt>
      <trkpt lat="45.86116" lon="4.71419">
        <ele>195</ele>
        <time>2018-02-24T11:31:17Z</time>
      </trkpt>
      <trkpt lat="45.86117" lon="4.71427">
        <ele>195</ele>
        <time>2018-02-24T11:31:18Z</time>
      </trkpt>
      <trkpt lat="45.86118" lon="4.71434">
        <ele>195</ele>
        <time>2018-02-24T11:31:19Z</time>
      </trkpt>
      <trkpt lat="45.8612" lon="4.71441">
        <ele>195</ele>
        <time>2018-02-24T11:31:20Z</time>
      </trkpt>
      <trkpt lat="45.86122" lon="4.71448">
        <ele>195</ele>
        <time>2018-02-24T11:31:21Z</time>
      </trkpt>
      <trkpt lat="45.86124" lon="4.71455">
        <ele>195</ele>
        <time>2018-02-24T11:31:22Z</time>
      </trkpt>
      <trkpt lat="45.86125" lon="4.71461">
        <ele>195</ele>
        <time>2018-02-24T11:31:23Z</time>
      </trkpt>
      <trkpt lat="45.86126" lon="4.71468">
        <ele>195</ele>
        <time>2018-02-24T11:31:24Z</time>
      </trkpt>
      <trkpt lat="45.86128" lon="4.71475">
        <ele>195</ele>
        <time>2018-02-24T11:31:25Z</time>
      </trkpt>
      <trkpt lat="45.8613" lon="4.71481">
        <ele>195</ele>
        <time>2018-02-24T11:31:26Z</time>
      </trkpt>
      <trkpt lat="45.86134" lon="4.71492">
        <ele>195</ele>
        <time>2018-02-24T11:31:28Z</time>
      </trkpt>
      <trkpt lat="45.86136" lon="4.71497">
        <ele>195</ele>
        <time>2018-02-24T11:31:29Z</time>
      </trkpt>
      <trkpt lat="45.86141" lon="4.71508">
        <ele>195</ele>
        <time>2018-02-24T11:31:31Z</time>
      </trkpt>
      <trkpt lat="45.86143" lon="4.71514">
        <ele>195</ele>
        <time>2018-02-24T11:31:32Z</time>
      </trkpt>
      <trkpt lat="45.86146" lon="4.71519">
        <ele>195</ele>
        <time>2018-02-24T11:31:33Z</time>
      </trkpt>
      <trkpt lat="45.8615" lon="4.71526">
        <ele>195</ele>
        <time>2018-02-24T11:31:34Z</time>
      </trkpt>
      <trkpt lat="45.86153" lon="4.71532">
        <ele>195</ele>
        <time>2018-02-24T11:31:35Z</time>
      </trkpt>
      <trkpt lat="45.86156" lon="4.71538">
        <ele>195</ele>
        <time>2018-02-24T11:31:36Z</time>
      </trkpt>
      <trkpt lat="45.8616" lon="4.71549">
        <ele>196</ele>
        <time>2018-02-24T11:31:38Z</time>
      </trkpt>
      <trkpt lat="45.86163" lon="4.71555">
        <ele>196</ele>
        <time>2018-02-24T11:31:39Z</time>
      </trkpt>
      <trkpt lat="45.86166" lon="4.71561">
        <ele>196</ele>
        <time>2018-02-24T11:31:40Z</time>
      </trkpt>
      <trkpt lat="45.86169" lon="4.71566">
        <ele>195</ele>
        <time>2018-02-24T11:31:41Z</time>
      </trkpt>
      <trkpt lat="45.86175" lon="4.71576">
        <ele>196</ele>
        <time>2018-02-24T11:31:43Z</time>
      </trkpt>
      <trkpt lat="45.86178" lon="4.71581">
        <ele>196</ele>
        <time>2018-02-24T11:31:44Z</time>
      </trkpt>
      <trkpt lat="45.86183" lon="4.7159">
        <ele>196</ele>
        <time>2018-02-24T11:31:47Z</time>
      </trkpt>
      <trkpt lat="45.86184" lon="4.71592">
        <ele>196</ele>
        <time>2018-02-24T11:31:48Z</time>
      </trkpt>
      <trkpt lat="45.86184" lon="4.71605">
        <ele>195</ele>
        <time>2018-02-24T11:31:52Z</time>
      </trkpt>
      <trkpt lat="45.86184" lon="4.71619">
        <ele>195</ele>
        <time>2018-02-24T11:31:53Z</time>
      </trkpt>
      <trkpt lat="45.86185" lon="4.71625">
        <ele>195</ele>
        <time>2018-02-24T11:31:54Z</time>
      </trkpt>
      <trkpt lat="45.86186" lon="4.71632">
        <ele>195</ele>
        <time>2018-02-24T11:31:55Z</time>
      </trkpt>
      <trkpt lat="45.86192" lon="4.7164">
        <ele>195</ele>
        <time>2018-02-24T11:31:57Z</time>
      </trkpt>
      <trkpt lat="45.86197" lon="4.71643">
        <ele>195</ele>
        <time>2018-02-24T11:31:58Z</time>
      </trkpt>
      <trkpt lat="45.86202" lon="4.71645">
        <ele>195</ele>
        <time>2018-02-24T11:31:59Z</time>
      </trkpt>
      <trkpt lat="45.86207" lon="4.71647">
        <ele>195</ele>
        <time>2018-02-24T11:32:00Z</time>
      </trkpt>
      <trkpt lat="45.86212" lon="4.71649">
        <ele>195</ele>
        <time>2018-02-24T11:32:01Z</time>
      </trkpt>
      <trkpt lat="45.86217" lon="4.71653">
        <ele>195</ele>
        <time>2018-02-24T11:32:02Z</time>
      </trkpt>
      <trkpt lat="45.86222" lon="4.71658">
        <ele>195</ele>
        <time>2018-02-24T11:32:03Z</time>
      </trkpt>
      <trkpt lat="45.86227" lon="4.71663">
        <ele>195</ele>
        <time>2018-02-24T11:32:04Z</time>
      </trkpt>
      <trkpt lat="45.86232" lon="4.71666">
        <ele>195</ele>
        <time>2018-02-24T11:32:05Z</time>
      </trkpt>
      <trkpt lat="45.86237" lon="4.71671">
        <ele>196</ele>
        <time>2018-02-24T11:32:06Z</time>
      </trkpt>
      <trkpt lat="45.86242" lon="4.71675">
        <ele>196</ele>
        <time>2018-02-24T11:32:07Z</time>
      </trkpt>
      <trkpt lat="45.86246" lon="4.71679">
        <ele>196</ele>
        <time>2018-02-24T11:32:08Z</time>
      </trkpt>
      <trkpt lat="45.86251" lon="4.71682">
        <ele>195</ele>
        <time>2018-02-24T11:32:09Z</time>
      </trkpt>
      <trkpt lat="45.86255" lon="4.71686">
        <ele>195</ele>
        <time>2018-02-24T11:32:10Z</time>
      </trkpt>
      <trkpt lat="45.8626" lon="4.7169">
        <ele>195</ele>
        <time>2018-02-24T11:32:11Z</time>
      </trkpt>
      <trkpt lat="45.86264" lon="4.71695">
        <ele>195</ele>
        <time>2018-02-24T11:32:12Z</time>
      </trkpt>
      <trkpt lat="45.86269" lon="4.71697">
        <ele>195</ele>
        <time>2018-02-24T11:32:13Z</time>
      </trkpt>
      <trkpt lat="45.86273" lon="4.71701">
        <ele>195</ele>
        <time>2018-02-24T11:32:14Z</time>
      </trkpt>
      <trkpt lat="45.86278" lon="4.71705">
        <ele>196</ele>
        <time>2018-02-24T11:32:15Z</time>
      </trkpt>
      <trkpt lat="45.86283" lon="4.71709">
        <ele>196</ele>
        <time>2018-02-24T11:32:16Z</time>
      </trkpt>
      <trkpt lat="45.86288" lon="4.71713">
        <ele>196</ele>
        <time>2018-02-24T11:32:17Z</time>
      </trkpt>
      <trkpt lat="45.86293" lon="4.71718">
        <ele>196</ele>
        <time>2018-02-24T11:32:18Z</time>
      </trkpt>
      <trkpt lat="45.86298" lon="4.71722">
        <ele>196</ele>
        <time>2018-02-24T11:32:19Z</time>
      </trkpt>
      <trkpt lat="45.86303" lon="4.71726">
        <ele>196</ele>
        <time>2018-02-24T11:32:20Z</time>
      </trkpt>
      <trkpt lat="45.86308" lon="4.71731">
        <ele>196</ele>
        <time>2018-02-24T11:32:21Z</time>
      </trkpt>
      <trkpt lat="45.86312" lon="4.71735">
        <ele>196</ele>
        <time>2018-02-24T11:32:22Z</time>
      </trkpt>
      <trkpt lat="45.86317" lon="4.71739">
        <ele>196</ele>
        <time>2018-02-24T11:32:23Z</time>
      </trkpt>
      <trkpt lat="45.86322" lon="4.71743">
        <ele>196</ele>
        <time>2018-02-24T11:32:24Z</time>
      </trkpt>
      <trkpt lat="45.86327" lon="4.71748">
        <ele>196</ele>
        <time>2018-02-24T11:32:25Z</time>
      </trkpt>
      <trkpt lat="45.86332" lon="4.71751">
        <ele>196</ele>
        <time>2018-02-24T11:32:26Z</time>
      </trkpt>
      <trkpt lat="45.86337" lon="4.71754">
        <ele>197</ele>
        <time>2018-02-24T11:32:27Z</time>
      </trkpt>
      <trkpt lat="45.86343" lon="4.71758">
        <ele>197</ele>
        <time>2018-02-24T11:32:28Z</time>
      </trkpt>
      <trkpt lat="45.86348" lon="4.71761">
        <ele>197</ele>
        <time>2018-02-24T11:32:29Z</time>
      </trkpt>
      <trkpt lat="45.86354" lon="4.71765">
        <ele>198</ele>
        <time>2018-02-24T11:32:30Z</time>
      </trkpt>
      <trkpt lat="45.86358" lon="4.71768">
        <ele>198</ele>
        <time>2018-02-24T11:32:31Z</time>
      </trkpt>
      <trkpt lat="45.86362" lon="4.71771">
        <ele>198</ele>
        <time>2018-02-24T11:32:32Z</time>
      </trkpt>
      <trkpt lat="45.86367" lon="4.71775">
        <ele>198</ele>
        <time>2018-02-24T11:32:33Z</time>
      </trkpt>
      <trkpt lat="45.86371" lon="4.7178">
        <ele>198</ele>
        <time>2018-02-24T11:32:34Z</time>
      </trkpt>
      <trkpt lat="45.86376" lon="4.71785">
        <ele>199</ele>
        <time>2018-02-24T11:32:35Z</time>
      </trkpt>
      <trkpt lat="45.86381" lon="4.71788">
        <ele>199</ele>
        <time>2018-02-24T11:32:36Z</time>
      </trkpt>
      <trkpt lat="45.86385" lon="4.71793">
        <ele>199</ele>
        <time>2018-02-24T11:32:37Z</time>
      </trkpt>
      <trkpt lat="45.86391" lon="4.71796">
        <ele>199</ele>
        <time>2018-02-24T11:32:38Z</time>
      </trkpt>
      <trkpt lat="45.86396" lon="4.718">
        <ele>199</ele>
        <time>2018-02-24T11:32:39Z</time>
      </trkpt>
      <trkpt lat="45.86402" lon="4.71804">
        <ele>199</ele>
        <time>2018-02-24T11:32:40Z</time>
      </trkpt>
      <trkpt lat="45.86407" lon="4.71808">
        <ele>200</ele>
        <time>2018-02-24T11:32:41Z</time>
      </trkpt>
      <trkpt lat="45.86412" lon="4.71812">
        <ele>200</ele>
        <time>2018-02-24T11:32:42Z</time>
      </trkpt>
      <trkpt lat="45.86417" lon="4.71816">
        <ele>199</ele>
        <time>2018-02-24T11:32:43Z</time>
      </trkpt>
      <trkpt lat="45.86422" lon="4.7182">
        <ele>199</ele>
        <time>2018-02-24T11:32:44Z</time>
      </trkpt>
      <trkpt lat="45.86427" lon="4.71824">
        <ele>199</ele>
        <time>2018-02-24T11:32:45Z</time>
      </trkpt>
      <trkpt lat="45.86432" lon="4.71829">
        <ele>199</ele>
        <time>2018-02-24T11:32:46Z</time>
      </trkpt>
      <trkpt lat="45.86437" lon="4.71833">
        <ele>198</ele>
        <time>2018-02-24T11:32:47Z</time>
      </trkpt>
      <trkpt lat="45.86443" lon="4.71836">
        <ele>201</ele>
        <time>2018-02-24T11:32:48Z</time>
      </trkpt>
      <trkpt lat="45.86448" lon="4.71841">
        <ele>200</ele>
        <time>2018-02-24T11:32:49Z</time>
      </trkpt>
      <trkpt lat="45.86453" lon="4.71844">
        <ele>200</ele>
        <time>2018-02-24T11:32:50Z</time>
      </trkpt>
      <trkpt lat="45.86457" lon="4.71848">
        <ele>200</ele>
        <time>2018-02-24T11:32:51Z</time>
      </trkpt>
      <trkpt lat="45.86462" lon="4.71853">
        <ele>200</ele>
        <time>2018-02-24T11:32:52Z</time>
      </trkpt>
      <trkpt lat="45.86467" lon="4.71856">
        <ele>199</ele>
        <time>2018-02-24T11:32:53Z</time>
      </trkpt>
      <trkpt lat="45.86472" lon="4.7186">
        <ele>199</ele>
        <time>2018-02-24T11:32:54Z</time>
      </trkpt>
      <trkpt lat="45.86478" lon="4.71864">
        <ele>199</ele>
        <time>2018-02-24T11:32:55Z</time>
      </trkpt>
      <trkpt lat="45.86484" lon="4.71869">
        <ele>199</ele>
        <time>2018-02-24T11:32:56Z</time>
      </trkpt>
      <trkpt lat="45.86489" lon="4.71872">
        <ele>199</ele>
        <time>2018-02-24T11:32:57Z</time>
      </trkpt>
      <trkpt lat="45.86493" lon="4.71875">
        <ele>199</ele>
        <time>2018-02-24T11:32:58Z</time>
      </trkpt>
      <trkpt lat="45.86498" lon="4.71879">
        <ele>199</ele>
        <time>2018-02-24T11:32:59Z</time>
      </trkpt>
      <trkpt lat="45.86503" lon="4.71883">
        <ele>195</ele>
        <time>2018-02-24T11:33:00Z</time>
      </trkpt>
      <trkpt lat="45.86508" lon="4.71888">
        <ele>195</ele>
        <time>2018-02-24T11:33:01Z</time>
      </trkpt>
      <trkpt lat="45.86513" lon="4.71891">
        <ele>195</ele>
        <time>2018-02-24T11:33:02Z</time>
      </trkpt>
      <trkpt lat="45.86519" lon="4.71896">
        <ele>195</ele>
        <time>2018-02-24T11:33:03Z</time>
      </trkpt>
      <trkpt lat="45.86524" lon="4.719">
        <ele>195</ele>
        <time>2018-02-24T11:33:04Z</time>
      </trkpt>
      <trkpt lat="45.86529" lon="4.71904">
        <ele>195</ele>
        <time>2018-02-24T11:33:05Z</time>
      </trkpt>
      <trkpt lat="45.86535" lon="4.71909">
        <ele>195</ele>
        <time>2018-02-24T11:33:06Z</time>
      </trkpt>
      <trkpt lat="45.8654" lon="4.71913">
        <ele>195</ele>
        <time>2018-02-24T11:33:07Z</time>
      </trkpt>
      <trkpt lat="45.86545" lon="4.71917">
        <ele>196</ele>
        <time>2018-02-24T11:33:08Z</time>
      </trkpt>
      <trkpt lat="45.86549" lon="4.71921">
        <ele>196</ele>
        <time>2018-02-24T11:33:09Z</time>
      </trkpt>
      <trkpt lat="45.86553" lon="4.71924">
        <ele>196</ele>
        <time>2018-02-24T11:33:10Z</time>
      </trkpt>
      <trkpt lat="45.86558" lon="4.71928">
        <ele>196</ele>
        <time>2018-02-24T11:33:11Z</time>
      </trkpt>
      <trkpt lat="45.86563" lon="4.71932">
        <ele>196</ele>
        <time>2018-02-24T11:33:12Z</time>
      </trkpt>
      <trkpt lat="45.86568" lon="4.71936">
        <ele>196</ele>
        <time>2018-02-24T11:33:13Z</time>
      </trkpt>
      <trkpt lat="45.86573" lon="4.7194">
        <ele>196</ele>
        <time>2018-02-24T11:33:14Z</time>
      </trkpt>
      <trkpt lat="45.86577" lon="4.71944">
        <ele>196</ele>
        <time>2018-02-24T11:33:15Z</time>
      </trkpt>
      <trkpt lat="45.86582" lon="4.71947">
        <ele>196</ele>
        <time>2018-02-24T11:33:16Z</time>
      </trkpt>
      <trkpt lat="45.86587" lon="4.71951">
        <ele>194</ele>
        <time>2018-02-24T11:33:17Z</time>
      </trkpt>
      <trkpt lat="45.86592" lon="4.71955">
        <ele>194</ele>
        <time>2018-02-24T11:33:18Z</time>
      </trkpt>
      <trkpt lat="45.86596" lon="4.71958">
        <ele>194</ele>
        <time>2018-02-24T11:33:19Z</time>
      </trkpt>
      <trkpt lat="45.866" lon="4.71962">
        <ele>195</ele>
        <time>2018-02-24T11:33:20Z</time>
      </trkpt>
      <trkpt lat="45.86605" lon="4.71965">
        <ele>195</ele>
        <time>2018-02-24T11:33:21Z</time>
      </trkpt>
      <trkpt lat="45.86609" lon="4.71968">
        <ele>195</ele>
        <time>2018-02-24T11:33:22Z</time>
      </trkpt>
      <trkpt lat="45.86614" lon="4.71972">
        <ele>195</ele>
        <time>2018-02-24T11:33:23Z</time>
      </trkpt>
      <trkpt lat="45.86618" lon="4.71977">
        <ele>195</ele>
        <time>2018-02-24T11:33:24Z</time>
      </trkpt>
      <trkpt lat="45.86623" lon="4.7198">
        <ele>195</ele>
        <time>2018-02-24T11:33:25Z</time>
      </trkpt>
      <trkpt lat="45.86628" lon="4.71984">
        <ele>195</ele>
        <time>2018-02-24T11:33:26Z</time>
      </trkpt>
      <trkpt lat="45.86633" lon="4.71988">
        <ele>195</ele>
        <time>2018-02-24T11:33:27Z</time>
      </trkpt>
      <trkpt lat="45.86637" lon="4.71992">
        <ele>195</ele>
        <time>2018-02-24T11:33:28Z</time>
      </trkpt>
      <trkpt lat="45.86642" lon="4.71995">
        <ele>195</ele>
        <time>2018-02-24T11:33:29Z</time>
      </trkpt>
      <trkpt lat="45.86647" lon="4.71999">
        <ele>195</ele>
        <time>2018-02-24T11:33:30Z</time>
      </trkpt>
      <trkpt lat="45.86652" lon="4.72004">
        <ele>197</ele>
        <time>2018-02-24T11:33:31Z</time>
      </trkpt>
      <trkpt lat="45.86656" lon="4.72008">
        <ele>197</ele>
        <time>2018-02-24T11:33:32Z</time>
      </trkpt>
      <trkpt lat="45.86662" lon="4.72012">
        <ele>197</ele>
        <time>2018-02-24T11:33:33Z</time>
      </trkpt>
      <trkpt lat="45.86666" lon="4.72015">
        <ele>197</ele>
        <time>2018-02-24T11:33:34Z</time>
      </trkpt>
      <trkpt lat="45.86671" lon="4.72019">
        <ele>196</ele>
        <time>2018-02-24T11:33:35Z</time>
      </trkpt>
      <trkpt lat="45.86675" lon="4.72023">
        <ele>197</ele>
        <time>2018-02-24T11:33:36Z</time>
      </trkpt>
      <trkpt lat="45.8668" lon="4.72026">
        <ele>197</ele>
        <time>2018-02-24T11:33:37Z</time>
      </trkpt>
      <trkpt lat="45.86684" lon="4.7203">
        <ele>197</ele>
        <time>2018-02-24T11:33:38Z</time>
      </trkpt>
      <trkpt lat="45.86688" lon="4.72034">
        <ele>197</ele>
        <time>2018-02-24T11:33:39Z</time>
      </trkpt>
      <trkpt lat="45.86693" lon="4.72037">
        <ele>197</ele>
        <time>2018-02-24T11:33:40Z</time>
      </trkpt>
      <trkpt lat="45.86697" lon="4.72041">
        <ele>197</ele>
        <time>2018-02-24T11:33:41Z</time>
      </trkpt>
      <trkpt lat="45.86702" lon="4.72043">
        <ele>197</ele>
        <time>2018-02-24T11:33:42Z</time>
      </trkpt>
      <trkpt lat="45.86707" lon="4.72047">
        <ele>197</ele>
        <time>2018-02-24T11:33:43Z</time>
      </trkpt>
      <trkpt lat="45.86711" lon="4.72049">
        <ele>197</ele>
        <time>2018-02-24T11:33:44Z</time>
      </trkpt>
      <trkpt lat="45.86716" lon="4.72053">
        <ele>197</ele>
        <time>2018-02-24T11:33:45Z</time>
      </trkpt>
      <trkpt lat="45.8672" lon="4.72056">
        <ele>197</ele>
        <time>2018-02-24T11:33:46Z</time>
      </trkpt>
      <trkpt lat="45.86725" lon="4.7206">
        <ele>197</ele>
        <time>2018-02-24T11:33:47Z</time>
      </trkpt>
      <trkpt lat="45.86729" lon="4.72062">
        <ele>197</ele>
        <time>2018-02-24T11:33:48Z</time>
      </trkpt>
      <trkpt lat="45.86734" lon="4.72064">
        <ele>197</ele>
        <time>2018-02-24T11:33:49Z</time>
      </trkpt>
      <trkpt lat="45.86739" lon="4.72067">
        <ele>197</ele>
        <time>2018-02-24T11:33:50Z</time>
      </trkpt>
      <trkpt lat="45.86743" lon="4.72071">
        <ele>197</ele>
        <time>2018-02-24T11:33:51Z</time>
      </trkpt>
      <trkpt lat="45.86749" lon="4.72074">
        <ele>196</ele>
        <time>2018-02-24T11:33:52Z</time>
      </trkpt>
      <trkpt lat="45.86754" lon="4.72077">
        <ele>195</ele>
        <time>2018-02-24T11:33:53Z</time>
      </trkpt>
      <trkpt lat="45.86759" lon="4.72079">
        <ele>195</ele>
        <time>2018-02-24T11:33:54Z</time>
      </trkpt>
      <trkpt lat="45.86764" lon="4.72082">
        <ele>195</ele>
        <time>2018-02-24T11:33:55Z</time>
      </trkpt>
      <trkpt lat="45.86769" lon="4.72084">
        <ele>200</ele>
        <time>2018-02-24T11:33:56Z</time>
      </trkpt>
      <trkpt lat="45.86774" lon="4.72085">
        <ele>201</ele>
        <time>2018-02-24T11:33:57Z</time>
      </trkpt>
      <trkpt lat="45.86779" lon="4.72087">
        <ele>201</ele>
        <time>2018-02-24T11:33:58Z</time>
      </trkpt>
      <trkpt lat="45.86785" lon="4.72089">
        <ele>201</ele>
        <time>2018-02-24T11:33:59Z</time>
      </trkpt>
      <trkpt lat="45.8679" lon="4.7209">
        <ele>202</ele>
        <time>2018-02-24T11:34:00Z</time>
      </trkpt>
      <trkpt lat="45.86794" lon="4.72092">
        <ele>202</ele>
        <time>2018-02-24T11:34:01Z</time>
      </trkpt>
      <trkpt lat="45.86799" lon="4.72094">
        <ele>201</ele>
        <time>2018-02-24T11:34:02Z</time>
      </trkpt>
      <trkpt lat="45.86805" lon="4.72095">
        <ele>201</ele>
        <time>2018-02-24T11:34:03Z</time>
      </trkpt>
      <trkpt lat="45.8681" lon="4.72096">
        <ele>201</ele>
        <time>2018-02-24T11:34:04Z</time>
      </trkpt>
      <trkpt lat="45.86815" lon="4.72098">
        <ele>200</ele>
        <time>2018-02-24T11:34:05Z</time>
      </trkpt>
      <trkpt lat="45.8682" lon="4.72099">
        <ele>200</ele>
        <time>2018-02-24T11:34:06Z</time>
      </trkpt>
      <trkpt lat="45.86825" lon="4.721">
        <ele>200</ele>
        <time>2018-02-24T11:34:07Z</time>
      </trkpt>
      <trkpt lat="45.86829" lon="4.72102">
        <ele>200</ele>
        <time>2018-02-24T11:34:08Z</time>
      </trkpt>
      <trkpt lat="45.86834" lon="4.72104">
        <ele>199</ele>
        <time>2018-02-24T11:34:09Z</time>
      </trkpt>
      <trkpt lat="45.86838" lon="4.72106">
        <ele>199</ele>
        <time>2018-02-24T11:34:10Z</time>
      </trkpt>
      <trkpt lat="45.86843" lon="4.72108">
        <ele>200</ele>
        <time>2018-02-24T11:34:11Z</time>
      </trkpt>
      <trkpt lat="45.86848" lon="4.7211">
        <ele>200</ele>
        <time>2018-02-24T11:34:12Z</time>
      </trkpt>
      <trkpt lat="45.86853" lon="4.72112">
        <ele>201</ele>
        <time>2018-02-24T11:34:13Z</time>
      </trkpt>
      <trkpt lat="45.86857" lon="4.72114">
        <ele>201</ele>
        <time>2018-02-24T11:34:14Z</time>
      </trkpt>
      <trkpt lat="45.86862" lon="4.72117">
        <ele>202</ele>
        <time>2018-02-24T11:34:15Z</time>
      </trkpt>
      <trkpt lat="45.86867" lon="4.72119">
        <ele>202</ele>
        <time>2018-02-24T11:34:16Z</time>
      </trkpt>
      <trkpt lat="45.86872" lon="4.72121">
        <ele>202</ele>
        <time>2018-02-24T11:34:17Z</time>
      </trkpt>
      <trkpt lat="45.86876" lon="4.72122">
        <ele>202</ele>
        <time>2018-02-24T11:34:18Z</time>
      </trkpt>
      <trkpt lat="45.86881" lon="4.72123">
        <ele>202</ele>
        <time>2018-02-24T11:34:19Z</time>
      </trkpt>
      <trkpt lat="45.86886" lon="4.72124">
        <ele>202</ele>
        <time>2018-02-24T11:34:20Z</time>
      </trkpt>
      <trkpt lat="45.86888" lon="4.72126">
        <ele>203</ele>
        <time>2018-02-24T11:34:21Z</time>
      </trkpt>
      <trkpt lat="45.86895" lon="4.72128">
        <ele>203</ele>
        <time>2018-02-24T11:34:22Z</time>
      </trkpt>
      <trkpt lat="45.869" lon="4.72131">
        <ele>203</ele>
        <time>2018-02-24T11:34:23Z</time>
      </trkpt>
      <trkpt lat="45.86905" lon="4.72135">
        <ele>204</ele>
        <time>2018-02-24T11:34:24Z</time>
      </trkpt>
      <trkpt lat="45.86912" lon="4.72136">
        <ele>204</ele>
        <time>2018-02-24T11:34:26Z</time>
      </trkpt>
      <trkpt lat="45.86916" lon="4.72138">
        <ele>205</ele>
        <time>2018-02-24T11:34:27Z</time>
      </trkpt>
      <trkpt lat="45.8692" lon="4.72141">
        <ele>203</ele>
        <time>2018-02-24T11:34:28Z</time>
      </trkpt>
      <trkpt lat="45.86925" lon="4.72144">
        <ele>203</ele>
        <time>2018-02-24T11:34:29Z</time>
      </trkpt>
      <trkpt lat="45.86929" lon="4.72146">
        <ele>204</ele>
        <time>2018-02-24T11:34:30Z</time>
      </trkpt>
      <trkpt lat="45.86934" lon="4.72149">
        <ele>204</ele>
        <time>2018-02-24T11:34:31Z</time>
      </trkpt>
      <trkpt lat="45.86938" lon="4.72151">
        <ele>203</ele>
        <time>2018-02-24T11:34:32Z</time>
      </trkpt>
      <trkpt lat="45.86943" lon="4.72154">
        <ele>203</ele>
        <time>2018-02-24T11:34:33Z</time>
      </trkpt>
      <trkpt lat="45.86947" lon="4.72157">
        <ele>203</ele>
        <time>2018-02-24T11:34:34Z</time>
      </trkpt>
      <trkpt lat="45.86951" lon="4.7216">
        <ele>202</ele>
        <time>2018-02-24T11:34:35Z</time>
      </trkpt>
      <trkpt lat="45.86956" lon="4.72165">
        <ele>202</ele>
        <time>2018-02-24T11:34:36Z</time>
      </trkpt>
      <trkpt lat="45.8696" lon="4.72169">
        <ele>210</ele>
        <time>2018-02-24T11:34:37Z</time>
      </trkpt>
      <trkpt lat="45.86964" lon="4.72171">
        <ele>210</ele>
        <time>2018-02-24T11:34:38Z</time>
      </trkpt>
      <trkpt lat="45.86969" lon="4.72174">
        <ele>209</ele>
        <time>2018-02-24T11:34:39Z</time>
      </trkpt>
      <trkpt lat="45.86973" lon="4.72177">
        <ele>209</ele>
        <time>2018-02-24T11:34:40Z</time>
      </trkpt>
      <trkpt lat="45.86978" lon="4.72181">
        <ele>209</ele>
        <time>2018-02-24T11:34:41Z</time>
      </trkpt>
      <trkpt lat="45.86983" lon="4.72184">
        <ele>208</ele>
        <time>2018-02-24T11:34:42Z</time>
      </trkpt>
      <trkpt lat="45.86988" lon="4.72187">
        <ele>208</ele>
        <time>2018-02-24T11:34:43Z</time>
      </trkpt>
      <trkpt lat="45.86993" lon="4.7219">
        <ele>208</ele>
        <time>2018-02-24T11:34:44Z</time>
      </trkpt>
      <trkpt lat="45.86997" lon="4.72194">
        <ele>209</ele>
        <time>2018-02-24T11:34:45Z</time>
      </trkpt>
      <trkpt lat="45.87002" lon="4.72197">
        <ele>202</ele>
        <time>2018-02-24T11:34:46Z</time>
      </trkpt>
      <trkpt lat="45.87006" lon="4.722">
        <ele>202</ele>
        <time>2018-02-24T11:34:47Z</time>
      </trkpt>
      <trkpt lat="45.87011" lon="4.72202">
        <ele>202</ele>
        <time>2018-02-24T11:34:48Z</time>
      </trkpt>
      <trkpt lat="45.87016" lon="4.72205">
        <ele>202</ele>
        <time>2018-02-24T11:34:49Z</time>
      </trkpt>
      <trkpt lat="45.87021" lon="4.72208">
        <ele>202</ele>
        <time>2018-02-24T11:34:50Z</time>
      </trkpt>
      <trkpt lat="45.87025" lon="4.72211">
        <ele>202</ele>
        <time>2018-02-24T11:34:51Z</time>
      </trkpt>
      <trkpt lat="45.87029" lon="4.72214">
        <ele>202</ele>
        <time>2018-02-24T11:34:52Z</time>
      </trkpt>
      <trkpt lat="45.87033" lon="4.72218">
        <ele>202</ele>
        <time>2018-02-24T11:34:53Z</time>
      </trkpt>
      <trkpt lat="45.87037" lon="4.72221">
        <ele>202</ele>
        <time>2018-02-24T11:34:54Z</time>
      </trkpt>
      <trkpt lat="45.87041" lon="4.72224">
        <ele>202</ele>
        <time>2018-02-24T11:34:55Z</time>
      </trkpt>
      <trkpt lat="45.87049" lon="4.7223">
        <ele>201</ele>
        <time>2018-02-24T11:34:57Z</time>
      </trkpt>
      <trkpt lat="45.87053" lon="4.72233">
        <ele>201</ele>
        <time>2018-02-24T11:34:58Z</time>
      </trkpt>
      <trkpt lat="45.8706" lon="4.7224">
        <ele>201</ele>
        <time>2018-02-24T11:35:00Z</time>
      </trkpt>
      <trkpt lat="45.87063" lon="4.72244">
        <ele>201</ele>
        <time>2018-02-24T11:35:01Z</time>
      </trkpt>
      <trkpt lat="45.8707" lon="4.72251">
        <ele>203</ele>
        <time>2018-02-24T11:35:03Z</time>
      </trkpt>
      <trkpt lat="45.87074" lon="4.72255">
        <ele>202</ele>
        <time>2018-02-24T11:35:04Z</time>
      </trkpt>
      <trkpt lat="45.87078" lon="4.72259">
        <ele>202</ele>
        <time>2018-02-24T11:35:05Z</time>
      </trkpt>
      <trkpt lat="45.87082" lon="4.72262">
        <ele>203</ele>
        <time>2018-02-24T11:35:06Z</time>
      </trkpt>
      <trkpt lat="45.87085" lon="4.72267">
        <ele>198</ele>
        <time>2018-02-24T11:35:07Z</time>
      </trkpt>
      <trkpt lat="45.87089" lon="4.72271">
        <ele>198</ele>
        <time>2018-02-24T11:35:08Z</time>
      </trkpt>
      <trkpt lat="45.87093" lon="4.72275">
        <ele>198</ele>
        <time>2018-02-24T11:35:09Z</time>
      </trkpt>
      <trkpt lat="45.87096" lon="4.72279">
        <ele>198</ele>
        <time>2018-02-24T11:35:10Z</time>
      </trkpt>
      <trkpt lat="45.871" lon="4.72283">
        <ele>198</ele>
        <time>2018-02-24T11:35:11Z</time>
      </trkpt>
      <trkpt lat="45.87103" lon="4.72287">
        <ele>197</ele>
        <time>2018-02-24T11:35:12Z</time>
      </trkpt>
      <trkpt lat="45.8711" lon="4.72296">
        <ele>197</ele>
        <time>2018-02-24T11:35:14Z</time>
      </trkpt>
      <trkpt lat="45.87113" lon="4.72301">
        <ele>197</ele>
        <time>2018-02-24T11:35:15Z</time>
      </trkpt>
      <trkpt lat="45.87116" lon="4.72306">
        <ele>197</ele>
        <time>2018-02-24T11:35:16Z</time>
      </trkpt>
      <trkpt lat="45.87119" lon="4.72311">
        <ele>197</ele>
        <time>2018-02-24T11:35:17Z</time>
      </trkpt>
      <trkpt lat="45.87121" lon="4.72316">
        <ele>197</ele>
        <time>2018-02-24T11:35:18Z</time>
      </trkpt>
      <trkpt lat="45.87123" lon="4.72322">
        <ele>197</ele>
        <time>2018-02-24T11:35:19Z</time>
      </trkpt>
      <trkpt lat="45.87128" lon="4.72332">
        <ele>196</ele>
        <time>2018-02-24T11:35:21Z</time>
      </trkpt>
      <trkpt lat="45.8713" lon="4.72337">
        <ele>198</ele>
        <time>2018-02-24T11:35:22Z</time>
      </trkpt>
      <trkpt lat="45.87135" lon="4.72348">
        <ele>198</ele>
        <time>2018-02-24T11:35:24Z</time>
      </trkpt>
      <trkpt lat="45.87136" lon="4.72354">
        <ele>198</ele>
        <time>2018-02-24T11:35:25Z</time>
      </trkpt>
      <trkpt lat="45.87138" lon="4.72359">
        <ele>198</ele>
        <time>2018-02-24T11:35:26Z</time>
      </trkpt>
      <trkpt lat="45.87141" lon="4.72366">
        <ele>198</ele>
        <time>2018-02-24T11:35:27Z</time>
      </trkpt>
      <trkpt lat="45.87143" lon="4.72372">
        <ele>198</ele>
        <time>2018-02-24T11:35:28Z</time>
      </trkpt>
      <trkpt lat="45.87145" lon="4.72378">
        <ele>198</ele>
        <time>2018-02-24T11:35:29Z</time>
      </trkpt>
      <trkpt lat="45.87148" lon="4.72383">
        <ele>198</ele>
        <time>2018-02-24T11:35:30Z</time>
      </trkpt>
      <trkpt lat="45.87151" lon="4.72389">
        <ele>197</ele>
        <time>2018-02-24T11:35:31Z</time>
      </trkpt>
      <trkpt lat="45.87155" lon="4.72398">
        <ele>197</ele>
        <time>2018-02-24T11:35:33Z</time>
      </trkpt>
      <trkpt lat="45.87157" lon="4.72402">
        <ele>197</ele>
        <time>2018-02-24T11:35:34Z</time>
      </trkpt>
      <trkpt lat="45.87162" lon="4.72412">
        <ele>195</ele>
        <time>2018-02-24T11:35:36Z</time>
      </trkpt>
      <trkpt lat="45.87165" lon="4.72417">
        <ele>195</ele>
        <time>2018-02-24T11:35:37Z</time>
      </trkpt>
      <trkpt lat="45.87166" lon="4.72423">
        <ele>196</ele>
        <time>2018-02-24T11:35:38Z</time>
      </trkpt>
      <trkpt lat="45.87169" lon="4.72429">
        <ele>194</ele>
        <time>2018-02-24T11:35:39Z</time>
      </trkpt>
      <trkpt lat="45.87174" lon="4.72439">
        <ele>194</ele>
        <time>2018-02-24T11:35:41Z</time>
      </trkpt>
      <trkpt lat="45.87176" lon="4.72445">
        <ele>195</ele>
        <time>2018-02-24T11:35:42Z</time>
      </trkpt>
      <trkpt lat="45.87179" lon="4.72451">
        <ele>195</ele>
        <time>2018-02-24T11:35:43Z</time>
      </trkpt>
      <trkpt lat="45.87182" lon="4.72457">
        <ele>195</ele>
        <time>2018-02-24T11:35:44Z</time>
      </trkpt>
      <trkpt lat="45.87186" lon="4.72466">
        <ele>195</ele>
        <time>2018-02-24T11:35:46Z</time>
      </trkpt>
      <trkpt lat="45.87187" lon="4.72472">
        <ele>196</ele>
        <time>2018-02-24T11:35:47Z</time>
      </trkpt>
      <trkpt lat="45.87191" lon="4.72482">
        <ele>196</ele>
        <time>2018-02-24T11:35:49Z</time>
      </trkpt>
      <trkpt lat="45.87192" lon="4.72488">
        <ele>196</ele>
        <time>2018-02-24T11:35:50Z</time>
      </trkpt>
      <trkpt lat="45.87196" lon="4.72498">
        <ele>196</ele>
        <time>2018-02-24T11:35:52Z</time>
      </trkpt>
      <trkpt lat="45.87197" lon="4.72504">
        <ele>199</ele>
        <time>2018-02-24T11:35:53Z</time>
      </trkpt>
      <trkpt lat="45.87199" lon="4.72516">
        <ele>198</ele>
        <time>2018-02-24T11:35:55Z</time>
      </trkpt>
      <trkpt lat="45.872" lon="4.72521">
        <ele>198</ele>
        <time>2018-02-24T11:35:56Z</time>
      </trkpt>
      <trkpt lat="45.87202" lon="4.72534">
        <ele>198</ele>
        <time>2018-02-24T11:35:58Z</time>
      </trkpt>
      <trkpt lat="45.87203" lon="4.7254">
        <ele>198</ele>
        <time>2018-02-24T11:35:59Z</time>
      </trkpt>
      <trkpt lat="45.87204" lon="4.72551">
        <ele>199</ele>
        <time>2018-02-24T11:36:01Z</time>
      </trkpt>
      <trkpt lat="45.87204" lon="4.72557">
        <ele>199</ele>
        <time>2018-02-24T11:36:02Z</time>
      </trkpt>
      <trkpt lat="45.87205" lon="4.72569">
        <ele>199</ele>
        <time>2018-02-24T11:36:04Z</time>
      </trkpt>
      <trkpt lat="45.87205" lon="4.72576">
        <ele>199</ele>
        <time>2018-02-24T11:36:05Z</time>
      </trkpt>
      <trkpt lat="45.87205" lon="4.72588">
        <ele>199</ele>
        <time>2018-02-24T11:36:07Z</time>
      </trkpt>
      <trkpt lat="45.87204" lon="4.72594">
        <ele>199</ele>
        <time>2018-02-24T11:36:08Z</time>
      </trkpt>
      <trkpt lat="45.87203" lon="4.72606">
        <ele>199</ele>
        <time>2018-02-24T11:36:10Z</time>
      </trkpt>
      <trkpt lat="45.87202" lon="4.72612">
        <ele>199</ele>
        <time>2018-02-24T11:36:11Z</time>
      </trkpt>
      <trkpt lat="45.87199" lon="4.72623">
        <ele>199</ele>
        <time>2018-02-24T11:36:13Z</time>
      </trkpt>
      <trkpt lat="45.87198" lon="4.72628">
        <ele>199</ele>
        <time>2018-02-24T11:36:14Z</time>
      </trkpt>
      <trkpt lat="45.87195" lon="4.72639">
        <ele>199</ele>
        <time>2018-02-24T11:36:16Z</time>
      </trkpt>
      <trkpt lat="45.87194" lon="4.72644">
        <ele>199</ele>
        <time>2018-02-24T11:36:17Z</time>
      </trkpt>
      <trkpt lat="45.87191" lon="4.72655">
        <ele>199</ele>
        <time>2018-02-24T11:36:19Z</time>
      </trkpt>
      <trkpt lat="45.8719" lon="4.7266">
        <ele>199</ele>
        <time>2018-02-24T11:36:20Z</time>
      </trkpt>
      <trkpt lat="45.87186" lon="4.72671">
        <ele>199</ele>
        <time>2018-02-24T11:36:22Z</time>
      </trkpt>
      <trkpt lat="45.87184" lon="4.72676">
        <ele>199</ele>
        <time>2018-02-24T11:36:23Z</time>
      </trkpt>
      <trkpt lat="45.87181" lon="4.72685">
        <ele>199</ele>
        <time>2018-02-24T11:36:25Z</time>
      </trkpt>
      <trkpt lat="45.8718" lon="4.7269">
        <ele>199</ele>
        <time>2018-02-24T11:36:26Z</time>
      </trkpt>
      <trkpt lat="45.87178" lon="4.72698">
        <ele>199</ele>
        <time>2018-02-24T11:36:28Z</time>
      </trkpt>
      <trkpt lat="45.87176" lon="4.72705">
        <ele>199</ele>
        <time>2018-02-24T11:36:29Z</time>
      </trkpt>
      <trkpt lat="45.87174" lon="4.72716">
        <ele>199</ele>
        <time>2018-02-24T11:36:31Z</time>
      </trkpt>
      <trkpt lat="45.87173" lon="4.72721">
        <ele>199</ele>
        <time>2018-02-24T11:36:32Z</time>
      </trkpt>
      <trkpt lat="45.87171" lon="4.72733">
        <ele>200</ele>
        <time>2018-02-24T11:36:34Z</time>
      </trkpt>
      <trkpt lat="45.8717" lon="4.72739">
        <ele>200</ele>
        <time>2018-02-24T11:36:35Z</time>
      </trkpt>
      <trkpt lat="45.8717" lon="4.72749">
        <ele>201</ele>
        <time>2018-02-24T11:36:37Z</time>
      </trkpt>
      <trkpt lat="45.87169" lon="4.72757">
        <ele>200</ele>
        <time>2018-02-24T11:36:38Z</time>
      </trkpt>
      <trkpt lat="45.87169" lon="4.72766">
        <ele>200</ele>
        <time>2018-02-24T11:36:40Z</time>
      </trkpt>
      <trkpt lat="45.87169" lon="4.72774">
        <ele>199</ele>
        <time>2018-02-24T11:36:41Z</time>
      </trkpt>
      <trkpt lat="45.87168" lon="4.72784">
        <ele>199</ele>
        <time>2018-02-24T11:36:44Z</time>
      </trkpt>
      <trkpt lat="45.87168" lon="4.72789">
        <ele>199</ele>
        <time>2018-02-24T11:36:45Z</time>
      </trkpt>
      <trkpt lat="45.87167" lon="4.728">
        <ele>199</ele>
        <time>2018-02-24T11:36:46Z</time>
      </trkpt>
      <trkpt lat="45.87168" lon="4.72803">
        <ele>200</ele>
        <time>2018-02-24T11:36:47Z</time>
      </trkpt>
      <trkpt lat="45.87168" lon="4.72814">
        <ele>200</ele>
        <time>2018-02-24T11:36:49Z</time>
      </trkpt>
      <trkpt lat="45.87168" lon="4.72817">
        <ele>200</ele>
        <time>2018-02-24T11:36:50Z</time>
      </trkpt>
      <trkpt lat="45.87168" lon="4.72821">
        <ele>200</ele>
        <time>2018-02-24T11:36:51Z</time>
      </trkpt>
      <trkpt lat="45.87168" lon="4.72832">
        <ele>202</ele>
        <time>2018-02-24T11:36:52Z</time>
      </trkpt>
      <trkpt lat="45.87168" lon="4.72841">
        <ele>201</ele>
        <time>2018-02-24T11:36:55Z</time>
      </trkpt>
      <trkpt lat="45.87168" lon="4.72845">
        <ele>201</ele>
        <time>2018-02-24T11:36:56Z</time>
      </trkpt>
      <trkpt lat="45.87168" lon="4.72854">
        <ele>200</ele>
        <time>2018-02-24T11:36:58Z</time>
      </trkpt>
      <trkpt lat="45.87167" lon="4.72858">
        <ele>200</ele>
        <time>2018-02-24T11:36:59Z</time>
      </trkpt>
      <trkpt lat="45.87167" lon="4.7287">
        <ele>205</ele>
        <time>2018-02-24T11:37:00Z</time>
      </trkpt>
      <trkpt lat="45.87166" lon="4.72873">
        <ele>205</ele>
        <time>2018-02-24T11:37:01Z</time>
      </trkpt>
      <trkpt lat="45.87166" lon="4.72885">
        <ele>205</ele>
        <time>2018-02-24T11:37:03Z</time>
      </trkpt>
      <trkpt lat="45.87166" lon="4.72887">
        <ele>205</ele>
        <time>2018-02-24T11:37:04Z</time>
      </trkpt>
      <trkpt lat="45.87166" lon="4.729">
        <ele>205</ele>
        <time>2018-02-24T11:37:07Z</time>
      </trkpt>
      <trkpt lat="45.87166" lon="4.72903">
        <ele>205</ele>
        <time>2018-02-24T11:37:08Z</time>
      </trkpt>
      <trkpt lat="45.87166" lon="4.72916">
        <ele>204</ele>
        <time>2018-02-24T11:37:11Z</time>
      </trkpt>
      <trkpt lat="45.87166" lon="4.7292">
        <ele>204</ele>
        <time>2018-02-24T11:37:12Z</time>
      </trkpt>
      <trkpt lat="45.87166" lon="4.72929">
        <ele>205</ele>
        <time>2018-02-24T11:37:14Z</time>
      </trkpt>
      <trkpt lat="45.87166" lon="4.72934">
        <ele>205</ele>
        <time>2018-02-24T11:37:15Z</time>
      </trkpt>
      <trkpt lat="45.87166" lon="4.72939">
        <ele>206</ele>
        <time>2018-02-24T11:37:16Z</time>
      </trkpt>
      <trkpt lat="45.87166" lon="4.72952">
        <ele>206</ele>
        <time>2018-02-24T11:37:17Z</time>
      </trkpt>
      <trkpt lat="45.87166" lon="4.72962">
        <ele>206</ele>
        <time>2018-02-24T11:37:19Z</time>
      </trkpt>
      <trkpt lat="45.87166" lon="4.72967">
        <ele>206</ele>
        <time>2018-02-24T11:37:20Z</time>
      </trkpt>
      <trkpt lat="45.87166" lon="4.72978">
        <ele>206</ele>
        <time>2018-02-24T11:37:22Z</time>
      </trkpt>
      <trkpt lat="45.87166" lon="4.72984">
        <ele>205</ele>
        <time>2018-02-24T11:37:23Z</time>
      </trkpt>
      <trkpt lat="45.87167" lon="4.72996">
        <ele>203</ele>
        <time>2018-02-24T11:37:25Z</time>
      </trkpt>
      <trkpt lat="45.87167" lon="4.73002">
        <ele>204</ele>
        <time>2018-02-24T11:37:26Z</time>
      </trkpt>
      <trkpt lat="45.87166" lon="4.73013">
        <ele>205</ele>
        <time>2018-02-24T11:37:28Z</time>
      </trkpt>
      <trkpt lat="45.87166" lon="4.73019">
        <ele>205</ele>
        <time>2018-02-24T11:37:29Z</time>
      </trkpt>
      <trkpt lat="45.87167" lon="4.73031">
        <ele>202</ele>
        <time>2018-02-24T11:37:31Z</time>
      </trkpt>
      <trkpt lat="45.87167" lon="4.73037">
        <ele>201</ele>
        <time>2018-02-24T11:37:32Z</time>
      </trkpt>
      <trkpt lat="45.87167" lon="4.73048">
        <ele>201</ele>
        <time>2018-02-24T11:37:34Z</time>
      </trkpt>
      <trkpt lat="45.87167" lon="4.73054">
        <ele>201</ele>
        <time>2018-02-24T11:37:35Z</time>
      </trkpt>
      <trkpt lat="45.87167" lon="4.73066">
        <ele>202</ele>
        <time>2018-02-24T11:37:37Z</time>
      </trkpt>
      <trkpt lat="45.87167" lon="4.73071">
        <ele>202</ele>
        <time>2018-02-24T11:37:38Z</time>
      </trkpt>
      <trkpt lat="45.87166" lon="4.73083">
        <ele>203</ele>
        <time>2018-02-24T11:37:40Z</time>
      </trkpt>
      <trkpt lat="45.87166" lon="4.73088">
        <ele>203</ele>
        <time>2018-02-24T11:37:41Z</time>
      </trkpt>
      <trkpt lat="45.87165" lon="4.731">
        <ele>204</ele>
        <time>2018-02-24T11:37:43Z</time>
      </trkpt>
      <trkpt lat="45.87164" lon="4.73106">
        <ele>204</ele>
        <time>2018-02-24T11:37:44Z</time>
      </trkpt>
      <trkpt lat="45.87164" lon="4.73117">
        <ele>204</ele>
        <time>2018-02-24T11:37:46Z</time>
      </trkpt>
      <trkpt lat="45.87163" lon="4.73122">
        <ele>204</ele>
        <time>2018-02-24T11:37:47Z</time>
      </trkpt>
      <trkpt lat="45.87163" lon="4.73133">
        <ele>204</ele>
        <time>2018-02-24T11:37:49Z</time>
      </trkpt>
      <trkpt lat="45.87162" lon="4.73138">
        <ele>204</ele>
        <time>2018-02-24T11:37:50Z</time>
      </trkpt>
      <trkpt lat="45.87161" lon="4.73149">
        <ele>204</ele>
        <time>2018-02-24T11:37:52Z</time>
      </trkpt>
      <trkpt lat="45.8716" lon="4.73154">
        <ele>204</ele>
        <time>2018-02-24T11:37:53Z</time>
      </trkpt>
      <trkpt lat="45.87157" lon="4.73164">
        <ele>204</ele>
        <time>2018-02-24T11:37:55Z</time>
      </trkpt>
      <trkpt lat="45.87155" lon="4.73169">
        <ele>204</ele>
        <time>2018-02-24T11:37:56Z</time>
      </trkpt>
      <trkpt lat="45.87152" lon="4.73179">
        <ele>205</ele>
        <time>2018-02-24T11:37:58Z</time>
      </trkpt>
      <trkpt lat="45.8715" lon="4.73184">
        <ele>205</ele>
        <time>2018-02-24T11:37:59Z</time>
      </trkpt>
      <trkpt lat="45.87146" lon="4.73192">
        <ele>205</ele>
        <time>2018-02-24T11:38:01Z</time>
      </trkpt>
      <trkpt lat="45.87144" lon="4.73197">
        <ele>205</ele>
        <time>2018-02-24T11:38:02Z</time>
      </trkpt>
      <trkpt lat="45.87139" lon="4.73206">
        <ele>206</ele>
        <time>2018-02-24T11:38:04Z</time>
      </trkpt>
      <trkpt lat="45.87137" lon="4.73211">
        <ele>206</ele>
        <time>2018-02-24T11:38:05Z</time>
      </trkpt>
      <trkpt lat="45.87132" lon="4.7322">
        <ele>206</ele>
        <time>2018-02-24T11:38:07Z</time>
      </trkpt>
      <trkpt lat="45.8713" lon="4.73224">
        <ele>206</ele>
        <time>2018-02-24T11:38:08Z</time>
      </trkpt>
      <trkpt lat="45.87126" lon="4.73233">
        <ele>206</ele>
        <time>2018-02-24T11:38:10Z</time>
      </trkpt>
      <trkpt lat="45.87125" lon="4.73237">
        <ele>206</ele>
        <time>2018-02-24T11:38:11Z</time>
      </trkpt>
      <trkpt lat="45.87122" lon="4.73247">
        <ele>207</ele>
        <time>2018-02-24T11:38:14Z</time>
      </trkpt>
      <trkpt lat="45.8712" lon="4.73255">
        <ele>208</ele>
        <time>2018-02-24T11:38:15Z</time>
      </trkpt>
      <trkpt lat="45.87118" lon="4.73265">
        <ele>208</ele>
        <time>2018-02-24T11:38:17Z</time>
      </trkpt>
      <trkpt lat="45.87117" lon="4.7327">
        <ele>208</ele>
        <time>2018-02-24T11:38:18Z</time>
      </trkpt>
      <trkpt lat="45.87115" lon="4.73279">
        <ele>208</ele>
        <time>2018-02-24T11:38:20Z</time>
      </trkpt>
      <trkpt lat="45.87114" lon="4.73284">
        <ele>208</ele>
        <time>2018-02-24T11:38:21Z</time>
      </trkpt>
      <trkpt lat="45.87113" lon="4.73296">
        <ele>209</ele>
        <time>2018-02-24T11:38:23Z</time>
      </trkpt>
      <trkpt lat="45.87113" lon="4.73302">
        <ele>209</ele>
        <time>2018-02-24T11:38:24Z</time>
      </trkpt>
      <trkpt lat="45.87111" lon="4.73313">
        <ele>209</ele>
        <time>2018-02-24T11:38:26Z</time>
      </trkpt>
      <trkpt lat="45.87111" lon="4.73319">
        <ele>209</ele>
        <time>2018-02-24T11:38:27Z</time>
      </trkpt>
      <trkpt lat="45.87109" lon="4.73331">
        <ele>209</ele>
        <time>2018-02-24T11:38:29Z</time>
      </trkpt>
      <trkpt lat="45.87108" lon="4.73337">
        <ele>211</ele>
        <time>2018-02-24T11:38:30Z</time>
      </trkpt>
      <trkpt lat="45.87107" lon="4.73349">
        <ele>211</ele>
        <time>2018-02-24T11:38:32Z</time>
      </trkpt>
      <trkpt lat="45.87106" lon="4.73355">
        <ele>211</ele>
        <time>2018-02-24T11:38:33Z</time>
      </trkpt>
      <trkpt lat="45.87104" lon="4.73367">
        <ele>211</ele>
        <time>2018-02-24T11:38:35Z</time>
      </trkpt>
      <trkpt lat="45.87104" lon="4.73373">
        <ele>211</ele>
        <time>2018-02-24T11:38:36Z</time>
      </trkpt>
      <trkpt lat="45.87103" lon="4.73383">
        <ele>211</ele>
        <time>2018-02-24T11:38:38Z</time>
      </trkpt>
      <trkpt lat="45.87103" lon="4.73386">
        <ele>211</ele>
        <time>2018-02-24T11:38:39Z</time>
      </trkpt>
      <trkpt lat="45.87102" lon="4.73394">
        <ele>211</ele>
        <time>2018-02-24T11:38:40Z</time>
      </trkpt>
      <trkpt lat="45.87102" lon="4.734">
        <ele>212</ele>
        <time>2018-02-24T11:38:41Z</time>
      </trkpt>
      <trkpt lat="45.87102" lon="4.73411">
        <ele>212</ele>
        <time>2018-02-24T11:38:43Z</time>
      </trkpt>
      <trkpt lat="45.87101" lon="4.73416">
        <ele>212</ele>
        <time>2018-02-24T11:38:44Z</time>
      </trkpt>
      <trkpt lat="45.87101" lon="4.73427">
        <ele>213</ele>
        <time>2018-02-24T11:38:46Z</time>
      </trkpt>
      <trkpt lat="45.87101" lon="4.73433">
        <ele>212</ele>
        <time>2018-02-24T11:38:47Z</time>
      </trkpt>
      <trkpt lat="45.87102" lon="4.73444">
        <ele>212</ele>
        <time>2018-02-24T11:38:49Z</time>
      </trkpt>
      <trkpt lat="45.87102" lon="4.73447">
        <ele>212</ele>
        <time>2018-02-24T11:38:50Z</time>
      </trkpt>
      <trkpt lat="45.87102" lon="4.73454">
        <ele>212</ele>
        <time>2018-02-24T11:38:52Z</time>
      </trkpt>
      <trkpt lat="45.87101" lon="4.73465">
        <ele>212</ele>
        <time>2018-02-24T11:38:53Z</time>
      </trkpt>
      <trkpt lat="45.871" lon="4.73475">
        <ele>212</ele>
        <time>2018-02-24T11:38:56Z</time>
      </trkpt>
      <trkpt lat="45.871" lon="4.73485">
        <ele>213</ele>
        <time>2018-02-24T11:38:57Z</time>
      </trkpt>
      <trkpt lat="45.871" lon="4.73494">
        <ele>213</ele>
        <time>2018-02-24T11:38:59Z</time>
      </trkpt>
      <trkpt lat="45.871" lon="4.73502">
        <ele>213</ele>
        <time>2018-02-24T11:39:00Z</time>
      </trkpt>
      <trkpt lat="45.871" lon="4.73513">
        <ele>213</ele>
        <time>2018-02-24T11:39:02Z</time>
      </trkpt>
      <trkpt lat="45.871" lon="4.73518">
        <ele>213</ele>
        <time>2018-02-24T11:39:03Z</time>
      </trkpt>
      <trkpt lat="45.871" lon="4.73529">
        <ele>213</ele>
        <time>2018-02-24T11:39:05Z</time>
      </trkpt>
      <trkpt lat="45.871" lon="4.73532">
        <ele>213</ele>
        <time>2018-02-24T11:39:06Z</time>
      </trkpt>
      <trkpt lat="45.87099" lon="4.73545">
        <ele>213</ele>
        <time>2018-02-24T11:39:08Z</time>
      </trkpt>
      <trkpt lat="45.87099" lon="4.7355">
        <ele>213</ele>
        <time>2018-02-24T11:39:09Z</time>
      </trkpt>
      <trkpt lat="45.87098" lon="4.73561">
        <ele>213</ele>
        <time>2018-02-24T11:39:11Z</time>
      </trkpt>
      <trkpt lat="45.87097" lon="4.73566">
        <ele>213</ele>
        <time>2018-02-24T11:39:12Z</time>
      </trkpt>
      <trkpt lat="45.87096" lon="4.73577">
        <ele>214</ele>
        <time>2018-02-24T11:39:14Z</time>
      </trkpt>
      <trkpt lat="45.87095" lon="4.73582">
        <ele>214</ele>
        <time>2018-02-24T11:39:15Z</time>
      </trkpt>
      <trkpt lat="45.87094" lon="4.73588">
        <ele>214</ele>
        <time>2018-02-24T11:39:17Z</time>
      </trkpt>
      <trkpt lat="45.87093" lon="4.73596">
        <ele>214</ele>
        <time>2018-02-24T11:39:18Z</time>
      </trkpt>
      <trkpt lat="45.87091" lon="4.73608">
        <ele>214</ele>
        <time>2018-02-24T11:39:21Z</time>
      </trkpt>
      <trkpt lat="45.8709" lon="4.73615">
        <ele>214</ele>
        <time>2018-02-24T11:39:22Z</time>
      </trkpt>
      <trkpt lat="45.87089" lon="4.73625">
        <ele>214</ele>
        <time>2018-02-24T11:39:24Z</time>
      </trkpt>
      <trkpt lat="45.87088" lon="4.7363">
        <ele>214</ele>
        <time>2018-02-24T11:39:25Z</time>
      </trkpt>
      <trkpt lat="45.87086" lon="4.7364">
        <ele>214</ele>
        <time>2018-02-24T11:39:27Z</time>
      </trkpt>
      <trkpt lat="45.87086" lon="4.73645">
        <ele>214</ele>
        <time>2018-02-24T11:39:28Z</time>
      </trkpt>
      <trkpt lat="45.87084" lon="4.73656">
        <ele>215</ele>
        <time>2018-02-24T11:39:30Z</time>
      </trkpt>
      <trkpt lat="45.87083" lon="4.73658">
        <ele>216</ele>
        <time>2018-02-24T11:39:31Z</time>
      </trkpt>
      <trkpt lat="45.87082" lon="4.73666">
        <ele>216</ele>
        <time>2018-02-24T11:39:32Z</time>
      </trkpt>
      <trkpt lat="45.87081" lon="4.73671">
        <ele>216</ele>
        <time>2018-02-24T11:39:33Z</time>
      </trkpt>
      <trkpt lat="45.87079" lon="4.73682">
        <ele>217</ele>
        <time>2018-02-24T11:39:35Z</time>
      </trkpt>
      <trkpt lat="45.87078" lon="4.73687">
        <ele>217</ele>
        <time>2018-02-24T11:39:36Z</time>
      </trkpt>
      <trkpt lat="45.87077" lon="4.73698">
        <ele>217</ele>
        <time>2018-02-24T11:39:38Z</time>
      </trkpt>
      <trkpt lat="45.87076" lon="4.73704">
        <ele>217</ele>
        <time>2018-02-24T11:39:39Z</time>
      </trkpt>
      <trkpt lat="45.87075" lon="4.73716">
        <ele>217</ele>
        <time>2018-02-24T11:39:41Z</time>
      </trkpt>
      <trkpt lat="45.87074" lon="4.73722">
        <ele>217</ele>
        <time>2018-02-24T11:39:42Z</time>
      </trkpt>
      <trkpt lat="45.87073" lon="4.73734">
        <ele>216</ele>
        <time>2018-02-24T11:39:44Z</time>
      </trkpt>
      <trkpt lat="45.87073" lon="4.7374">
        <ele>216</ele>
        <time>2018-02-24T11:39:45Z</time>
      </trkpt>
      <trkpt lat="45.87072" lon="4.73751">
        <ele>216</ele>
        <time>2018-02-24T11:39:47Z</time>
      </trkpt>
      <trkpt lat="45.87071" lon="4.73757">
        <ele>216</ele>
        <time>2018-02-24T11:39:48Z</time>
      </trkpt>
      <trkpt lat="45.8707" lon="4.73768">
        <ele>217</ele>
        <time>2018-02-24T11:39:50Z</time>
      </trkpt>
      <trkpt lat="45.87069" lon="4.73774">
        <ele>217</ele>
        <time>2018-02-24T11:39:51Z</time>
      </trkpt>
      <trkpt lat="45.87069" lon="4.73786">
        <ele>217</ele>
        <time>2018-02-24T11:39:53Z</time>
      </trkpt>
      <trkpt lat="45.87068" lon="4.73791">
        <ele>217</ele>
        <time>2018-02-24T11:39:54Z</time>
      </trkpt>
      <trkpt lat="45.87068" lon="4.73802">
        <ele>217</ele>
        <time>2018-02-24T11:39:56Z</time>
      </trkpt>
      <trkpt lat="45.87068" lon="4.73808">
        <ele>217</ele>
        <time>2018-02-24T11:39:57Z</time>
      </trkpt>
      <trkpt lat="45.87067" lon="4.7382">
        <ele>217</ele>
        <time>2018-02-24T11:39:59Z</time>
      </trkpt>
      <trkpt lat="45.87067" lon="4.73825">
        <ele>217</ele>
        <time>2018-02-24T11:40:00Z</time>
      </trkpt>
      <trkpt lat="45.87067" lon="4.73836">
        <ele>218</ele>
        <time>2018-02-24T11:40:02Z</time>
      </trkpt>
      <trkpt lat="45.87067" lon="4.73838">
        <ele>218</ele>
        <time>2018-02-24T11:40:03Z</time>
      </trkpt>
      <trkpt lat="45.87066" lon="4.7385">
        <ele>218</ele>
        <time>2018-02-24T11:40:05Z</time>
      </trkpt>
      <trkpt lat="45.87066" lon="4.73855">
        <ele>218</ele>
        <time>2018-02-24T11:40:06Z</time>
      </trkpt>
      <trkpt lat="45.87066" lon="4.73867">
        <ele>218</ele>
        <time>2018-02-24T11:40:08Z</time>
      </trkpt>
      <trkpt lat="45.87067" lon="4.73872">
        <ele>218</ele>
        <time>2018-02-24T11:40:09Z</time>
      </trkpt>
      <trkpt lat="45.87067" lon="4.73884">
        <ele>218</ele>
        <time>2018-02-24T11:40:11Z</time>
      </trkpt>
      <trkpt lat="45.87066" lon="4.7389">
        <ele>218</ele>
        <time>2018-02-24T11:40:12Z</time>
      </trkpt>
      <trkpt lat="45.87066" lon="4.73902">
        <ele>218</ele>
        <time>2018-02-24T11:40:14Z</time>
      </trkpt>
      <trkpt lat="45.87066" lon="4.73908">
        <ele>218</ele>
        <time>2018-02-24T11:40:15Z</time>
      </trkpt>
      <trkpt lat="45.87066" lon="4.7392">
        <ele>218</ele>
        <time>2018-02-24T11:40:17Z</time>
      </trkpt>
      <trkpt lat="45.87066" lon="4.73927">
        <ele>218</ele>
        <time>2018-02-24T11:40:18Z</time>
      </trkpt>
      <trkpt lat="45.87067" lon="4.73939">
        <ele>218</ele>
        <time>2018-02-24T11:40:20Z</time>
      </trkpt>
      <trkpt lat="45.87067" lon="4.73945">
        <ele>218</ele>
        <time>2018-02-24T11:40:21Z</time>
      </trkpt>
      <trkpt lat="45.87067" lon="4.73958">
        <ele>218</ele>
        <time>2018-02-24T11:40:23Z</time>
      </trkpt>
      <trkpt lat="45.87067" lon="4.73964">
        <ele>217</ele>
        <time>2018-02-24T11:40:24Z</time>
      </trkpt>
      <trkpt lat="45.87068" lon="4.73973">
        <ele>217</ele>
        <time>2018-02-24T11:40:25Z</time>
      </trkpt>
      <trkpt lat="45.87068" lon="4.7398">
        <ele>217</ele>
        <time>2018-02-24T11:40:26Z</time>
      </trkpt>
      <trkpt lat="45.87068" lon="4.73987">
        <ele>217</ele>
        <time>2018-02-24T11:40:27Z</time>
      </trkpt>
      <trkpt lat="45.87068" lon="4.73995">
        <ele>217</ele>
        <time>2018-02-24T11:40:28Z</time>
      </trkpt>
      <trkpt lat="45.87068" lon="4.74004">
        <ele>216</ele>
        <time>2018-02-24T11:40:29Z</time>
      </trkpt>
      <trkpt lat="45.87069" lon="4.74013">
        <ele>215</ele>
        <time>2018-02-24T11:40:30Z</time>
      </trkpt>
      <trkpt lat="45.8707" lon="4.74022">
        <ele>215</ele>
        <time>2018-02-24T11:40:31Z</time>
      </trkpt>
      <trkpt lat="45.87068" lon="4.74032">
        <ele>215</ele>
        <time>2018-02-24T11:40:32Z</time>
      </trkpt>
      <trkpt lat="45.87069" lon="4.74041">
        <ele>215</ele>
        <time>2018-02-24T11:40:33Z</time>
      </trkpt>
      <trkpt lat="45.87069" lon="4.7405">
        <ele>214</ele>
        <time>2018-02-24T11:40:34Z</time>
      </trkpt>
      <trkpt lat="45.87069" lon="4.74058">
        <ele>214</ele>
        <time>2018-02-24T11:40:35Z</time>
      </trkpt>
      <trkpt lat="45.87069" lon="4.74067">
        <ele>214</ele>
        <time>2018-02-24T11:40:36Z</time>
      </trkpt>
      <trkpt lat="45.87068" lon="4.74076">
        <ele>213</ele>
        <time>2018-02-24T11:40:37Z</time>
      </trkpt>
      <trkpt lat="45.87069" lon="4.74085">
        <ele>212</ele>
        <time>2018-02-24T11:40:38Z</time>
      </trkpt>
      <trkpt lat="45.87069" lon="4.74095">
        <ele>212</ele>
        <time>2018-02-24T11:40:39Z</time>
      </trkpt>
      <trkpt lat="45.87069" lon="4.74105">
        <ele>212</ele>
        <time>2018-02-24T11:40:40Z</time>
      </trkpt>
      <trkpt lat="45.87069" lon="4.74114">
        <ele>212</ele>
        <time>2018-02-24T11:40:41Z</time>
      </trkpt>
      <trkpt lat="45.87069" lon="4.74125">
        <ele>212</ele>
        <time>2018-02-24T11:40:42Z</time>
      </trkpt>
      <trkpt lat="45.87069" lon="4.74134">
        <ele>212</ele>
        <time>2018-02-24T11:40:43Z</time>
      </trkpt>
      <trkpt lat="45.87068" lon="4.74145">
        <ele>212</ele>
        <time>2018-02-24T11:40:44Z</time>
      </trkpt>
      <trkpt lat="45.87069" lon="4.74155">
        <ele>212</ele>
        <time>2018-02-24T11:40:45Z</time>
      </trkpt>
      <trkpt lat="45.87069" lon="4.74164">
        <ele>212</ele>
        <time>2018-02-24T11:40:46Z</time>
      </trkpt>
      <trkpt lat="45.87069" lon="4.74174">
        <ele>212</ele>
        <time>2018-02-24T11:40:47Z</time>
      </trkpt>
      <trkpt lat="45.87069" lon="4.74183">
        <ele>213</ele>
        <time>2018-02-24T11:40:48Z</time>
      </trkpt>
      <trkpt lat="45.87069" lon="4.74192">
        <ele>213</ele>
        <time>2018-02-24T11:40:49Z</time>
      </trkpt>
      <trkpt lat="45.87069" lon="4.74201">
        <ele>213</ele>
        <time>2018-02-24T11:40:50Z</time>
      </trkpt>
      <trkpt lat="45.87069" lon="4.74209">
        <ele>214</ele>
        <time>2018-02-24T11:40:51Z</time>
      </trkpt>
      <trkpt lat="45.8707" lon="4.74218">
        <ele>214</ele>
        <time>2018-02-24T11:40:52Z</time>
      </trkpt>
      <trkpt lat="45.87069" lon="4.74225">
        <ele>214</ele>
        <time>2018-02-24T11:40:53Z</time>
      </trkpt>
      <trkpt lat="45.87068" lon="4.74232">
        <ele>214</ele>
        <time>2018-02-24T11:40:54Z</time>
      </trkpt>
      <trkpt lat="45.87068" lon="4.74244">
        <ele>214</ele>
        <time>2018-02-24T11:40:56Z</time>
      </trkpt>
      <trkpt lat="45.87068" lon="4.74249">
        <ele>214</ele>
        <time>2018-02-24T11:40:57Z</time>
      </trkpt>
      <trkpt lat="45.87068" lon="4.74261">
        <ele>216</ele>
        <time>2018-02-24T11:40:59Z</time>
      </trkpt>
      <trkpt lat="45.87069" lon="4.74266">
        <ele>216</ele>
        <time>2018-02-24T11:41:00Z</time>
      </trkpt>
      <trkpt lat="45.8707" lon="4.74277">
        <ele>217</ele>
        <time>2018-02-24T11:41:02Z</time>
      </trkpt>
      <trkpt lat="45.8707" lon="4.74279">
        <ele>217</ele>
        <time>2018-02-24T11:41:03Z</time>
      </trkpt>
      <trkpt lat="45.8707" lon="4.74288">
        <ele>217</ele>
        <time>2018-02-24T11:41:04Z</time>
      </trkpt>
      <trkpt lat="45.87069" lon="4.74293">
        <ele>217</ele>
        <time>2018-02-24T11:41:05Z</time>
      </trkpt>
      <trkpt lat="45.8707" lon="4.74304">
        <ele>218</ele>
        <time>2018-02-24T11:41:08Z</time>
      </trkpt>
      <trkpt lat="45.87072" lon="4.74313">
        <ele>218</ele>
        <time>2018-02-24T11:41:09Z</time>
      </trkpt>
      <trkpt lat="45.87073" lon="4.74318">
        <ele>218</ele>
        <time>2018-02-24T11:41:11Z</time>
      </trkpt>
      <trkpt lat="45.87074" lon="4.74326">
        <ele>218</ele>
        <time>2018-02-24T11:41:12Z</time>
      </trkpt>
      <trkpt lat="45.87075" lon="4.74335">
        <ele>219</ele>
        <time>2018-02-24T11:41:15Z</time>
      </trkpt>
      <trkpt lat="45.87077" lon="4.74344">
        <ele>219</ele>
        <time>2018-02-24T11:41:16Z</time>
      </trkpt>
      <trkpt lat="45.87079" lon="4.74349">
        <ele>219</ele>
        <time>2018-02-24T11:41:18Z</time>
      </trkpt>
      <trkpt lat="45.87081" lon="4.74358">
        <ele>219</ele>
        <time>2018-02-24T11:41:19Z</time>
      </trkpt>
      <trkpt lat="45.87083" lon="4.74368">
        <ele>219</ele>
        <time>2018-02-24T11:41:21Z</time>
      </trkpt>
      <trkpt lat="45.87083" lon="4.74374">
        <ele>219</ele>
        <time>2018-02-24T11:41:22Z</time>
      </trkpt>
      <trkpt lat="45.87086" lon="4.74384">
        <ele>218</ele>
        <time>2018-02-24T11:41:25Z</time>
      </trkpt>
      <trkpt lat="45.87086" lon="4.74388">
        <ele>218</ele>
        <time>2018-02-24T11:41:26Z</time>
      </trkpt>
      <trkpt lat="45.87087" lon="4.74392">
        <ele>218</ele>
        <time>2018-02-24T11:41:27Z</time>
      </trkpt>
      <trkpt lat="45.8709" lon="4.74403">
        <ele>218</ele>
        <time>2018-02-24T11:41:28Z</time>
      </trkpt>
      <trkpt lat="45.87092" lon="4.74415">
        <ele>219</ele>
        <time>2018-02-24T11:41:32Z</time>
      </trkpt>
      <trkpt lat="45.87092" lon="4.74418">
        <ele>219</ele>
        <time>2018-02-24T11:41:33Z</time>
      </trkpt>
      <trkpt lat="45.87095" lon="4.74428">
        <ele>218</ele>
        <time>2018-02-24T11:41:36Z</time>
      </trkpt>
      <trkpt lat="45.87096" lon="4.74431">
        <ele>218</ele>
        <time>2018-02-24T11:41:37Z</time>
      </trkpt>
      <trkpt lat="45.87092" lon="4.74441">
        <ele>218</ele>
        <time>2018-02-24T11:41:41Z</time>
      </trkpt>
      <trkpt lat="45.87088" lon="4.74449">
        <ele>218</ele>
        <time>2018-02-24T11:41:42Z</time>
      </trkpt>
      <trkpt lat="45.87084" lon="4.74459">
        <ele>218</ele>
        <time>2018-02-24T11:41:44Z</time>
      </trkpt>
      <trkpt lat="45.87084" lon="4.74461">
        <ele>218</ele>
        <time>2018-02-24T11:41:45Z</time>
      </trkpt>
      <trkpt lat="45.87082" lon="4.74464">
        <ele>220</ele>
        <time>2018-02-24T11:41:46Z</time>
      </trkpt>
      <trkpt lat="45.87079" lon="4.74473">
        <ele>220</ele>
        <time>2018-02-24T11:41:47Z</time>
      </trkpt>
      <trkpt lat="45.87077" lon="4.7448">
        <ele>220</ele>
        <time>2018-02-24T11:41:48Z</time>
      </trkpt>
      <trkpt lat="45.87076" lon="4.74487">
        <ele>220</ele>
        <time>2018-02-24T11:41:49Z</time>
      </trkpt>
      <trkpt lat="45.87076" lon="4.74494">
        <ele>219</ele>
        <time>2018-02-24T11:41:50Z</time>
      </trkpt>
      <trkpt lat="45.87078" lon="4.74502">
        <ele>220</ele>
        <time>2018-02-24T11:41:51Z</time>
      </trkpt>
      <trkpt lat="45.8708" lon="4.74509">
        <ele>220</ele>
        <time>2018-02-24T11:41:52Z</time>
      </trkpt>
      <trkpt lat="45.87084" lon="4.74521">
        <ele>220</ele>
        <time>2018-02-24T11:41:53Z</time>
      </trkpt>
      <trkpt lat="45.87087" lon="4.74529">
        <ele>220</ele>
        <time>2018-02-24T11:41:54Z</time>
      </trkpt>
      <trkpt lat="45.87089" lon="4.74535">
        <ele>220</ele>
        <time>2018-02-24T11:41:55Z</time>
      </trkpt>
      <trkpt lat="45.87092" lon="4.74541">
        <ele>220</ele>
        <time>2018-02-24T11:41:56Z</time>
      </trkpt>
      <trkpt lat="45.87095" lon="4.74547">
        <ele>220</ele>
        <time>2018-02-24T11:41:57Z</time>
      </trkpt>
      <trkpt lat="45.87098" lon="4.74555">
        <ele>220</ele>
        <time>2018-02-24T11:41:58Z</time>
      </trkpt>
      <trkpt lat="45.871" lon="4.74561">
        <ele>220</ele>
        <time>2018-02-24T11:41:59Z</time>
      </trkpt>
      <trkpt lat="45.87102" lon="4.74568">
        <ele>221</ele>
        <time>2018-02-24T11:42:00Z</time>
      </trkpt>
      <trkpt lat="45.87104" lon="4.74574">
        <ele>221</ele>
        <time>2018-02-24T11:42:01Z</time>
      </trkpt>
      <trkpt lat="45.87106" lon="4.74581">
        <ele>221</ele>
        <time>2018-02-24T11:42:02Z</time>
      </trkpt>
      <trkpt lat="45.87107" lon="4.74586">
        <ele>222</ele>
        <time>2018-02-24T11:42:03Z</time>
      </trkpt>
      <trkpt lat="45.87108" lon="4.74597">
        <ele>222</ele>
        <time>2018-02-24T11:42:05Z</time>
      </trkpt>
      <trkpt lat="45.87109" lon="4.74604">
        <ele>222</ele>
        <time>2018-02-24T11:42:06Z</time>
      </trkpt>
      <trkpt lat="45.8711" lon="4.74615">
        <ele>222</ele>
        <time>2018-02-24T11:42:08Z</time>
      </trkpt>
      <trkpt lat="45.8711" lon="4.74621">
        <ele>222</ele>
        <time>2018-02-24T11:42:09Z</time>
      </trkpt>
      <trkpt lat="45.87111" lon="4.74632">
        <ele>222</ele>
        <time>2018-02-24T11:42:11Z</time>
      </trkpt>
      <trkpt lat="45.87111" lon="4.74637">
        <ele>222</ele>
        <time>2018-02-24T11:42:12Z</time>
      </trkpt>
      <trkpt lat="45.87113" lon="4.74649">
        <ele>222</ele>
        <time>2018-02-24T11:42:14Z</time>
      </trkpt>
      <trkpt lat="45.87114" lon="4.74654">
        <ele>222</ele>
        <time>2018-02-24T11:42:15Z</time>
      </trkpt>
      <trkpt lat="45.87114" lon="4.74663">
        <ele>222</ele>
        <time>2018-02-24T11:42:18Z</time>
      </trkpt>
      <trkpt lat="45.87115" lon="4.74674">
        <ele>222</ele>
        <time>2018-02-24T11:42:19Z</time>
      </trkpt>
      <trkpt lat="45.87116" lon="4.74683">
        <ele>222</ele>
        <time>2018-02-24T11:42:22Z</time>
      </trkpt>
      <trkpt lat="45.87117" lon="4.74693">
        <ele>221</ele>
        <time>2018-02-24T11:42:23Z</time>
      </trkpt>
      <trkpt lat="45.87118" lon="4.74704">
        <ele>221</ele>
        <time>2018-02-24T11:42:25Z</time>
      </trkpt>
      <trkpt lat="45.87119" lon="4.74709">
        <ele>221</ele>
        <time>2018-02-24T11:42:26Z</time>
      </trkpt>
      <trkpt lat="45.87119" lon="4.74719">
        <ele>221</ele>
        <time>2018-02-24T11:42:28Z</time>
      </trkpt>
      <trkpt lat="45.87119" lon="4.74725">
        <ele>221</ele>
        <time>2018-02-24T11:42:29Z</time>
      </trkpt>
      <trkpt lat="45.8712" lon="4.74737">
        <ele>221</ele>
        <time>2018-02-24T11:42:31Z</time>
      </trkpt>
      <trkpt lat="45.87121" lon="4.74743">
        <ele>221</ele>
        <time>2018-02-24T11:42:32Z</time>
      </trkpt>
      <trkpt lat="45.87121" lon="4.74749">
        <ele>221</ele>
        <time>2018-02-24T11:42:34Z</time>
      </trkpt>
      <trkpt lat="45.8712" lon="4.74761">
        <ele>222</ele>
        <time>2018-02-24T11:42:35Z</time>
      </trkpt>
      <trkpt lat="45.87119" lon="4.74769">
        <ele>222</ele>
        <time>2018-02-24T11:42:36Z</time>
      </trkpt>
      <trkpt lat="45.87119" lon="4.74776">
        <ele>222</ele>
        <time>2018-02-24T11:42:37Z</time>
      </trkpt>
      <trkpt lat="45.8712" lon="4.74783">
        <ele>222</ele>
        <time>2018-02-24T11:42:38Z</time>
      </trkpt>
      <trkpt lat="45.8712" lon="4.74792">
        <ele>222</ele>
        <time>2018-02-24T11:42:39Z</time>
      </trkpt>
      <trkpt lat="45.8712" lon="4.74803">
        <ele>222</ele>
        <time>2018-02-24T11:42:41Z</time>
      </trkpt>
      <trkpt lat="45.8712" lon="4.74809">
        <ele>223</ele>
        <time>2018-02-24T11:42:42Z</time>
      </trkpt>
      <trkpt lat="45.8712" lon="4.7482">
        <ele>223</ele>
        <time>2018-02-24T11:42:44Z</time>
      </trkpt>
      <trkpt lat="45.8712" lon="4.74822">
        <ele>223</ele>
        <time>2018-02-24T11:42:45Z</time>
      </trkpt>
      <trkpt lat="45.8712" lon="4.74834">
        <ele>224</ele>
        <time>2018-02-24T11:42:47Z</time>
      </trkpt>
      <trkpt lat="45.8712" lon="4.7484">
        <ele>224</ele>
        <time>2018-02-24T11:42:48Z</time>
      </trkpt>
      <trkpt lat="45.8712" lon="4.74851">
        <ele>224</ele>
        <time>2018-02-24T11:42:50Z</time>
      </trkpt>
      <trkpt lat="45.87121" lon="4.74857">
        <ele>225</ele>
        <time>2018-02-24T11:42:51Z</time>
      </trkpt>
      <trkpt lat="45.87121" lon="4.74863">
        <ele>225</ele>
        <time>2018-02-24T11:42:53Z</time>
      </trkpt>
      <trkpt lat="45.87122" lon="4.74873">
        <ele>225</ele>
        <time>2018-02-24T11:42:54Z</time>
      </trkpt>
      <trkpt lat="45.87122" lon="4.74885">
        <ele>225</ele>
        <time>2018-02-24T11:42:58Z</time>
      </trkpt>
      <trkpt lat="45.87122" lon="4.74887">
        <ele>225</ele>
        <time>2018-02-24T11:42:59Z</time>
      </trkpt>
      <trkpt lat="45.8712" lon="4.74898">
        <ele>225</ele>
        <time>2018-02-24T11:43:03Z</time>
      </trkpt>
      <trkpt lat="45.87119" lon="4.74901">
        <ele>225</ele>
        <time>2018-02-24T11:43:04Z</time>
      </trkpt>
      <trkpt lat="45.87115" lon="4.74911">
        <ele>225</ele>
        <time>2018-02-24T11:43:07Z</time>
      </trkpt>
      <trkpt lat="45.87115" lon="4.74915">
        <ele>225</ele>
        <time>2018-02-24T11:43:08Z</time>
      </trkpt>
      <trkpt lat="45.87114" lon="4.74922">
        <ele>226</ele>
        <time>2018-02-24T11:43:10Z</time>
      </trkpt>
      <trkpt lat="45.87114" lon="4.74927">
        <ele>226</ele>
        <time>2018-02-24T11:43:11Z</time>
      </trkpt>
      <trkpt lat="45.87116" lon="4.7494">
        <ele>226</ele>
        <time>2018-02-24T11:43:12Z</time>
      </trkpt>
      <trkpt lat="45.87119" lon="4.74951">
        <ele>226</ele>
        <time>2018-02-24T11:43:14Z</time>
      </trkpt>
      <trkpt lat="45.8712" lon="4.74957">
        <ele>226</ele>
        <time>2018-02-24T11:43:15Z</time>
      </trkpt>
      <trkpt lat="45.87121" lon="4.7497">
        <ele>226</ele>
        <time>2018-02-24T11:43:17Z</time>
      </trkpt>
      <trkpt lat="45.87121" lon="4.74976">
        <ele>226</ele>
        <time>2018-02-24T11:43:18Z</time>
      </trkpt>
      <trkpt lat="45.87121" lon="4.74989">
        <ele>226</ele>
        <time>2018-02-24T11:43:20Z</time>
      </trkpt>
      <trkpt lat="45.87121" lon="4.74995">
        <ele>226</ele>
        <time>2018-02-24T11:43:21Z</time>
      </trkpt>
      <trkpt lat="45.87121" lon="4.75008">
        <ele>226</ele>
        <time>2018-02-24T11:43:23Z</time>
      </trkpt>
      <trkpt lat="45.87121" lon="4.75014">
        <ele>226</ele>
        <time>2018-02-24T11:43:24Z</time>
      </trkpt>
      <trkpt lat="45.87121" lon="4.75026">
        <ele>226</ele>
        <time>2018-02-24T11:43:26Z</time>
      </trkpt>
      <trkpt lat="45.87122" lon="4.75032">
        <ele>226</ele>
        <time>2018-02-24T11:43:27Z</time>
      </trkpt>
      <trkpt lat="45.87123" lon="4.75044">
        <ele>226</ele>
        <time>2018-02-24T11:43:29Z</time>
      </trkpt>
      <trkpt lat="45.87124" lon="4.7505">
        <ele>225</ele>
        <time>2018-02-24T11:43:30Z</time>
      </trkpt>
      <trkpt lat="45.87126" lon="4.75062">
        <ele>225</ele>
        <time>2018-02-24T11:43:32Z</time>
      </trkpt>
      <trkpt lat="45.87127" lon="4.75068">
        <ele>225</ele>
        <time>2018-02-24T11:43:33Z</time>
      </trkpt>
      <trkpt lat="45.87129" lon="4.7508">
        <ele>225</ele>
        <time>2018-02-24T11:43:35Z</time>
      </trkpt>
      <trkpt lat="45.8713" lon="4.75086">
        <ele>225</ele>
        <time>2018-02-24T11:43:36Z</time>
      </trkpt>
      <trkpt lat="45.87131" lon="4.75093">
        <ele>225</ele>
        <time>2018-02-24T11:43:37Z</time>
      </trkpt>
      <trkpt lat="45.87132" lon="4.751">
        <ele>225</ele>
        <time>2018-02-24T11:43:38Z</time>
      </trkpt>
      <trkpt lat="45.87133" lon="4.75106">
        <ele>225</ele>
        <time>2018-02-24T11:43:39Z</time>
      </trkpt>
      <trkpt lat="45.87135" lon="4.75113">
        <ele>225</ele>
        <time>2018-02-24T11:43:40Z</time>
      </trkpt>
      <trkpt lat="45.87135" lon="4.75125">
        <ele>225</ele>
        <time>2018-02-24T11:43:42Z</time>
      </trkpt>
      <trkpt lat="45.87137" lon="4.75132">
        <ele>225</ele>
        <time>2018-02-24T11:43:43Z</time>
      </trkpt>
      <trkpt lat="45.87138" lon="4.75144">
        <ele>225</ele>
        <time>2018-02-24T11:43:45Z</time>
      </trkpt>
      <trkpt lat="45.87139" lon="4.7515">
        <ele>225</ele>
        <time>2018-02-24T11:43:46Z</time>
      </trkpt>
      <trkpt lat="45.87141" lon="4.75163">
        <ele>225</ele>
        <time>2018-02-24T11:43:48Z</time>
      </trkpt>
      <trkpt lat="45.87142" lon="4.75169">
        <ele>225</ele>
        <time>2018-02-24T11:43:49Z</time>
      </trkpt>
      <trkpt lat="45.87143" lon="4.75181">
        <ele>225</ele>
        <time>2018-02-24T11:43:51Z</time>
      </trkpt>
      <trkpt lat="45.87144" lon="4.75188">
        <ele>225</ele>
        <time>2018-02-24T11:43:52Z</time>
      </trkpt>
      <trkpt lat="45.87144" lon="4.75196">
        <ele>225</ele>
        <time>2018-02-24T11:43:53Z</time>
      </trkpt>
      <trkpt lat="45.87146" lon="4.75203">
        <ele>225</ele>
        <time>2018-02-24T11:43:54Z</time>
      </trkpt>
      <trkpt lat="45.87147" lon="4.7521">
        <ele>225</ele>
        <time>2018-02-24T11:43:55Z</time>
      </trkpt>
      <trkpt lat="45.87148" lon="4.75216">
        <ele>225</ele>
        <time>2018-02-24T11:43:56Z</time>
      </trkpt>
      <trkpt lat="45.87151" lon="4.75228">
        <ele>224</ele>
        <time>2018-02-24T11:43:58Z</time>
      </trkpt>
      <trkpt lat="45.87152" lon="4.75234">
        <ele>224</ele>
        <time>2018-02-24T11:43:59Z</time>
      </trkpt>
      <trkpt lat="45.87153" lon="4.75241">
        <ele>224</ele>
        <time>2018-02-24T11:44:00Z</time>
      </trkpt>
      <trkpt lat="45.87155" lon="4.75249">
        <ele>224</ele>
        <time>2018-02-24T11:44:01Z</time>
      </trkpt>
      <trkpt lat="45.87156" lon="4.75257">
        <ele>224</ele>
        <time>2018-02-24T11:44:02Z</time>
      </trkpt>
      <trkpt lat="45.87158" lon="4.75264">
        <ele>224</ele>
        <time>2018-02-24T11:44:03Z</time>
      </trkpt>
      <trkpt lat="45.8716" lon="4.75271">
        <ele>224</ele>
        <time>2018-02-24T11:44:04Z</time>
      </trkpt>
      <trkpt lat="45.87162" lon="4.75277">
        <ele>224</ele>
        <time>2018-02-24T11:44:05Z</time>
      </trkpt>
      <trkpt lat="45.87164" lon="4.75284">
        <ele>224</ele>
        <time>2018-02-24T11:44:06Z</time>
      </trkpt>
      <trkpt lat="45.87165" lon="4.75291">
        <ele>224</ele>
        <time>2018-02-24T11:44:07Z</time>
      </trkpt>
      <trkpt lat="45.87167" lon="4.75299">
        <ele>224</ele>
        <time>2018-02-24T11:44:08Z</time>
      </trkpt>
      <trkpt lat="45.87168" lon="4.75308">
        <ele>223</ele>
        <time>2018-02-24T11:44:09Z</time>
      </trkpt>
      <trkpt lat="45.87169" lon="4.75315">
        <ele>223</ele>
        <time>2018-02-24T11:44:10Z</time>
      </trkpt>
      <trkpt lat="45.87169" lon="4.75323">
        <ele>224</ele>
        <time>2018-02-24T11:44:11Z</time>
      </trkpt>
      <trkpt lat="45.8717" lon="4.75331">
        <ele>224</ele>
        <time>2018-02-24T11:44:12Z</time>
      </trkpt>
      <trkpt lat="45.87171" lon="4.7534">
        <ele>224</ele>
        <time>2018-02-24T11:44:13Z</time>
      </trkpt>
      <trkpt lat="45.87172" lon="4.75348">
        <ele>223</ele>
        <time>2018-02-24T11:44:14Z</time>
      </trkpt>
      <trkpt lat="45.87172" lon="4.75357">
        <ele>223</ele>
        <time>2018-02-24T11:44:15Z</time>
      </trkpt>
      <trkpt lat="45.87172" lon="4.75365">
        <ele>223</ele>
        <time>2018-02-24T11:44:16Z</time>
      </trkpt>
      <trkpt lat="45.87172" lon="4.75373">
        <ele>223</ele>
        <time>2018-02-24T11:44:17Z</time>
      </trkpt>
      <trkpt lat="45.87172" lon="4.75382">
        <ele>223</ele>
        <time>2018-02-24T11:44:18Z</time>
      </trkpt>
      <trkpt lat="45.87173" lon="4.7539">
        <ele>223</ele>
        <time>2018-02-24T11:44:19Z</time>
      </trkpt>
      <trkpt lat="45.87173" lon="4.75399">
        <ele>223</ele>
        <time>2018-02-24T11:44:20Z</time>
      </trkpt>
      <trkpt lat="45.87174" lon="4.75407">
        <ele>223</ele>
        <time>2018-02-24T11:44:21Z</time>
      </trkpt>
      <trkpt lat="45.87174" lon="4.75414">
        <ele>223</ele>
        <time>2018-02-24T11:44:22Z</time>
      </trkpt>
      <trkpt lat="45.87175" lon="4.75423">
        <ele>223</ele>
        <time>2018-02-24T11:44:23Z</time>
      </trkpt>
      <trkpt lat="45.87175" lon="4.75431">
        <ele>223</ele>
        <time>2018-02-24T11:44:24Z</time>
      </trkpt>
      <trkpt lat="45.87174" lon="4.7544">
        <ele>222</ele>
        <time>2018-02-24T11:44:25Z</time>
      </trkpt>
      <trkpt lat="45.87174" lon="4.75448">
        <ele>222</ele>
        <time>2018-02-24T11:44:26Z</time>
      </trkpt>
      <trkpt lat="45.87174" lon="4.75455">
        <ele>222</ele>
        <time>2018-02-24T11:44:27Z</time>
      </trkpt>
      <trkpt lat="45.87174" lon="4.75464">
        <ele>222</ele>
        <time>2018-02-24T11:44:28Z</time>
      </trkpt>
      <trkpt lat="45.87173" lon="4.75471">
        <ele>222</ele>
        <time>2018-02-24T11:44:29Z</time>
      </trkpt>
      <trkpt lat="45.87174" lon="4.7548">
        <ele>222</ele>
        <time>2018-02-24T11:44:30Z</time>
      </trkpt>
      <trkpt lat="45.87174" lon="4.75487">
        <ele>223</ele>
        <time>2018-02-24T11:44:31Z</time>
      </trkpt>
      <trkpt lat="45.87174" lon="4.75494">
        <ele>223</ele>
        <time>2018-02-24T11:44:32Z</time>
      </trkpt>
      <trkpt lat="45.87175" lon="4.75502">
        <ele>223</ele>
        <time>2018-02-24T11:44:33Z</time>
      </trkpt>
      <trkpt lat="45.87177" lon="4.75514">
        <ele>222</ele>
        <time>2018-02-24T11:44:35Z</time>
      </trkpt>
      <trkpt lat="45.87178" lon="4.75521">
        <ele>222</ele>
        <time>2018-02-24T11:44:36Z</time>
      </trkpt>
      <trkpt lat="45.87178" lon="4.75528">
        <ele>222</ele>
        <time>2018-02-24T11:44:37Z</time>
      </trkpt>
      <trkpt lat="45.87178" lon="4.75534">
        <ele>222</ele>
        <time>2018-02-24T11:44:38Z</time>
      </trkpt>
      <trkpt lat="45.87178" lon="4.7554">
        <ele>222</ele>
        <time>2018-02-24T11:44:39Z</time>
      </trkpt>
      <trkpt lat="45.87178" lon="4.75547">
        <ele>222</ele>
        <time>2018-02-24T11:44:40Z</time>
      </trkpt>
      <trkpt lat="45.87179" lon="4.75554">
        <ele>222</ele>
        <time>2018-02-24T11:44:41Z</time>
      </trkpt>
      <trkpt lat="45.8718" lon="4.7556">
        <ele>222</ele>
        <time>2018-02-24T11:44:42Z</time>
      </trkpt>
      <trkpt lat="45.8718" lon="4.75566">
        <ele>222</ele>
        <time>2018-02-24T11:44:43Z</time>
      </trkpt>
      <trkpt lat="45.8718" lon="4.75574">
        <ele>222</ele>
        <time>2018-02-24T11:44:44Z</time>
      </trkpt>
      <trkpt lat="45.8718" lon="4.75583">
        <ele>222</ele>
        <time>2018-02-24T11:44:46Z</time>
      </trkpt>
      <trkpt lat="45.8718" lon="4.75594">
        <ele>222</ele>
        <time>2018-02-24T11:44:47Z</time>
      </trkpt>
      <trkpt lat="45.87181" lon="4.75601">
        <ele>222</ele>
        <time>2018-02-24T11:44:48Z</time>
      </trkpt>
      <trkpt lat="45.8718" lon="4.75607">
        <ele>222</ele>
        <time>2018-02-24T11:44:49Z</time>
      </trkpt>
      <trkpt lat="45.8718" lon="4.75613">
        <ele>222</ele>
        <time>2018-02-24T11:44:50Z</time>
      </trkpt>
      <trkpt lat="45.87179" lon="4.75622">
        <ele>222</ele>
        <time>2018-02-24T11:44:51Z</time>
      </trkpt>
      <trkpt lat="45.87178" lon="4.7563">
        <ele>222</ele>
        <time>2018-02-24T11:44:52Z</time>
      </trkpt>
      <trkpt lat="45.87177" lon="4.75636">
        <ele>222</ele>
        <time>2018-02-24T11:44:53Z</time>
      </trkpt>
      <trkpt lat="45.87176" lon="4.75642">
        <ele>222</ele>
        <time>2018-02-24T11:44:54Z</time>
      </trkpt>
      <trkpt lat="45.87177" lon="4.75653">
        <ele>222</ele>
        <time>2018-02-24T11:44:55Z</time>
      </trkpt>
      <trkpt lat="45.87177" lon="4.75665">
        <ele>223</ele>
        <time>2018-02-24T11:44:57Z</time>
      </trkpt>
      <trkpt lat="45.87177" lon="4.7567">
        <ele>223</ele>
        <time>2018-02-24T11:44:58Z</time>
      </trkpt>
      <trkpt lat="45.87177" lon="4.75682">
        <ele>223</ele>
        <time>2018-02-24T11:45:00Z</time>
      </trkpt>
      <trkpt lat="45.87178" lon="4.75688">
        <ele>223</ele>
        <time>2018-02-24T11:45:01Z</time>
      </trkpt>
      <trkpt lat="45.87179" lon="4.75695">
        <ele>223</ele>
        <time>2018-02-24T11:45:02Z</time>
      </trkpt>
      <trkpt lat="45.8718" lon="4.75702">
        <ele>223</ele>
        <time>2018-02-24T11:45:03Z</time>
      </trkpt>
      <trkpt lat="45.87181" lon="4.7571">
        <ele>223</ele>
        <time>2018-02-24T11:45:04Z</time>
      </trkpt>
      <trkpt lat="45.87182" lon="4.75716">
        <ele>223</ele>
        <time>2018-02-24T11:45:05Z</time>
      </trkpt>
      <trkpt lat="45.87183" lon="4.75723">
        <ele>223</ele>
        <time>2018-02-24T11:45:06Z</time>
      </trkpt>
      <trkpt lat="45.87186" lon="4.75731">
        <ele>223</ele>
        <time>2018-02-24T11:45:07Z</time>
      </trkpt>
      <trkpt lat="45.87187" lon="4.75738">
        <ele>223</ele>
        <time>2018-02-24T11:45:08Z</time>
      </trkpt>
      <trkpt lat="45.87189" lon="4.75745">
        <ele>223</ele>
        <time>2018-02-24T11:45:09Z</time>
      </trkpt>
      <trkpt lat="45.87191" lon="4.75751">
        <ele>224</ele>
        <time>2018-02-24T11:45:10Z</time>
      </trkpt>
      <trkpt lat="45.87193" lon="4.75758">
        <ele>224</ele>
        <time>2018-02-24T11:45:11Z</time>
      </trkpt>
      <trkpt lat="45.87194" lon="4.75764">
        <ele>224</ele>
        <time>2018-02-24T11:45:12Z</time>
      </trkpt>
      <trkpt lat="45.87196" lon="4.7577">
        <ele>224</ele>
        <time>2018-02-24T11:45:13Z</time>
      </trkpt>
      <trkpt lat="45.87198" lon="4.75776">
        <ele>224</ele>
        <time>2018-02-24T11:45:14Z</time>
      </trkpt>
      <trkpt lat="45.87201" lon="4.75782">
        <ele>224</ele>
        <time>2018-02-24T11:45:15Z</time>
      </trkpt>
      <trkpt lat="45.87202" lon="4.75788">
        <ele>224</ele>
        <time>2018-02-24T11:45:16Z</time>
      </trkpt>
      <trkpt lat="45.87204" lon="4.75795">
        <ele>224</ele>
        <time>2018-02-24T11:45:17Z</time>
      </trkpt>
      <trkpt lat="45.87208" lon="4.75806">
        <ele>224</ele>
        <time>2018-02-24T11:45:19Z</time>
      </trkpt>
      <trkpt lat="45.87209" lon="4.75812">
        <ele>225</ele>
        <time>2018-02-24T11:45:20Z</time>
      </trkpt>
      <trkpt lat="45.87211" lon="4.75818">
        <ele>225</ele>
        <time>2018-02-24T11:45:21Z</time>
      </trkpt>
      <trkpt lat="45.87212" lon="4.75825">
        <ele>225</ele>
        <time>2018-02-24T11:45:22Z</time>
      </trkpt>
      <trkpt lat="45.87213" lon="4.75831">
        <ele>225</ele>
        <time>2018-02-24T11:45:23Z</time>
      </trkpt>
      <trkpt lat="45.87214" lon="4.75838">
        <ele>226</ele>
        <time>2018-02-24T11:45:24Z</time>
      </trkpt>
      <trkpt lat="45.87216" lon="4.75844">
        <ele>226</ele>
        <time>2018-02-24T11:45:25Z</time>
      </trkpt>
      <trkpt lat="45.87217" lon="4.7585">
        <ele>226</ele>
        <time>2018-02-24T11:45:26Z</time>
      </trkpt>
      <trkpt lat="45.87219" lon="4.7586">
        <ele>226</ele>
        <time>2018-02-24T11:45:28Z</time>
      </trkpt>
      <trkpt lat="45.8722" lon="4.75866">
        <ele>226</ele>
        <time>2018-02-24T11:45:29Z</time>
      </trkpt>
      <trkpt lat="45.8722" lon="4.75877">
        <ele>226</ele>
        <time>2018-02-24T11:45:31Z</time>
      </trkpt>
      <trkpt lat="45.87221" lon="4.75883">
        <ele>226</ele>
        <time>2018-02-24T11:45:32Z</time>
      </trkpt>
      <trkpt lat="45.87222" lon="4.75894">
        <ele>227</ele>
        <time>2018-02-24T11:45:34Z</time>
      </trkpt>
      <trkpt lat="45.87222" lon="4.759">
        <ele>227</ele>
        <time>2018-02-24T11:45:35Z</time>
      </trkpt>
      <trkpt lat="45.87223" lon="4.75912">
        <ele>227</ele>
        <time>2018-02-24T11:45:37Z</time>
      </trkpt>
      <trkpt lat="45.87224" lon="4.75918">
        <ele>228</ele>
        <time>2018-02-24T11:45:38Z</time>
      </trkpt>
      <trkpt lat="45.87224" lon="4.75929">
        <ele>228</ele>
        <time>2018-02-24T11:45:40Z</time>
      </trkpt>
      <trkpt lat="45.87224" lon="4.75934">
        <ele>228</ele>
        <time>2018-02-24T11:45:41Z</time>
      </trkpt>
      <trkpt lat="45.87225" lon="4.75945">
        <ele>228</ele>
        <time>2018-02-24T11:45:43Z</time>
      </trkpt>
      <trkpt lat="45.87225" lon="4.7595">
        <ele>228</ele>
        <time>2018-02-24T11:45:44Z</time>
      </trkpt>
      <trkpt lat="45.87226" lon="4.75961">
        <ele>228</ele>
        <time>2018-02-24T11:45:46Z</time>
      </trkpt>
      <trkpt lat="45.87227" lon="4.75966">
        <ele>228</ele>
        <time>2018-02-24T11:45:47Z</time>
      </trkpt>
      <trkpt lat="45.87228" lon="4.75976">
        <ele>228</ele>
        <time>2018-02-24T11:45:49Z</time>
      </trkpt>
      <trkpt lat="45.87228" lon="4.75979">
        <ele>228</ele>
        <time>2018-02-24T11:45:50Z</time>
      </trkpt>
      <trkpt lat="45.87229" lon="4.75987">
        <ele>228</ele>
        <time>2018-02-24T11:45:51Z</time>
      </trkpt>
      <trkpt lat="45.87229" lon="4.75992">
        <ele>228</ele>
        <time>2018-02-24T11:45:52Z</time>
      </trkpt>
      <trkpt lat="45.8723" lon="4.76003">
        <ele>229</ele>
        <time>2018-02-24T11:45:54Z</time>
      </trkpt>
      <trkpt lat="45.87231" lon="4.76008">
        <ele>230</ele>
        <time>2018-02-24T11:45:55Z</time>
      </trkpt>
      <trkpt lat="45.87232" lon="4.76018">
        <ele>230</ele>
        <time>2018-02-24T11:45:58Z</time>
      </trkpt>
      <trkpt lat="45.87233" lon="4.76028">
        <ele>230</ele>
        <time>2018-02-24T11:45:59Z</time>
      </trkpt>
      <trkpt lat="45.87234" lon="4.76039">
        <ele>230</ele>
        <time>2018-02-24T11:46:01Z</time>
      </trkpt>
      <trkpt lat="45.87235" lon="4.76044">
        <ele>230</ele>
        <time>2018-02-24T11:46:02Z</time>
      </trkpt>
      <trkpt lat="45.87236" lon="4.76054">
        <ele>230</ele>
        <time>2018-02-24T11:46:05Z</time>
      </trkpt>
      <trkpt lat="45.87237" lon="4.76066">
        <ele>230</ele>
        <time>2018-02-24T11:46:06Z</time>
      </trkpt>
      <trkpt lat="45.87237" lon="4.76078">
        <ele>230</ele>
        <time>2018-02-24T11:46:08Z</time>
      </trkpt>
      <trkpt lat="45.87238" lon="4.76084">
        <ele>231</ele>
        <time>2018-02-24T11:46:09Z</time>
      </trkpt>
      <trkpt lat="45.87238" lon="4.76096">
        <ele>231</ele>
        <time>2018-02-24T11:46:11Z</time>
      </trkpt>
      <trkpt lat="45.87238" lon="4.76102">
        <ele>231</ele>
        <time>2018-02-24T11:46:12Z</time>
      </trkpt>
      <trkpt lat="45.87239" lon="4.76113">
        <ele>232</ele>
        <time>2018-02-24T11:46:14Z</time>
      </trkpt>
      <trkpt lat="45.87239" lon="4.76119">
        <ele>232</ele>
        <time>2018-02-24T11:46:15Z</time>
      </trkpt>
      <trkpt lat="45.87239" lon="4.7613">
        <ele>232</ele>
        <time>2018-02-24T11:46:17Z</time>
      </trkpt>
      <trkpt lat="45.87239" lon="4.76133">
        <ele>232</ele>
        <time>2018-02-24T11:46:18Z</time>
      </trkpt>
      <trkpt lat="45.8724" lon="4.7614">
        <ele>232</ele>
        <time>2018-02-24T11:46:19Z</time>
      </trkpt>
      <trkpt lat="45.87239" lon="4.76146">
        <ele>232</ele>
        <time>2018-02-24T11:46:20Z</time>
      </trkpt>
      <trkpt lat="45.87239" lon="4.76157">
        <ele>232</ele>
        <time>2018-02-24T11:46:22Z</time>
      </trkpt>
      <trkpt lat="45.87239" lon="4.76163">
        <ele>232</ele>
        <time>2018-02-24T11:46:23Z</time>
      </trkpt>
      <trkpt lat="45.8724" lon="4.76173">
        <ele>233</ele>
        <time>2018-02-24T11:46:25Z</time>
      </trkpt>
      <trkpt lat="45.8724" lon="4.76178">
        <ele>233</ele>
        <time>2018-02-24T11:46:26Z</time>
      </trkpt>
      <trkpt lat="45.87241" lon="4.76189">
        <ele>234</ele>
        <time>2018-02-24T11:46:28Z</time>
      </trkpt>
      <trkpt lat="45.87241" lon="4.76194">
        <ele>234</ele>
        <time>2018-02-24T11:46:29Z</time>
      </trkpt>
      <trkpt lat="45.87242" lon="4.76202">
        <ele>234</ele>
        <time>2018-02-24T11:46:31Z</time>
      </trkpt>
      <trkpt lat="45.87242" lon="4.76209">
        <ele>234</ele>
        <time>2018-02-24T11:46:32Z</time>
      </trkpt>
      <trkpt lat="45.87242" lon="4.76221">
        <ele>235</ele>
        <time>2018-02-24T11:46:35Z</time>
      </trkpt>
      <trkpt lat="45.87242" lon="4.7623">
        <ele>235</ele>
        <time>2018-02-24T11:46:36Z</time>
      </trkpt>
      <trkpt lat="45.87242" lon="4.76237">
        <ele>235</ele>
        <time>2018-02-24T11:46:38Z</time>
      </trkpt>
      <trkpt lat="45.87242" lon="4.76247">
        <ele>235</ele>
        <time>2018-02-24T11:46:39Z</time>
      </trkpt>
      <trkpt lat="45.87243" lon="4.76257">
        <ele>235</ele>
        <time>2018-02-24T11:46:41Z</time>
      </trkpt>
      <trkpt lat="45.87243" lon="4.76262">
        <ele>236</ele>
        <time>2018-02-24T11:46:42Z</time>
      </trkpt>
      <trkpt lat="45.87243" lon="4.76273">
        <ele>236</ele>
        <time>2018-02-24T11:46:44Z</time>
      </trkpt>
      <trkpt lat="45.87244" lon="4.76276">
        <ele>236</ele>
        <time>2018-02-24T11:46:45Z</time>
      </trkpt>
      <trkpt lat="45.87244" lon="4.76284">
        <ele>236</ele>
        <time>2018-02-24T11:46:46Z</time>
      </trkpt>
      <trkpt lat="45.87244" lon="4.76289">
        <ele>236</ele>
        <time>2018-02-24T11:46:47Z</time>
      </trkpt>
      <trkpt lat="45.87243" lon="4.76301">
        <ele>236</ele>
        <time>2018-02-24T11:46:49Z</time>
      </trkpt>
      <trkpt lat="45.87243" lon="4.76306">
        <ele>236</ele>
        <time>2018-02-24T11:46:50Z</time>
      </trkpt>
      <trkpt lat="45.87243" lon="4.76317">
        <ele>235</ele>
        <time>2018-02-24T11:46:52Z</time>
      </trkpt>
      <trkpt lat="45.87243" lon="4.76323">
        <ele>235</ele>
        <time>2018-02-24T11:46:53Z</time>
      </trkpt>
      <trkpt lat="45.87244" lon="4.76334">
        <ele>235</ele>
        <time>2018-02-24T11:46:55Z</time>
      </trkpt>
      <trkpt lat="45.87245" lon="4.7634">
        <ele>235</ele>
        <time>2018-02-24T11:46:56Z</time>
      </trkpt>
      <trkpt lat="45.87247" lon="4.76351">
        <ele>236</ele>
        <time>2018-02-24T11:46:58Z</time>
      </trkpt>
      <trkpt lat="45.87247" lon="4.76357">
        <ele>236</ele>
        <time>2018-02-24T11:46:59Z</time>
      </trkpt>
      <trkpt lat="45.87248" lon="4.76368">
        <ele>236</ele>
        <time>2018-02-24T11:47:01Z</time>
      </trkpt>
      <trkpt lat="45.87249" lon="4.76374">
        <ele>237</ele>
        <time>2018-02-24T11:47:02Z</time>
      </trkpt>
      <trkpt lat="45.8725" lon="4.76386">
        <ele>234</ele>
        <time>2018-02-24T11:47:04Z</time>
      </trkpt>
      <trkpt lat="45.87251" lon="4.76392">
        <ele>234</ele>
        <time>2018-02-24T11:47:05Z</time>
      </trkpt>
      <trkpt lat="45.87251" lon="4.76404">
        <ele>235</ele>
        <time>2018-02-24T11:47:07Z</time>
      </trkpt>
      <trkpt lat="45.87251" lon="4.76409">
        <ele>235</ele>
        <time>2018-02-24T11:47:08Z</time>
      </trkpt>
      <trkpt lat="45.87252" lon="4.76422">
        <ele>236</ele>
        <time>2018-02-24T11:47:10Z</time>
      </trkpt>
      <trkpt lat="45.87252" lon="4.76428">
        <ele>236</ele>
        <time>2018-02-24T11:47:11Z</time>
      </trkpt>
      <trkpt lat="45.87252" lon="4.7644">
        <ele>235</ele>
        <time>2018-02-24T11:47:13Z</time>
      </trkpt>
      <trkpt lat="45.87253" lon="4.76447">
        <ele>235</ele>
        <time>2018-02-24T11:47:14Z</time>
      </trkpt>
      <trkpt lat="45.87253" lon="4.7646">
        <ele>235</ele>
        <time>2018-02-24T11:47:16Z</time>
      </trkpt>
      <trkpt lat="45.87253" lon="4.76467">
        <ele>236</ele>
        <time>2018-02-24T11:47:17Z</time>
      </trkpt>
      <trkpt lat="45.87253" lon="4.76473">
        <ele>236</ele>
        <time>2018-02-24T11:47:18Z</time>
      </trkpt>
      <trkpt lat="45.87254" lon="4.76479">
        <ele>236</ele>
        <time>2018-02-24T11:47:19Z</time>
      </trkpt>
      <trkpt lat="45.87253" lon="4.76486">
        <ele>236</ele>
        <time>2018-02-24T11:47:20Z</time>
      </trkpt>
      <trkpt lat="45.87253" lon="4.76493">
        <ele>236</ele>
        <time>2018-02-24T11:47:21Z</time>
      </trkpt>
      <trkpt lat="45.87253" lon="4.76499">
        <ele>237</ele>
        <time>2018-02-24T11:47:22Z</time>
      </trkpt>
      <trkpt lat="45.87253" lon="4.76507">
        <ele>236</ele>
        <time>2018-02-24T11:47:23Z</time>
      </trkpt>
      <trkpt lat="45.87251" lon="4.76514">
        <ele>236</ele>
        <time>2018-02-24T11:47:24Z</time>
      </trkpt>
      <trkpt lat="45.8725" lon="4.76521">
        <ele>236</ele>
        <time>2018-02-24T11:47:25Z</time>
      </trkpt>
      <trkpt lat="45.8725" lon="4.76532">
        <ele>236</ele>
        <time>2018-02-24T11:47:26Z</time>
      </trkpt>
      <trkpt lat="45.8725" lon="4.76539">
        <ele>236</ele>
        <time>2018-02-24T11:47:27Z</time>
      </trkpt>
      <trkpt lat="45.8725" lon="4.76546">
        <ele>237</ele>
        <time>2018-02-24T11:47:28Z</time>
      </trkpt>
      <trkpt lat="45.8725" lon="4.76557">
        <ele>236</ele>
        <time>2018-02-24T11:47:29Z</time>
      </trkpt>
      <trkpt lat="45.87252" lon="4.76563">
        <ele>236</ele>
        <time>2018-02-24T11:47:30Z</time>
      </trkpt>
      <trkpt lat="45.87252" lon="4.76571">
        <ele>236</ele>
        <time>2018-02-24T11:47:31Z</time>
      </trkpt>
      <trkpt lat="45.87252" lon="4.76579">
        <ele>236</ele>
        <time>2018-02-24T11:47:32Z</time>
      </trkpt>
      <trkpt lat="45.87253" lon="4.76586">
        <ele>236</ele>
        <time>2018-02-24T11:47:33Z</time>
      </trkpt>
      <trkpt lat="45.87253" lon="4.76593">
        <ele>235</ele>
        <time>2018-02-24T11:47:34Z</time>
      </trkpt>
      <trkpt lat="45.87253" lon="4.76602">
        <ele>235</ele>
        <time>2018-02-24T11:47:35Z</time>
      </trkpt>
      <trkpt lat="45.87253" lon="4.76609">
        <ele>235</ele>
        <time>2018-02-24T11:47:36Z</time>
      </trkpt>
      <trkpt lat="45.87253" lon="4.76615">
        <ele>235</ele>
        <time>2018-02-24T11:47:37Z</time>
      </trkpt>
      <trkpt lat="45.87253" lon="4.76623">
        <ele>234</ele>
        <time>2018-02-24T11:47:38Z</time>
      </trkpt>
      <trkpt lat="45.87257" lon="4.7663">
        <ele>234</ele>
        <time>2018-02-24T11:47:39Z</time>
      </trkpt>
      <trkpt lat="45.87258" lon="4.76638">
        <ele>234</ele>
        <time>2018-02-24T11:47:40Z</time>
      </trkpt>
      <trkpt lat="45.87258" lon="4.76645">
        <ele>234</ele>
        <time>2018-02-24T11:47:41Z</time>
      </trkpt>
      <trkpt lat="45.87258" lon="4.76653">
        <ele>234</ele>
        <time>2018-02-24T11:47:42Z</time>
      </trkpt>
      <trkpt lat="45.87257" lon="4.76661">
        <ele>235</ele>
        <time>2018-02-24T11:47:43Z</time>
      </trkpt>
      <trkpt lat="45.87258" lon="4.76668">
        <ele>235</ele>
        <time>2018-02-24T11:47:44Z</time>
      </trkpt>
      <trkpt lat="45.87259" lon="4.76676">
        <ele>234</ele>
        <time>2018-02-24T11:47:45Z</time>
      </trkpt>
      <trkpt lat="45.87258" lon="4.76688">
        <ele>234</ele>
        <time>2018-02-24T11:47:47Z</time>
      </trkpt>
      <trkpt lat="45.87259" lon="4.76694">
        <ele>234</ele>
        <time>2018-02-24T11:47:48Z</time>
      </trkpt>
      <trkpt lat="45.87261" lon="4.76707">
        <ele>234</ele>
        <time>2018-02-24T11:47:50Z</time>
      </trkpt>
      <trkpt lat="45.87262" lon="4.76712">
        <ele>234</ele>
        <time>2018-02-24T11:47:51Z</time>
      </trkpt>
      <trkpt lat="45.87263" lon="4.76724">
        <ele>234</ele>
        <time>2018-02-24T11:47:53Z</time>
      </trkpt>
      <trkpt lat="45.87264" lon="4.7673">
        <ele>234</ele>
        <time>2018-02-24T11:47:54Z</time>
      </trkpt>
      <trkpt lat="45.87264" lon="4.76736">
        <ele>235</ele>
        <time>2018-02-24T11:47:55Z</time>
      </trkpt>
      <trkpt lat="45.87262" lon="4.76744">
        <ele>235</ele>
        <time>2018-02-24T11:47:56Z</time>
      </trkpt>
      <trkpt lat="45.87263" lon="4.7675">
        <ele>236</ele>
        <time>2018-02-24T11:47:57Z</time>
      </trkpt>
      <trkpt lat="45.87263" lon="4.76757">
        <ele>236</ele>
        <time>2018-02-24T11:47:58Z</time>
      </trkpt>
      <trkpt lat="45.87263" lon="4.76764">
        <ele>236</ele>
        <time>2018-02-24T11:47:59Z</time>
      </trkpt>
      <trkpt lat="45.87263" lon="4.7677">
        <ele>236</ele>
        <time>2018-02-24T11:48:00Z</time>
      </trkpt>
      <trkpt lat="45.87264" lon="4.76783">
        <ele>236</ele>
        <time>2018-02-24T11:48:02Z</time>
      </trkpt>
      <trkpt lat="45.87264" lon="4.76789">
        <ele>236</ele>
        <time>2018-02-24T11:48:03Z</time>
      </trkpt>
      <trkpt lat="45.87265" lon="4.768">
        <ele>236</ele>
        <time>2018-02-24T11:48:05Z</time>
      </trkpt>
      <trkpt lat="45.87264" lon="4.76806">
        <ele>237</ele>
        <time>2018-02-24T11:48:06Z</time>
      </trkpt>
      <trkpt lat="45.87264" lon="4.76817">
        <ele>237</ele>
        <time>2018-02-24T11:48:08Z</time>
      </trkpt>
      <trkpt lat="45.87264" lon="4.76823">
        <ele>237</ele>
        <time>2018-02-24T11:48:09Z</time>
      </trkpt>
      <trkpt lat="45.87264" lon="4.76835">
        <ele>239</ele>
        <time>2018-02-24T11:48:11Z</time>
      </trkpt>
      <trkpt lat="45.87264" lon="4.7684">
        <ele>239</ele>
        <time>2018-02-24T11:48:12Z</time>
      </trkpt>
      <trkpt lat="45.87263" lon="4.76852">
        <ele>239</ele>
        <time>2018-02-24T11:48:14Z</time>
      </trkpt>
      <trkpt lat="45.87262" lon="4.7686">
        <ele>239</ele>
        <time>2018-02-24T11:48:15Z</time>
      </trkpt>
      <trkpt lat="45.87262" lon="4.76873">
        <ele>240</ele>
        <time>2018-02-24T11:48:17Z</time>
      </trkpt>
      <trkpt lat="45.87262" lon="4.76879">
        <ele>240</ele>
        <time>2018-02-24T11:48:18Z</time>
      </trkpt>
      <trkpt lat="45.87262" lon="4.76892">
        <ele>240</ele>
        <time>2018-02-24T11:48:20Z</time>
      </trkpt>
      <trkpt lat="45.87263" lon="4.76898">
        <ele>240</ele>
        <time>2018-02-24T11:48:21Z</time>
      </trkpt>
      <trkpt lat="45.87263" lon="4.76909">
        <ele>241</ele>
        <time>2018-02-24T11:48:23Z</time>
      </trkpt>
      <trkpt lat="45.87263" lon="4.76914">
        <ele>241</ele>
        <time>2018-02-24T11:48:24Z</time>
      </trkpt>
      <trkpt lat="45.87264" lon="4.76925">
        <ele>241</ele>
        <time>2018-02-24T11:48:26Z</time>
      </trkpt>
      <trkpt lat="45.87264" lon="4.76931">
        <ele>241</ele>
        <time>2018-02-24T11:48:27Z</time>
      </trkpt>
      <trkpt lat="45.87265" lon="4.76938">
        <ele>241</ele>
        <time>2018-02-24T11:48:28Z</time>
      </trkpt>
      <trkpt lat="45.87265" lon="4.76945">
        <ele>241</ele>
        <time>2018-02-24T11:48:29Z</time>
      </trkpt>
      <trkpt lat="45.87265" lon="4.76951">
        <ele>240</ele>
        <time>2018-02-24T11:48:30Z</time>
      </trkpt>
      <trkpt lat="45.87264" lon="4.76958">
        <ele>240</ele>
        <time>2018-02-24T11:48:31Z</time>
      </trkpt>
      <trkpt lat="45.87264" lon="4.76964">
        <ele>240</ele>
        <time>2018-02-24T11:48:32Z</time>
      </trkpt>
      <trkpt lat="45.87266" lon="4.76973">
        <ele>240</ele>
        <time>2018-02-24T11:48:33Z</time>
      </trkpt>
      <trkpt lat="45.87267" lon="4.7698">
        <ele>240</ele>
        <time>2018-02-24T11:48:34Z</time>
      </trkpt>
      <trkpt lat="45.87267" lon="4.76987">
        <ele>240</ele>
        <time>2018-02-24T11:48:35Z</time>
      </trkpt>
      <trkpt lat="45.87267" lon="4.76994">
        <ele>240</ele>
        <time>2018-02-24T11:48:36Z</time>
      </trkpt>
      <trkpt lat="45.87267" lon="4.77001">
        <ele>239</ele>
        <time>2018-02-24T11:48:37Z</time>
      </trkpt>
      <trkpt lat="45.87266" lon="4.77009">
        <ele>239</ele>
        <time>2018-02-24T11:48:38Z</time>
      </trkpt>
      <trkpt lat="45.87268" lon="4.77016">
        <ele>239</ele>
        <time>2018-02-24T11:48:39Z</time>
      </trkpt>
      <trkpt lat="45.87269" lon="4.77023">
        <ele>239</ele>
        <time>2018-02-24T11:48:40Z</time>
      </trkpt>
      <trkpt lat="45.8727" lon="4.7703">
        <ele>239</ele>
        <time>2018-02-24T11:48:41Z</time>
      </trkpt>
      <trkpt lat="45.8727" lon="4.77037">
        <ele>239</ele>
        <time>2018-02-24T11:48:42Z</time>
      </trkpt>
      <trkpt lat="45.87269" lon="4.77044">
        <ele>239</ele>
        <time>2018-02-24T11:48:43Z</time>
      </trkpt>
      <trkpt lat="45.87268" lon="4.77053">
        <ele>239</ele>
        <time>2018-02-24T11:48:44Z</time>
      </trkpt>
      <trkpt lat="45.87268" lon="4.77059">
        <ele>239</ele>
        <time>2018-02-24T11:48:45Z</time>
      </trkpt>
      <trkpt lat="45.87268" lon="4.77072">
        <ele>239</ele>
        <time>2018-02-24T11:48:47Z</time>
      </trkpt>
      <trkpt lat="45.87268" lon="4.77079">
        <ele>239</ele>
        <time>2018-02-24T11:48:48Z</time>
      </trkpt>
      <trkpt lat="45.87267" lon="4.77085">
        <ele>240</ele>
        <time>2018-02-24T11:48:49Z</time>
      </trkpt>
      <trkpt lat="45.87269" lon="4.77092">
        <ele>240</ele>
        <time>2018-02-24T11:48:50Z</time>
      </trkpt>
      <trkpt lat="45.87269" lon="4.77098">
        <ele>240</ele>
        <time>2018-02-24T11:48:51Z</time>
      </trkpt>
      <trkpt lat="45.87269" lon="4.77105">
        <ele>240</ele>
        <time>2018-02-24T11:48:52Z</time>
      </trkpt>
      <trkpt lat="45.87269" lon="4.77112">
        <ele>240</ele>
        <time>2018-02-24T11:48:53Z</time>
      </trkpt>
      <trkpt lat="45.87269" lon="4.77118">
        <ele>240</ele>
        <time>2018-02-24T11:48:54Z</time>
      </trkpt>
      <trkpt lat="45.87269" lon="4.7713">
        <ele>241</ele>
        <time>2018-02-24T11:48:56Z</time>
      </trkpt>
      <trkpt lat="45.87269" lon="4.77136">
        <ele>241</ele>
        <time>2018-02-24T11:48:57Z</time>
      </trkpt>
      <trkpt lat="45.87269" lon="4.77143">
        <ele>241</ele>
        <time>2018-02-24T11:48:58Z</time>
      </trkpt>
      <trkpt lat="45.87268" lon="4.77149">
        <ele>242</ele>
        <time>2018-02-24T11:48:59Z</time>
      </trkpt>
      <trkpt lat="45.8727" lon="4.7716">
        <ele>242</ele>
        <time>2018-02-24T11:49:01Z</time>
      </trkpt>
      <trkpt lat="45.87271" lon="4.77166">
        <ele>242</ele>
        <time>2018-02-24T11:49:02Z</time>
      </trkpt>
      <trkpt lat="45.87272" lon="4.77172">
        <ele>244</ele>
        <time>2018-02-24T11:49:03Z</time>
      </trkpt>
      <trkpt lat="45.87273" lon="4.77178">
        <ele>244</ele>
        <time>2018-02-24T11:49:04Z</time>
      </trkpt>
      <trkpt lat="45.87274" lon="4.7719">
        <ele>244</ele>
        <time>2018-02-24T11:49:06Z</time>
      </trkpt>
      <trkpt lat="45.87276" lon="4.772">
        <ele>244</ele>
        <time>2018-02-24T11:49:07Z</time>
      </trkpt>
      <trkpt lat="45.87279" lon="4.77211">
        <ele>244</ele>
        <time>2018-02-24T11:49:09Z</time>
      </trkpt>
      <trkpt lat="45.87282" lon="4.77216">
        <ele>244</ele>
        <time>2018-02-24T11:49:10Z</time>
      </trkpt>
      <trkpt lat="45.87285" lon="4.77221">
        <ele>244</ele>
        <time>2018-02-24T11:49:11Z</time>
      </trkpt>
      <trkpt lat="45.87288" lon="4.77225">
        <ele>244</ele>
        <time>2018-02-24T11:49:12Z</time>
      </trkpt>
      <trkpt lat="45.87296" lon="4.77231">
        <ele>244</ele>
        <time>2018-02-24T11:49:14Z</time>
      </trkpt>
      <trkpt lat="45.873" lon="4.77232">
        <ele>244</ele>
        <time>2018-02-24T11:49:15Z</time>
      </trkpt>
      <trkpt lat="45.87309" lon="4.77234">
        <ele>244</ele>
        <time>2018-02-24T11:49:17Z</time>
      </trkpt>
      <trkpt lat="45.87313" lon="4.77233">
        <ele>244</ele>
        <time>2018-02-24T11:49:18Z</time>
      </trkpt>
      <trkpt lat="45.87321" lon="4.77232">
        <ele>244</ele>
        <time>2018-02-24T11:49:20Z</time>
      </trkpt>
      <trkpt lat="45.87326" lon="4.77232">
        <ele>243</ele>
        <time>2018-02-24T11:49:21Z</time>
      </trkpt>
      <trkpt lat="45.87334" lon="4.77229">
        <ele>241</ele>
        <time>2018-02-24T11:49:23Z</time>
      </trkpt>
      <trkpt lat="45.8734" lon="4.77229">
        <ele>241</ele>
        <time>2018-02-24T11:49:24Z</time>
      </trkpt>
      <trkpt lat="45.87345" lon="4.77228">
        <ele>241</ele>
        <time>2018-02-24T11:49:25Z</time>
      </trkpt>
      <trkpt lat="45.87349" lon="4.77228">
        <ele>240</ele>
        <time>2018-02-24T11:49:26Z</time>
      </trkpt>
      <trkpt lat="45.87354" lon="4.77228">
        <ele>240</ele>
        <time>2018-02-24T11:49:27Z</time>
      </trkpt>
      <trkpt lat="45.87359" lon="4.77228">
        <ele>240</ele>
        <time>2018-02-24T11:49:28Z</time>
      </trkpt>
      <trkpt lat="45.87364" lon="4.77228">
        <ele>240</ele>
        <time>2018-02-24T11:49:29Z</time>
      </trkpt>
      <trkpt lat="45.8737" lon="4.77228">
        <ele>240</ele>
        <time>2018-02-24T11:49:30Z</time>
      </trkpt>
      <trkpt lat="45.87375" lon="4.77226">
        <ele>239</ele>
        <time>2018-02-24T11:49:31Z</time>
      </trkpt>
      <trkpt lat="45.8738" lon="4.77225">
        <ele>239</ele>
        <time>2018-02-24T11:49:32Z</time>
      </trkpt>
      <trkpt lat="45.87388" lon="4.77226">
        <ele>239</ele>
        <time>2018-02-24T11:49:34Z</time>
      </trkpt>
      <trkpt lat="45.87397" lon="4.7723">
        <ele>238</ele>
        <time>2018-02-24T11:49:35Z</time>
      </trkpt>
      <trkpt lat="45.87401" lon="4.77231">
        <ele>238</ele>
        <time>2018-02-24T11:49:36Z</time>
      </trkpt>
      <trkpt lat="45.87407" lon="4.77233">
        <ele>238</ele>
        <time>2018-02-24T11:49:37Z</time>
      </trkpt>
      <trkpt lat="45.87413" lon="4.77237">
        <ele>237</ele>
        <time>2018-02-24T11:49:38Z</time>
      </trkpt>
      <trkpt lat="45.87418" lon="4.77239">
        <ele>236</ele>
        <time>2018-02-24T11:49:39Z</time>
      </trkpt>
      <trkpt lat="45.87423" lon="4.77243">
        <ele>236</ele>
        <time>2018-02-24T11:49:40Z</time>
      </trkpt>
      <trkpt lat="45.87428" lon="4.77244">
        <ele>236</ele>
        <time>2018-02-24T11:49:41Z</time>
      </trkpt>
      <trkpt lat="45.87433" lon="4.77249">
        <ele>235</ele>
        <time>2018-02-24T11:49:42Z</time>
      </trkpt>
      <trkpt lat="45.87438" lon="4.77253">
        <ele>236</ele>
        <time>2018-02-24T11:49:43Z</time>
      </trkpt>
      <trkpt lat="45.87442" lon="4.77257">
        <ele>235</ele>
        <time>2018-02-24T11:49:44Z</time>
      </trkpt>
      <trkpt lat="45.87446" lon="4.77262">
        <ele>235</ele>
        <time>2018-02-24T11:49:45Z</time>
      </trkpt>
      <trkpt lat="45.8745" lon="4.77267">
        <ele>235</ele>
        <time>2018-02-24T11:49:46Z</time>
      </trkpt>
      <trkpt lat="45.87453" lon="4.77272">
        <ele>235</ele>
        <time>2018-02-24T11:49:47Z</time>
      </trkpt>
      <trkpt lat="45.87456" lon="4.7728">
        <ele>235</ele>
        <time>2018-02-24T11:49:48Z</time>
      </trkpt>
      <trkpt lat="45.87458" lon="4.77286">
        <ele>235</ele>
        <time>2018-02-24T11:49:49Z</time>
      </trkpt>
      <trkpt lat="45.87461" lon="4.77292">
        <ele>235</ele>
        <time>2018-02-24T11:49:50Z</time>
      </trkpt>
      <trkpt lat="45.87463" lon="4.77299">
        <ele>235</ele>
        <time>2018-02-24T11:49:51Z</time>
      </trkpt>
      <trkpt lat="45.87465" lon="4.77306">
        <ele>235</ele>
        <time>2018-02-24T11:49:52Z</time>
      </trkpt>
      <trkpt lat="45.87466" lon="4.77313">
        <ele>235</ele>
        <time>2018-02-24T11:49:53Z</time>
      </trkpt>
      <trkpt lat="45.87468" lon="4.7732">
        <ele>235</ele>
        <time>2018-02-24T11:49:54Z</time>
      </trkpt>
      <trkpt lat="45.87469" lon="4.77328">
        <ele>235</ele>
        <time>2018-02-24T11:49:55Z</time>
      </trkpt>
      <trkpt lat="45.8747" lon="4.77334">
        <ele>235</ele>
        <time>2018-02-24T11:49:56Z</time>
      </trkpt>
      <trkpt lat="45.87471" lon="4.77341">
        <ele>235</ele>
        <time>2018-02-24T11:49:57Z</time>
      </trkpt>
      <trkpt lat="45.87473" lon="4.77348">
        <ele>235</ele>
        <time>2018-02-24T11:49:58Z</time>
      </trkpt>
      <trkpt lat="45.87473" lon="4.77355">
        <ele>235</ele>
        <time>2018-02-24T11:49:59Z</time>
      </trkpt>
      <trkpt lat="45.87477" lon="4.77363">
        <ele>235</ele>
        <time>2018-02-24T11:50:00Z</time>
      </trkpt>
      <trkpt lat="45.87478" lon="4.7737">
        <ele>235</ele>
        <time>2018-02-24T11:50:01Z</time>
      </trkpt>
      <trkpt lat="45.87479" lon="4.77378">
        <ele>235</ele>
        <time>2018-02-24T11:50:02Z</time>
      </trkpt>
      <trkpt lat="45.87481" lon="4.77385">
        <ele>235</ele>
        <time>2018-02-24T11:50:03Z</time>
      </trkpt>
      <trkpt lat="45.87482" lon="4.77392">
        <ele>235</ele>
        <time>2018-02-24T11:50:04Z</time>
      </trkpt>
      <trkpt lat="45.87483" lon="4.77399">
        <ele>235</ele>
        <time>2018-02-24T11:50:05Z</time>
      </trkpt>
      <trkpt lat="45.87485" lon="4.77406">
        <ele>234</ele>
        <time>2018-02-24T11:50:06Z</time>
      </trkpt>
      <trkpt lat="45.87488" lon="4.77412">
        <ele>234</ele>
        <time>2018-02-24T11:50:07Z</time>
      </trkpt>
      <trkpt lat="45.87492" lon="4.77419">
        <ele>234</ele>
        <time>2018-02-24T11:50:08Z</time>
      </trkpt>
      <trkpt lat="45.87495" lon="4.77425">
        <ele>234</ele>
        <time>2018-02-24T11:50:09Z</time>
      </trkpt>
      <trkpt lat="45.87498" lon="4.77429">
        <ele>234</ele>
        <time>2018-02-24T11:50:10Z</time>
      </trkpt>
      <trkpt lat="45.87502" lon="4.77434">
        <ele>233</ele>
        <time>2018-02-24T11:50:11Z</time>
      </trkpt>
      <trkpt lat="45.87506" lon="4.77439">
        <ele>233</ele>
        <time>2018-02-24T11:50:12Z</time>
      </trkpt>
      <trkpt lat="45.8751" lon="4.77446">
        <ele>233</ele>
        <time>2018-02-24T11:50:13Z</time>
      </trkpt>
      <trkpt lat="45.87515" lon="4.77452">
        <ele>233</ele>
        <time>2018-02-24T11:50:14Z</time>
      </trkpt>
      <trkpt lat="45.87519" lon="4.77457">
        <ele>233</ele>
        <time>2018-02-24T11:50:15Z</time>
      </trkpt>
      <trkpt lat="45.87524" lon="4.77463">
        <ele>234</ele>
        <time>2018-02-24T11:50:16Z</time>
      </trkpt>
      <trkpt lat="45.87528" lon="4.77469">
        <ele>233</ele>
        <time>2018-02-24T11:50:17Z</time>
      </trkpt>
      <trkpt lat="45.87531" lon="4.77475">
        <ele>233</ele>
        <time>2018-02-24T11:50:18Z</time>
      </trkpt>
      <trkpt lat="45.87536" lon="4.7748">
        <ele>233</ele>
        <time>2018-02-24T11:50:19Z</time>
      </trkpt>
      <trkpt lat="45.8754" lon="4.77485">
        <ele>233</ele>
        <time>2018-02-24T11:50:20Z</time>
      </trkpt>
      <trkpt lat="45.87545" lon="4.7749">
        <ele>233</ele>
        <time>2018-02-24T11:50:21Z</time>
      </trkpt>
      <trkpt lat="45.8755" lon="4.77495">
        <ele>233</ele>
        <time>2018-02-24T11:50:22Z</time>
      </trkpt>
      <trkpt lat="45.87554" lon="4.77501">
        <ele>232</ele>
        <time>2018-02-24T11:50:23Z</time>
      </trkpt>
      <trkpt lat="45.87559" lon="4.77506">
        <ele>232</ele>
        <time>2018-02-24T11:50:24Z</time>
      </trkpt>
      <trkpt lat="45.87563" lon="4.77511">
        <ele>232</ele>
        <time>2018-02-24T11:50:25Z</time>
      </trkpt>
      <trkpt lat="45.87567" lon="4.77516">
        <ele>232</ele>
        <time>2018-02-24T11:50:26Z</time>
      </trkpt>
      <trkpt lat="45.87572" lon="4.77521">
        <ele>232</ele>
        <time>2018-02-24T11:50:27Z</time>
      </trkpt>
      <trkpt lat="45.87578" lon="4.77522">
        <ele>232</ele>
        <time>2018-02-24T11:50:28Z</time>
      </trkpt>
      <trkpt lat="45.87584" lon="4.7752">
        <ele>231</ele>
        <time>2018-02-24T11:50:29Z</time>
      </trkpt>
      <trkpt lat="45.8759" lon="4.77516">
        <ele>231</ele>
        <time>2018-02-24T11:50:30Z</time>
      </trkpt>
      <trkpt lat="45.87595" lon="4.77511">
        <ele>231</ele>
        <time>2018-02-24T11:50:31Z</time>
      </trkpt>
      <trkpt lat="45.876" lon="4.77506">
        <ele>231</ele>
        <time>2018-02-24T11:50:32Z</time>
      </trkpt>
      <trkpt lat="45.87606" lon="4.77502">
        <ele>231</ele>
        <time>2018-02-24T11:50:33Z</time>
      </trkpt>
      <trkpt lat="45.87612" lon="4.77498">
        <ele>231</ele>
        <time>2018-02-24T11:50:34Z</time>
      </trkpt>
      <trkpt lat="45.87619" lon="4.77497">
        <ele>231</ele>
        <time>2018-02-24T11:50:35Z</time>
      </trkpt>
      <trkpt lat="45.87626" lon="4.77497">
        <ele>231</ele>
        <time>2018-02-24T11:50:36Z</time>
      </trkpt>
      <trkpt lat="45.87633" lon="4.77495">
        <ele>231</ele>
        <time>2018-02-24T11:50:37Z</time>
      </trkpt>
      <trkpt lat="45.8764" lon="4.77495">
        <ele>230</ele>
        <time>2018-02-24T11:50:38Z</time>
      </trkpt>
      <trkpt lat="45.87648" lon="4.77494">
        <ele>230</ele>
        <time>2018-02-24T11:50:39Z</time>
      </trkpt>
      <trkpt lat="45.87655" lon="4.77493">
        <ele>230</ele>
        <time>2018-02-24T11:50:40Z</time>
      </trkpt>
      <trkpt lat="45.87662" lon="4.77492">
        <ele>230</ele>
        <time>2018-02-24T11:50:41Z</time>
      </trkpt>
      <trkpt lat="45.8767" lon="4.77491">
        <ele>228</ele>
        <time>2018-02-24T11:50:42Z</time>
      </trkpt>
      <trkpt lat="45.87677" lon="4.7749">
        <ele>228</ele>
        <time>2018-02-24T11:50:43Z</time>
      </trkpt>
      <trkpt lat="45.87684" lon="4.77489">
        <ele>227</ele>
        <time>2018-02-24T11:50:44Z</time>
      </trkpt>
      <trkpt lat="45.87693" lon="4.77488">
        <ele>227</ele>
        <time>2018-02-24T11:50:45Z</time>
      </trkpt>
      <trkpt lat="45.877" lon="4.77489">
        <ele>227</ele>
        <time>2018-02-24T11:50:46Z</time>
      </trkpt>
      <trkpt lat="45.87708" lon="4.77489">
        <ele>226</ele>
        <time>2018-02-24T11:50:47Z</time>
      </trkpt>
      <trkpt lat="45.87715" lon="4.7749">
        <ele>226</ele>
        <time>2018-02-24T11:50:48Z</time>
      </trkpt>
      <trkpt lat="45.87722" lon="4.77492">
        <ele>226</ele>
        <time>2018-02-24T11:50:49Z</time>
      </trkpt>
      <trkpt lat="45.87729" lon="4.77495">
        <ele>225</ele>
        <time>2018-02-24T11:50:50Z</time>
      </trkpt>
      <trkpt lat="45.87736" lon="4.775">
        <ele>225</ele>
        <time>2018-02-24T11:50:51Z</time>
      </trkpt>
      <trkpt lat="45.87743" lon="4.77504">
        <ele>225</ele>
        <time>2018-02-24T11:50:52Z</time>
      </trkpt>
      <trkpt lat="45.8775" lon="4.77507">
        <ele>225</ele>
        <time>2018-02-24T11:50:53Z</time>
      </trkpt>
      <trkpt lat="45.87756" lon="4.77512">
        <ele>224</ele>
        <time>2018-02-24T11:50:54Z</time>
      </trkpt>
      <trkpt lat="45.87762" lon="4.77517">
        <ele>223</ele>
        <time>2018-02-24T11:50:55Z</time>
      </trkpt>
      <trkpt lat="45.87769" lon="4.77521">
        <ele>223</ele>
        <time>2018-02-24T11:50:56Z</time>
      </trkpt>
      <trkpt lat="45.87775" lon="4.77526">
        <ele>223</ele>
        <time>2018-02-24T11:50:57Z</time>
      </trkpt>
      <trkpt lat="45.87782" lon="4.7753">
        <ele>223</ele>
        <time>2018-02-24T11:50:58Z</time>
      </trkpt>
      <trkpt lat="45.87788" lon="4.77533">
        <ele>223</ele>
        <time>2018-02-24T11:50:59Z</time>
      </trkpt>
      <trkpt lat="45.87794" lon="4.77538">
        <ele>223</ele>
        <time>2018-02-24T11:51:00Z</time>
      </trkpt>
      <trkpt lat="45.878" lon="4.77543">
        <ele>223</ele>
        <time>2018-02-24T11:51:01Z</time>
      </trkpt>
      <trkpt lat="45.87806" lon="4.77548">
        <ele>223</ele>
        <time>2018-02-24T11:51:02Z</time>
      </trkpt>
      <trkpt lat="45.87812" lon="4.77552">
        <ele>223</ele>
        <time>2018-02-24T11:51:03Z</time>
      </trkpt>
      <trkpt lat="45.87818" lon="4.77556">
        <ele>223</ele>
        <time>2018-02-24T11:51:04Z</time>
      </trkpt>
      <trkpt lat="45.87824" lon="4.77563">
        <ele>223</ele>
        <time>2018-02-24T11:51:05Z</time>
      </trkpt>
      <trkpt lat="45.8783" lon="4.77568">
        <ele>222</ele>
        <time>2018-02-24T11:51:06Z</time>
      </trkpt>
      <trkpt lat="45.87834" lon="4.77572">
        <ele>221</ele>
        <time>2018-02-24T11:51:07Z</time>
      </trkpt>
      <trkpt lat="45.87839" lon="4.77575">
        <ele>221</ele>
        <time>2018-02-24T11:51:08Z</time>
      </trkpt>
      <trkpt lat="45.87845" lon="4.77579">
        <ele>221</ele>
        <time>2018-02-24T11:51:09Z</time>
      </trkpt>
      <trkpt lat="45.87851" lon="4.77583">
        <ele>221</ele>
        <time>2018-02-24T11:51:10Z</time>
      </trkpt>
      <trkpt lat="45.87857" lon="4.77589">
        <ele>221</ele>
        <time>2018-02-24T11:51:11Z</time>
      </trkpt>
      <trkpt lat="45.87862" lon="4.77593">
        <ele>221</ele>
        <time>2018-02-24T11:51:12Z</time>
      </trkpt>
      <trkpt lat="45.87868" lon="4.77598">
        <ele>221</ele>
        <time>2018-02-24T11:51:13Z</time>
      </trkpt>
      <trkpt lat="45.87873" lon="4.77602">
        <ele>221</ele>
        <time>2018-02-24T11:51:14Z</time>
      </trkpt>
      <trkpt lat="45.87879" lon="4.77607">
        <ele>221</ele>
        <time>2018-02-24T11:51:15Z</time>
      </trkpt>
      <trkpt lat="45.87884" lon="4.77613">
        <ele>221</ele>
        <time>2018-02-24T11:51:16Z</time>
      </trkpt>
      <trkpt lat="45.87889" lon="4.77617">
        <ele>221</ele>
        <time>2018-02-24T11:51:17Z</time>
      </trkpt>
      <trkpt lat="45.87894" lon="4.77621">
        <ele>221</ele>
        <time>2018-02-24T11:51:18Z</time>
      </trkpt>
      <trkpt lat="45.879" lon="4.77627">
        <ele>221</ele>
        <time>2018-02-24T11:51:19Z</time>
      </trkpt>
      <trkpt lat="45.87905" lon="4.77631">
        <ele>221</ele>
        <time>2018-02-24T11:51:20Z</time>
      </trkpt>
      <trkpt lat="45.8791" lon="4.77635">
        <ele>221</ele>
        <time>2018-02-24T11:51:21Z</time>
      </trkpt>
      <trkpt lat="45.87915" lon="4.77639">
        <ele>220</ele>
        <time>2018-02-24T11:51:22Z</time>
      </trkpt>
      <trkpt lat="45.8792" lon="4.77643">
        <ele>219</ele>
        <time>2018-02-24T11:51:23Z</time>
      </trkpt>
      <trkpt lat="45.87925" lon="4.77648">
        <ele>219</ele>
        <time>2018-02-24T11:51:24Z</time>
      </trkpt>
      <trkpt lat="45.8793" lon="4.77652">
        <ele>219</ele>
        <time>2018-02-24T11:51:25Z</time>
      </trkpt>
      <trkpt lat="45.87934" lon="4.77657">
        <ele>219</ele>
        <time>2018-02-24T11:51:26Z</time>
      </trkpt>
      <trkpt lat="45.87938" lon="4.77661">
        <ele>219</ele>
        <time>2018-02-24T11:51:27Z</time>
      </trkpt>
      <trkpt lat="45.87942" lon="4.77667">
        <ele>219</ele>
        <time>2018-02-24T11:51:28Z</time>
      </trkpt>
      <trkpt lat="45.87946" lon="4.77673">
        <ele>219</ele>
        <time>2018-02-24T11:51:29Z</time>
      </trkpt>
      <trkpt lat="45.8795" lon="4.77678">
        <ele>218</ele>
        <time>2018-02-24T11:51:30Z</time>
      </trkpt>
      <trkpt lat="45.87954" lon="4.77683">
        <ele>218</ele>
        <time>2018-02-24T11:51:31Z</time>
      </trkpt>
      <trkpt lat="45.87959" lon="4.77687">
        <ele>218</ele>
        <time>2018-02-24T11:51:32Z</time>
      </trkpt>
      <trkpt lat="45.87964" lon="4.7769">
        <ele>218</ele>
        <time>2018-02-24T11:51:33Z</time>
      </trkpt>
      <trkpt lat="45.8797" lon="4.77692">
        <ele>218</ele>
        <time>2018-02-24T11:51:34Z</time>
      </trkpt>
      <trkpt lat="45.87975" lon="4.77694">
        <ele>218</ele>
        <time>2018-02-24T11:51:35Z</time>
      </trkpt>
      <trkpt lat="45.87981" lon="4.77695">
        <ele>218</ele>
        <time>2018-02-24T11:51:36Z</time>
      </trkpt>
      <trkpt lat="45.87987" lon="4.77695">
        <ele>217</ele>
        <time>2018-02-24T11:51:37Z</time>
      </trkpt>
      <trkpt lat="45.87993" lon="4.77695">
        <ele>217</ele>
        <time>2018-02-24T11:51:38Z</time>
      </trkpt>
      <trkpt lat="45.87999" lon="4.77696">
        <ele>217</ele>
        <time>2018-02-24T11:51:39Z</time>
      </trkpt>
      <trkpt lat="45.88005" lon="4.77696">
        <ele>216</ele>
        <time>2018-02-24T11:51:40Z</time>
      </trkpt>
      <trkpt lat="45.88011" lon="4.77696">
        <ele>216</ele>
        <time>2018-02-24T11:51:41Z</time>
      </trkpt>
      <trkpt lat="45.88018" lon="4.77696">
        <ele>216</ele>
        <time>2018-02-24T11:51:42Z</time>
      </trkpt>
      <trkpt lat="45.88024" lon="4.77695">
        <ele>216</ele>
        <time>2018-02-24T11:51:43Z</time>
      </trkpt>
      <trkpt lat="45.88031" lon="4.77694">
        <ele>216</ele>
        <time>2018-02-24T11:51:44Z</time>
      </trkpt>
      <trkpt lat="45.88037" lon="4.77692">
        <ele>216</ele>
        <time>2018-02-24T11:51:45Z</time>
      </trkpt>
      <trkpt lat="45.88044" lon="4.77691">
        <ele>216</ele>
        <time>2018-02-24T11:51:46Z</time>
      </trkpt>
      <trkpt lat="45.8805" lon="4.7769">
        <ele>216</ele>
        <time>2018-02-24T11:51:47Z</time>
      </trkpt>
      <trkpt lat="45.88057" lon="4.77689">
        <ele>216</ele>
        <time>2018-02-24T11:51:48Z</time>
      </trkpt>
      <trkpt lat="45.88063" lon="4.77688">
        <ele>216</ele>
        <time>2018-02-24T11:51:49Z</time>
      </trkpt>
      <trkpt lat="45.88069" lon="4.77686">
        <ele>215</ele>
        <time>2018-02-24T11:51:50Z</time>
      </trkpt>
      <trkpt lat="45.88075" lon="4.77686">
        <ele>215</ele>
        <time>2018-02-24T11:51:51Z</time>
      </trkpt>
      <trkpt lat="45.88081" lon="4.77686">
        <ele>215</ele>
        <time>2018-02-24T11:51:52Z</time>
      </trkpt>
      <trkpt lat="45.88086" lon="4.77685">
        <ele>214</ele>
        <time>2018-02-24T11:51:53Z</time>
      </trkpt>
      <trkpt lat="45.88092" lon="4.77683">
        <ele>214</ele>
        <time>2018-02-24T11:51:54Z</time>
      </trkpt>
      <trkpt lat="45.88098" lon="4.77682">
        <ele>214</ele>
        <time>2018-02-24T11:51:55Z</time>
      </trkpt>
      <trkpt lat="45.88104" lon="4.77682">
        <ele>214</ele>
        <time>2018-02-24T11:51:56Z</time>
      </trkpt>
      <trkpt lat="45.8811" lon="4.77682">
        <ele>214</ele>
        <time>2018-02-24T11:51:57Z</time>
      </trkpt>
      <trkpt lat="45.88117" lon="4.7768">
        <ele>214</ele>
        <time>2018-02-24T11:51:58Z</time>
      </trkpt>
      <trkpt lat="45.88124" lon="4.77678">
        <ele>214</ele>
        <time>2018-02-24T11:51:59Z</time>
      </trkpt>
      <trkpt lat="45.8813" lon="4.77677">
        <ele>214</ele>
        <time>2018-02-24T11:52:00Z</time>
      </trkpt>
      <trkpt lat="45.88136" lon="4.77676">
        <ele>213</ele>
        <time>2018-02-24T11:52:01Z</time>
      </trkpt>
      <trkpt lat="45.88143" lon="4.77674">
        <ele>213</ele>
        <time>2018-02-24T11:52:02Z</time>
      </trkpt>
      <trkpt lat="45.8815" lon="4.77676">
        <ele>213</ele>
        <time>2018-02-24T11:52:03Z</time>
      </trkpt>
      <trkpt lat="45.88156" lon="4.77674">
        <ele>213</ele>
        <time>2018-02-24T11:52:04Z</time>
      </trkpt>
      <trkpt lat="45.88163" lon="4.77673">
        <ele>212</ele>
        <time>2018-02-24T11:52:05Z</time>
      </trkpt>
      <trkpt lat="45.8817" lon="4.77671">
        <ele>212</ele>
        <time>2018-02-24T11:52:06Z</time>
      </trkpt>
      <trkpt lat="45.88176" lon="4.7767">
        <ele>212</ele>
        <time>2018-02-24T11:52:07Z</time>
      </trkpt>
      <trkpt lat="45.88183" lon="4.77668">
        <ele>212</ele>
        <time>2018-02-24T11:52:08Z</time>
      </trkpt>
      <trkpt lat="45.88189" lon="4.77667">
        <ele>212</ele>
        <time>2018-02-24T11:52:09Z</time>
      </trkpt>
      <trkpt lat="45.88196" lon="4.77666">
        <ele>211</ele>
        <time>2018-02-24T11:52:10Z</time>
      </trkpt>
      <trkpt lat="45.88201" lon="4.77665">
        <ele>211</ele>
        <time>2018-02-24T11:52:11Z</time>
      </trkpt>
      <trkpt lat="45.88207" lon="4.77665">
        <ele>211</ele>
        <time>2018-02-24T11:52:12Z</time>
      </trkpt>
      <trkpt lat="45.88213" lon="4.77664">
        <ele>211</ele>
        <time>2018-02-24T11:52:13Z</time>
      </trkpt>
      <trkpt lat="45.88219" lon="4.77663">
        <ele>211</ele>
        <time>2018-02-24T11:52:14Z</time>
      </trkpt>
      <trkpt lat="45.88224" lon="4.77663">
        <ele>211</ele>
        <time>2018-02-24T11:52:15Z</time>
      </trkpt>
      <trkpt lat="45.8823" lon="4.77662">
        <ele>211</ele>
        <time>2018-02-24T11:52:16Z</time>
      </trkpt>
      <trkpt lat="45.88236" lon="4.77661">
        <ele>211</ele>
        <time>2018-02-24T11:52:17Z</time>
      </trkpt>
      <trkpt lat="45.88242" lon="4.77661">
        <ele>211</ele>
        <time>2018-02-24T11:52:18Z</time>
      </trkpt>
      <trkpt lat="45.88246" lon="4.77662">
        <ele>211</ele>
        <time>2018-02-24T11:52:19Z</time>
      </trkpt>
      <trkpt lat="45.88252" lon="4.77663">
        <ele>211</ele>
        <time>2018-02-24T11:52:20Z</time>
      </trkpt>
      <trkpt lat="45.88258" lon="4.77662">
        <ele>210</ele>
        <time>2018-02-24T11:52:21Z</time>
      </trkpt>
      <trkpt lat="45.88264" lon="4.77662">
        <ele>210</ele>
        <time>2018-02-24T11:52:22Z</time>
      </trkpt>
      <trkpt lat="45.88269" lon="4.77661">
        <ele>210</ele>
        <time>2018-02-24T11:52:23Z</time>
      </trkpt>
      <trkpt lat="45.88275" lon="4.77661">
        <ele>210</ele>
        <time>2018-02-24T11:52:24Z</time>
      </trkpt>
      <trkpt lat="45.88281" lon="4.7766">
        <ele>210</ele>
        <time>2018-02-24T11:52:25Z</time>
      </trkpt>
      <trkpt lat="45.88287" lon="4.77659">
        <ele>209</ele>
        <time>2018-02-24T11:52:26Z</time>
      </trkpt>
      <trkpt lat="45.88293" lon="4.77659">
        <ele>209</ele>
        <time>2018-02-24T11:52:27Z</time>
      </trkpt>
      <trkpt lat="45.88299" lon="4.77661">
        <ele>209</ele>
        <time>2018-02-24T11:52:28Z</time>
      </trkpt>
      <trkpt lat="45.88306" lon="4.77661">
        <ele>209</ele>
        <time>2018-02-24T11:52:29Z</time>
      </trkpt>
      <trkpt lat="45.88311" lon="4.77662">
        <ele>209</ele>
        <time>2018-02-24T11:52:30Z</time>
      </trkpt>
      <trkpt lat="45.88318" lon="4.77662">
        <ele>209</ele>
        <time>2018-02-24T11:52:31Z</time>
      </trkpt>
      <trkpt lat="45.88324" lon="4.77662">
        <ele>208</ele>
        <time>2018-02-24T11:52:32Z</time>
      </trkpt>
      <trkpt lat="45.88331" lon="4.7766">
        <ele>208</ele>
        <time>2018-02-24T11:52:33Z</time>
      </trkpt>
      <trkpt lat="45.88337" lon="4.7766">
        <ele>208</ele>
        <time>2018-02-24T11:52:34Z</time>
      </trkpt>
      <trkpt lat="45.88343" lon="4.77661">
        <ele>208</ele>
        <time>2018-02-24T11:52:35Z</time>
      </trkpt>
      <trkpt lat="45.8835" lon="4.77661">
        <ele>208</ele>
        <time>2018-02-24T11:52:36Z</time>
      </trkpt>
      <trkpt lat="45.88356" lon="4.77661">
        <ele>208</ele>
        <time>2018-02-24T11:52:37Z</time>
      </trkpt>
      <trkpt lat="45.88362" lon="4.77662">
        <ele>208</ele>
        <time>2018-02-24T11:52:38Z</time>
      </trkpt>
      <trkpt lat="45.88369" lon="4.77662">
        <ele>207</ele>
        <time>2018-02-24T11:52:39Z</time>
      </trkpt>
      <trkpt lat="45.88375" lon="4.77663">
        <ele>207</ele>
        <time>2018-02-24T11:52:40Z</time>
      </trkpt>
      <trkpt lat="45.88381" lon="4.77663">
        <ele>207</ele>
        <time>2018-02-24T11:52:41Z</time>
      </trkpt>
      <trkpt lat="45.88388" lon="4.77666">
        <ele>207</ele>
        <time>2018-02-24T11:52:42Z</time>
      </trkpt>
      <trkpt lat="45.88395" lon="4.77667">
        <ele>207</ele>
        <time>2018-02-24T11:52:43Z</time>
      </trkpt>
      <trkpt lat="45.88401" lon="4.77668">
        <ele>207</ele>
        <time>2018-02-24T11:52:44Z</time>
      </trkpt>
      <trkpt lat="45.88407" lon="4.77669">
        <ele>207</ele>
        <time>2018-02-24T11:52:45Z</time>
      </trkpt>
      <trkpt lat="45.88413" lon="4.7767">
        <ele>206</ele>
        <time>2018-02-24T11:52:46Z</time>
      </trkpt>
      <trkpt lat="45.88419" lon="4.77671">
        <ele>206</ele>
        <time>2018-02-24T11:52:47Z</time>
      </trkpt>
      <trkpt lat="45.88425" lon="4.77673">
        <ele>206</ele>
        <time>2018-02-24T11:52:48Z</time>
      </trkpt>
      <trkpt lat="45.88431" lon="4.77674">
        <ele>206</ele>
        <time>2018-02-24T11:52:49Z</time>
      </trkpt>
      <trkpt lat="45.88437" lon="4.77675">
        <ele>206</ele>
        <time>2018-02-24T11:52:50Z</time>
      </trkpt>
      <trkpt lat="45.88442" lon="4.77677">
        <ele>206</ele>
        <time>2018-02-24T11:52:51Z</time>
      </trkpt>
      <trkpt lat="45.88448" lon="4.77679">
        <ele>206</ele>
        <time>2018-02-24T11:52:52Z</time>
      </trkpt>
      <trkpt lat="45.88454" lon="4.77679">
        <ele>206</ele>
        <time>2018-02-24T11:52:53Z</time>
      </trkpt>
      <trkpt lat="45.8846" lon="4.7768">
        <ele>206</ele>
        <time>2018-02-24T11:52:54Z</time>
      </trkpt>
      <trkpt lat="45.88465" lon="4.77681">
        <ele>206</ele>
        <time>2018-02-24T11:52:55Z</time>
      </trkpt>
      <trkpt lat="45.88472" lon="4.77683">
        <ele>206</ele>
        <time>2018-02-24T11:52:56Z</time>
      </trkpt>
      <trkpt lat="45.88478" lon="4.77684">
        <ele>206</ele>
        <time>2018-02-24T11:52:57Z</time>
      </trkpt>
      <trkpt lat="45.88484" lon="4.77685">
        <ele>206</ele>
        <time>2018-02-24T11:52:58Z</time>
      </trkpt>
      <trkpt lat="45.8849" lon="4.77686">
        <ele>206</ele>
        <time>2018-02-24T11:52:59Z</time>
      </trkpt>
      <trkpt lat="45.88496" lon="4.77687">
        <ele>206</ele>
        <time>2018-02-24T11:53:00Z</time>
      </trkpt>
      <trkpt lat="45.88502" lon="4.77688">
        <ele>205</ele>
        <time>2018-02-24T11:53:01Z</time>
      </trkpt>
      <trkpt lat="45.88508" lon="4.77688">
        <ele>205</ele>
        <time>2018-02-24T11:53:02Z</time>
      </trkpt>
      <trkpt lat="45.88516" lon="4.7769">
        <ele>205</ele>
        <time>2018-02-24T11:53:03Z</time>
      </trkpt>
      <trkpt lat="45.88522" lon="4.77691">
        <ele>204</ele>
        <time>2018-02-24T11:53:04Z</time>
      </trkpt>
      <trkpt lat="45.8853" lon="4.77692">
        <ele>204</ele>
        <time>2018-02-24T11:53:05Z</time>
      </trkpt>
      <trkpt lat="45.88537" lon="4.77694">
        <ele>204</ele>
        <time>2018-02-24T11:53:06Z</time>
      </trkpt>
      <trkpt lat="45.88544" lon="4.77696">
        <ele>204</ele>
        <time>2018-02-24T11:53:07Z</time>
      </trkpt>
      <trkpt lat="45.8855" lon="4.77698">
        <ele>204</ele>
        <time>2018-02-24T11:53:08Z</time>
      </trkpt>
      <trkpt lat="45.88557" lon="4.777">
        <ele>204</ele>
        <time>2018-02-24T11:53:09Z</time>
      </trkpt>
      <trkpt lat="45.88563" lon="4.77701">
        <ele>204</ele>
        <time>2018-02-24T11:53:10Z</time>
      </trkpt>
      <trkpt lat="45.88569" lon="4.77702">
        <ele>204</ele>
        <time>2018-02-24T11:53:11Z</time>
      </trkpt>
      <trkpt lat="45.88575" lon="4.77704">
        <ele>204</ele>
        <time>2018-02-24T11:53:12Z</time>
      </trkpt>
      <trkpt lat="45.88581" lon="4.77705">
        <ele>204</ele>
        <time>2018-02-24T11:53:13Z</time>
      </trkpt>
      <trkpt lat="45.88587" lon="4.77706">
        <ele>203</ele>
        <time>2018-02-24T11:53:14Z</time>
      </trkpt>
      <trkpt lat="45.88593" lon="4.77707">
        <ele>203</ele>
        <time>2018-02-24T11:53:15Z</time>
      </trkpt>
      <trkpt lat="45.886" lon="4.77709">
        <ele>203</ele>
        <time>2018-02-24T11:53:16Z</time>
      </trkpt>
      <trkpt lat="45.88606" lon="4.77711">
        <ele>203</ele>
        <time>2018-02-24T11:53:17Z</time>
      </trkpt>
      <trkpt lat="45.88613" lon="4.77712">
        <ele>203</ele>
        <time>2018-02-24T11:53:18Z</time>
      </trkpt>
      <trkpt lat="45.8862" lon="4.77714">
        <ele>203</ele>
        <time>2018-02-24T11:53:19Z</time>
      </trkpt>
      <trkpt lat="45.88626" lon="4.77715">
        <ele>203</ele>
        <time>2018-02-24T11:53:20Z</time>
      </trkpt>
      <trkpt lat="45.88632" lon="4.77715">
        <ele>203</ele>
        <time>2018-02-24T11:53:21Z</time>
      </trkpt>
      <trkpt lat="45.88639" lon="4.77716">
        <ele>203</ele>
        <time>2018-02-24T11:53:22Z</time>
      </trkpt>
      <trkpt lat="45.88645" lon="4.77716">
        <ele>203</ele>
        <time>2018-02-24T11:53:23Z</time>
      </trkpt>
      <trkpt lat="45.88651" lon="4.77717">
        <ele>203</ele>
        <time>2018-02-24T11:53:24Z</time>
      </trkpt>
      <trkpt lat="45.88657" lon="4.77718">
        <ele>203</ele>
        <time>2018-02-24T11:53:25Z</time>
      </trkpt>
      <trkpt lat="45.88663" lon="4.77718">
        <ele>203</ele>
        <time>2018-02-24T11:53:26Z</time>
      </trkpt>
      <trkpt lat="45.88669" lon="4.77719">
        <ele>203</ele>
        <time>2018-02-24T11:53:27Z</time>
      </trkpt>
      <trkpt lat="45.88675" lon="4.77719">
        <ele>203</ele>
        <time>2018-02-24T11:53:28Z</time>
      </trkpt>
      <trkpt lat="45.88681" lon="4.77719">
        <ele>203</ele>
        <time>2018-02-24T11:53:29Z</time>
      </trkpt>
      <trkpt lat="45.88687" lon="4.77718">
        <ele>203</ele>
        <time>2018-02-24T11:53:30Z</time>
      </trkpt>
      <trkpt lat="45.88693" lon="4.77718">
        <ele>203</ele>
        <time>2018-02-24T11:53:31Z</time>
      </trkpt>
      <trkpt lat="45.88699" lon="4.77718">
        <ele>203</ele>
        <time>2018-02-24T11:53:32Z</time>
      </trkpt>
      <trkpt lat="45.88705" lon="4.77718">
        <ele>203</ele>
        <time>2018-02-24T11:53:33Z</time>
      </trkpt>
      <trkpt lat="45.88711" lon="4.77718">
        <ele>203</ele>
        <time>2018-02-24T11:53:34Z</time>
      </trkpt>
      <trkpt lat="45.88717" lon="4.77718">
        <ele>203</ele>
        <time>2018-02-24T11:53:35Z</time>
      </trkpt>
      <trkpt lat="45.88722" lon="4.77718">
        <ele>203</ele>
        <time>2018-02-24T11:53:36Z</time>
      </trkpt>
      <trkpt lat="45.88729" lon="4.77718">
        <ele>203</ele>
        <time>2018-02-24T11:53:37Z</time>
      </trkpt>
      <trkpt lat="45.88734" lon="4.77717">
        <ele>203</ele>
        <time>2018-02-24T11:53:38Z</time>
      </trkpt>
      <trkpt lat="45.8874" lon="4.77717">
        <ele>203</ele>
        <time>2018-02-24T11:53:39Z</time>
      </trkpt>
      <trkpt lat="45.88746" lon="4.77717">
        <ele>203</ele>
        <time>2018-02-24T11:53:40Z</time>
      </trkpt>
      <trkpt lat="45.88752" lon="4.77716">
        <ele>202</ele>
        <time>2018-02-24T11:53:41Z</time>
      </trkpt>
      <trkpt lat="45.88758" lon="4.77715">
        <ele>202</ele>
        <time>2018-02-24T11:53:42Z</time>
      </trkpt>
      <trkpt lat="45.88764" lon="4.77716">
        <ele>202</ele>
        <time>2018-02-24T11:53:43Z</time>
      </trkpt>
      <trkpt lat="45.8877" lon="4.77715">
        <ele>202</ele>
        <time>2018-02-24T11:53:44Z</time>
      </trkpt>
      <trkpt lat="45.88776" lon="4.77715">
        <ele>202</ele>
        <time>2018-02-24T11:53:45Z</time>
      </trkpt>
      <trkpt lat="45.88782" lon="4.77714">
        <ele>202</ele>
        <time>2018-02-24T11:53:46Z</time>
      </trkpt>
      <trkpt lat="45.88788" lon="4.77714">
        <ele>202</ele>
        <time>2018-02-24T11:53:47Z</time>
      </trkpt>
      <trkpt lat="45.88794" lon="4.77713">
        <ele>202</ele>
        <time>2018-02-24T11:53:48Z</time>
      </trkpt>
      <trkpt lat="45.888" lon="4.77714">
        <ele>202</ele>
        <time>2018-02-24T11:53:49Z</time>
      </trkpt>
      <trkpt lat="45.88806" lon="4.77713">
        <ele>202</ele>
        <time>2018-02-24T11:53:50Z</time>
      </trkpt>
      <trkpt lat="45.88812" lon="4.77713">
        <ele>202</ele>
        <time>2018-02-24T11:53:51Z</time>
      </trkpt>
      <trkpt lat="45.88818" lon="4.77712">
        <ele>202</ele>
        <time>2018-02-24T11:53:52Z</time>
      </trkpt>
      <trkpt lat="45.88824" lon="4.77712">
        <ele>202</ele>
        <time>2018-02-24T11:53:53Z</time>
      </trkpt>
      <trkpt lat="45.8883" lon="4.77712">
        <ele>201</ele>
        <time>2018-02-24T11:53:54Z</time>
      </trkpt>
      <trkpt lat="45.88836" lon="4.77712">
        <ele>201</ele>
        <time>2018-02-24T11:53:55Z</time>
      </trkpt>
      <trkpt lat="45.88842" lon="4.77711">
        <ele>201</ele>
        <time>2018-02-24T11:53:56Z</time>
      </trkpt>
      <trkpt lat="45.88849" lon="4.7771">
        <ele>201</ele>
        <time>2018-02-24T11:53:57Z</time>
      </trkpt>
      <trkpt lat="45.88856" lon="4.77709">
        <ele>201</ele>
        <time>2018-02-24T11:53:58Z</time>
      </trkpt>
      <trkpt lat="45.88862" lon="4.77708">
        <ele>201</ele>
        <time>2018-02-24T11:53:59Z</time>
      </trkpt>
      <trkpt lat="45.88868" lon="4.77708">
        <ele>201</ele>
        <time>2018-02-24T11:54:00Z</time>
      </trkpt>
      <trkpt lat="45.88875" lon="4.77708">
        <ele>201</ele>
        <time>2018-02-24T11:54:01Z</time>
      </trkpt>
      <trkpt lat="45.88881" lon="4.77708">
        <ele>200</ele>
        <time>2018-02-24T11:54:02Z</time>
      </trkpt>
      <trkpt lat="45.88888" lon="4.77707">
        <ele>200</ele>
        <time>2018-02-24T11:54:03Z</time>
      </trkpt>
      <trkpt lat="45.88894" lon="4.77707">
        <ele>200</ele>
        <time>2018-02-24T11:54:04Z</time>
      </trkpt>
      <trkpt lat="45.88901" lon="4.77706">
        <ele>200</ele>
        <time>2018-02-24T11:54:05Z</time>
      </trkpt>
      <trkpt lat="45.88908" lon="4.77705">
        <ele>200</ele>
        <time>2018-02-24T11:54:06Z</time>
      </trkpt>
      <trkpt lat="45.88914" lon="4.77704">
        <ele>200</ele>
        <time>2018-02-24T11:54:07Z</time>
      </trkpt>
      <trkpt lat="45.88921" lon="4.77702">
        <ele>199</ele>
        <time>2018-02-24T11:54:08Z</time>
      </trkpt>
      <trkpt lat="45.88927" lon="4.777">
        <ele>199</ele>
        <time>2018-02-24T11:54:09Z</time>
      </trkpt>
      <trkpt lat="45.88934" lon="4.77697">
        <ele>199</ele>
        <time>2018-02-24T11:54:10Z</time>
      </trkpt>
      <trkpt lat="45.8894" lon="4.77695">
        <ele>199</ele>
        <time>2018-02-24T11:54:11Z</time>
      </trkpt>
      <trkpt lat="45.88947" lon="4.77693">
        <ele>199</ele>
        <time>2018-02-24T11:54:12Z</time>
      </trkpt>
      <trkpt lat="45.88954" lon="4.7769">
        <ele>199</ele>
        <time>2018-02-24T11:54:13Z</time>
      </trkpt>
      <trkpt lat="45.8896" lon="4.77687">
        <ele>198</ele>
        <time>2018-02-24T11:54:14Z</time>
      </trkpt>
      <trkpt lat="45.88966" lon="4.77684">
        <ele>198</ele>
        <time>2018-02-24T11:54:15Z</time>
      </trkpt>
      <trkpt lat="45.88973" lon="4.77678">
        <ele>198</ele>
        <time>2018-02-24T11:54:16Z</time>
      </trkpt>
      <trkpt lat="45.88979" lon="4.77673">
        <ele>198</ele>
        <time>2018-02-24T11:54:17Z</time>
      </trkpt>
      <trkpt lat="45.88985" lon="4.77669">
        <ele>198</ele>
        <time>2018-02-24T11:54:18Z</time>
      </trkpt>
      <trkpt lat="45.88992" lon="4.77664">
        <ele>197</ele>
        <time>2018-02-24T11:54:19Z</time>
      </trkpt>
      <trkpt lat="45.88997" lon="4.77658">
        <ele>197</ele>
        <time>2018-02-24T11:54:20Z</time>
      </trkpt>
      <trkpt lat="45.89003" lon="4.77654">
        <ele>197</ele>
        <time>2018-02-24T11:54:21Z</time>
      </trkpt>
      <trkpt lat="45.89009" lon="4.77648">
        <ele>197</ele>
        <time>2018-02-24T11:54:22Z</time>
      </trkpt>
      <trkpt lat="45.89015" lon="4.77643">
        <ele>197</ele>
        <time>2018-02-24T11:54:23Z</time>
      </trkpt>
      <trkpt lat="45.89022" lon="4.77639">
        <ele>197</ele>
        <time>2018-02-24T11:54:24Z</time>
      </trkpt>
      <trkpt lat="45.89027" lon="4.77632">
        <ele>197</ele>
        <time>2018-02-24T11:54:25Z</time>
      </trkpt>
      <trkpt lat="45.89033" lon="4.77628">
        <ele>197</ele>
        <time>2018-02-24T11:54:26Z</time>
      </trkpt>
      <trkpt lat="45.89039" lon="4.77624">
        <ele>197</ele>
        <time>2018-02-24T11:54:27Z</time>
      </trkpt>
      <trkpt lat="45.89044" lon="4.77619">
        <ele>197</ele>
        <time>2018-02-24T11:54:28Z</time>
      </trkpt>
      <trkpt lat="45.8905" lon="4.77615">
        <ele>197</ele>
        <time>2018-02-24T11:54:29Z</time>
      </trkpt>
      <trkpt lat="45.89056" lon="4.77609">
        <ele>197</ele>
        <time>2018-02-24T11:54:30Z</time>
      </trkpt>
      <trkpt lat="45.89062" lon="4.77605">
        <ele>197</ele>
        <time>2018-02-24T11:54:31Z</time>
      </trkpt>
      <trkpt lat="45.89068" lon="4.77599">
        <ele>196</ele>
        <time>2018-02-24T11:54:32Z</time>
      </trkpt>
      <trkpt lat="45.89074" lon="4.77593">
        <ele>196</ele>
        <time>2018-02-24T11:54:33Z</time>
      </trkpt>
      <trkpt lat="45.89081" lon="4.77588">
        <ele>196</ele>
        <time>2018-02-24T11:54:34Z</time>
      </trkpt>
      <trkpt lat="45.89086" lon="4.77582">
        <ele>196</ele>
        <time>2018-02-24T11:54:35Z</time>
      </trkpt>
      <trkpt lat="45.89093" lon="4.77577">
        <ele>196</ele>
        <time>2018-02-24T11:54:36Z</time>
      </trkpt>
      <trkpt lat="45.89098" lon="4.77576">
        <ele>196</ele>
        <time>2018-02-24T11:54:37Z</time>
      </trkpt>
      <trkpt lat="45.89105" lon="4.77571">
        <ele>196</ele>
        <time>2018-02-24T11:54:38Z</time>
      </trkpt>
      <trkpt lat="45.89112" lon="4.77565">
        <ele>195</ele>
        <time>2018-02-24T11:54:39Z</time>
      </trkpt>
      <trkpt lat="45.89119" lon="4.77563">
        <ele>195</ele>
        <time>2018-02-24T11:54:40Z</time>
      </trkpt>
      <trkpt lat="45.89127" lon="4.7756">
        <ele>195</ele>
        <time>2018-02-24T11:54:41Z</time>
      </trkpt>
      <trkpt lat="45.89133" lon="4.77557">
        <ele>195</ele>
        <time>2018-02-24T11:54:42Z</time>
      </trkpt>
      <trkpt lat="45.8914" lon="4.77554">
        <ele>195</ele>
        <time>2018-02-24T11:54:43Z</time>
      </trkpt>
      <trkpt lat="45.89147" lon="4.77552">
        <ele>195</ele>
        <time>2018-02-24T11:54:44Z</time>
      </trkpt>
      <trkpt lat="45.89153" lon="4.77551">
        <ele>195</ele>
        <time>2018-02-24T11:54:45Z</time>
      </trkpt>
      <trkpt lat="45.8916" lon="4.77549">
        <ele>195</ele>
        <time>2018-02-24T11:54:46Z</time>
      </trkpt>
      <trkpt lat="45.89166" lon="4.77547">
        <ele>195</ele>
        <time>2018-02-24T11:54:47Z</time>
      </trkpt>
      <trkpt lat="45.89173" lon="4.77544">
        <ele>194</ele>
        <time>2018-02-24T11:54:48Z</time>
      </trkpt>
      <trkpt lat="45.8918" lon="4.77542">
        <ele>194</ele>
        <time>2018-02-24T11:54:49Z</time>
      </trkpt>
      <trkpt lat="45.89186" lon="4.77541">
        <ele>194</ele>
        <time>2018-02-24T11:54:50Z</time>
      </trkpt>
      <trkpt lat="45.89192" lon="4.7754">
        <ele>194</ele>
        <time>2018-02-24T11:54:51Z</time>
      </trkpt>
      <trkpt lat="45.89199" lon="4.77539">
        <ele>194</ele>
        <time>2018-02-24T11:54:52Z</time>
      </trkpt>
      <trkpt lat="45.89205" lon="4.77537">
        <ele>194</ele>
        <time>2018-02-24T11:54:53Z</time>
      </trkpt>
      <trkpt lat="45.89212" lon="4.77535">
        <ele>194</ele>
        <time>2018-02-24T11:54:54Z</time>
      </trkpt>
      <trkpt lat="45.89218" lon="4.77533">
        <ele>194</ele>
        <time>2018-02-24T11:54:55Z</time>
      </trkpt>
      <trkpt lat="45.89225" lon="4.77531">
        <ele>194</ele>
        <time>2018-02-24T11:54:56Z</time>
      </trkpt>
      <trkpt lat="45.89232" lon="4.7753">
        <ele>194</ele>
        <time>2018-02-24T11:54:57Z</time>
      </trkpt>
      <trkpt lat="45.89239" lon="4.77529">
        <ele>193</ele>
        <time>2018-02-24T11:54:58Z</time>
      </trkpt>
      <trkpt lat="45.89245" lon="4.77528">
        <ele>193</ele>
        <time>2018-02-24T11:54:59Z</time>
      </trkpt>
      <trkpt lat="45.89251" lon="4.77527">
        <ele>193</ele>
        <time>2018-02-24T11:55:00Z</time>
      </trkpt>
      <trkpt lat="45.89258" lon="4.77528">
        <ele>193</ele>
        <time>2018-02-24T11:55:01Z</time>
      </trkpt>
      <trkpt lat="45.89264" lon="4.77527">
        <ele>193</ele>
        <time>2018-02-24T11:55:02Z</time>
      </trkpt>
      <trkpt lat="45.8927" lon="4.77527">
        <ele>193</ele>
        <time>2018-02-24T11:55:03Z</time>
      </trkpt>
      <trkpt lat="45.89276" lon="4.77529">
        <ele>193</ele>
        <time>2018-02-24T11:55:04Z</time>
      </trkpt>
      <trkpt lat="45.89282" lon="4.77531">
        <ele>193</ele>
        <time>2018-02-24T11:55:05Z</time>
      </trkpt>
      <trkpt lat="45.89287" lon="4.77533">
        <ele>193</ele>
        <time>2018-02-24T11:55:06Z</time>
      </trkpt>
      <trkpt lat="45.89293" lon="4.77536">
        <ele>194</ele>
        <time>2018-02-24T11:55:07Z</time>
      </trkpt>
      <trkpt lat="45.89299" lon="4.77538">
        <ele>194</ele>
        <time>2018-02-24T11:55:08Z</time>
      </trkpt>
      <trkpt lat="45.89305" lon="4.7754">
        <ele>194</ele>
        <time>2018-02-24T11:55:09Z</time>
      </trkpt>
      <trkpt lat="45.89311" lon="4.77543">
        <ele>194</ele>
        <time>2018-02-24T11:55:10Z</time>
      </trkpt>
      <trkpt lat="45.89317" lon="4.77546">
        <ele>194</ele>
        <time>2018-02-24T11:55:11Z</time>
      </trkpt>
      <trkpt lat="45.89323" lon="4.77549">
        <ele>194</ele>
        <time>2018-02-24T11:55:12Z</time>
      </trkpt>
      <trkpt lat="45.89329" lon="4.77551">
        <ele>194</ele>
        <time>2018-02-24T11:55:13Z</time>
      </trkpt>
      <trkpt lat="45.89335" lon="4.77552">
        <ele>194</ele>
        <time>2018-02-24T11:55:14Z</time>
      </trkpt>
      <trkpt lat="45.89341" lon="4.77553">
        <ele>194</ele>
        <time>2018-02-24T11:55:15Z</time>
      </trkpt>
      <trkpt lat="45.89346" lon="4.77556">
        <ele>194</ele>
        <time>2018-02-24T11:55:16Z</time>
      </trkpt>
      <trkpt lat="45.89352" lon="4.77559">
        <ele>194</ele>
        <time>2018-02-24T11:55:17Z</time>
      </trkpt>
      <trkpt lat="45.89357" lon="4.77562">
        <ele>194</ele>
        <time>2018-02-24T11:55:18Z</time>
      </trkpt>
      <trkpt lat="45.89363" lon="4.77564">
        <ele>194</ele>
        <time>2018-02-24T11:55:19Z</time>
      </trkpt>
      <trkpt lat="45.89368" lon="4.77568">
        <ele>194</ele>
        <time>2018-02-24T11:55:20Z</time>
      </trkpt>
      <trkpt lat="45.89374" lon="4.7757">
        <ele>194</ele>
        <time>2018-02-24T11:55:21Z</time>
      </trkpt>
      <trkpt lat="45.89379" lon="4.77572">
        <ele>194</ele>
        <time>2018-02-24T11:55:22Z</time>
      </trkpt>
      <trkpt lat="45.89384" lon="4.77573">
        <ele>194</ele>
        <time>2018-02-24T11:55:23Z</time>
      </trkpt>
      <trkpt lat="45.8939" lon="4.77576">
        <ele>194</ele>
        <time>2018-02-24T11:55:24Z</time>
      </trkpt>
      <trkpt lat="45.89395" lon="4.77578">
        <ele>194</ele>
        <time>2018-02-24T11:55:25Z</time>
      </trkpt>
      <trkpt lat="45.89401" lon="4.7758">
        <ele>194</ele>
        <time>2018-02-24T11:55:26Z</time>
      </trkpt>
      <trkpt lat="45.89406" lon="4.77582">
        <ele>194</ele>
        <time>2018-02-24T11:55:27Z</time>
      </trkpt>
      <trkpt lat="45.89411" lon="4.77584">
        <ele>194</ele>
        <time>2018-02-24T11:55:28Z</time>
      </trkpt>
      <trkpt lat="45.89417" lon="4.77585">
        <ele>194</ele>
        <time>2018-02-24T11:55:29Z</time>
      </trkpt>
      <trkpt lat="45.89422" lon="4.77588">
        <ele>194</ele>
        <time>2018-02-24T11:55:30Z</time>
      </trkpt>
      <trkpt lat="45.89427" lon="4.7759">
        <ele>194</ele>
        <time>2018-02-24T11:55:31Z</time>
      </trkpt>
      <trkpt lat="45.89431" lon="4.77593">
        <ele>193</ele>
        <time>2018-02-24T11:55:32Z</time>
      </trkpt>
      <trkpt lat="45.89436" lon="4.77595">
        <ele>193</ele>
        <time>2018-02-24T11:55:33Z</time>
      </trkpt>
      <trkpt lat="45.8944" lon="4.77598">
        <ele>193</ele>
        <time>2018-02-24T11:55:34Z</time>
      </trkpt>
      <trkpt lat="45.89444" lon="4.77601">
        <ele>193</ele>
        <time>2018-02-24T11:55:35Z</time>
      </trkpt>
      <trkpt lat="45.89449" lon="4.77603">
        <ele>193</ele>
        <time>2018-02-24T11:55:36Z</time>
      </trkpt>
      <trkpt lat="45.89454" lon="4.77605">
        <ele>193</ele>
        <time>2018-02-24T11:55:37Z</time>
      </trkpt>
      <trkpt lat="45.8946" lon="4.77607">
        <ele>193</ele>
        <time>2018-02-24T11:55:38Z</time>
      </trkpt>
      <trkpt lat="45.89466" lon="4.7761">
        <ele>193</ele>
        <time>2018-02-24T11:55:39Z</time>
      </trkpt>
      <trkpt lat="45.89471" lon="4.77612">
        <ele>193</ele>
        <time>2018-02-24T11:55:40Z</time>
      </trkpt>
      <trkpt lat="45.89477" lon="4.77614">
        <ele>193</ele>
        <time>2018-02-24T11:55:41Z</time>
      </trkpt>
      <trkpt lat="45.89482" lon="4.77616">
        <ele>193</ele>
        <time>2018-02-24T11:55:42Z</time>
      </trkpt>
      <trkpt lat="45.89488" lon="4.77619">
        <ele>193</ele>
        <time>2018-02-24T11:55:43Z</time>
      </trkpt>
      <trkpt lat="45.89493" lon="4.7762">
        <ele>193</ele>
        <time>2018-02-24T11:55:44Z</time>
      </trkpt>
      <trkpt lat="45.89499" lon="4.77622">
        <ele>193</ele>
        <time>2018-02-24T11:55:45Z</time>
      </trkpt>
      <trkpt lat="45.89504" lon="4.77624">
        <ele>192</ele>
        <time>2018-02-24T11:55:46Z</time>
      </trkpt>
      <trkpt lat="45.8951" lon="4.77625">
        <ele>192</ele>
        <time>2018-02-24T11:55:47Z</time>
      </trkpt>
      <trkpt lat="45.89516" lon="4.77627">
        <ele>192</ele>
        <time>2018-02-24T11:55:48Z</time>
      </trkpt>
      <trkpt lat="45.89521" lon="4.77628">
        <ele>192</ele>
        <time>2018-02-24T11:55:49Z</time>
      </trkpt>
      <trkpt lat="45.89527" lon="4.77629">
        <ele>192</ele>
        <time>2018-02-24T11:55:50Z</time>
      </trkpt>
      <trkpt lat="45.89532" lon="4.7763">
        <ele>192</ele>
        <time>2018-02-24T11:55:51Z</time>
      </trkpt>
      <trkpt lat="45.89537" lon="4.77631">
        <ele>192</ele>
        <time>2018-02-24T11:55:52Z</time>
      </trkpt>
      <trkpt lat="45.89542" lon="4.77632">
        <ele>192</ele>
        <time>2018-02-24T11:55:53Z</time>
      </trkpt>
      <trkpt lat="45.89548" lon="4.77634">
        <ele>192</ele>
        <time>2018-02-24T11:55:54Z</time>
      </trkpt>
      <trkpt lat="45.89553" lon="4.77635">
        <ele>192</ele>
        <time>2018-02-24T11:55:55Z</time>
      </trkpt>
      <trkpt lat="45.89559" lon="4.77636">
        <ele>192</ele>
        <time>2018-02-24T11:55:56Z</time>
      </trkpt>
      <trkpt lat="45.89564" lon="4.77637">
        <ele>192</ele>
        <time>2018-02-24T11:55:57Z</time>
      </trkpt>
      <trkpt lat="45.89569" lon="4.77637">
        <ele>192</ele>
        <time>2018-02-24T11:55:58Z</time>
      </trkpt>
      <trkpt lat="45.89575" lon="4.77638">
        <ele>192</ele>
        <time>2018-02-24T11:55:59Z</time>
      </trkpt>
      <trkpt lat="45.8958" lon="4.77638">
        <ele>192</ele>
        <time>2018-02-24T11:56:00Z</time>
      </trkpt>
      <trkpt lat="45.89586" lon="4.77639">
        <ele>191</ele>
        <time>2018-02-24T11:56:01Z</time>
      </trkpt>
      <trkpt lat="45.89591" lon="4.77639">
        <ele>191</ele>
        <time>2018-02-24T11:56:02Z</time>
      </trkpt>
      <trkpt lat="45.89596" lon="4.77639">
        <ele>191</ele>
        <time>2018-02-24T11:56:03Z</time>
      </trkpt>
      <trkpt lat="45.89601" lon="4.77638">
        <ele>191</ele>
        <time>2018-02-24T11:56:04Z</time>
      </trkpt>
      <trkpt lat="45.89607" lon="4.77639">
        <ele>191</ele>
        <time>2018-02-24T11:56:05Z</time>
      </trkpt>
      <trkpt lat="45.89612" lon="4.77639">
        <ele>191</ele>
        <time>2018-02-24T11:56:06Z</time>
      </trkpt>
      <trkpt lat="45.89617" lon="4.7764">
        <ele>191</ele>
        <time>2018-02-24T11:56:07Z</time>
      </trkpt>
      <trkpt lat="45.89622" lon="4.7764">
        <ele>191</ele>
        <time>2018-02-24T11:56:08Z</time>
      </trkpt>
      <trkpt lat="45.89628" lon="4.77641">
        <ele>191</ele>
        <time>2018-02-24T11:56:09Z</time>
      </trkpt>
      <trkpt lat="45.89633" lon="4.77643">
        <ele>190</ele>
        <time>2018-02-24T11:56:10Z</time>
      </trkpt>
      <trkpt lat="45.89639" lon="4.77644">
        <ele>190</ele>
        <time>2018-02-24T11:56:11Z</time>
      </trkpt>
      <trkpt lat="45.89644" lon="4.77644">
        <ele>190</ele>
        <time>2018-02-24T11:56:12Z</time>
      </trkpt>
      <trkpt lat="45.8965" lon="4.77645">
        <ele>190</ele>
        <time>2018-02-24T11:56:13Z</time>
      </trkpt>
      <trkpt lat="45.89656" lon="4.77645">
        <ele>190</ele>
        <time>2018-02-24T11:56:14Z</time>
      </trkpt>
      <trkpt lat="45.89661" lon="4.77646">
        <ele>190</ele>
        <time>2018-02-24T11:56:15Z</time>
      </trkpt>
      <trkpt lat="45.89667" lon="4.77647">
        <ele>190</ele>
        <time>2018-02-24T11:56:16Z</time>
      </trkpt>
      <trkpt lat="45.89672" lon="4.77648">
        <ele>190</ele>
        <time>2018-02-24T11:56:17Z</time>
      </trkpt>
      <trkpt lat="45.89677" lon="4.77649">
        <ele>190</ele>
        <time>2018-02-24T11:56:18Z</time>
      </trkpt>
      <trkpt lat="45.89683" lon="4.77651">
        <ele>190</ele>
        <time>2018-02-24T11:56:19Z</time>
      </trkpt>
      <trkpt lat="45.89688" lon="4.77652">
        <ele>190</ele>
        <time>2018-02-24T11:56:20Z</time>
      </trkpt>
      <trkpt lat="45.89694" lon="4.77653">
        <ele>190</ele>
        <time>2018-02-24T11:56:21Z</time>
      </trkpt>
      <trkpt lat="45.897" lon="4.77654">
        <ele>190</ele>
        <time>2018-02-24T11:56:22Z</time>
      </trkpt>
      <trkpt lat="45.89705" lon="4.77655">
        <ele>190</ele>
        <time>2018-02-24T11:56:23Z</time>
      </trkpt>
      <trkpt lat="45.89711" lon="4.77656">
        <ele>190</ele>
        <time>2018-02-24T11:56:24Z</time>
      </trkpt>
      <trkpt lat="45.89716" lon="4.77657">
        <ele>190</ele>
        <time>2018-02-24T11:56:25Z</time>
      </trkpt>
      <trkpt lat="45.89722" lon="4.77658">
        <ele>190</ele>
        <time>2018-02-24T11:56:26Z</time>
      </trkpt>
      <trkpt lat="45.89728" lon="4.7766">
        <ele>191</ele>
        <time>2018-02-24T11:56:27Z</time>
      </trkpt>
      <trkpt lat="45.89734" lon="4.77661">
        <ele>191</ele>
        <time>2018-02-24T11:56:28Z</time>
      </trkpt>
      <trkpt lat="45.8974" lon="4.77662">
        <ele>191</ele>
        <time>2018-02-24T11:56:29Z</time>
      </trkpt>
      <trkpt lat="45.89746" lon="4.77663">
        <ele>191</ele>
        <time>2018-02-24T11:56:30Z</time>
      </trkpt>
      <trkpt lat="45.89752" lon="4.77664">
        <ele>191</ele>
        <time>2018-02-24T11:56:31Z</time>
      </trkpt>
      <trkpt lat="45.89757" lon="4.77664">
        <ele>191</ele>
        <time>2018-02-24T11:56:32Z</time>
      </trkpt>
      <trkpt lat="45.89763" lon="4.77666">
        <ele>190</ele>
        <time>2018-02-24T11:56:33Z</time>
      </trkpt>
      <trkpt lat="45.89768" lon="4.77666">
        <ele>190</ele>
        <time>2018-02-24T11:56:34Z</time>
      </trkpt>
      <trkpt lat="45.89773" lon="4.77666">
        <ele>190</ele>
        <time>2018-02-24T11:56:35Z</time>
      </trkpt>
      <trkpt lat="45.89778" lon="4.77668">
        <ele>191</ele>
        <time>2018-02-24T11:56:36Z</time>
      </trkpt>
      <trkpt lat="45.89783" lon="4.77668">
        <ele>191</ele>
        <time>2018-02-24T11:56:37Z</time>
      </trkpt>
      <trkpt lat="45.8979" lon="4.77668">
        <ele>191</ele>
        <time>2018-02-24T11:56:38Z</time>
      </trkpt>
      <trkpt lat="45.89795" lon="4.77668">
        <ele>191</ele>
        <time>2018-02-24T11:56:39Z</time>
      </trkpt>
      <trkpt lat="45.89801" lon="4.7767">
        <ele>190</ele>
        <time>2018-02-24T11:56:40Z</time>
      </trkpt>
      <trkpt lat="45.89807" lon="4.77671">
        <ele>190</ele>
        <time>2018-02-24T11:56:41Z</time>
      </trkpt>
      <trkpt lat="45.89814" lon="4.77671">
        <ele>190</ele>
        <time>2018-02-24T11:56:42Z</time>
      </trkpt>
      <trkpt lat="45.8982" lon="4.77671">
        <ele>190</ele>
        <time>2018-02-24T11:56:43Z</time>
      </trkpt>
      <trkpt lat="45.89828" lon="4.77671">
        <ele>189</ele>
        <time>2018-02-24T11:56:44Z</time>
      </trkpt>
      <trkpt lat="45.89834" lon="4.77672">
        <ele>189</ele>
        <time>2018-02-24T11:56:45Z</time>
      </trkpt>
      <trkpt lat="45.89841" lon="4.77672">
        <ele>189</ele>
        <time>2018-02-24T11:56:46Z</time>
      </trkpt>
      <trkpt lat="45.89848" lon="4.77673">
        <ele>189</ele>
        <time>2018-02-24T11:56:47Z</time>
      </trkpt>
      <trkpt lat="45.89854" lon="4.77673">
        <ele>189</ele>
        <time>2018-02-24T11:56:48Z</time>
      </trkpt>
      <trkpt lat="45.89861" lon="4.77673">
        <ele>189</ele>
        <time>2018-02-24T11:56:49Z</time>
      </trkpt>
      <trkpt lat="45.89868" lon="4.77674">
        <ele>189</ele>
        <time>2018-02-24T11:56:50Z</time>
      </trkpt>
      <trkpt lat="45.89875" lon="4.77674">
        <ele>189</ele>
        <time>2018-02-24T11:56:51Z</time>
      </trkpt>
      <trkpt lat="45.89881" lon="4.77674">
        <ele>189</ele>
        <time>2018-02-24T11:56:52Z</time>
      </trkpt>
      <trkpt lat="45.89888" lon="4.77674">
        <ele>189</ele>
        <time>2018-02-24T11:56:53Z</time>
      </trkpt>
      <trkpt lat="45.89893" lon="4.77674">
        <ele>188</ele>
        <time>2018-02-24T11:56:54Z</time>
      </trkpt>
      <trkpt lat="45.899" lon="4.77673">
        <ele>188</ele>
        <time>2018-02-24T11:56:55Z</time>
      </trkpt>
      <trkpt lat="45.89906" lon="4.77673">
        <ele>188</ele>
        <time>2018-02-24T11:56:56Z</time>
      </trkpt>
      <trkpt lat="45.89912" lon="4.77672">
        <ele>188</ele>
        <time>2018-02-24T11:56:57Z</time>
      </trkpt>
      <trkpt lat="45.89919" lon="4.77674">
        <ele>187</ele>
        <time>2018-02-24T11:56:58Z</time>
      </trkpt>
      <trkpt lat="45.89925" lon="4.77673">
        <ele>187</ele>
        <time>2018-02-24T11:56:59Z</time>
      </trkpt>
      <trkpt lat="45.89931" lon="4.77673">
        <ele>187</ele>
        <time>2018-02-24T11:57:00Z</time>
      </trkpt>
      <trkpt lat="45.89937" lon="4.77673">
        <ele>187</ele>
        <time>2018-02-24T11:57:01Z</time>
      </trkpt>
      <trkpt lat="45.89943" lon="4.77673">
        <ele>187</ele>
        <time>2018-02-24T11:57:02Z</time>
      </trkpt>
      <trkpt lat="45.89949" lon="4.77673">
        <ele>187</ele>
        <time>2018-02-24T11:57:03Z</time>
      </trkpt>
      <trkpt lat="45.89954" lon="4.77671">
        <ele>187</ele>
        <time>2018-02-24T11:57:04Z</time>
      </trkpt>
      <trkpt lat="45.8996" lon="4.77672">
        <ele>187</ele>
        <time>2018-02-24T11:57:05Z</time>
      </trkpt>
      <trkpt lat="45.89966" lon="4.77671">
        <ele>187</ele>
        <time>2018-02-24T11:57:06Z</time>
      </trkpt>
      <trkpt lat="45.89973" lon="4.77671">
        <ele>187</ele>
        <time>2018-02-24T11:57:07Z</time>
      </trkpt>
      <trkpt lat="45.89979" lon="4.77671">
        <ele>187</ele>
        <time>2018-02-24T11:57:08Z</time>
      </trkpt>
      <trkpt lat="45.89985" lon="4.77672">
        <ele>187</ele>
        <time>2018-02-24T11:57:09Z</time>
      </trkpt>
      <trkpt lat="45.89991" lon="4.77672">
        <ele>186</ele>
        <time>2018-02-24T11:57:10Z</time>
      </trkpt>
      <trkpt lat="45.89997" lon="4.77673">
        <ele>186</ele>
        <time>2018-02-24T11:57:11Z</time>
      </trkpt>
      <trkpt lat="45.90004" lon="4.77675">
        <ele>186</ele>
        <time>2018-02-24T11:57:12Z</time>
      </trkpt>
      <trkpt lat="45.90011" lon="4.77675">
        <ele>185</ele>
        <time>2018-02-24T11:57:13Z</time>
      </trkpt>
      <trkpt lat="45.90017" lon="4.77675">
        <ele>185</ele>
        <time>2018-02-24T11:57:14Z</time>
      </trkpt>
      <trkpt lat="45.90024" lon="4.77675">
        <ele>185</ele>
        <time>2018-02-24T11:57:15Z</time>
      </trkpt>
      <trkpt lat="45.9003" lon="4.77676">
        <ele>185</ele>
        <time>2018-02-24T11:57:16Z</time>
      </trkpt>
      <trkpt lat="45.90036" lon="4.77677">
        <ele>185</ele>
        <time>2018-02-24T11:57:17Z</time>
      </trkpt>
      <trkpt lat="45.90043" lon="4.77678">
        <ele>185</ele>
        <time>2018-02-24T11:57:18Z</time>
      </trkpt>
      <trkpt lat="45.9005" lon="4.77678">
        <ele>184</ele>
        <time>2018-02-24T11:57:19Z</time>
      </trkpt>
      <trkpt lat="45.90057" lon="4.77679">
        <ele>184</ele>
        <time>2018-02-24T11:57:20Z</time>
      </trkpt>
      <trkpt lat="45.90063" lon="4.77678">
        <ele>184</ele>
        <time>2018-02-24T11:57:21Z</time>
      </trkpt>
      <trkpt lat="45.9007" lon="4.77679">
        <ele>184</ele>
        <time>2018-02-24T11:57:22Z</time>
      </trkpt>
      <trkpt lat="45.90077" lon="4.77679">
        <ele>184</ele>
        <time>2018-02-24T11:57:23Z</time>
      </trkpt>
      <trkpt lat="45.90083" lon="4.77679">
        <ele>184</ele>
        <time>2018-02-24T11:57:24Z</time>
      </trkpt>
      <trkpt lat="45.90089" lon="4.77679">
        <ele>184</ele>
        <time>2018-02-24T11:57:25Z</time>
      </trkpt>
      <trkpt lat="45.90095" lon="4.77678">
        <ele>184</ele>
        <time>2018-02-24T11:57:26Z</time>
      </trkpt>
      <trkpt lat="45.90102" lon="4.77678">
        <ele>184</ele>
        <time>2018-02-24T11:57:27Z</time>
      </trkpt>
      <trkpt lat="45.90108" lon="4.77677">
        <ele>184</ele>
        <time>2018-02-24T11:57:28Z</time>
      </trkpt>
      <trkpt lat="45.90114" lon="4.77677">
        <ele>184</ele>
        <time>2018-02-24T11:57:29Z</time>
      </trkpt>
      <trkpt lat="45.9012" lon="4.77678">
        <ele>184</ele>
        <time>2018-02-24T11:57:30Z</time>
      </trkpt>
      <trkpt lat="45.90125" lon="4.77678">
        <ele>185</ele>
        <time>2018-02-24T11:57:31Z</time>
      </trkpt>
      <trkpt lat="45.90131" lon="4.77677">
        <ele>185</ele>
        <time>2018-02-24T11:57:32Z</time>
      </trkpt>
      <trkpt lat="45.90137" lon="4.77677">
        <ele>185</ele>
        <time>2018-02-24T11:57:33Z</time>
      </trkpt>
      <trkpt lat="45.90143" lon="4.77678">
        <ele>185</ele>
        <time>2018-02-24T11:57:34Z</time>
      </trkpt>
      <trkpt lat="45.90149" lon="4.77676">
        <ele>185</ele>
        <time>2018-02-24T11:57:35Z</time>
      </trkpt>
      <trkpt lat="45.90155" lon="4.77677">
        <ele>185</ele>
        <time>2018-02-24T11:57:36Z</time>
      </trkpt>
      <trkpt lat="45.90161" lon="4.77677">
        <ele>185</ele>
        <time>2018-02-24T11:57:37Z</time>
      </trkpt>
      <trkpt lat="45.90167" lon="4.77677">
        <ele>185</ele>
        <time>2018-02-24T11:57:38Z</time>
      </trkpt>
      <trkpt lat="45.90174" lon="4.77677">
        <ele>185</ele>
        <time>2018-02-24T11:57:39Z</time>
      </trkpt>
      <trkpt lat="45.9018" lon="4.77677">
        <ele>185</ele>
        <time>2018-02-24T11:57:40Z</time>
      </trkpt>
      <trkpt lat="45.90186" lon="4.77678">
        <ele>185</ele>
        <time>2018-02-24T11:57:41Z</time>
      </trkpt>
      <trkpt lat="45.90193" lon="4.77678">
        <ele>185</ele>
        <time>2018-02-24T11:57:42Z</time>
      </trkpt>
      <trkpt lat="45.90199" lon="4.77679">
        <ele>184</ele>
        <time>2018-02-24T11:57:43Z</time>
      </trkpt>
      <trkpt lat="45.90206" lon="4.77678">
        <ele>184</ele>
        <time>2018-02-24T11:57:44Z</time>
      </trkpt>
      <trkpt lat="45.90213" lon="4.77678">
        <ele>184</ele>
        <time>2018-02-24T11:57:45Z</time>
      </trkpt>
      <trkpt lat="45.9022" lon="4.77679">
        <ele>184</ele>
        <time>2018-02-24T11:57:46Z</time>
      </trkpt>
      <trkpt lat="45.90226" lon="4.77679">
        <ele>184</ele>
        <time>2018-02-24T11:57:47Z</time>
      </trkpt>
      <trkpt lat="45.90232" lon="4.77679">
        <ele>183</ele>
        <time>2018-02-24T11:57:48Z</time>
      </trkpt>
      <trkpt lat="45.90239" lon="4.77678">
        <ele>183</ele>
        <time>2018-02-24T11:57:49Z</time>
      </trkpt>
      <trkpt lat="45.90246" lon="4.77679">
        <ele>183</ele>
        <time>2018-02-24T11:57:50Z</time>
      </trkpt>
      <trkpt lat="45.90253" lon="4.7768">
        <ele>182</ele>
        <time>2018-02-24T11:57:51Z</time>
      </trkpt>
      <trkpt lat="45.9026" lon="4.7768">
        <ele>182</ele>
        <time>2018-02-24T11:57:52Z</time>
      </trkpt>
      <trkpt lat="45.90267" lon="4.77679">
        <ele>182</ele>
        <time>2018-02-24T11:57:53Z</time>
      </trkpt>
      <trkpt lat="45.90274" lon="4.7768">
        <ele>182</ele>
        <time>2018-02-24T11:57:54Z</time>
      </trkpt>
      <trkpt lat="45.9028" lon="4.7768">
        <ele>182</ele>
        <time>2018-02-24T11:57:55Z</time>
      </trkpt>
      <trkpt lat="45.90287" lon="4.77679">
        <ele>182</ele>
        <time>2018-02-24T11:57:56Z</time>
      </trkpt>
      <trkpt lat="45.90294" lon="4.77679">
        <ele>182</ele>
        <time>2018-02-24T11:57:57Z</time>
      </trkpt>
      <trkpt lat="45.90301" lon="4.77679">
        <ele>182</ele>
        <time>2018-02-24T11:57:58Z</time>
      </trkpt>
      <trkpt lat="45.90307" lon="4.77678">
        <ele>182</ele>
        <time>2018-02-24T11:57:59Z</time>
      </trkpt>
      <trkpt lat="45.90314" lon="4.77677">
        <ele>182</ele>
        <time>2018-02-24T11:58:00Z</time>
      </trkpt>
      <trkpt lat="45.90321" lon="4.77676">
        <ele>182</ele>
        <time>2018-02-24T11:58:01Z</time>
      </trkpt>
      <trkpt lat="45.90328" lon="4.77674">
        <ele>182</ele>
        <time>2018-02-24T11:58:02Z</time>
      </trkpt>
      <trkpt lat="45.90334" lon="4.77673">
        <ele>182</ele>
        <time>2018-02-24T11:58:03Z</time>
      </trkpt>
      <trkpt lat="45.9034" lon="4.77672">
        <ele>182</ele>
        <time>2018-02-24T11:58:04Z</time>
      </trkpt>
      <trkpt lat="45.90347" lon="4.77672">
        <ele>182</ele>
        <time>2018-02-24T11:58:05Z</time>
      </trkpt>
      <trkpt lat="45.90353" lon="4.77672">
        <ele>182</ele>
        <time>2018-02-24T11:58:06Z</time>
      </trkpt>
      <trkpt lat="45.90359" lon="4.77671">
        <ele>182</ele>
        <time>2018-02-24T11:58:07Z</time>
      </trkpt>
      <trkpt lat="45.90366" lon="4.7767">
        <ele>182</ele>
        <time>2018-02-24T11:58:08Z</time>
      </trkpt>
      <trkpt lat="45.90373" lon="4.77669">
        <ele>182</ele>
        <time>2018-02-24T11:58:09Z</time>
      </trkpt>
      <trkpt lat="45.90379" lon="4.77668">
        <ele>181</ele>
        <time>2018-02-24T11:58:10Z</time>
      </trkpt>
      <trkpt lat="45.90386" lon="4.77667">
        <ele>181</ele>
        <time>2018-02-24T11:58:11Z</time>
      </trkpt>
      <trkpt lat="45.90392" lon="4.77666">
        <ele>181</ele>
        <time>2018-02-24T11:58:12Z</time>
      </trkpt>
      <trkpt lat="45.90399" lon="4.77664">
        <ele>181</ele>
        <time>2018-02-24T11:58:13Z</time>
      </trkpt>
      <trkpt lat="45.90405" lon="4.77663">
        <ele>181</ele>
        <time>2018-02-24T11:58:14Z</time>
      </trkpt>
      <trkpt lat="45.90411" lon="4.77663">
        <ele>181</ele>
        <time>2018-02-24T11:58:15Z</time>
      </trkpt>
      <trkpt lat="45.90418" lon="4.77662">
        <ele>181</ele>
        <time>2018-02-24T11:58:16Z</time>
      </trkpt>
      <trkpt lat="45.90424" lon="4.77661">
        <ele>180</ele>
        <time>2018-02-24T11:58:17Z</time>
      </trkpt>
      <trkpt lat="45.90431" lon="4.7766">
        <ele>180</ele>
        <time>2018-02-24T11:58:18Z</time>
      </trkpt>
      <trkpt lat="45.90437" lon="4.7766">
        <ele>180</ele>
        <time>2018-02-24T11:58:19Z</time>
      </trkpt>
      <trkpt lat="45.90443" lon="4.77658">
        <ele>180</ele>
        <time>2018-02-24T11:58:20Z</time>
      </trkpt>
      <trkpt lat="45.90449" lon="4.77658">
        <ele>179</ele>
        <time>2018-02-24T11:58:21Z</time>
      </trkpt>
      <trkpt lat="45.90456" lon="4.77656">
        <ele>179</ele>
        <time>2018-02-24T11:58:22Z</time>
      </trkpt>
      <trkpt lat="45.90462" lon="4.77655">
        <ele>179</ele>
        <time>2018-02-24T11:58:23Z</time>
      </trkpt>
      <trkpt lat="45.90467" lon="4.77656">
        <ele>179</ele>
        <time>2018-02-24T11:58:24Z</time>
      </trkpt>
      <trkpt lat="45.90473" lon="4.77655">
        <ele>179</ele>
        <time>2018-02-24T11:58:25Z</time>
      </trkpt>
      <trkpt lat="45.9048" lon="4.77653">
        <ele>179</ele>
        <time>2018-02-24T11:58:26Z</time>
      </trkpt>
      <trkpt lat="45.90486" lon="4.77652">
        <ele>179</ele>
        <time>2018-02-24T11:58:27Z</time>
      </trkpt>
      <trkpt lat="45.90492" lon="4.77652">
        <ele>179</ele>
        <time>2018-02-24T11:58:28Z</time>
      </trkpt>
      <trkpt lat="45.90498" lon="4.77651">
        <ele>178</ele>
        <time>2018-02-24T11:58:29Z</time>
      </trkpt>
      <trkpt lat="45.90503" lon="4.77649">
        <ele>178</ele>
        <time>2018-02-24T11:58:30Z</time>
      </trkpt>
      <trkpt lat="45.90509" lon="4.77647">
        <ele>178</ele>
        <time>2018-02-24T11:58:31Z</time>
      </trkpt>
      <trkpt lat="45.90515" lon="4.77646">
        <ele>178</ele>
        <time>2018-02-24T11:58:32Z</time>
      </trkpt>
      <trkpt lat="45.90522" lon="4.77644">
        <ele>178</ele>
        <time>2018-02-24T11:58:33Z</time>
      </trkpt>
      <trkpt lat="45.90528" lon="4.77645">
        <ele>178</ele>
        <time>2018-02-24T11:58:34Z</time>
      </trkpt>
      <trkpt lat="45.90535" lon="4.77644">
        <ele>178</ele>
        <time>2018-02-24T11:58:35Z</time>
      </trkpt>
      <trkpt lat="45.9054" lon="4.77643">
        <ele>178</ele>
        <time>2018-02-24T11:58:36Z</time>
      </trkpt>
      <trkpt lat="45.90547" lon="4.77642">
        <ele>178</ele>
        <time>2018-02-24T11:58:37Z</time>
      </trkpt>
      <trkpt lat="45.90552" lon="4.77642">
        <ele>178</ele>
        <time>2018-02-24T11:58:38Z</time>
      </trkpt>
      <trkpt lat="45.90558" lon="4.77642">
        <ele>178</ele>
        <time>2018-02-24T11:58:39Z</time>
      </trkpt>
      <trkpt lat="45.90564" lon="4.77641">
        <ele>178</ele>
        <time>2018-02-24T11:58:40Z</time>
      </trkpt>
      <trkpt lat="45.90569" lon="4.77639">
        <ele>178</ele>
        <time>2018-02-24T11:58:41Z</time>
      </trkpt>
      <trkpt lat="45.90574" lon="4.77638">
        <ele>178</ele>
        <time>2018-02-24T11:58:42Z</time>
      </trkpt>
      <trkpt lat="45.9058" lon="4.77636">
        <ele>178</ele>
        <time>2018-02-24T11:58:43Z</time>
      </trkpt>
      <trkpt lat="45.90586" lon="4.77636">
        <ele>179</ele>
        <time>2018-02-24T11:58:44Z</time>
      </trkpt>
      <trkpt lat="45.9059" lon="4.77636">
        <ele>179</ele>
        <time>2018-02-24T11:58:45Z</time>
      </trkpt>
      <trkpt lat="45.90595" lon="4.77634">
        <ele>179</ele>
        <time>2018-02-24T11:58:46Z</time>
      </trkpt>
      <trkpt lat="45.906" lon="4.77634">
        <ele>179</ele>
        <time>2018-02-24T11:58:47Z</time>
      </trkpt>
      <trkpt lat="45.90605" lon="4.77633">
        <ele>179</ele>
        <time>2018-02-24T11:58:48Z</time>
      </trkpt>
      <trkpt lat="45.9061" lon="4.77632">
        <ele>179</ele>
        <time>2018-02-24T11:58:49Z</time>
      </trkpt>
      <trkpt lat="45.90616" lon="4.77631">
        <ele>179</ele>
        <time>2018-02-24T11:58:50Z</time>
      </trkpt>
      <trkpt lat="45.90621" lon="4.7763">
        <ele>179</ele>
        <time>2018-02-24T11:58:51Z</time>
      </trkpt>
      <trkpt lat="45.90626" lon="4.77629">
        <ele>179</ele>
        <time>2018-02-24T11:58:52Z</time>
      </trkpt>
      <trkpt lat="45.90631" lon="4.77628">
        <ele>179</ele>
        <time>2018-02-24T11:58:53Z</time>
      </trkpt>
      <trkpt lat="45.90635" lon="4.77629">
        <ele>179</ele>
        <time>2018-02-24T11:58:54Z</time>
      </trkpt>
      <trkpt lat="45.9064" lon="4.77629">
        <ele>179</ele>
        <time>2018-02-24T11:58:55Z</time>
      </trkpt>
      <trkpt lat="45.90644" lon="4.7763">
        <ele>179</ele>
        <time>2018-02-24T11:58:56Z</time>
      </trkpt>
      <trkpt lat="45.90649" lon="4.77631">
        <ele>179</ele>
        <time>2018-02-24T11:58:57Z</time>
      </trkpt>
      <trkpt lat="45.90655" lon="4.7763">
        <ele>179</ele>
        <time>2018-02-24T11:58:59Z</time>
      </trkpt>
      <trkpt lat="45.90659" lon="4.7763">
        <ele>179</ele>
        <time>2018-02-24T11:59:00Z</time>
      </trkpt>
      <trkpt lat="45.90667" lon="4.7763">
        <ele>179</ele>
        <time>2018-02-24T11:59:02Z</time>
      </trkpt>
      <trkpt lat="45.90672" lon="4.7763">
        <ele>179</ele>
        <time>2018-02-24T11:59:03Z</time>
      </trkpt>
      <trkpt lat="45.9068" lon="4.77631">
        <ele>179</ele>
        <time>2018-02-24T11:59:05Z</time>
      </trkpt>
      <trkpt lat="45.90684" lon="4.77631">
        <ele>179</ele>
        <time>2018-02-24T11:59:06Z</time>
      </trkpt>
      <trkpt lat="45.90692" lon="4.77634">
        <ele>179</ele>
        <time>2018-02-24T11:59:08Z</time>
      </trkpt>
      <trkpt lat="45.90696" lon="4.77635">
        <ele>179</ele>
        <time>2018-02-24T11:59:09Z</time>
      </trkpt>
      <trkpt lat="45.90702" lon="4.77636">
        <ele>179</ele>
        <time>2018-02-24T11:59:11Z</time>
      </trkpt>
      <trkpt lat="45.90707" lon="4.77637">
        <ele>179</ele>
        <time>2018-02-24T11:59:12Z</time>
      </trkpt>
      <trkpt lat="45.90715" lon="4.77638">
        <ele>179</ele>
        <time>2018-02-24T11:59:14Z</time>
      </trkpt>
      <trkpt lat="45.90719" lon="4.77639">
        <ele>180</ele>
        <time>2018-02-24T11:59:15Z</time>
      </trkpt>
      <trkpt lat="45.90726" lon="4.77642">
        <ele>180</ele>
        <time>2018-02-24T11:59:17Z</time>
      </trkpt>
      <trkpt lat="45.9073" lon="4.77644">
        <ele>180</ele>
        <time>2018-02-24T11:59:18Z</time>
      </trkpt>
      <trkpt lat="45.90736" lon="4.77648">
        <ele>180</ele>
        <time>2018-02-24T11:59:20Z</time>
      </trkpt>
      <trkpt lat="45.9074" lon="4.77653">
        <ele>180</ele>
        <time>2018-02-24T11:59:21Z</time>
      </trkpt>
      <trkpt lat="45.90744" lon="4.77657">
        <ele>180</ele>
        <time>2018-02-24T11:59:23Z</time>
      </trkpt>
      <trkpt lat="45.9075" lon="4.77662">
        <ele>181</ele>
        <time>2018-02-24T11:59:24Z</time>
      </trkpt>
      <trkpt lat="45.90756" lon="4.77662">
        <ele>180</ele>
        <time>2018-02-24T11:59:26Z</time>
      </trkpt>
      <trkpt lat="45.90761" lon="4.77661">
        <ele>180</ele>
        <time>2018-02-24T11:59:27Z</time>
      </trkpt>
      <trkpt lat="45.90768" lon="4.77661">
        <ele>180</ele>
        <time>2018-02-24T11:59:29Z</time>
      </trkpt>
      <trkpt lat="45.90772" lon="4.77662">
        <ele>180</ele>
        <time>2018-02-24T11:59:30Z</time>
      </trkpt>
      <trkpt lat="45.90779" lon="4.77667">
        <ele>180</ele>
        <time>2018-02-24T11:59:32Z</time>
      </trkpt>
      <trkpt lat="45.90783" lon="4.77668">
        <ele>180</ele>
        <time>2018-02-24T11:59:33Z</time>
      </trkpt>
      <trkpt lat="45.90788" lon="4.77669">
        <ele>180</ele>
        <time>2018-02-24T11:59:34Z</time>
      </trkpt>
      <trkpt lat="45.90793" lon="4.77671">
        <ele>180</ele>
        <time>2018-02-24T11:59:35Z</time>
      </trkpt>
      <trkpt lat="45.90801" lon="4.77674">
        <ele>179</ele>
        <time>2018-02-24T11:59:37Z</time>
      </trkpt>
      <trkpt lat="45.90805" lon="4.77675">
        <ele>179</ele>
        <time>2018-02-24T11:59:38Z</time>
      </trkpt>
      <trkpt lat="45.90814" lon="4.77677">
        <ele>179</ele>
        <time>2018-02-24T11:59:40Z</time>
      </trkpt>
      <trkpt lat="45.90818" lon="4.77678">
        <ele>179</ele>
        <time>2018-02-24T11:59:41Z</time>
      </trkpt>
      <trkpt lat="45.90827" lon="4.77681">
        <ele>179</ele>
        <time>2018-02-24T11:59:43Z</time>
      </trkpt>
      <trkpt lat="45.90831" lon="4.77682">
        <ele>179</ele>
        <time>2018-02-24T11:59:44Z</time>
      </trkpt>
      <trkpt lat="45.90837" lon="4.77686">
        <ele>178</ele>
        <time>2018-02-24T11:59:45Z</time>
      </trkpt>
      <trkpt lat="45.90842" lon="4.77688">
        <ele>178</ele>
        <time>2018-02-24T11:59:46Z</time>
      </trkpt>
      <trkpt lat="45.90847" lon="4.77691">
        <ele>178</ele>
        <time>2018-02-24T11:59:47Z</time>
      </trkpt>
      <trkpt lat="45.90852" lon="4.77694">
        <ele>178</ele>
        <time>2018-02-24T11:59:48Z</time>
      </trkpt>
      <trkpt lat="45.90857" lon="4.77697">
        <ele>178</ele>
        <time>2018-02-24T11:59:49Z</time>
      </trkpt>
      <trkpt lat="45.90863" lon="4.77702">
        <ele>178</ele>
        <time>2018-02-24T11:59:50Z</time>
      </trkpt>
      <trkpt lat="45.90868" lon="4.77707">
        <ele>178</ele>
        <time>2018-02-24T11:59:51Z</time>
      </trkpt>
      <trkpt lat="45.90873" lon="4.77712">
        <ele>178</ele>
        <time>2018-02-24T11:59:52Z</time>
      </trkpt>
      <trkpt lat="45.90879" lon="4.77718">
        <ele>177</ele>
        <time>2018-02-24T11:59:53Z</time>
      </trkpt>
      <trkpt lat="45.90885" lon="4.77724">
        <ele>177</ele>
        <time>2018-02-24T11:59:54Z</time>
      </trkpt>
      <trkpt lat="45.9089" lon="4.7773">
        <ele>177</ele>
        <time>2018-02-24T11:59:55Z</time>
      </trkpt>
      <trkpt lat="45.90896" lon="4.77737">
        <ele>177</ele>
        <time>2018-02-24T11:59:56Z</time>
      </trkpt>
      <trkpt lat="45.90901" lon="4.77745">
        <ele>177</ele>
        <time>2018-02-24T11:59:57Z</time>
      </trkpt>
      <trkpt lat="45.90907" lon="4.77752">
        <ele>176</ele>
        <time>2018-02-24T11:59:58Z</time>
      </trkpt>
      <trkpt lat="45.90911" lon="4.77758">
        <ele>176</ele>
        <time>2018-02-24T11:59:59Z</time>
      </trkpt>
      <trkpt lat="45.90916" lon="4.77764">
        <ele>177</ele>
        <time>2018-02-24T12:00:00Z</time>
      </trkpt>
      <trkpt lat="45.90922" lon="4.77771">
        <ele>177</ele>
        <time>2018-02-24T12:00:01Z</time>
      </trkpt>
      <trkpt lat="45.90928" lon="4.77777">
        <ele>177</ele>
        <time>2018-02-24T12:00:02Z</time>
      </trkpt>
      <trkpt lat="45.90934" lon="4.77783">
        <ele>177</ele>
        <time>2018-02-24T12:00:03Z</time>
      </trkpt>
      <trkpt lat="45.9094" lon="4.77788">
        <ele>177</ele>
        <time>2018-02-24T12:00:04Z</time>
      </trkpt>
      <trkpt lat="45.90946" lon="4.77791">
        <ele>177</ele>
        <time>2018-02-24T12:00:05Z</time>
      </trkpt>
      <trkpt lat="45.90954" lon="4.7779">
        <ele>177</ele>
        <time>2018-02-24T12:00:06Z</time>
      </trkpt>
      <trkpt lat="45.9096" lon="4.7779">
        <ele>177</ele>
        <time>2018-02-24T12:00:07Z</time>
      </trkpt>
      <trkpt lat="45.90966" lon="4.77791">
        <ele>177</ele>
        <time>2018-02-24T12:00:08Z</time>
      </trkpt>
      <trkpt lat="45.90973" lon="4.77789">
        <ele>177</ele>
        <time>2018-02-24T12:00:09Z</time>
      </trkpt>
      <trkpt lat="45.90978" lon="4.77789">
        <ele>177</ele>
        <time>2018-02-24T12:00:10Z</time>
      </trkpt>
      <trkpt lat="45.90985" lon="4.77788">
        <ele>177</ele>
        <time>2018-02-24T12:00:11Z</time>
      </trkpt>
      <trkpt lat="45.90991" lon="4.77788">
        <ele>177</ele>
        <time>2018-02-24T12:00:12Z</time>
      </trkpt>
      <trkpt lat="45.90997" lon="4.77788">
        <ele>177</ele>
        <time>2018-02-24T12:00:13Z</time>
      </trkpt>
      <trkpt lat="45.91002" lon="4.77787">
        <ele>178</ele>
        <time>2018-02-24T12:00:14Z</time>
      </trkpt>
      <trkpt lat="45.91007" lon="4.77785">
        <ele>178</ele>
        <time>2018-02-24T12:00:15Z</time>
      </trkpt>
      <trkpt lat="45.91011" lon="4.77785">
        <ele>178</ele>
        <time>2018-02-24T12:00:16Z</time>
      </trkpt>
      <trkpt lat="45.9102" lon="4.77781">
        <ele>178</ele>
        <time>2018-02-24T12:00:18Z</time>
      </trkpt>
      <trkpt lat="45.91025" lon="4.77779">
        <ele>178</ele>
        <time>2018-02-24T12:00:19Z</time>
      </trkpt>
      <trkpt lat="45.91029" lon="4.77777">
        <ele>178</ele>
        <time>2018-02-24T12:00:20Z</time>
      </trkpt>
      <trkpt lat="45.91034" lon="4.77776">
        <ele>178</ele>
        <time>2018-02-24T12:00:21Z</time>
      </trkpt>
      <trkpt lat="45.9104" lon="4.77774">
        <ele>178</ele>
        <time>2018-02-24T12:00:22Z</time>
      </trkpt>
      <trkpt lat="45.91046" lon="4.77772">
        <ele>178</ele>
        <time>2018-02-24T12:00:23Z</time>
      </trkpt>
      <trkpt lat="45.91051" lon="4.77772">
        <ele>178</ele>
        <time>2018-02-24T12:00:24Z</time>
      </trkpt>
      <trkpt lat="45.91055" lon="4.7777">
        <ele>178</ele>
        <time>2018-02-24T12:00:25Z</time>
      </trkpt>
      <trkpt lat="45.9106" lon="4.77767">
        <ele>178</ele>
        <time>2018-02-24T12:00:26Z</time>
      </trkpt>
      <trkpt lat="45.91064" lon="4.77765">
        <ele>178</ele>
        <time>2018-02-24T12:00:27Z</time>
      </trkpt>
      <trkpt lat="45.91072" lon="4.7776">
        <ele>179</ele>
        <time>2018-02-24T12:00:29Z</time>
      </trkpt>
      <trkpt lat="45.91077" lon="4.77757">
        <ele>179</ele>
        <time>2018-02-24T12:00:30Z</time>
      </trkpt>
      <trkpt lat="45.91081" lon="4.77754">
        <ele>179</ele>
        <time>2018-02-24T12:00:31Z</time>
      </trkpt>
      <trkpt lat="45.91085" lon="4.77751">
        <ele>179</ele>
        <time>2018-02-24T12:00:32Z</time>
      </trkpt>
      <trkpt lat="45.91092" lon="4.77745">
        <ele>178</ele>
        <time>2018-02-24T12:00:34Z</time>
      </trkpt>
      <trkpt lat="45.91099" lon="4.77742">
        <ele>178</ele>
        <time>2018-02-24T12:00:35Z</time>
      </trkpt>
      <trkpt lat="45.91106" lon="4.7774">
        <ele>178</ele>
        <time>2018-02-24T12:00:36Z</time>
      </trkpt>
      <trkpt lat="45.9111" lon="4.77737">
        <ele>178</ele>
        <time>2018-02-24T12:00:37Z</time>
      </trkpt>
      <trkpt lat="45.91115" lon="4.77733">
        <ele>178</ele>
        <time>2018-02-24T12:00:38Z</time>
      </trkpt>
      <trkpt lat="45.91119" lon="4.7773">
        <ele>178</ele>
        <time>2018-02-24T12:00:39Z</time>
      </trkpt>
      <trkpt lat="45.91124" lon="4.77729">
        <ele>178</ele>
        <time>2018-02-24T12:00:40Z</time>
      </trkpt>
      <trkpt lat="45.91129" lon="4.77726">
        <ele>177</ele>
        <time>2018-02-24T12:00:41Z</time>
      </trkpt>
      <trkpt lat="45.91133" lon="4.77724">
        <ele>177</ele>
        <time>2018-02-24T12:00:42Z</time>
      </trkpt>
      <trkpt lat="45.91139" lon="4.77721">
        <ele>177</ele>
        <time>2018-02-24T12:00:43Z</time>
      </trkpt>
      <trkpt lat="45.91144" lon="4.77718">
        <ele>177</ele>
        <time>2018-02-24T12:00:44Z</time>
      </trkpt>
      <trkpt lat="45.9115" lon="4.77715">
        <ele>177</ele>
        <time>2018-02-24T12:00:45Z</time>
      </trkpt>
      <trkpt lat="45.91156" lon="4.77714">
        <ele>177</ele>
        <time>2018-02-24T12:00:47Z</time>
      </trkpt>
      <trkpt lat="45.91161" lon="4.77711">
        <ele>177</ele>
        <time>2018-02-24T12:00:48Z</time>
      </trkpt>
      <trkpt lat="45.91166" lon="4.7771">
        <ele>177</ele>
        <time>2018-02-24T12:00:49Z</time>
      </trkpt>
      <trkpt lat="45.91171" lon="4.77709">
        <ele>177</ele>
        <time>2018-02-24T12:00:50Z</time>
      </trkpt>
      <trkpt lat="45.91176" lon="4.77707">
        <ele>176</ele>
        <time>2018-02-24T12:00:51Z</time>
      </trkpt>
      <trkpt lat="45.91181" lon="4.77705">
        <ele>176</ele>
        <time>2018-02-24T12:00:52Z</time>
      </trkpt>
      <trkpt lat="45.91185" lon="4.77703">
        <ele>176</ele>
        <time>2018-02-24T12:00:53Z</time>
      </trkpt>
      <trkpt lat="45.91191" lon="4.77701">
        <ele>176</ele>
        <time>2018-02-24T12:00:54Z</time>
      </trkpt>
      <trkpt lat="45.91196" lon="4.77701">
        <ele>176</ele>
        <time>2018-02-24T12:00:55Z</time>
      </trkpt>
      <trkpt lat="45.91202" lon="4.777">
        <ele>176</ele>
        <time>2018-02-24T12:00:56Z</time>
      </trkpt>
      <trkpt lat="45.91208" lon="4.77697">
        <ele>176</ele>
        <time>2018-02-24T12:00:57Z</time>
      </trkpt>
      <trkpt lat="45.91216" lon="4.77693">
        <ele>176</ele>
        <time>2018-02-24T12:00:58Z</time>
      </trkpt>
      <trkpt lat="45.91222" lon="4.77692">
        <ele>176</ele>
        <time>2018-02-24T12:00:59Z</time>
      </trkpt>
      <trkpt lat="45.91228" lon="4.77687">
        <ele>176</ele>
        <time>2018-02-24T12:01:00Z</time>
      </trkpt>
      <trkpt lat="45.91234" lon="4.77684">
        <ele>176</ele>
        <time>2018-02-24T12:01:01Z</time>
      </trkpt>
      <trkpt lat="45.9124" lon="4.77683">
        <ele>176</ele>
        <time>2018-02-24T12:01:02Z</time>
      </trkpt>
      <trkpt lat="45.91246" lon="4.77682">
        <ele>176</ele>
        <time>2018-02-24T12:01:03Z</time>
      </trkpt>
      <trkpt lat="45.91252" lon="4.77681">
        <ele>175</ele>
        <time>2018-02-24T12:01:04Z</time>
      </trkpt>
      <trkpt lat="45.91257" lon="4.77681">
        <ele>175</ele>
        <time>2018-02-24T12:01:05Z</time>
      </trkpt>
      <trkpt lat="45.91263" lon="4.77684">
        <ele>176</ele>
        <time>2018-02-24T12:01:06Z</time>
      </trkpt>
      <trkpt lat="45.91268" lon="4.77687">
        <ele>176</ele>
        <time>2018-02-24T12:01:07Z</time>
      </trkpt>
      <trkpt lat="45.91272" lon="4.7769">
        <ele>176</ele>
        <time>2018-02-24T12:01:08Z</time>
      </trkpt>
      <trkpt lat="45.9128" lon="4.77694">
        <ele>176</ele>
        <time>2018-02-24T12:01:10Z</time>
      </trkpt>
      <trkpt lat="45.91284" lon="4.77697">
        <ele>176</ele>
        <time>2018-02-24T12:01:11Z</time>
      </trkpt>
      <trkpt lat="45.91292" lon="4.77703">
        <ele>176</ele>
        <time>2018-02-24T12:01:13Z</time>
      </trkpt>
      <trkpt lat="45.91296" lon="4.77706">
        <ele>176</ele>
        <time>2018-02-24T12:01:14Z</time>
      </trkpt>
      <trkpt lat="45.91301" lon="4.7771">
        <ele>176</ele>
        <time>2018-02-24T12:01:15Z</time>
      </trkpt>
      <trkpt lat="45.91304" lon="4.77714">
        <ele>176</ele>
        <time>2018-02-24T12:01:16Z</time>
      </trkpt>
      <trkpt lat="45.91309" lon="4.77715">
        <ele>176</ele>
        <time>2018-02-24T12:01:17Z</time>
      </trkpt>
      <trkpt lat="45.91314" lon="4.77717">
        <ele>176</ele>
        <time>2018-02-24T12:01:18Z</time>
      </trkpt>
      <trkpt lat="45.91319" lon="4.77718">
        <ele>176</ele>
        <time>2018-02-24T12:01:19Z</time>
      </trkpt>
      <trkpt lat="45.91324" lon="4.77719">
        <ele>176</ele>
        <time>2018-02-24T12:01:20Z</time>
      </trkpt>
      <trkpt lat="45.91329" lon="4.7772">
        <ele>176</ele>
        <time>2018-02-24T12:01:21Z</time>
      </trkpt>
      <trkpt lat="45.91334" lon="4.7772">
        <ele>176</ele>
        <time>2018-02-24T12:01:22Z</time>
      </trkpt>
      <trkpt lat="45.91339" lon="4.77721">
        <ele>176</ele>
        <time>2018-02-24T12:01:23Z</time>
      </trkpt>
      <trkpt lat="45.91344" lon="4.77721">
        <ele>176</ele>
        <time>2018-02-24T12:01:24Z</time>
      </trkpt>
      <trkpt lat="45.91349" lon="4.77722">
        <ele>176</ele>
        <time>2018-02-24T12:01:25Z</time>
      </trkpt>
      <trkpt lat="45.91353" lon="4.77723">
        <ele>176</ele>
        <time>2018-02-24T12:01:26Z</time>
      </trkpt>
      <trkpt lat="45.91361" lon="4.77723">
        <ele>176</ele>
        <time>2018-02-24T12:01:28Z</time>
      </trkpt>
      <trkpt lat="45.91366" lon="4.77724">
        <ele>176</ele>
        <time>2018-02-24T12:01:29Z</time>
      </trkpt>
      <trkpt lat="45.91374" lon="4.77722">
        <ele>176</ele>
        <time>2018-02-24T12:01:31Z</time>
      </trkpt>
      <trkpt lat="45.91378" lon="4.77722">
        <ele>176</ele>
        <time>2018-02-24T12:01:32Z</time>
      </trkpt>
      <trkpt lat="45.91386" lon="4.77721">
        <ele>177</ele>
        <time>2018-02-24T12:01:34Z</time>
      </trkpt>
      <trkpt lat="45.9139" lon="4.77721">
        <ele>177</ele>
        <time>2018-02-24T12:01:35Z</time>
      </trkpt>
      <trkpt lat="45.91396" lon="4.77721">
        <ele>177</ele>
        <time>2018-02-24T12:01:38Z</time>
      </trkpt>
      <trkpt lat="45.91403" lon="4.77722">
        <ele>177</ele>
        <time>2018-02-24T12:01:39Z</time>
      </trkpt>
      <trkpt lat="45.91412" lon="4.7772">
        <ele>177</ele>
        <time>2018-02-24T12:01:41Z</time>
      </trkpt>
      <trkpt lat="45.91417" lon="4.7772">
        <ele>177</ele>
        <time>2018-02-24T12:01:42Z</time>
      </trkpt>
      <trkpt lat="45.91421" lon="4.7772">
        <ele>177</ele>
        <time>2018-02-24T12:01:43Z</time>
      </trkpt>
      <trkpt lat="45.91426" lon="4.77719">
        <ele>177</ele>
        <time>2018-02-24T12:01:44Z</time>
      </trkpt>
      <trkpt lat="45.9143" lon="4.77717">
        <ele>177</ele>
        <time>2018-02-24T12:01:45Z</time>
      </trkpt>
      <trkpt lat="45.91435" lon="4.77716">
        <ele>177</ele>
        <time>2018-02-24T12:01:46Z</time>
      </trkpt>
      <trkpt lat="45.9144" lon="4.77715">
        <ele>177</ele>
        <time>2018-02-24T12:01:47Z</time>
      </trkpt>
      <trkpt lat="45.91444" lon="4.77715">
        <ele>177</ele>
        <time>2018-02-24T12:01:48Z</time>
      </trkpt>
      <trkpt lat="45.91449" lon="4.77713">
        <ele>177</ele>
        <time>2018-02-24T12:01:49Z</time>
      </trkpt>
      <trkpt lat="45.91453" lon="4.77713">
        <ele>177</ele>
        <time>2018-02-24T12:01:50Z</time>
      </trkpt>
      <trkpt lat="45.91462" lon="4.77711">
        <ele>177</ele>
        <time>2018-02-24T12:01:52Z</time>
      </trkpt>
      <trkpt lat="45.91467" lon="4.77709">
        <ele>177</ele>
        <time>2018-02-24T12:01:53Z</time>
      </trkpt>
      <trkpt lat="45.91472" lon="4.77709">
        <ele>177</ele>
        <time>2018-02-24T12:01:54Z</time>
      </trkpt>
      <trkpt lat="45.91476" lon="4.77707">
        <ele>177</ele>
        <time>2018-02-24T12:01:55Z</time>
      </trkpt>
      <trkpt lat="45.91481" lon="4.77708">
        <ele>177</ele>
        <time>2018-02-24T12:01:56Z</time>
      </trkpt>
      <trkpt lat="45.91486" lon="4.77707">
        <ele>177</ele>
        <time>2018-02-24T12:01:57Z</time>
      </trkpt>
      <trkpt lat="45.91494" lon="4.77705">
        <ele>177</ele>
        <time>2018-02-24T12:01:59Z</time>
      </trkpt>
      <trkpt lat="45.91498" lon="4.77705">
        <ele>177</ele>
        <time>2018-02-24T12:02:00Z</time>
      </trkpt>
      <trkpt lat="45.91503" lon="4.77705">
        <ele>176</ele>
        <time>2018-02-24T12:02:01Z</time>
      </trkpt>
      <trkpt lat="45.91508" lon="4.77704">
        <ele>176</ele>
        <time>2018-02-24T12:02:02Z</time>
      </trkpt>
      <trkpt lat="45.91512" lon="4.777">
        <ele>176</ele>
        <time>2018-02-24T12:02:03Z</time>
      </trkpt>
      <trkpt lat="45.91517" lon="4.77697">
        <ele>176</ele>
        <time>2018-02-24T12:02:04Z</time>
      </trkpt>
      <trkpt lat="45.91519" lon="4.77689">
        <ele>176</ele>
        <time>2018-02-24T12:02:05Z</time>
      </trkpt>
      <trkpt lat="45.91523" lon="4.77683">
        <ele>175</ele>
        <time>2018-02-24T12:02:06Z</time>
      </trkpt>
      <trkpt lat="45.91526" lon="4.77676">
        <ele>175</ele>
        <time>2018-02-24T12:02:07Z</time>
      </trkpt>
      <trkpt lat="45.91529" lon="4.77669">
        <ele>175</ele>
        <time>2018-02-24T12:02:08Z</time>
      </trkpt>
      <trkpt lat="45.91533" lon="4.77663">
        <ele>174</ele>
        <time>2018-02-24T12:02:09Z</time>
      </trkpt>
      <trkpt lat="45.91537" lon="4.77657">
        <ele>174</ele>
        <time>2018-02-24T12:02:10Z</time>
      </trkpt>
      <trkpt lat="45.9154" lon="4.77649">
        <ele>174</ele>
        <time>2018-02-24T12:02:11Z</time>
      </trkpt>
      <trkpt lat="45.91544" lon="4.77644">
        <ele>174</ele>
        <time>2018-02-24T12:02:12Z</time>
      </trkpt>
      <trkpt lat="45.91549" lon="4.77639">
        <ele>174</ele>
        <time>2018-02-24T12:02:13Z</time>
      </trkpt>
      <trkpt lat="45.91554" lon="4.77632">
        <ele>174</ele>
        <time>2018-02-24T12:02:14Z</time>
      </trkpt>
      <trkpt lat="45.91558" lon="4.77627">
        <ele>174</ele>
        <time>2018-02-24T12:02:15Z</time>
      </trkpt>
      <trkpt lat="45.91562" lon="4.7762">
        <ele>174</ele>
        <time>2018-02-24T12:02:16Z</time>
      </trkpt>
      <trkpt lat="45.91567" lon="4.77614">
        <ele>174</ele>
        <time>2018-02-24T12:02:17Z</time>
      </trkpt>
      <trkpt lat="45.91571" lon="4.77607">
        <ele>174</ele>
        <time>2018-02-24T12:02:18Z</time>
      </trkpt>
      <trkpt lat="45.91576" lon="4.77599">
        <ele>173</ele>
        <time>2018-02-24T12:02:19Z</time>
      </trkpt>
      <trkpt lat="45.9158" lon="4.77592">
        <ele>173</ele>
        <time>2018-02-24T12:02:20Z</time>
      </trkpt>
      <trkpt lat="45.91585" lon="4.77584">
        <ele>173</ele>
        <time>2018-02-24T12:02:21Z</time>
      </trkpt>
      <trkpt lat="45.91589" lon="4.77576">
        <ele>172</ele>
        <time>2018-02-24T12:02:22Z</time>
      </trkpt>
      <trkpt lat="45.91594" lon="4.77568">
        <ele>172</ele>
        <time>2018-02-24T12:02:23Z</time>
      </trkpt>
      <trkpt lat="45.91598" lon="4.7756">
        <ele>172</ele>
        <time>2018-02-24T12:02:24Z</time>
      </trkpt>
      <trkpt lat="45.91604" lon="4.77556">
        <ele>171</ele>
        <time>2018-02-24T12:02:25Z</time>
      </trkpt>
      <trkpt lat="45.91609" lon="4.77548">
        <ele>171</ele>
        <time>2018-02-24T12:02:26Z</time>
      </trkpt>
      <trkpt lat="45.91613" lon="4.77541">
        <ele>171</ele>
        <time>2018-02-24T12:02:27Z</time>
      </trkpt>
      <trkpt lat="45.91616" lon="4.77535">
        <ele>171</ele>
        <time>2018-02-24T12:02:28Z</time>
      </trkpt>
      <trkpt lat="45.9162" lon="4.77528">
        <ele>171</ele>
        <time>2018-02-24T12:02:29Z</time>
      </trkpt>
      <trkpt lat="45.91624" lon="4.77524">
        <ele>171</ele>
        <time>2018-02-24T12:02:30Z</time>
      </trkpt>
      <trkpt lat="45.91629" lon="4.77516">
        <ele>171</ele>
        <time>2018-02-24T12:02:31Z</time>
      </trkpt>
      <trkpt lat="45.91634" lon="4.77512">
        <ele>171</ele>
        <time>2018-02-24T12:02:32Z</time>
      </trkpt>
      <trkpt lat="45.91638" lon="4.7751">
        <ele>171</ele>
        <time>2018-02-24T12:02:33Z</time>
      </trkpt>
      <trkpt lat="45.91644" lon="4.77508">
        <ele>171</ele>
        <time>2018-02-24T12:02:34Z</time>
      </trkpt>
      <trkpt lat="45.91651" lon="4.77506">
        <ele>170</ele>
        <time>2018-02-24T12:02:36Z</time>
      </trkpt>
      <trkpt lat="45.91654" lon="4.77505">
        <ele>170</ele>
        <time>2018-02-24T12:02:37Z</time>
      </trkpt>
      <trkpt lat="45.91662" lon="4.77501">
        <ele>170</ele>
        <time>2018-02-24T12:02:39Z</time>
      </trkpt>
      <trkpt lat="45.91666" lon="4.77499">
        <ele>170</ele>
        <time>2018-02-24T12:02:40Z</time>
      </trkpt>
      <trkpt lat="45.91675" lon="4.77498">
        <ele>170</ele>
        <time>2018-02-24T12:02:42Z</time>
      </trkpt>
      <trkpt lat="45.91679" lon="4.77498">
        <ele>170</ele>
        <time>2018-02-24T12:02:43Z</time>
      </trkpt>
      <trkpt lat="45.91686" lon="4.77503">
        <ele>170</ele>
        <time>2018-02-24T12:02:45Z</time>
      </trkpt>
      <trkpt lat="45.91691" lon="4.77505">
        <ele>170</ele>
        <time>2018-02-24T12:02:46Z</time>
      </trkpt>
      <trkpt lat="45.91695" lon="4.77507">
        <ele>170</ele>
        <time>2018-02-24T12:02:47Z</time>
      </trkpt>
      <trkpt lat="45.917" lon="4.77506">
        <ele>170</ele>
        <time>2018-02-24T12:02:48Z</time>
      </trkpt>
      <trkpt lat="45.91705" lon="4.77504">
        <ele>170</ele>
        <time>2018-02-24T12:02:49Z</time>
      </trkpt>
      <trkpt lat="45.9171" lon="4.77502">
        <ele>170</ele>
        <time>2018-02-24T12:02:50Z</time>
      </trkpt>
      <trkpt lat="45.91709" lon="4.7749">
        <ele>170</ele>
        <time>2018-02-24T12:02:51Z</time>
      </trkpt>
      <trkpt lat="45.9171" lon="4.77485">
        <ele>170</ele>
        <time>2018-02-24T12:02:52Z</time>
      </trkpt>
      <trkpt lat="45.91708" lon="4.77478">
        <ele>170</ele>
        <time>2018-02-24T12:02:53Z</time>
      </trkpt>
      <trkpt lat="45.91707" lon="4.77471">
        <ele>170</ele>
        <time>2018-02-24T12:02:54Z</time>
      </trkpt>
      <trkpt lat="45.91705" lon="4.77464">
        <ele>170</ele>
        <time>2018-02-24T12:02:55Z</time>
      </trkpt>
      <trkpt lat="45.91704" lon="4.77458">
        <ele>171</ele>
        <time>2018-02-24T12:02:56Z</time>
      </trkpt>
      <trkpt lat="45.91704" lon="4.77449">
        <ele>171</ele>
        <time>2018-02-24T12:02:57Z</time>
      </trkpt>
      <trkpt lat="45.91705" lon="4.77441">
        <ele>171</ele>
        <time>2018-02-24T12:02:58Z</time>
      </trkpt>
      <trkpt lat="45.91707" lon="4.77433">
        <ele>171</ele>
        <time>2018-02-24T12:02:59Z</time>
      </trkpt>
      <trkpt lat="45.91708" lon="4.77425">
        <ele>171</ele>
        <time>2018-02-24T12:03:00Z</time>
      </trkpt>
      <trkpt lat="45.9171" lon="4.77418">
        <ele>171</ele>
        <time>2018-02-24T12:03:01Z</time>
      </trkpt>
      <trkpt lat="45.91712" lon="4.77411">
        <ele>171</ele>
        <time>2018-02-24T12:03:02Z</time>
      </trkpt>
      <trkpt lat="45.91713" lon="4.77402">
        <ele>171</ele>
        <time>2018-02-24T12:03:03Z</time>
      </trkpt>
      <trkpt lat="45.91714" lon="4.77394">
        <ele>171</ele>
        <time>2018-02-24T12:03:04Z</time>
      </trkpt>
      <trkpt lat="45.91715" lon="4.77386">
        <ele>171</ele>
        <time>2018-02-24T12:03:05Z</time>
      </trkpt>
      <trkpt lat="45.91716" lon="4.77378">
        <ele>171</ele>
        <time>2018-02-24T12:03:06Z</time>
      </trkpt>
      <trkpt lat="45.91718" lon="4.77371">
        <ele>171</ele>
        <time>2018-02-24T12:03:07Z</time>
      </trkpt>
      <trkpt lat="45.91719" lon="4.77364">
        <ele>171</ele>
        <time>2018-02-24T12:03:08Z</time>
      </trkpt>
      <trkpt lat="45.91719" lon="4.77357">
        <ele>170</ele>
        <time>2018-02-24T12:03:09Z</time>
      </trkpt>
      <trkpt lat="45.9172" lon="4.77349">
        <ele>170</ele>
        <time>2018-02-24T12:03:10Z</time>
      </trkpt>
      <trkpt lat="45.91721" lon="4.77343">
        <ele>170</ele>
        <time>2018-02-24T12:03:11Z</time>
      </trkpt>
      <trkpt lat="45.91721" lon="4.77335">
        <ele>170</ele>
        <time>2018-02-24T12:03:12Z</time>
      </trkpt>
      <trkpt lat="45.91723" lon="4.77329">
        <ele>170</ele>
        <time>2018-02-24T12:03:13Z</time>
      </trkpt>
      <trkpt lat="45.91724" lon="4.77321">
        <ele>170</ele>
        <time>2018-02-24T12:03:14Z</time>
      </trkpt>
      <trkpt lat="45.91725" lon="4.77314">
        <ele>170</ele>
        <time>2018-02-24T12:03:15Z</time>
      </trkpt>
      <trkpt lat="45.91726" lon="4.77306">
        <ele>170</ele>
        <time>2018-02-24T12:03:16Z</time>
      </trkpt>
      <trkpt lat="45.91727" lon="4.77299">
        <ele>170</ele>
        <time>2018-02-24T12:03:17Z</time>
      </trkpt>
      <trkpt lat="45.91727" lon="4.77293">
        <ele>170</ele>
        <time>2018-02-24T12:03:18Z</time>
      </trkpt>
      <trkpt lat="45.91728" lon="4.7728">
        <ele>170</ele>
        <time>2018-02-24T12:03:20Z</time>
      </trkpt>
      <trkpt lat="45.91728" lon="4.77277">
        <ele>170</ele>
        <time>2018-02-24T12:03:21Z</time>
      </trkpt>
      <trkpt lat="45.91733" lon="4.77268">
        <ele>170</ele>
        <time>2018-02-24T12:03:26Z</time>
      </trkpt>
      <trkpt lat="45.91734" lon="4.77267">
        <ele>170</ele>
        <time>2018-02-24T12:03:27Z</time>
      </trkpt>
      <trkpt lat="45.91733" lon="4.77255">
        <ele>169</ele>
        <time>2018-02-24T12:05:15Z</time>
      </trkpt>
      <trkpt lat="45.91733" lon="4.77253">
        <ele>169</ele>
        <time>2018-02-24T12:05:16Z</time>
      </trkpt>
      <trkpt lat="45.91734" lon="4.7724">
        <ele>169</ele>
        <time>2018-02-24T12:05:27Z</time>
      </trkpt>
      <trkpt lat="45.91735" lon="4.77237">
        <ele>169</ele>
        <time>2018-02-24T12:05:28Z</time>
      </trkpt>
      <trkpt lat="45.91736" lon="4.77227">
        <ele>170</ele>
        <time>2018-02-24T12:05:31Z</time>
      </trkpt>
      <trkpt lat="45.91737" lon="4.77223">
        <ele>170</ele>
        <time>2018-02-24T12:05:32Z</time>
      </trkpt>
      <trkpt lat="45.91738" lon="4.77211">
        <ele>170</ele>
        <time>2018-02-24T12:05:35Z</time>
      </trkpt>
      <trkpt lat="45.91739" lon="4.77207">
        <ele>170</ele>
        <time>2018-02-24T12:05:36Z</time>
      </trkpt>
      <trkpt lat="45.91741" lon="4.77195">
        <ele>170</ele>
        <time>2018-02-24T12:05:37Z</time>
      </trkpt>
      <trkpt lat="45.91742" lon="4.7719">
        <ele>170</ele>
        <time>2018-02-24T12:05:38Z</time>
      </trkpt>
      <trkpt lat="45.91744" lon="4.77179">
        <ele>170</ele>
        <time>2018-02-24T12:05:40Z</time>
      </trkpt>
      <trkpt lat="45.91745" lon="4.77173">
        <ele>170</ele>
        <time>2018-02-24T12:05:41Z</time>
      </trkpt>
      <trkpt lat="45.91746" lon="4.77167">
        <ele>170</ele>
        <time>2018-02-24T12:05:42Z</time>
      </trkpt>
      <trkpt lat="45.91748" lon="4.7716">
        <ele>170</ele>
        <time>2018-02-24T12:05:43Z</time>
      </trkpt>
      <trkpt lat="45.9175" lon="4.77148">
        <ele>170</ele>
        <time>2018-02-24T12:05:45Z</time>
      </trkpt>
      <trkpt lat="45.91751" lon="4.77141">
        <ele>169</ele>
        <time>2018-02-24T12:05:46Z</time>
      </trkpt>
      <trkpt lat="45.91752" lon="4.77134">
        <ele>169</ele>
        <time>2018-02-24T12:05:47Z</time>
      </trkpt>
      <trkpt lat="45.91754" lon="4.77127">
        <ele>169</ele>
        <time>2018-02-24T12:05:48Z</time>
      </trkpt>
      <trkpt lat="45.91755" lon="4.7712">
        <ele>169</ele>
        <time>2018-02-24T12:05:49Z</time>
      </trkpt>
      <trkpt lat="45.91757" lon="4.77113">
        <ele>169</ele>
        <time>2018-02-24T12:05:50Z</time>
      </trkpt>
      <trkpt lat="45.91759" lon="4.77105">
        <ele>169</ele>
        <time>2018-02-24T12:05:51Z</time>
      </trkpt>
      <trkpt lat="45.91759" lon="4.77098">
        <ele>169</ele>
        <time>2018-02-24T12:05:52Z</time>
      </trkpt>
      <trkpt lat="45.9176" lon="4.7709">
        <ele>169</ele>
        <time>2018-02-24T12:05:53Z</time>
      </trkpt>
      <trkpt lat="45.91761" lon="4.77083">
        <ele>169</ele>
        <time>2018-02-24T12:05:54Z</time>
      </trkpt>
      <trkpt lat="45.91762" lon="4.77076">
        <ele>169</ele>
        <time>2018-02-24T12:05:55Z</time>
      </trkpt>
      <trkpt lat="45.91762" lon="4.77069">
        <ele>169</ele>
        <time>2018-02-24T12:05:56Z</time>
      </trkpt>
      <trkpt lat="45.91763" lon="4.77062">
        <ele>169</ele>
        <time>2018-02-24T12:05:57Z</time>
      </trkpt>
      <trkpt lat="45.91765" lon="4.77054">
        <ele>169</ele>
        <time>2018-02-24T12:05:58Z</time>
      </trkpt>
      <trkpt lat="45.91766" lon="4.77046">
        <ele>168</ele>
        <time>2018-02-24T12:05:59Z</time>
      </trkpt>
      <trkpt lat="45.91767" lon="4.7704">
        <ele>168</ele>
        <time>2018-02-24T12:06:00Z</time>
      </trkpt>
      <trkpt lat="45.91768" lon="4.77032">
        <ele>168</ele>
        <time>2018-02-24T12:06:01Z</time>
      </trkpt>
      <trkpt lat="45.91769" lon="4.77024">
        <ele>168</ele>
        <time>2018-02-24T12:06:02Z</time>
      </trkpt>
      <trkpt lat="45.9177" lon="4.77017">
        <ele>168</ele>
        <time>2018-02-24T12:06:03Z</time>
      </trkpt>
      <trkpt lat="45.91771" lon="4.77009">
        <ele>168</ele>
        <time>2018-02-24T12:06:04Z</time>
      </trkpt>
      <trkpt lat="45.91772" lon="4.77002">
        <ele>168</ele>
        <time>2018-02-24T12:06:05Z</time>
      </trkpt>
      <trkpt lat="45.91773" lon="4.76995">
        <ele>169</ele>
        <time>2018-02-24T12:06:06Z</time>
      </trkpt>
      <trkpt lat="45.91774" lon="4.76987">
        <ele>169</ele>
        <time>2018-02-24T12:06:07Z</time>
      </trkpt>
      <trkpt lat="45.91775" lon="4.7698">
        <ele>169</ele>
        <time>2018-02-24T12:06:08Z</time>
      </trkpt>
      <trkpt lat="45.91776" lon="4.76973">
        <ele>169</ele>
        <time>2018-02-24T12:06:09Z</time>
      </trkpt>
      <trkpt lat="45.91776" lon="4.76966">
        <ele>169</ele>
        <time>2018-02-24T12:06:10Z</time>
      </trkpt>
      <trkpt lat="45.91777" lon="4.76958">
        <ele>169</ele>
        <time>2018-02-24T12:06:11Z</time>
      </trkpt>
      <trkpt lat="45.91778" lon="4.7695">
        <ele>169</ele>
        <time>2018-02-24T12:06:12Z</time>
      </trkpt>
      <trkpt lat="45.91779" lon="4.76944">
        <ele>169</ele>
        <time>2018-02-24T12:06:13Z</time>
      </trkpt>
      <trkpt lat="45.91779" lon="4.76937">
        <ele>169</ele>
        <time>2018-02-24T12:06:14Z</time>
      </trkpt>
      <trkpt lat="45.9178" lon="4.76929">
        <ele>169</ele>
        <time>2018-02-24T12:06:15Z</time>
      </trkpt>
      <trkpt lat="45.9178" lon="4.76921">
        <ele>169</ele>
        <time>2018-02-24T12:06:16Z</time>
      </trkpt>
      <trkpt lat="45.91781" lon="4.76912">
        <ele>170</ele>
        <time>2018-02-24T12:06:17Z</time>
      </trkpt>
      <trkpt lat="45.9178" lon="4.76905">
        <ele>170</ele>
        <time>2018-02-24T12:06:18Z</time>
      </trkpt>
      <trkpt lat="45.91781" lon="4.76897">
        <ele>170</ele>
        <time>2018-02-24T12:06:19Z</time>
      </trkpt>
      <trkpt lat="45.91782" lon="4.76889">
        <ele>170</ele>
        <time>2018-02-24T12:06:20Z</time>
      </trkpt>
      <trkpt lat="45.91782" lon="4.76882">
        <ele>170</ele>
        <time>2018-02-24T12:06:21Z</time>
      </trkpt>
      <trkpt lat="45.91782" lon="4.76874">
        <ele>170</ele>
        <time>2018-02-24T12:06:22Z</time>
      </trkpt>
      <trkpt lat="45.91782" lon="4.76866">
        <ele>170</ele>
        <time>2018-02-24T12:06:23Z</time>
      </trkpt>
      <trkpt lat="45.91783" lon="4.76859">
        <ele>170</ele>
        <time>2018-02-24T12:06:24Z</time>
      </trkpt>
      <trkpt lat="45.91783" lon="4.76852">
        <ele>170</ele>
        <time>2018-02-24T12:06:25Z</time>
      </trkpt>
      <trkpt lat="45.91782" lon="4.76846">
        <ele>170</ele>
        <time>2018-02-24T12:06:26Z</time>
      </trkpt>
      <trkpt lat="45.91782" lon="4.76839">
        <ele>170</ele>
        <time>2018-02-24T12:06:27Z</time>
      </trkpt>
      <trkpt lat="45.91781" lon="4.76832">
        <ele>171</ele>
        <time>2018-02-24T12:06:28Z</time>
      </trkpt>
      <trkpt lat="45.91781" lon="4.76824">
        <ele>171</ele>
        <time>2018-02-24T12:06:29Z</time>
      </trkpt>
      <trkpt lat="45.91782" lon="4.76817">
        <ele>171</ele>
        <time>2018-02-24T12:06:30Z</time>
      </trkpt>
      <trkpt lat="45.91782" lon="4.7681">
        <ele>171</ele>
        <time>2018-02-24T12:06:31Z</time>
      </trkpt>
      <trkpt lat="45.91782" lon="4.76802">
        <ele>171</ele>
        <time>2018-02-24T12:06:32Z</time>
      </trkpt>
      <trkpt lat="45.91783" lon="4.76795">
        <ele>171</ele>
        <time>2018-02-24T12:06:33Z</time>
      </trkpt>
      <trkpt lat="45.91783" lon="4.76788">
        <ele>171</ele>
        <time>2018-02-24T12:06:34Z</time>
      </trkpt>
      <trkpt lat="45.91783" lon="4.76781">
        <ele>171</ele>
        <time>2018-02-24T12:06:35Z</time>
      </trkpt>
      <trkpt lat="45.91783" lon="4.76773">
        <ele>171</ele>
        <time>2018-02-24T12:06:36Z</time>
      </trkpt>
      <trkpt lat="45.91784" lon="4.76765">
        <ele>171</ele>
        <time>2018-02-24T12:06:37Z</time>
      </trkpt>
      <trkpt lat="45.91784" lon="4.76758">
        <ele>171</ele>
        <time>2018-02-24T12:06:38Z</time>
      </trkpt>
      <trkpt lat="45.91784" lon="4.7675">
        <ele>171</ele>
        <time>2018-02-24T12:06:39Z</time>
      </trkpt>
      <trkpt lat="45.91784" lon="4.76744">
        <ele>172</ele>
        <time>2018-02-24T12:06:40Z</time>
      </trkpt>
      <trkpt lat="45.91785" lon="4.76736">
        <ele>172</ele>
        <time>2018-02-24T12:06:41Z</time>
      </trkpt>
      <trkpt lat="45.91786" lon="4.76728">
        <ele>172</ele>
        <time>2018-02-24T12:06:42Z</time>
      </trkpt>
      <trkpt lat="45.91786" lon="4.76721">
        <ele>172</ele>
        <time>2018-02-24T12:06:43Z</time>
      </trkpt>
      <trkpt lat="45.91786" lon="4.76714">
        <ele>172</ele>
        <time>2018-02-24T12:06:44Z</time>
      </trkpt>
      <trkpt lat="45.91787" lon="4.76706">
        <ele>172</ele>
        <time>2018-02-24T12:06:45Z</time>
      </trkpt>
      <trkpt lat="45.91788" lon="4.76698">
        <ele>172</ele>
        <time>2018-02-24T12:06:46Z</time>
      </trkpt>
      <trkpt lat="45.91788" lon="4.7669">
        <ele>172</ele>
        <time>2018-02-24T12:06:47Z</time>
      </trkpt>
      <trkpt lat="45.91789" lon="4.76683">
        <ele>172</ele>
        <time>2018-02-24T12:06:48Z</time>
      </trkpt>
      <trkpt lat="45.9179" lon="4.76676">
        <ele>172</ele>
        <time>2018-02-24T12:06:49Z</time>
      </trkpt>
      <trkpt lat="45.91791" lon="4.76669">
        <ele>172</ele>
        <time>2018-02-24T12:06:50Z</time>
      </trkpt>
      <trkpt lat="45.91792" lon="4.76662">
        <ele>173</ele>
        <time>2018-02-24T12:06:51Z</time>
      </trkpt>
      <trkpt lat="45.91792" lon="4.76655">
        <ele>173</ele>
        <time>2018-02-24T12:06:52Z</time>
      </trkpt>
      <trkpt lat="45.91793" lon="4.76649">
        <ele>173</ele>
        <time>2018-02-24T12:06:53Z</time>
      </trkpt>
      <trkpt lat="45.91793" lon="4.76641">
        <ele>173</ele>
        <time>2018-02-24T12:06:54Z</time>
      </trkpt>
      <trkpt lat="45.91794" lon="4.76634">
        <ele>173</ele>
        <time>2018-02-24T12:06:55Z</time>
      </trkpt>
      <trkpt lat="45.91794" lon="4.76628">
        <ele>173</ele>
        <time>2018-02-24T12:06:56Z</time>
      </trkpt>
      <trkpt lat="45.91795" lon="4.76621">
        <ele>173</ele>
        <time>2018-02-24T12:06:57Z</time>
      </trkpt>
      <trkpt lat="45.91796" lon="4.76615">
        <ele>173</ele>
        <time>2018-02-24T12:06:58Z</time>
      </trkpt>
      <trkpt lat="45.91796" lon="4.76609">
        <ele>173</ele>
        <time>2018-02-24T12:06:59Z</time>
      </trkpt>
      <trkpt lat="45.91797" lon="4.76602">
        <ele>173</ele>
        <time>2018-02-24T12:07:00Z</time>
      </trkpt>
      <trkpt lat="45.91798" lon="4.76595">
        <ele>173</ele>
        <time>2018-02-24T12:07:01Z</time>
      </trkpt>
      <trkpt lat="45.91799" lon="4.76588">
        <ele>173</ele>
        <time>2018-02-24T12:07:02Z</time>
      </trkpt>
      <trkpt lat="45.918" lon="4.76581">
        <ele>173</ele>
        <time>2018-02-24T12:07:03Z</time>
      </trkpt>
      <trkpt lat="45.91801" lon="4.76575">
        <ele>173</ele>
        <time>2018-02-24T12:07:04Z</time>
      </trkpt>
      <trkpt lat="45.91801" lon="4.76568">
        <ele>173</ele>
        <time>2018-02-24T12:07:05Z</time>
      </trkpt>
      <trkpt lat="45.91802" lon="4.76561">
        <ele>173</ele>
        <time>2018-02-24T12:07:06Z</time>
      </trkpt>
      <trkpt lat="45.91802" lon="4.76555">
        <ele>173</ele>
        <time>2018-02-24T12:07:07Z</time>
      </trkpt>
      <trkpt lat="45.91803" lon="4.76548">
        <ele>173</ele>
        <time>2018-02-24T12:07:08Z</time>
      </trkpt>
      <trkpt lat="45.91804" lon="4.76536">
        <ele>173</ele>
        <time>2018-02-24T12:07:10Z</time>
      </trkpt>
      <trkpt lat="45.91804" lon="4.76529">
        <ele>173</ele>
        <time>2018-02-24T12:07:11Z</time>
      </trkpt>
      <trkpt lat="45.91805" lon="4.76522">
        <ele>173</ele>
        <time>2018-02-24T12:07:12Z</time>
      </trkpt>
      <trkpt lat="45.91806" lon="4.76515">
        <ele>173</ele>
        <time>2018-02-24T12:07:13Z</time>
      </trkpt>
      <trkpt lat="45.91807" lon="4.76507">
        <ele>173</ele>
        <time>2018-02-24T12:07:14Z</time>
      </trkpt>
      <trkpt lat="45.91807" lon="4.765">
        <ele>173</ele>
        <time>2018-02-24T12:07:15Z</time>
      </trkpt>
      <trkpt lat="45.91808" lon="4.76493">
        <ele>173</ele>
        <time>2018-02-24T12:07:16Z</time>
      </trkpt>
      <trkpt lat="45.91809" lon="4.76486">
        <ele>173</ele>
        <time>2018-02-24T12:07:17Z</time>
      </trkpt>
      <trkpt lat="45.9181" lon="4.76478">
        <ele>173</ele>
        <time>2018-02-24T12:07:18Z</time>
      </trkpt>
      <trkpt lat="45.9181" lon="4.76471">
        <ele>173</ele>
        <time>2018-02-24T12:07:19Z</time>
      </trkpt>
      <trkpt lat="45.9181" lon="4.76463">
        <ele>173</ele>
        <time>2018-02-24T12:07:20Z</time>
      </trkpt>
      <trkpt lat="45.9181" lon="4.76456">
        <ele>173</ele>
        <time>2018-02-24T12:07:21Z</time>
      </trkpt>
      <trkpt lat="45.91811" lon="4.76449">
        <ele>173</ele>
        <time>2018-02-24T12:07:22Z</time>
      </trkpt>
      <trkpt lat="45.91812" lon="4.76442">
        <ele>173</ele>
        <time>2018-02-24T12:07:23Z</time>
      </trkpt>
      <trkpt lat="45.91813" lon="4.76436">
        <ele>173</ele>
        <time>2018-02-24T12:07:24Z</time>
      </trkpt>
      <trkpt lat="45.91813" lon="4.76428">
        <ele>173</ele>
        <time>2018-02-24T12:07:25Z</time>
      </trkpt>
      <trkpt lat="45.91813" lon="4.76421">
        <ele>173</ele>
        <time>2018-02-24T12:07:26Z</time>
      </trkpt>
      <trkpt lat="45.91813" lon="4.76415">
        <ele>173</ele>
        <time>2018-02-24T12:07:27Z</time>
      </trkpt>
      <trkpt lat="45.91814" lon="4.76407">
        <ele>173</ele>
        <time>2018-02-24T12:07:28Z</time>
      </trkpt>
      <trkpt lat="45.91815" lon="4.764">
        <ele>173</ele>
        <time>2018-02-24T12:07:29Z</time>
      </trkpt>
      <trkpt lat="45.91816" lon="4.76394">
        <ele>173</ele>
        <time>2018-02-24T12:07:30Z</time>
      </trkpt>
      <trkpt lat="45.91816" lon="4.76387">
        <ele>173</ele>
        <time>2018-02-24T12:07:31Z</time>
      </trkpt>
      <trkpt lat="45.91816" lon="4.76379">
        <ele>174</ele>
        <time>2018-02-24T12:07:32Z</time>
      </trkpt>
      <trkpt lat="45.91817" lon="4.76371">
        <ele>174</ele>
        <time>2018-02-24T12:07:33Z</time>
      </trkpt>
      <trkpt lat="45.91817" lon="4.76364">
        <ele>174</ele>
        <time>2018-02-24T12:07:34Z</time>
      </trkpt>
      <trkpt lat="45.91818" lon="4.76356">
        <ele>174</ele>
        <time>2018-02-24T12:07:35Z</time>
      </trkpt>
      <trkpt lat="45.91818" lon="4.76348">
        <ele>174</ele>
        <time>2018-02-24T12:07:36Z</time>
      </trkpt>
      <trkpt lat="45.91819" lon="4.7634">
        <ele>173</ele>
        <time>2018-02-24T12:07:37Z</time>
      </trkpt>
      <trkpt lat="45.9182" lon="4.76333">
        <ele>174</ele>
        <time>2018-02-24T12:07:38Z</time>
      </trkpt>
      <trkpt lat="45.91822" lon="4.76326">
        <ele>174</ele>
        <time>2018-02-24T12:07:39Z</time>
      </trkpt>
      <trkpt lat="45.91824" lon="4.76318">
        <ele>174</ele>
        <time>2018-02-24T12:07:40Z</time>
      </trkpt>
      <trkpt lat="45.91825" lon="4.7631">
        <ele>174</ele>
        <time>2018-02-24T12:07:41Z</time>
      </trkpt>
      <trkpt lat="45.91828" lon="4.76302">
        <ele>174</ele>
        <time>2018-02-24T12:07:42Z</time>
      </trkpt>
      <trkpt lat="45.9183" lon="4.76295">
        <ele>174</ele>
        <time>2018-02-24T12:07:43Z</time>
      </trkpt>
      <trkpt lat="45.91832" lon="4.76288">
        <ele>174</ele>
        <time>2018-02-24T12:07:44Z</time>
      </trkpt>
      <trkpt lat="45.91834" lon="4.76281">
        <ele>172</ele>
        <time>2018-02-24T12:07:45Z</time>
      </trkpt>
      <trkpt lat="45.91835" lon="4.76273">
        <ele>172</ele>
        <time>2018-02-24T12:07:46Z</time>
      </trkpt>
      <trkpt lat="45.91837" lon="4.76266">
        <ele>172</ele>
        <time>2018-02-24T12:07:47Z</time>
      </trkpt>
      <trkpt lat="45.91839" lon="4.76258">
        <ele>173</ele>
        <time>2018-02-24T12:07:48Z</time>
      </trkpt>
      <trkpt lat="45.9184" lon="4.76251">
        <ele>173</ele>
        <time>2018-02-24T12:07:49Z</time>
      </trkpt>
      <trkpt lat="45.91842" lon="4.76244">
        <ele>173</ele>
        <time>2018-02-24T12:07:50Z</time>
      </trkpt>
      <trkpt lat="45.91844" lon="4.76237">
        <ele>173</ele>
        <time>2018-02-24T12:07:51Z</time>
      </trkpt>
      <trkpt lat="45.91847" lon="4.7623">
        <ele>172</ele>
        <time>2018-02-24T12:07:52Z</time>
      </trkpt>
      <trkpt lat="45.91849" lon="4.76223">
        <ele>172</ele>
        <time>2018-02-24T12:07:53Z</time>
      </trkpt>
      <trkpt lat="45.91851" lon="4.76216">
        <ele>172</ele>
        <time>2018-02-24T12:07:54Z</time>
      </trkpt>
      <trkpt lat="45.91853" lon="4.76209">
        <ele>172</ele>
        <time>2018-02-24T12:07:55Z</time>
      </trkpt>
      <trkpt lat="45.91855" lon="4.76201">
        <ele>172</ele>
        <time>2018-02-24T12:07:56Z</time>
      </trkpt>
      <trkpt lat="45.91857" lon="4.76194">
        <ele>172</ele>
        <time>2018-02-24T12:07:57Z</time>
      </trkpt>
      <trkpt lat="45.91859" lon="4.76187">
        <ele>172</ele>
        <time>2018-02-24T12:07:58Z</time>
      </trkpt>
      <trkpt lat="45.91861" lon="4.7618">
        <ele>172</ele>
        <time>2018-02-24T12:07:59Z</time>
      </trkpt>
      <trkpt lat="45.91863" lon="4.76172">
        <ele>172</ele>
        <time>2018-02-24T12:08:00Z</time>
      </trkpt>
      <trkpt lat="45.91865" lon="4.76166">
        <ele>173</ele>
        <time>2018-02-24T12:08:01Z</time>
      </trkpt>
      <trkpt lat="45.91867" lon="4.76159">
        <ele>172</ele>
        <time>2018-02-24T12:08:02Z</time>
      </trkpt>
      <trkpt lat="45.91869" lon="4.76152">
        <ele>172</ele>
        <time>2018-02-24T12:08:03Z</time>
      </trkpt>
      <trkpt lat="45.9187" lon="4.76145">
        <ele>172</ele>
        <time>2018-02-24T12:08:04Z</time>
      </trkpt>
      <trkpt lat="45.91871" lon="4.76139">
        <ele>172</ele>
        <time>2018-02-24T12:08:05Z</time>
      </trkpt>
      <trkpt lat="45.91873" lon="4.76133">
        <ele>172</ele>
        <time>2018-02-24T12:08:06Z</time>
      </trkpt>
      <trkpt lat="45.91874" lon="4.76126">
        <ele>173</ele>
        <time>2018-02-24T12:08:07Z</time>
      </trkpt>
      <trkpt lat="45.91876" lon="4.76119">
        <ele>173</ele>
        <time>2018-02-24T12:08:08Z</time>
      </trkpt>
      <trkpt lat="45.91878" lon="4.76112">
        <ele>173</ele>
        <time>2018-02-24T12:08:09Z</time>
      </trkpt>
      <trkpt lat="45.91879" lon="4.76105">
        <ele>173</ele>
        <time>2018-02-24T12:08:10Z</time>
      </trkpt>
      <trkpt lat="45.91881" lon="4.76097">
        <ele>172</ele>
        <time>2018-02-24T12:08:11Z</time>
      </trkpt>
      <trkpt lat="45.91883" lon="4.7609">
        <ele>172</ele>
        <time>2018-02-24T12:08:12Z</time>
      </trkpt>
      <trkpt lat="45.91885" lon="4.76082">
        <ele>173</ele>
        <time>2018-02-24T12:08:13Z</time>
      </trkpt>
      <trkpt lat="45.91887" lon="4.76075">
        <ele>173</ele>
        <time>2018-02-24T12:08:14Z</time>
      </trkpt>
      <trkpt lat="45.91889" lon="4.76068">
        <ele>173</ele>
        <time>2018-02-24T12:08:15Z</time>
      </trkpt>
      <trkpt lat="45.91891" lon="4.7606">
        <ele>173</ele>
        <time>2018-02-24T12:08:16Z</time>
      </trkpt>
      <trkpt lat="45.91892" lon="4.76053">
        <ele>173</ele>
        <time>2018-02-24T12:08:17Z</time>
      </trkpt>
      <trkpt lat="45.91894" lon="4.76045">
        <ele>173</ele>
        <time>2018-02-24T12:08:18Z</time>
      </trkpt>
      <trkpt lat="45.91897" lon="4.76038">
        <ele>173</ele>
        <time>2018-02-24T12:08:19Z</time>
      </trkpt>
      <trkpt lat="45.91899" lon="4.76031">
        <ele>173</ele>
        <time>2018-02-24T12:08:20Z</time>
      </trkpt>
      <trkpt lat="45.919" lon="4.76023">
        <ele>173</ele>
        <time>2018-02-24T12:08:21Z</time>
      </trkpt>
      <trkpt lat="45.91902" lon="4.76015">
        <ele>173</ele>
        <time>2018-02-24T12:08:22Z</time>
      </trkpt>
      <trkpt lat="45.91904" lon="4.76007">
        <ele>173</ele>
        <time>2018-02-24T12:08:23Z</time>
      </trkpt>
      <trkpt lat="45.91907" lon="4.75999">
        <ele>173</ele>
        <time>2018-02-24T12:08:24Z</time>
      </trkpt>
      <trkpt lat="45.91909" lon="4.75991">
        <ele>173</ele>
        <time>2018-02-24T12:08:25Z</time>
      </trkpt>
      <trkpt lat="45.91911" lon="4.75983">
        <ele>173</ele>
        <time>2018-02-24T12:08:26Z</time>
      </trkpt>
      <trkpt lat="45.91913" lon="4.75975">
        <ele>173</ele>
        <time>2018-02-24T12:08:27Z</time>
      </trkpt>
      <trkpt lat="45.91915" lon="4.75967">
        <ele>173</ele>
        <time>2018-02-24T12:08:28Z</time>
      </trkpt>
      <trkpt lat="45.91918" lon="4.75959">
        <ele>172</ele>
        <time>2018-02-24T12:08:29Z</time>
      </trkpt>
      <trkpt lat="45.91921" lon="4.7595">
        <ele>172</ele>
        <time>2018-02-24T12:08:30Z</time>
      </trkpt>
      <trkpt lat="45.91924" lon="4.7594">
        <ele>172</ele>
        <time>2018-02-24T12:08:31Z</time>
      </trkpt>
      <trkpt lat="45.91925" lon="4.75932">
        <ele>172</ele>
        <time>2018-02-24T12:08:32Z</time>
      </trkpt>
      <trkpt lat="45.91927" lon="4.75925">
        <ele>172</ele>
        <time>2018-02-24T12:08:33Z</time>
      </trkpt>
      <trkpt lat="45.91929" lon="4.75915">
        <ele>172</ele>
        <time>2018-02-24T12:08:34Z</time>
      </trkpt>
      <trkpt lat="45.91933" lon="4.75908">
        <ele>172</ele>
        <time>2018-02-24T12:08:35Z</time>
      </trkpt>
      <trkpt lat="45.91937" lon="4.759">
        <ele>172</ele>
        <time>2018-02-24T12:08:36Z</time>
      </trkpt>
      <trkpt lat="45.9194" lon="4.75892">
        <ele>172</ele>
        <time>2018-02-24T12:08:37Z</time>
      </trkpt>
      <trkpt lat="45.91943" lon="4.75884">
        <ele>172</ele>
        <time>2018-02-24T12:08:38Z</time>
      </trkpt>
      <trkpt lat="45.91947" lon="4.75876">
        <ele>172</ele>
        <time>2018-02-24T12:08:39Z</time>
      </trkpt>
      <trkpt lat="45.9195" lon="4.75869">
        <ele>172</ele>
        <time>2018-02-24T12:08:40Z</time>
      </trkpt>
      <trkpt lat="45.91953" lon="4.75863">
        <ele>172</ele>
        <time>2018-02-24T12:08:41Z</time>
      </trkpt>
      <trkpt lat="45.91957" lon="4.75856">
        <ele>172</ele>
        <time>2018-02-24T12:08:42Z</time>
      </trkpt>
      <trkpt lat="45.91962" lon="4.75849">
        <ele>172</ele>
        <time>2018-02-24T12:08:43Z</time>
      </trkpt>
      <trkpt lat="45.91966" lon="4.75842">
        <ele>172</ele>
        <time>2018-02-24T12:08:44Z</time>
      </trkpt>
      <trkpt lat="45.91969" lon="4.75835">
        <ele>172</ele>
        <time>2018-02-24T12:08:45Z</time>
      </trkpt>
      <trkpt lat="45.91973" lon="4.75829">
        <ele>173</ele>
        <time>2018-02-24T12:08:46Z</time>
      </trkpt>
      <trkpt lat="45.91977" lon="4.75822">
        <ele>173</ele>
        <time>2018-02-24T12:08:47Z</time>
      </trkpt>
      <trkpt lat="45.91981" lon="4.75816">
        <ele>173</ele>
        <time>2018-02-24T12:08:48Z</time>
      </trkpt>
      <trkpt lat="45.91984" lon="4.7581">
        <ele>173</ele>
        <time>2018-02-24T12:08:49Z</time>
      </trkpt>
      <trkpt lat="45.91987" lon="4.75804">
        <ele>173</ele>
        <time>2018-02-24T12:08:50Z</time>
      </trkpt>
      <trkpt lat="45.9199" lon="4.75798">
        <ele>173</ele>
        <time>2018-02-24T12:08:51Z</time>
      </trkpt>
      <trkpt lat="45.91994" lon="4.75791">
        <ele>173</ele>
        <time>2018-02-24T12:08:52Z</time>
      </trkpt>
      <trkpt lat="45.91997" lon="4.75785">
        <ele>173</ele>
        <time>2018-02-24T12:08:53Z</time>
      </trkpt>
      <trkpt lat="45.92" lon="4.75779">
        <ele>174</ele>
        <time>2018-02-24T12:08:54Z</time>
      </trkpt>
      <trkpt lat="45.92003" lon="4.75772">
        <ele>173</ele>
        <time>2018-02-24T12:08:55Z</time>
      </trkpt>
      <trkpt lat="45.92006" lon="4.75766">
        <ele>173</ele>
        <time>2018-02-24T12:08:56Z</time>
      </trkpt>
      <trkpt lat="45.92009" lon="4.7576">
        <ele>174</ele>
        <time>2018-02-24T12:08:57Z</time>
      </trkpt>
      <trkpt lat="45.92012" lon="4.75754">
        <ele>174</ele>
        <time>2018-02-24T12:08:58Z</time>
      </trkpt>
      <trkpt lat="45.92015" lon="4.75748">
        <ele>174</ele>
        <time>2018-02-24T12:08:59Z</time>
      </trkpt>
      <trkpt lat="45.92019" lon="4.75741">
        <ele>174</ele>
        <time>2018-02-24T12:09:00Z</time>
      </trkpt>
      <trkpt lat="45.92022" lon="4.75735">
        <ele>175</ele>
        <time>2018-02-24T12:09:01Z</time>
      </trkpt>
      <trkpt lat="45.92025" lon="4.75729">
        <ele>175</ele>
        <time>2018-02-24T12:09:02Z</time>
      </trkpt>
      <trkpt lat="45.92028" lon="4.75723">
        <ele>175</ele>
        <time>2018-02-24T12:09:03Z</time>
      </trkpt>
      <trkpt lat="45.92031" lon="4.75716">
        <ele>175</ele>
        <time>2018-02-24T12:09:04Z</time>
      </trkpt>
      <trkpt lat="45.92035" lon="4.75709">
        <ele>175</ele>
        <time>2018-02-24T12:09:05Z</time>
      </trkpt>
      <trkpt lat="45.92039" lon="4.75703">
        <ele>175</ele>
        <time>2018-02-24T12:09:06Z</time>
      </trkpt>
      <trkpt lat="45.92042" lon="4.75697">
        <ele>175</ele>
        <time>2018-02-24T12:09:07Z</time>
      </trkpt>
      <trkpt lat="45.92046" lon="4.75691">
        <ele>175</ele>
        <time>2018-02-24T12:09:08Z</time>
      </trkpt>
      <trkpt lat="45.92049" lon="4.75686">
        <ele>175</ele>
        <time>2018-02-24T12:09:09Z</time>
      </trkpt>
      <trkpt lat="45.92052" lon="4.75681">
        <ele>175</ele>
        <time>2018-02-24T12:09:10Z</time>
      </trkpt>
      <trkpt lat="45.92056" lon="4.75674">
        <ele>175</ele>
        <time>2018-02-24T12:09:11Z</time>
      </trkpt>
      <trkpt lat="45.9206" lon="4.75669">
        <ele>175</ele>
        <time>2018-02-24T12:09:12Z</time>
      </trkpt>
      <trkpt lat="45.92063" lon="4.75662">
        <ele>175</ele>
        <time>2018-02-24T12:09:13Z</time>
      </trkpt>
      <trkpt lat="45.92067" lon="4.75656">
        <ele>175</ele>
        <time>2018-02-24T12:09:14Z</time>
      </trkpt>
      <trkpt lat="45.9207" lon="4.7565">
        <ele>175</ele>
        <time>2018-02-24T12:09:15Z</time>
      </trkpt>
      <trkpt lat="45.92073" lon="4.75643">
        <ele>175</ele>
        <time>2018-02-24T12:09:16Z</time>
      </trkpt>
      <trkpt lat="45.92077" lon="4.75636">
        <ele>175</ele>
        <time>2018-02-24T12:09:17Z</time>
      </trkpt>
      <trkpt lat="45.92081" lon="4.7563">
        <ele>175</ele>
        <time>2018-02-24T12:09:18Z</time>
      </trkpt>
      <trkpt lat="45.92084" lon="4.75623">
        <ele>174</ele>
        <time>2018-02-24T12:09:19Z</time>
      </trkpt>
      <trkpt lat="45.92088" lon="4.75617">
        <ele>174</ele>
        <time>2018-02-24T12:09:20Z</time>
      </trkpt>
      <trkpt lat="45.92091" lon="4.75612">
        <ele>174</ele>
        <time>2018-02-24T12:09:21Z</time>
      </trkpt>
      <trkpt lat="45.92094" lon="4.75606">
        <ele>174</ele>
        <time>2018-02-24T12:09:22Z</time>
      </trkpt>
      <trkpt lat="45.92098" lon="4.75599">
        <ele>174</ele>
        <time>2018-02-24T12:09:23Z</time>
      </trkpt>
      <trkpt lat="45.921" lon="4.75593">
        <ele>174</ele>
        <time>2018-02-24T12:09:24Z</time>
      </trkpt>
      <trkpt lat="45.92103" lon="4.75587">
        <ele>174</ele>
        <time>2018-02-24T12:09:25Z</time>
      </trkpt>
      <trkpt lat="45.92105" lon="4.75581">
        <ele>174</ele>
        <time>2018-02-24T12:09:26Z</time>
      </trkpt>
      <trkpt lat="45.92109" lon="4.75576">
        <ele>174</ele>
        <time>2018-02-24T12:09:27Z</time>
      </trkpt>
      <trkpt lat="45.92112" lon="4.75571">
        <ele>174</ele>
        <time>2018-02-24T12:09:28Z</time>
      </trkpt>
      <trkpt lat="45.92116" lon="4.75564">
        <ele>174</ele>
        <time>2018-02-24T12:09:29Z</time>
      </trkpt>
      <trkpt lat="45.92119" lon="4.75557">
        <ele>174</ele>
        <time>2018-02-24T12:09:30Z</time>
      </trkpt>
      <trkpt lat="45.92123" lon="4.75551">
        <ele>174</ele>
        <time>2018-02-24T12:09:31Z</time>
      </trkpt>
      <trkpt lat="45.92126" lon="4.75546">
        <ele>174</ele>
        <time>2018-02-24T12:09:32Z</time>
      </trkpt>
      <trkpt lat="45.92129" lon="4.75541">
        <ele>174</ele>
        <time>2018-02-24T12:09:33Z</time>
      </trkpt>
      <trkpt lat="45.92132" lon="4.75536">
        <ele>174</ele>
        <time>2018-02-24T12:09:34Z</time>
      </trkpt>
      <trkpt lat="45.92136" lon="4.7553">
        <ele>174</ele>
        <time>2018-02-24T12:09:35Z</time>
      </trkpt>
      <trkpt lat="45.92139" lon="4.75524">
        <ele>174</ele>
        <time>2018-02-24T12:09:36Z</time>
      </trkpt>
      <trkpt lat="45.92142" lon="4.75518">
        <ele>174</ele>
        <time>2018-02-24T12:09:37Z</time>
      </trkpt>
      <trkpt lat="45.92145" lon="4.75512">
        <ele>175</ele>
        <time>2018-02-24T12:09:38Z</time>
      </trkpt>
      <trkpt lat="45.92148" lon="4.75506">
        <ele>175</ele>
        <time>2018-02-24T12:09:39Z</time>
      </trkpt>
      <trkpt lat="45.92151" lon="4.755">
        <ele>175</ele>
        <time>2018-02-24T12:09:40Z</time>
      </trkpt>
      <trkpt lat="45.92153" lon="4.75494">
        <ele>175</ele>
        <time>2018-02-24T12:09:41Z</time>
      </trkpt>
      <trkpt lat="45.92155" lon="4.75487">
        <ele>176</ele>
        <time>2018-02-24T12:09:42Z</time>
      </trkpt>
      <trkpt lat="45.92157" lon="4.7548">
        <ele>176</ele>
        <time>2018-02-24T12:09:43Z</time>
      </trkpt>
      <trkpt lat="45.9216" lon="4.75474">
        <ele>176</ele>
        <time>2018-02-24T12:09:44Z</time>
      </trkpt>
      <trkpt lat="45.92162" lon="4.75468">
        <ele>176</ele>
        <time>2018-02-24T12:09:45Z</time>
      </trkpt>
      <trkpt lat="45.92166" lon="4.7546">
        <ele>176</ele>
        <time>2018-02-24T12:09:46Z</time>
      </trkpt>
      <trkpt lat="45.92168" lon="4.75455">
        <ele>176</ele>
        <time>2018-02-24T12:09:47Z</time>
      </trkpt>
      <trkpt lat="45.92171" lon="4.75449">
        <ele>176</ele>
        <time>2018-02-24T12:09:48Z</time>
      </trkpt>
      <trkpt lat="45.92174" lon="4.75441">
        <ele>177</ele>
        <time>2018-02-24T12:09:49Z</time>
      </trkpt>
      <trkpt lat="45.92175" lon="4.75435">
        <ele>177</ele>
        <time>2018-02-24T12:09:50Z</time>
      </trkpt>
      <trkpt lat="45.92177" lon="4.75428">
        <ele>177</ele>
        <time>2018-02-24T12:09:51Z</time>
      </trkpt>
      <trkpt lat="45.92179" lon="4.75422">
        <ele>177</ele>
        <time>2018-02-24T12:09:52Z</time>
      </trkpt>
      <trkpt lat="45.92181" lon="4.75414">
        <ele>177</ele>
        <time>2018-02-24T12:09:53Z</time>
      </trkpt>
      <trkpt lat="45.92184" lon="4.75408">
        <ele>177</ele>
        <time>2018-02-24T12:09:54Z</time>
      </trkpt>
      <trkpt lat="45.92186" lon="4.75401">
        <ele>177</ele>
        <time>2018-02-24T12:09:55Z</time>
      </trkpt>
      <trkpt lat="45.92189" lon="4.75395">
        <ele>177</ele>
        <time>2018-02-24T12:09:56Z</time>
      </trkpt>
      <trkpt lat="45.92191" lon="4.75387">
        <ele>177</ele>
        <time>2018-02-24T12:09:57Z</time>
      </trkpt>
      <trkpt lat="45.92193" lon="4.75382">
        <ele>177</ele>
        <time>2018-02-24T12:09:58Z</time>
      </trkpt>
      <trkpt lat="45.92195" lon="4.75375">
        <ele>177</ele>
        <time>2018-02-24T12:09:59Z</time>
      </trkpt>
      <trkpt lat="45.92198" lon="4.7537">
        <ele>177</ele>
        <time>2018-02-24T12:10:00Z</time>
      </trkpt>
      <trkpt lat="45.922" lon="4.75363">
        <ele>177</ele>
        <time>2018-02-24T12:10:01Z</time>
      </trkpt>
      <trkpt lat="45.92202" lon="4.75357">
        <ele>177</ele>
        <time>2018-02-24T12:10:02Z</time>
      </trkpt>
      <trkpt lat="45.92205" lon="4.7535">
        <ele>177</ele>
        <time>2018-02-24T12:10:03Z</time>
      </trkpt>
      <trkpt lat="45.92207" lon="4.75342">
        <ele>177</ele>
        <time>2018-02-24T12:10:04Z</time>
      </trkpt>
      <trkpt lat="45.92206" lon="4.75333">
        <ele>176</ele>
        <time>2018-02-24T12:10:05Z</time>
      </trkpt>
      <trkpt lat="45.92209" lon="4.75325">
        <ele>176</ele>
        <time>2018-02-24T12:10:06Z</time>
      </trkpt>
      <trkpt lat="45.92211" lon="4.75317">
        <ele>176</ele>
        <time>2018-02-24T12:10:07Z</time>
      </trkpt>
      <trkpt lat="45.9221" lon="4.7531">
        <ele>176</ele>
        <time>2018-02-24T12:10:08Z</time>
      </trkpt>
      <trkpt lat="45.92211" lon="4.75302">
        <ele>176</ele>
        <time>2018-02-24T12:10:09Z</time>
      </trkpt>
      <trkpt lat="45.92211" lon="4.75294">
        <ele>176</ele>
        <time>2018-02-24T12:10:10Z</time>
      </trkpt>
      <trkpt lat="45.92211" lon="4.75284">
        <ele>176</ele>
        <time>2018-02-24T12:10:11Z</time>
      </trkpt>
      <trkpt lat="45.92212" lon="4.75273">
        <ele>176</ele>
        <time>2018-02-24T12:10:12Z</time>
      </trkpt>
      <trkpt lat="45.92213" lon="4.75263">
        <ele>176</ele>
        <time>2018-02-24T12:10:13Z</time>
      </trkpt>
      <trkpt lat="45.92213" lon="4.75254">
        <ele>175</ele>
        <time>2018-02-24T12:10:14Z</time>
      </trkpt>
      <trkpt lat="45.92213" lon="4.75245">
        <ele>175</ele>
        <time>2018-02-24T12:10:15Z</time>
      </trkpt>
      <trkpt lat="45.92214" lon="4.75236">
        <ele>175</ele>
        <time>2018-02-24T12:10:16Z</time>
      </trkpt>
      <trkpt lat="45.92215" lon="4.75227">
        <ele>175</ele>
        <time>2018-02-24T12:10:17Z</time>
      </trkpt>
      <trkpt lat="45.92216" lon="4.75218">
        <ele>175</ele>
        <time>2018-02-24T12:10:18Z</time>
      </trkpt>
      <trkpt lat="45.92218" lon="4.75208">
        <ele>175</ele>
        <time>2018-02-24T12:10:19Z</time>
      </trkpt>
      <trkpt lat="45.92221" lon="4.75198">
        <ele>175</ele>
        <time>2018-02-24T12:10:20Z</time>
      </trkpt>
      <trkpt lat="45.92223" lon="4.75189">
        <ele>175</ele>
        <time>2018-02-24T12:10:21Z</time>
      </trkpt>
      <trkpt lat="45.92227" lon="4.7518">
        <ele>175</ele>
        <time>2018-02-24T12:10:22Z</time>
      </trkpt>
      <trkpt lat="45.92229" lon="4.75172">
        <ele>175</ele>
        <time>2018-02-24T12:10:23Z</time>
      </trkpt>
      <trkpt lat="45.92233" lon="4.75163">
        <ele>174</ele>
        <time>2018-02-24T12:10:24Z</time>
      </trkpt>
      <trkpt lat="45.92237" lon="4.75155">
        <ele>174</ele>
        <time>2018-02-24T12:10:25Z</time>
      </trkpt>
      <trkpt lat="45.92241" lon="4.75148">
        <ele>174</ele>
        <time>2018-02-24T12:10:26Z</time>
      </trkpt>
      <trkpt lat="45.92245" lon="4.75142">
        <ele>174</ele>
        <time>2018-02-24T12:10:27Z</time>
      </trkpt>
      <trkpt lat="45.9225" lon="4.75135">
        <ele>174</ele>
        <time>2018-02-24T12:10:28Z</time>
      </trkpt>
      <trkpt lat="45.92254" lon="4.75129">
        <ele>174</ele>
        <time>2018-02-24T12:10:29Z</time>
      </trkpt>
      <trkpt lat="45.92259" lon="4.75122">
        <ele>174</ele>
        <time>2018-02-24T12:10:30Z</time>
      </trkpt>
      <trkpt lat="45.92264" lon="4.75116">
        <ele>174</ele>
        <time>2018-02-24T12:10:31Z</time>
      </trkpt>
      <trkpt lat="45.92269" lon="4.75111">
        <ele>174</ele>
        <time>2018-02-24T12:10:32Z</time>
      </trkpt>
      <trkpt lat="45.92274" lon="4.75105">
        <ele>174</ele>
        <time>2018-02-24T12:10:33Z</time>
      </trkpt>
      <trkpt lat="45.92279" lon="4.751">
        <ele>173</ele>
        <time>2018-02-24T12:10:34Z</time>
      </trkpt>
      <trkpt lat="45.92284" lon="4.75095">
        <ele>173</ele>
        <time>2018-02-24T12:10:35Z</time>
      </trkpt>
      <trkpt lat="45.92288" lon="4.7509">
        <ele>173</ele>
        <time>2018-02-24T12:10:36Z</time>
      </trkpt>
      <trkpt lat="45.92293" lon="4.75084">
        <ele>173</ele>
        <time>2018-02-24T12:10:37Z</time>
      </trkpt>
      <trkpt lat="45.92298" lon="4.75078">
        <ele>172</ele>
        <time>2018-02-24T12:10:38Z</time>
      </trkpt>
      <trkpt lat="45.92303" lon="4.75073">
        <ele>172</ele>
        <time>2018-02-24T12:10:39Z</time>
      </trkpt>
      <trkpt lat="45.92307" lon="4.75067">
        <ele>172</ele>
        <time>2018-02-24T12:10:40Z</time>
      </trkpt>
      <trkpt lat="45.92312" lon="4.7506">
        <ele>172</ele>
        <time>2018-02-24T12:10:41Z</time>
      </trkpt>
      <trkpt lat="45.92316" lon="4.75054">
        <ele>172</ele>
        <time>2018-02-24T12:10:42Z</time>
      </trkpt>
      <trkpt lat="45.9232" lon="4.75048">
        <ele>172</ele>
        <time>2018-02-24T12:10:43Z</time>
      </trkpt>
      <trkpt lat="45.92324" lon="4.75041">
        <ele>171</ele>
        <time>2018-02-24T12:10:44Z</time>
      </trkpt>
      <trkpt lat="45.92332" lon="4.75036">
        <ele>171</ele>
        <time>2018-02-24T12:10:45Z</time>
      </trkpt>
      <trkpt lat="45.92338" lon="4.7503">
        <ele>171</ele>
        <time>2018-02-24T12:10:46Z</time>
      </trkpt>
      <trkpt lat="45.92341" lon="4.75022">
        <ele>170</ele>
        <time>2018-02-24T12:10:47Z</time>
      </trkpt>
      <trkpt lat="45.92344" lon="4.75012">
        <ele>170</ele>
        <time>2018-02-24T12:10:48Z</time>
      </trkpt>
      <trkpt lat="45.92348" lon="4.75004">
        <ele>170</ele>
        <time>2018-02-24T12:10:49Z</time>
      </trkpt>
      <trkpt lat="45.9235" lon="4.74995">
        <ele>170</ele>
        <time>2018-02-24T12:10:50Z</time>
      </trkpt>
      <trkpt lat="45.92354" lon="4.74986">
        <ele>170</ele>
        <time>2018-02-24T12:10:51Z</time>
      </trkpt>
      <trkpt lat="45.92356" lon="4.74978">
        <ele>170</ele>
        <time>2018-02-24T12:10:52Z</time>
      </trkpt>
      <trkpt lat="45.92359" lon="4.7497">
        <ele>170</ele>
        <time>2018-02-24T12:10:53Z</time>
      </trkpt>
      <trkpt lat="45.92362" lon="4.74963">
        <ele>170</ele>
        <time>2018-02-24T12:10:54Z</time>
      </trkpt>
      <trkpt lat="45.92365" lon="4.74954">
        <ele>170</ele>
        <time>2018-02-24T12:10:55Z</time>
      </trkpt>
      <trkpt lat="45.92367" lon="4.74946">
        <ele>170</ele>
        <time>2018-02-24T12:10:56Z</time>
      </trkpt>
      <trkpt lat="45.9237" lon="4.74939">
        <ele>170</ele>
        <time>2018-02-24T12:10:57Z</time>
      </trkpt>
      <trkpt lat="45.92373" lon="4.74931">
        <ele>170</ele>
        <time>2018-02-24T12:10:58Z</time>
      </trkpt>
      <trkpt lat="45.92377" lon="4.74923">
        <ele>170</ele>
        <time>2018-02-24T12:10:59Z</time>
      </trkpt>
      <trkpt lat="45.92379" lon="4.74916">
        <ele>171</ele>
        <time>2018-02-24T12:11:00Z</time>
      </trkpt>
      <trkpt lat="45.92382" lon="4.74909">
        <ele>171</ele>
        <time>2018-02-24T12:11:01Z</time>
      </trkpt>
      <trkpt lat="45.92385" lon="4.74902">
        <ele>171</ele>
        <time>2018-02-24T12:11:02Z</time>
      </trkpt>
      <trkpt lat="45.92387" lon="4.74894">
        <ele>171</ele>
        <time>2018-02-24T12:11:03Z</time>
      </trkpt>
      <trkpt lat="45.9239" lon="4.74887">
        <ele>171</ele>
        <time>2018-02-24T12:11:04Z</time>
      </trkpt>
      <trkpt lat="45.92394" lon="4.74879">
        <ele>171</ele>
        <time>2018-02-24T12:11:05Z</time>
      </trkpt>
      <trkpt lat="45.92396" lon="4.74871">
        <ele>171</ele>
        <time>2018-02-24T12:11:06Z</time>
      </trkpt>
      <trkpt lat="45.92399" lon="4.74862">
        <ele>171</ele>
        <time>2018-02-24T12:11:07Z</time>
      </trkpt>
      <trkpt lat="45.92401" lon="4.74855">
        <ele>171</ele>
        <time>2018-02-24T12:11:08Z</time>
      </trkpt>
      <trkpt lat="45.92403" lon="4.74847">
        <ele>171</ele>
        <time>2018-02-24T12:11:09Z</time>
      </trkpt>
      <trkpt lat="45.92405" lon="4.74842">
        <ele>171</ele>
        <time>2018-02-24T12:11:10Z</time>
      </trkpt>
      <trkpt lat="45.92406" lon="4.74833">
        <ele>171</ele>
        <time>2018-02-24T12:11:11Z</time>
      </trkpt>
      <trkpt lat="45.92408" lon="4.74826">
        <ele>171</ele>
        <time>2018-02-24T12:11:12Z</time>
      </trkpt>
      <trkpt lat="45.9241" lon="4.74817">
        <ele>171</ele>
        <time>2018-02-24T12:11:13Z</time>
      </trkpt>
      <trkpt lat="45.92411" lon="4.74809">
        <ele>171</ele>
        <time>2018-02-24T12:11:14Z</time>
      </trkpt>
      <trkpt lat="45.92413" lon="4.748">
        <ele>171</ele>
        <time>2018-02-24T12:11:15Z</time>
      </trkpt>
      <trkpt lat="45.92415" lon="4.74791">
        <ele>171</ele>
        <time>2018-02-24T12:11:16Z</time>
      </trkpt>
      <trkpt lat="45.92417" lon="4.74783">
        <ele>171</ele>
        <time>2018-02-24T12:11:17Z</time>
      </trkpt>
      <trkpt lat="45.92419" lon="4.74775">
        <ele>171</ele>
        <time>2018-02-24T12:11:18Z</time>
      </trkpt>
      <trkpt lat="45.92421" lon="4.74767">
        <ele>171</ele>
        <time>2018-02-24T12:11:19Z</time>
      </trkpt>
      <trkpt lat="45.92423" lon="4.74759">
        <ele>171</ele>
        <time>2018-02-24T12:11:20Z</time>
      </trkpt>
      <trkpt lat="45.92425" lon="4.74751">
        <ele>172</ele>
        <time>2018-02-24T12:11:21Z</time>
      </trkpt>
      <trkpt lat="45.92428" lon="4.74742">
        <ele>171</ele>
        <time>2018-02-24T12:11:22Z</time>
      </trkpt>
      <trkpt lat="45.9243" lon="4.74735">
        <ele>171</ele>
        <time>2018-02-24T12:11:23Z</time>
      </trkpt>
      <trkpt lat="45.92433" lon="4.74727">
        <ele>171</ele>
        <time>2018-02-24T12:11:24Z</time>
      </trkpt>
      <trkpt lat="45.92436" lon="4.7472">
        <ele>171</ele>
        <time>2018-02-24T12:11:25Z</time>
      </trkpt>
      <trkpt lat="45.92439" lon="4.74712">
        <ele>171</ele>
        <time>2018-02-24T12:11:26Z</time>
      </trkpt>
      <trkpt lat="45.92442" lon="4.74705">
        <ele>171</ele>
        <time>2018-02-24T12:11:27Z</time>
      </trkpt>
      <trkpt lat="45.92444" lon="4.74698">
        <ele>171</ele>
        <time>2018-02-24T12:11:28Z</time>
      </trkpt>
      <trkpt lat="45.92447" lon="4.7469">
        <ele>171</ele>
        <time>2018-02-24T12:11:29Z</time>
      </trkpt>
      <trkpt lat="45.9245" lon="4.74683">
        <ele>171</ele>
        <time>2018-02-24T12:11:30Z</time>
      </trkpt>
      <trkpt lat="45.92453" lon="4.74677">
        <ele>171</ele>
        <time>2018-02-24T12:11:31Z</time>
      </trkpt>
      <trkpt lat="45.92454" lon="4.74675">
        <ele>171</ele>
        <time>2018-02-24T12:11:32Z</time>
      </trkpt>
      <trkpt lat="45.9246" lon="4.74665">
        <ele>171</ele>
        <time>2018-02-24T12:11:33Z</time>
      </trkpt>
      <trkpt lat="45.92462" lon="4.74659">
        <ele>171</ele>
        <time>2018-02-24T12:11:34Z</time>
      </trkpt>
      <trkpt lat="45.92465" lon="4.74653">
        <ele>171</ele>
        <time>2018-02-24T12:11:35Z</time>
      </trkpt>
      <trkpt lat="45.92469" lon="4.74645">
        <ele>171</ele>
        <time>2018-02-24T12:11:36Z</time>
      </trkpt>
      <trkpt lat="45.92475" lon="4.74639">
        <ele>171</ele>
        <time>2018-02-24T12:11:37Z</time>
      </trkpt>
      <trkpt lat="45.92481" lon="4.74634">
        <ele>171</ele>
        <time>2018-02-24T12:11:38Z</time>
      </trkpt>
      <trkpt lat="45.92486" lon="4.74626">
        <ele>171</ele>
        <time>2018-02-24T12:11:39Z</time>
      </trkpt>
      <trkpt lat="45.9249" lon="4.74619">
        <ele>171</ele>
        <time>2018-02-24T12:11:40Z</time>
      </trkpt>
      <trkpt lat="45.92494" lon="4.74614">
        <ele>171</ele>
        <time>2018-02-24T12:11:41Z</time>
      </trkpt>
      <trkpt lat="45.92498" lon="4.74608">
        <ele>171</ele>
        <time>2018-02-24T12:11:42Z</time>
      </trkpt>
      <trkpt lat="45.92502" lon="4.74601">
        <ele>171</ele>
        <time>2018-02-24T12:11:43Z</time>
      </trkpt>
      <trkpt lat="45.92507" lon="4.74596">
        <ele>171</ele>
        <time>2018-02-24T12:11:44Z</time>
      </trkpt>
      <trkpt lat="45.92512" lon="4.74589">
        <ele>171</ele>
        <time>2018-02-24T12:11:45Z</time>
      </trkpt>
      <trkpt lat="45.92516" lon="4.74584">
        <ele>171</ele>
        <time>2018-02-24T12:11:46Z</time>
      </trkpt>
      <trkpt lat="45.9252" lon="4.74578">
        <ele>171</ele>
        <time>2018-02-24T12:11:47Z</time>
      </trkpt>
      <trkpt lat="45.92524" lon="4.74572">
        <ele>171</ele>
        <time>2018-02-24T12:11:48Z</time>
      </trkpt>
      <trkpt lat="45.92527" lon="4.74565">
        <ele>171</ele>
        <time>2018-02-24T12:11:49Z</time>
      </trkpt>
      <trkpt lat="45.92532" lon="4.7456">
        <ele>171</ele>
        <time>2018-02-24T12:11:50Z</time>
      </trkpt>
      <trkpt lat="45.92537" lon="4.74553">
        <ele>171</ele>
        <time>2018-02-24T12:11:51Z</time>
      </trkpt>
      <trkpt lat="45.92541" lon="4.74547">
        <ele>171</ele>
        <time>2018-02-24T12:11:52Z</time>
      </trkpt>
      <trkpt lat="45.92545" lon="4.74541">
        <ele>170</ele>
        <time>2018-02-24T12:11:53Z</time>
      </trkpt>
      <trkpt lat="45.92549" lon="4.74535">
        <ele>170</ele>
        <time>2018-02-24T12:11:54Z</time>
      </trkpt>
      <trkpt lat="45.92553" lon="4.74528">
        <ele>170</ele>
        <time>2018-02-24T12:11:55Z</time>
      </trkpt>
      <trkpt lat="45.92556" lon="4.74522">
        <ele>170</ele>
        <time>2018-02-24T12:11:56Z</time>
      </trkpt>
      <trkpt lat="45.9256" lon="4.74515">
        <ele>170</ele>
        <time>2018-02-24T12:11:57Z</time>
      </trkpt>
      <trkpt lat="45.92563" lon="4.74508">
        <ele>170</ele>
        <time>2018-02-24T12:11:58Z</time>
      </trkpt>
      <trkpt lat="45.92566" lon="4.74502">
        <ele>170</ele>
        <time>2018-02-24T12:11:59Z</time>
      </trkpt>
      <trkpt lat="45.9257" lon="4.74495">
        <ele>170</ele>
        <time>2018-02-24T12:12:00Z</time>
      </trkpt>
      <trkpt lat="45.92573" lon="4.7449">
        <ele>170</ele>
        <time>2018-02-24T12:12:01Z</time>
      </trkpt>
      <trkpt lat="45.92577" lon="4.74482">
        <ele>170</ele>
        <time>2018-02-24T12:12:02Z</time>
      </trkpt>
      <trkpt lat="45.9258" lon="4.74476">
        <ele>170</ele>
        <time>2018-02-24T12:12:03Z</time>
      </trkpt>
      <trkpt lat="45.92584" lon="4.74469">
        <ele>170</ele>
        <time>2018-02-24T12:12:04Z</time>
      </trkpt>
      <trkpt lat="45.92587" lon="4.74463">
        <ele>170</ele>
        <time>2018-02-24T12:12:05Z</time>
      </trkpt>
      <trkpt lat="45.9259" lon="4.74457">
        <ele>170</ele>
        <time>2018-02-24T12:12:06Z</time>
      </trkpt>
      <trkpt lat="45.92593" lon="4.74451">
        <ele>170</ele>
        <time>2018-02-24T12:12:07Z</time>
      </trkpt>
      <trkpt lat="45.92596" lon="4.74446">
        <ele>170</ele>
        <time>2018-02-24T12:12:08Z</time>
      </trkpt>
      <trkpt lat="45.92599" lon="4.7444">
        <ele>170</ele>
        <time>2018-02-24T12:12:09Z</time>
      </trkpt>
      <trkpt lat="45.92603" lon="4.74435">
        <ele>170</ele>
        <time>2018-02-24T12:12:10Z</time>
      </trkpt>
      <trkpt lat="45.92605" lon="4.74429">
        <ele>170</ele>
        <time>2018-02-24T12:12:11Z</time>
      </trkpt>
      <trkpt lat="45.92609" lon="4.74425">
        <ele>170</ele>
        <time>2018-02-24T12:12:12Z</time>
      </trkpt>
      <trkpt lat="45.92612" lon="4.74419">
        <ele>170</ele>
        <time>2018-02-24T12:12:13Z</time>
      </trkpt>
      <trkpt lat="45.92616" lon="4.74412">
        <ele>170</ele>
        <time>2018-02-24T12:12:14Z</time>
      </trkpt>
      <trkpt lat="45.92619" lon="4.74407">
        <ele>170</ele>
        <time>2018-02-24T12:12:15Z</time>
      </trkpt>
      <trkpt lat="45.92623" lon="4.74402">
        <ele>170</ele>
        <time>2018-02-24T12:12:16Z</time>
      </trkpt>
      <trkpt lat="45.92626" lon="4.74396">
        <ele>170</ele>
        <time>2018-02-24T12:12:17Z</time>
      </trkpt>
      <trkpt lat="45.92629" lon="4.7439">
        <ele>170</ele>
        <time>2018-02-24T12:12:18Z</time>
      </trkpt>
      <trkpt lat="45.92632" lon="4.74384">
        <ele>170</ele>
        <time>2018-02-24T12:12:19Z</time>
      </trkpt>
      <trkpt lat="45.92636" lon="4.74379">
        <ele>170</ele>
        <time>2018-02-24T12:12:20Z</time>
      </trkpt>
      <trkpt lat="45.92639" lon="4.74373">
        <ele>171</ele>
        <time>2018-02-24T12:12:21Z</time>
      </trkpt>
      <trkpt lat="45.92641" lon="4.74366">
        <ele>171</ele>
        <time>2018-02-24T12:12:22Z</time>
      </trkpt>
      <trkpt lat="45.92644" lon="4.7436">
        <ele>171</ele>
        <time>2018-02-24T12:12:23Z</time>
      </trkpt>
      <trkpt lat="45.92647" lon="4.74354">
        <ele>171</ele>
        <time>2018-02-24T12:12:24Z</time>
      </trkpt>
      <trkpt lat="45.92651" lon="4.74348">
        <ele>171</ele>
        <time>2018-02-24T12:12:25Z</time>
      </trkpt>
      <trkpt lat="45.92654" lon="4.74342">
        <ele>171</ele>
        <time>2018-02-24T12:12:26Z</time>
      </trkpt>
      <trkpt lat="45.92657" lon="4.74337">
        <ele>171</ele>
        <time>2018-02-24T12:12:27Z</time>
      </trkpt>
      <trkpt lat="45.9266" lon="4.74331">
        <ele>171</ele>
        <time>2018-02-24T12:12:28Z</time>
      </trkpt>
      <trkpt lat="45.92665" lon="4.74326">
        <ele>171</ele>
        <time>2018-02-24T12:12:29Z</time>
      </trkpt>
      <trkpt lat="45.92668" lon="4.74321">
        <ele>171</ele>
        <time>2018-02-24T12:12:30Z</time>
      </trkpt>
      <trkpt lat="45.92671" lon="4.74315">
        <ele>171</ele>
        <time>2018-02-24T12:12:31Z</time>
      </trkpt>
      <trkpt lat="45.92673" lon="4.7431">
        <ele>171</ele>
        <time>2018-02-24T12:12:32Z</time>
      </trkpt>
      <trkpt lat="45.92676" lon="4.74303">
        <ele>171</ele>
        <time>2018-02-24T12:12:33Z</time>
      </trkpt>
      <trkpt lat="45.9268" lon="4.74297">
        <ele>171</ele>
        <time>2018-02-24T12:12:34Z</time>
      </trkpt>
      <trkpt lat="45.92683" lon="4.74291">
        <ele>171</ele>
        <time>2018-02-24T12:12:35Z</time>
      </trkpt>
      <trkpt lat="45.92687" lon="4.74285">
        <ele>171</ele>
        <time>2018-02-24T12:12:36Z</time>
      </trkpt>
      <trkpt lat="45.9269" lon="4.7428">
        <ele>171</ele>
        <time>2018-02-24T12:12:37Z</time>
      </trkpt>
      <trkpt lat="45.92693" lon="4.74274">
        <ele>171</ele>
        <time>2018-02-24T12:12:38Z</time>
      </trkpt>
      <trkpt lat="45.92696" lon="4.74268">
        <ele>171</ele>
        <time>2018-02-24T12:12:39Z</time>
      </trkpt>
      <trkpt lat="45.92699" lon="4.74261">
        <ele>171</ele>
        <time>2018-02-24T12:12:40Z</time>
      </trkpt>
      <trkpt lat="45.92703" lon="4.74254">
        <ele>171</ele>
        <time>2018-02-24T12:12:41Z</time>
      </trkpt>
      <trkpt lat="45.92707" lon="4.74248">
        <ele>171</ele>
        <time>2018-02-24T12:12:42Z</time>
      </trkpt>
      <trkpt lat="45.9271" lon="4.74242">
        <ele>171</ele>
        <time>2018-02-24T12:12:43Z</time>
      </trkpt>
      <trkpt lat="45.92716" lon="4.74236">
        <ele>171</ele>
        <time>2018-02-24T12:12:44Z</time>
      </trkpt>
      <trkpt lat="45.9272" lon="4.7423">
        <ele>171</ele>
        <time>2018-02-24T12:12:45Z</time>
      </trkpt>
      <trkpt lat="45.92723" lon="4.74226">
        <ele>171</ele>
        <time>2018-02-24T12:12:46Z</time>
      </trkpt>
      <trkpt lat="45.92727" lon="4.7422">
        <ele>171</ele>
        <time>2018-02-24T12:12:47Z</time>
      </trkpt>
      <trkpt lat="45.9273" lon="4.74214">
        <ele>171</ele>
        <time>2018-02-24T12:12:48Z</time>
      </trkpt>
      <trkpt lat="45.92735" lon="4.74209">
        <ele>171</ele>
        <time>2018-02-24T12:12:49Z</time>
      </trkpt>
      <trkpt lat="45.92739" lon="4.74203">
        <ele>171</ele>
        <time>2018-02-24T12:12:50Z</time>
      </trkpt>
      <trkpt lat="45.92743" lon="4.74198">
        <ele>171</ele>
        <time>2018-02-24T12:12:51Z</time>
      </trkpt>
      <trkpt lat="45.92747" lon="4.74192">
        <ele>171</ele>
        <time>2018-02-24T12:12:52Z</time>
      </trkpt>
      <trkpt lat="45.92752" lon="4.74187">
        <ele>172</ele>
        <time>2018-02-24T12:12:53Z</time>
      </trkpt>
      <trkpt lat="45.92756" lon="4.74182">
        <ele>172</ele>
        <time>2018-02-24T12:12:54Z</time>
      </trkpt>
      <trkpt lat="45.92759" lon="4.74178">
        <ele>172</ele>
        <time>2018-02-24T12:12:55Z</time>
      </trkpt>
      <trkpt lat="45.92764" lon="4.74172">
        <ele>172</ele>
        <time>2018-02-24T12:12:56Z</time>
      </trkpt>
      <trkpt lat="45.92768" lon="4.74166">
        <ele>172</ele>
        <time>2018-02-24T12:12:57Z</time>
      </trkpt>
      <trkpt lat="45.92773" lon="4.74162">
        <ele>172</ele>
        <time>2018-02-24T12:12:58Z</time>
      </trkpt>
      <trkpt lat="45.92778" lon="4.74157">
        <ele>172</ele>
        <time>2018-02-24T12:12:59Z</time>
      </trkpt>
      <trkpt lat="45.92782" lon="4.74152">
        <ele>172</ele>
        <time>2018-02-24T12:13:00Z</time>
      </trkpt>
      <trkpt lat="45.92787" lon="4.74147">
        <ele>172</ele>
        <time>2018-02-24T12:13:01Z</time>
      </trkpt>
      <trkpt lat="45.92792" lon="4.74143">
        <ele>172</ele>
        <time>2018-02-24T12:13:02Z</time>
      </trkpt>
      <trkpt lat="45.92797" lon="4.74138">
        <ele>172</ele>
        <time>2018-02-24T12:13:03Z</time>
      </trkpt>
      <trkpt lat="45.92802" lon="4.74135">
        <ele>172</ele>
        <time>2018-02-24T12:13:04Z</time>
      </trkpt>
      <trkpt lat="45.92807" lon="4.74129">
        <ele>172</ele>
        <time>2018-02-24T12:13:05Z</time>
      </trkpt>
      <trkpt lat="45.92812" lon="4.74124">
        <ele>172</ele>
        <time>2018-02-24T12:13:06Z</time>
      </trkpt>
      <trkpt lat="45.92816" lon="4.74119">
        <ele>172</ele>
        <time>2018-02-24T12:13:07Z</time>
      </trkpt>
      <trkpt lat="45.92821" lon="4.74114">
        <ele>172</ele>
        <time>2018-02-24T12:13:08Z</time>
      </trkpt>
      <trkpt lat="45.92825" lon="4.74108">
        <ele>171</ele>
        <time>2018-02-24T12:13:09Z</time>
      </trkpt>
      <trkpt lat="45.9283" lon="4.74104">
        <ele>171</ele>
        <time>2018-02-24T12:13:10Z</time>
      </trkpt>
      <trkpt lat="45.92834" lon="4.74099">
        <ele>171</ele>
        <time>2018-02-24T12:13:11Z</time>
      </trkpt>
      <trkpt lat="45.92838" lon="4.74094">
        <ele>171</ele>
        <time>2018-02-24T12:13:12Z</time>
      </trkpt>
      <trkpt lat="45.92842" lon="4.7409">
        <ele>171</ele>
        <time>2018-02-24T12:13:13Z</time>
      </trkpt>
      <trkpt lat="45.92846" lon="4.74084">
        <ele>171</ele>
        <time>2018-02-24T12:13:14Z</time>
      </trkpt>
      <trkpt lat="45.9285" lon="4.7408">
        <ele>172</ele>
        <time>2018-02-24T12:13:15Z</time>
      </trkpt>
      <trkpt lat="45.92854" lon="4.74073">
        <ele>172</ele>
        <time>2018-02-24T12:13:16Z</time>
      </trkpt>
      <trkpt lat="45.92858" lon="4.74069">
        <ele>172</ele>
        <time>2018-02-24T12:13:17Z</time>
      </trkpt>
      <trkpt lat="45.92862" lon="4.74064">
        <ele>172</ele>
        <time>2018-02-24T12:13:18Z</time>
      </trkpt>
      <trkpt lat="45.92865" lon="4.74058">
        <ele>172</ele>
        <time>2018-02-24T12:13:19Z</time>
      </trkpt>
      <trkpt lat="45.92872" lon="4.74051">
        <ele>172</ele>
        <time>2018-02-24T12:13:21Z</time>
      </trkpt>
      <trkpt lat="45.92878" lon="4.74049">
        <ele>172</ele>
        <time>2018-02-24T12:13:22Z</time>
      </trkpt>
      <trkpt lat="45.92883" lon="4.74048">
        <ele>172</ele>
        <time>2018-02-24T12:13:23Z</time>
      </trkpt>
      <trkpt lat="45.92888" lon="4.74049">
        <ele>172</ele>
        <time>2018-02-24T12:13:24Z</time>
      </trkpt>
      <trkpt lat="45.92893" lon="4.74048">
        <ele>172</ele>
        <time>2018-02-24T12:13:25Z</time>
      </trkpt>
      <trkpt lat="45.92899" lon="4.74049">
        <ele>172</ele>
        <time>2018-02-24T12:13:26Z</time>
      </trkpt>
      <trkpt lat="45.92903" lon="4.74046">
        <ele>172</ele>
        <time>2018-02-24T12:13:27Z</time>
      </trkpt>
      <trkpt lat="45.92908" lon="4.74044">
        <ele>172</ele>
        <time>2018-02-24T12:13:28Z</time>
      </trkpt>
      <trkpt lat="45.92912" lon="4.74037">
        <ele>172</ele>
        <time>2018-02-24T12:13:29Z</time>
      </trkpt>
      <trkpt lat="45.92916" lon="4.74032">
        <ele>172</ele>
        <time>2018-02-24T12:13:30Z</time>
      </trkpt>
      <trkpt lat="45.92917" lon="4.74024">
        <ele>172</ele>
        <time>2018-02-24T12:13:31Z</time>
      </trkpt>
      <trkpt lat="45.92916" lon="4.74017">
        <ele>172</ele>
        <time>2018-02-24T12:13:32Z</time>
      </trkpt>
      <trkpt lat="45.92916" lon="4.74009">
        <ele>172</ele>
        <time>2018-02-24T12:13:33Z</time>
      </trkpt>
      <trkpt lat="45.92914" lon="4.74002">
        <ele>172</ele>
        <time>2018-02-24T12:13:34Z</time>
      </trkpt>
      <trkpt lat="45.92909" lon="4.73997">
        <ele>172</ele>
        <time>2018-02-24T12:13:35Z</time>
      </trkpt>
      <trkpt lat="45.92905" lon="4.73992">
        <ele>172</ele>
        <time>2018-02-24T12:13:36Z</time>
      </trkpt>
      <trkpt lat="45.92901" lon="4.73988">
        <ele>172</ele>
        <time>2018-02-24T12:13:37Z</time>
      </trkpt>
      <trkpt lat="45.92896" lon="4.73982">
        <ele>172</ele>
        <time>2018-02-24T12:13:38Z</time>
      </trkpt>
      <trkpt lat="45.92892" lon="4.73976">
        <ele>172</ele>
        <time>2018-02-24T12:13:39Z</time>
      </trkpt>
      <trkpt lat="45.9289" lon="4.7397">
        <ele>172</ele>
        <time>2018-02-24T12:13:40Z</time>
      </trkpt>
      <trkpt lat="45.92888" lon="4.73963">
        <ele>172</ele>
        <time>2018-02-24T12:13:41Z</time>
      </trkpt>
      <trkpt lat="45.92888" lon="4.73956">
        <ele>172</ele>
        <time>2018-02-24T12:13:42Z</time>
      </trkpt>
      <trkpt lat="45.9289" lon="4.73947">
        <ele>172</ele>
        <time>2018-02-24T12:13:43Z</time>
      </trkpt>
      <trkpt lat="45.9289" lon="4.7394">
        <ele>172</ele>
        <time>2018-02-24T12:13:44Z</time>
      </trkpt>
      <trkpt lat="45.92889" lon="4.73932">
        <ele>172</ele>
        <time>2018-02-24T12:13:45Z</time>
      </trkpt>
      <trkpt lat="45.92889" lon="4.73923">
        <ele>172</ele>
        <time>2018-02-24T12:13:46Z</time>
      </trkpt>
      <trkpt lat="45.92888" lon="4.73915">
        <ele>173</ele>
        <time>2018-02-24T12:13:47Z</time>
      </trkpt>
      <trkpt lat="45.92887" lon="4.73907">
        <ele>173</ele>
        <time>2018-02-24T12:13:48Z</time>
      </trkpt>
      <trkpt lat="45.92885" lon="4.73898">
        <ele>173</ele>
        <time>2018-02-24T12:13:49Z</time>
      </trkpt>
      <trkpt lat="45.92885" lon="4.73891">
        <ele>173</ele>
        <time>2018-02-24T12:13:50Z</time>
      </trkpt>
      <trkpt lat="45.92881" lon="4.73882">
        <ele>173</ele>
        <time>2018-02-24T12:13:51Z</time>
      </trkpt>
      <trkpt lat="45.92879" lon="4.73873">
        <ele>173</ele>
        <time>2018-02-24T12:13:52Z</time>
      </trkpt>
      <trkpt lat="45.92879" lon="4.73863">
        <ele>173</ele>
        <time>2018-02-24T12:13:53Z</time>
      </trkpt>
      <trkpt lat="45.92877" lon="4.73855">
        <ele>173</ele>
        <time>2018-02-24T12:13:54Z</time>
      </trkpt>
      <trkpt lat="45.92872" lon="4.73846">
        <ele>173</ele>
        <time>2018-02-24T12:13:55Z</time>
      </trkpt>
      <trkpt lat="45.9287" lon="4.7384">
        <ele>173</ele>
        <time>2018-02-24T12:13:56Z</time>
      </trkpt>
      <trkpt lat="45.92868" lon="4.73832">
        <ele>173</ele>
        <time>2018-02-24T12:13:57Z</time>
      </trkpt>
      <trkpt lat="45.92865" lon="4.73824">
        <ele>173</ele>
        <time>2018-02-24T12:13:58Z</time>
      </trkpt>
      <trkpt lat="45.92862" lon="4.73816">
        <ele>173</ele>
        <time>2018-02-24T12:13:59Z</time>
      </trkpt>
      <trkpt lat="45.9286" lon="4.73809">
        <ele>173</ele>
        <time>2018-02-24T12:14:00Z</time>
      </trkpt>
      <trkpt lat="45.92857" lon="4.73802">
        <ele>173</ele>
        <time>2018-02-24T12:14:01Z</time>
      </trkpt>
      <trkpt lat="45.92853" lon="4.73796">
        <ele>173</ele>
        <time>2018-02-24T12:14:02Z</time>
      </trkpt>
      <trkpt lat="45.92849" lon="4.73792">
        <ele>173</ele>
        <time>2018-02-24T12:14:03Z</time>
      </trkpt>
      <trkpt lat="45.92844" lon="4.73788">
        <ele>173</ele>
        <time>2018-02-24T12:14:04Z</time>
      </trkpt>
      <trkpt lat="45.92839" lon="4.73784">
        <ele>173</ele>
        <time>2018-02-24T12:14:05Z</time>
      </trkpt>
      <trkpt lat="45.92833" lon="4.73782">
        <ele>173</ele>
        <time>2018-02-24T12:14:06Z</time>
      </trkpt>
      <trkpt lat="45.92828" lon="4.7378">
        <ele>173</ele>
        <time>2018-02-24T12:14:07Z</time>
      </trkpt>
      <trkpt lat="45.92824" lon="4.73777">
        <ele>173</ele>
        <time>2018-02-24T12:14:08Z</time>
      </trkpt>
      <trkpt lat="45.92819" lon="4.73774">
        <ele>173</ele>
        <time>2018-02-24T12:14:09Z</time>
      </trkpt>
      <trkpt lat="45.92815" lon="4.73771">
        <ele>173</ele>
        <time>2018-02-24T12:14:10Z</time>
      </trkpt>
      <trkpt lat="45.92808" lon="4.73765">
        <ele>173</ele>
        <time>2018-02-24T12:14:12Z</time>
      </trkpt>
      <trkpt lat="45.92803" lon="4.73763">
        <ele>173</ele>
        <time>2018-02-24T12:14:13Z</time>
      </trkpt>
      <trkpt lat="45.92795" lon="4.73759">
        <ele>173</ele>
        <time>2018-02-24T12:14:15Z</time>
      </trkpt>
      <trkpt lat="45.92791" lon="4.73757">
        <ele>173</ele>
        <time>2018-02-24T12:14:16Z</time>
      </trkpt>
      <trkpt lat="45.92785" lon="4.73749">
        <ele>172</ele>
        <time>2018-02-24T12:14:18Z</time>
      </trkpt>
      <trkpt lat="45.92782" lon="4.73744">
        <ele>172</ele>
        <time>2018-02-24T12:14:19Z</time>
      </trkpt>
      <trkpt lat="45.92778" lon="4.73739">
        <ele>172</ele>
        <time>2018-02-24T12:14:20Z</time>
      </trkpt>
      <trkpt lat="45.92774" lon="4.73735">
        <ele>172</ele>
        <time>2018-02-24T12:14:21Z</time>
      </trkpt>
      <trkpt lat="45.92769" lon="4.73732">
        <ele>172</ele>
        <time>2018-02-24T12:14:22Z</time>
      </trkpt>
      <trkpt lat="45.92764" lon="4.73729">
        <ele>172</ele>
        <time>2018-02-24T12:14:23Z</time>
      </trkpt>
      <trkpt lat="45.92759" lon="4.73727">
        <ele>172</ele>
        <time>2018-02-24T12:14:24Z</time>
      </trkpt>
      <trkpt lat="45.92754" lon="4.73725">
        <ele>172</ele>
        <time>2018-02-24T12:14:25Z</time>
      </trkpt>
      <trkpt lat="45.92749" lon="4.73723">
        <ele>173</ele>
        <time>2018-02-24T12:14:26Z</time>
      </trkpt>
      <trkpt lat="45.92744" lon="4.73721">
        <ele>173</ele>
        <time>2018-02-24T12:14:27Z</time>
      </trkpt>
      <trkpt lat="45.92735" lon="4.73722">
        <ele>173</ele>
        <time>2018-02-24T12:14:28Z</time>
      </trkpt>
      <trkpt lat="45.9273" lon="4.73722">
        <ele>173</ele>
        <time>2018-02-24T12:14:29Z</time>
      </trkpt>
      <trkpt lat="45.92724" lon="4.73721">
        <ele>173</ele>
        <time>2018-02-24T12:14:30Z</time>
      </trkpt>
      <trkpt lat="45.92721" lon="4.73719">
        <ele>173</ele>
        <time>2018-02-24T12:14:31Z</time>
      </trkpt>
      <trkpt lat="45.92716" lon="4.73719">
        <ele>173</ele>
        <time>2018-02-24T12:14:32Z</time>
      </trkpt>
      <trkpt lat="45.92711" lon="4.73717">
        <ele>173</ele>
        <time>2018-02-24T12:14:33Z</time>
      </trkpt>
      <trkpt lat="45.92706" lon="4.73717">
        <ele>173</ele>
        <time>2018-02-24T12:14:34Z</time>
      </trkpt>
      <trkpt lat="45.927" lon="4.73715">
        <ele>173</ele>
        <time>2018-02-24T12:14:35Z</time>
      </trkpt>
      <trkpt lat="45.92694" lon="4.73714">
        <ele>173</ele>
        <time>2018-02-24T12:14:36Z</time>
      </trkpt>
      <trkpt lat="45.92689" lon="4.73712">
        <ele>173</ele>
        <time>2018-02-24T12:14:37Z</time>
      </trkpt>
      <trkpt lat="45.92683" lon="4.73711">
        <ele>173</ele>
        <time>2018-02-24T12:14:38Z</time>
      </trkpt>
      <trkpt lat="45.92678" lon="4.73709">
        <ele>173</ele>
        <time>2018-02-24T12:14:39Z</time>
      </trkpt>
      <trkpt lat="45.92673" lon="4.73708">
        <ele>174</ele>
        <time>2018-02-24T12:14:40Z</time>
      </trkpt>
      <trkpt lat="45.92667" lon="4.73706">
        <ele>174</ele>
        <time>2018-02-24T12:14:41Z</time>
      </trkpt>
      <trkpt lat="45.92662" lon="4.73703">
        <ele>173</ele>
        <time>2018-02-24T12:14:42Z</time>
      </trkpt>
      <trkpt lat="45.92657" lon="4.73701">
        <ele>173</ele>
        <time>2018-02-24T12:14:43Z</time>
      </trkpt>
      <trkpt lat="45.92653" lon="4.73697">
        <ele>173</ele>
        <time>2018-02-24T12:14:44Z</time>
      </trkpt>
      <trkpt lat="45.92649" lon="4.73693">
        <ele>173</ele>
        <time>2018-02-24T12:14:45Z</time>
      </trkpt>
      <trkpt lat="45.92646" lon="4.73688">
        <ele>173</ele>
        <time>2018-02-24T12:14:46Z</time>
      </trkpt>
      <trkpt lat="45.92642" lon="4.73683">
        <ele>173</ele>
        <time>2018-02-24T12:14:47Z</time>
      </trkpt>
      <trkpt lat="45.92638" lon="4.73678">
        <ele>173</ele>
        <time>2018-02-24T12:14:48Z</time>
      </trkpt>
      <trkpt lat="45.92634" lon="4.73672">
        <ele>173</ele>
        <time>2018-02-24T12:14:49Z</time>
      </trkpt>
      <trkpt lat="45.92632" lon="4.73664">
        <ele>173</ele>
        <time>2018-02-24T12:14:50Z</time>
      </trkpt>
      <trkpt lat="45.92629" lon="4.73658">
        <ele>173</ele>
        <time>2018-02-24T12:14:51Z</time>
      </trkpt>
      <trkpt lat="45.92626" lon="4.73652">
        <ele>173</ele>
        <time>2018-02-24T12:14:52Z</time>
      </trkpt>
      <trkpt lat="45.92624" lon="4.73646">
        <ele>173</ele>
        <time>2018-02-24T12:14:53Z</time>
      </trkpt>
      <trkpt lat="45.92621" lon="4.7364">
        <ele>173</ele>
        <time>2018-02-24T12:14:54Z</time>
      </trkpt>
      <trkpt lat="45.92617" lon="4.73635">
        <ele>173</ele>
        <time>2018-02-24T12:14:55Z</time>
      </trkpt>
      <trkpt lat="45.92613" lon="4.73631">
        <ele>173</ele>
        <time>2018-02-24T12:14:56Z</time>
      </trkpt>
      <trkpt lat="45.92609" lon="4.73629">
        <ele>173</ele>
        <time>2018-02-24T12:14:57Z</time>
      </trkpt>
      <trkpt lat="45.92604" lon="4.73627">
        <ele>173</ele>
        <time>2018-02-24T12:14:58Z</time>
      </trkpt>
      <trkpt lat="45.92598" lon="4.73627">
        <ele>173</ele>
        <time>2018-02-24T12:14:59Z</time>
      </trkpt>
      <trkpt lat="45.92594" lon="4.73626">
        <ele>172</ele>
        <time>2018-02-24T12:15:00Z</time>
      </trkpt>
      <trkpt lat="45.92587" lon="4.73628">
        <ele>172</ele>
        <time>2018-02-24T12:15:01Z</time>
      </trkpt>
      <trkpt lat="45.92582" lon="4.73628">
        <ele>173</ele>
        <time>2018-02-24T12:15:02Z</time>
      </trkpt>
      <trkpt lat="45.92576" lon="4.73631">
        <ele>173</ele>
        <time>2018-02-24T12:15:03Z</time>
      </trkpt>
      <trkpt lat="45.92568" lon="4.73633">
        <ele>173</ele>
        <time>2018-02-24T12:15:05Z</time>
      </trkpt>
      <trkpt lat="45.92563" lon="4.73634">
        <ele>173</ele>
        <time>2018-02-24T12:15:06Z</time>
      </trkpt>
      <trkpt lat="45.92554" lon="4.73636">
        <ele>173</ele>
        <time>2018-02-24T12:15:08Z</time>
      </trkpt>
      <trkpt lat="45.92548" lon="4.73637">
        <ele>173</ele>
        <time>2018-02-24T12:15:09Z</time>
      </trkpt>
      <trkpt lat="45.92543" lon="4.73639">
        <ele>173</ele>
        <time>2018-02-24T12:15:10Z</time>
      </trkpt>
      <trkpt lat="45.92538" lon="4.7364">
        <ele>173</ele>
        <time>2018-02-24T12:15:11Z</time>
      </trkpt>
      <trkpt lat="45.92532" lon="4.7364">
        <ele>173</ele>
        <time>2018-02-24T12:15:12Z</time>
      </trkpt>
      <trkpt lat="45.92527" lon="4.73642">
        <ele>173</ele>
        <time>2018-02-24T12:15:13Z</time>
      </trkpt>
      <trkpt lat="45.92521" lon="4.73644">
        <ele>173</ele>
        <time>2018-02-24T12:15:14Z</time>
      </trkpt>
      <trkpt lat="45.92518" lon="4.73645">
        <ele>174</ele>
        <time>2018-02-24T12:15:15Z</time>
      </trkpt>
      <trkpt lat="45.92512" lon="4.73645">
        <ele>174</ele>
        <time>2018-02-24T12:15:16Z</time>
      </trkpt>
      <trkpt lat="45.92508" lon="4.73646">
        <ele>174</ele>
        <time>2018-02-24T12:15:17Z</time>
      </trkpt>
      <trkpt lat="45.92501" lon="4.73645">
        <ele>174</ele>
        <time>2018-02-24T12:15:19Z</time>
      </trkpt>
      <trkpt lat="45.92497" lon="4.73645">
        <ele>174</ele>
        <time>2018-02-24T12:15:20Z</time>
      </trkpt>
      <trkpt lat="45.92491" lon="4.73644">
        <ele>174</ele>
        <time>2018-02-24T12:15:22Z</time>
      </trkpt>
      <trkpt lat="45.92488" lon="4.73644">
        <ele>174</ele>
        <time>2018-02-24T12:15:23Z</time>
      </trkpt>
      <trkpt lat="45.9248" lon="4.73646">
        <ele>174</ele>
        <time>2018-02-24T12:15:25Z</time>
      </trkpt>
      <trkpt lat="45.92476" lon="4.73648">
        <ele>174</ele>
        <time>2018-02-24T12:15:26Z</time>
      </trkpt>
      <trkpt lat="45.92471" lon="4.73656">
        <ele>174</ele>
        <time>2018-02-24T12:15:28Z</time>
      </trkpt>
      <trkpt lat="45.92469" lon="4.73661">
        <ele>174</ele>
        <time>2018-02-24T12:15:29Z</time>
      </trkpt>
      <trkpt lat="45.92467" lon="4.73673">
        <ele>174</ele>
        <time>2018-02-24T12:15:31Z</time>
      </trkpt>
      <trkpt lat="45.92467" lon="4.7368">
        <ele>174</ele>
        <time>2018-02-24T12:15:32Z</time>
      </trkpt>
      <trkpt lat="45.92467" lon="4.73692">
        <ele>174</ele>
        <time>2018-02-24T12:15:34Z</time>
      </trkpt>
      <trkpt lat="45.92467" lon="4.73695">
        <ele>174</ele>
        <time>2018-02-24T12:15:35Z</time>
      </trkpt>
      <trkpt lat="45.92466" lon="4.73706">
        <ele>174</ele>
        <time>2018-02-24T12:15:38Z</time>
      </trkpt>
      <trkpt lat="45.92466" lon="4.73709">
        <ele>174</ele>
        <time>2018-02-24T12:15:39Z</time>
      </trkpt>
      <trkpt lat="45.92465" lon="4.73711">
        <ele>174</ele>
        <time>2018-02-24T12:15:48Z</time>
      </trkpt>
      <trkpt lat="45.92465" lon="4.73711">
        <ele>174</ele>
        <time>2018-02-24T12:15:49Z</time>
      </trkpt>
      <trkpt lat="45.92465" lon="4.73711">
        <ele>174</ele>
        <time>2018-02-24T12:15:50Z</time>
      </trkpt>
      <trkpt lat="45.92464" lon="4.73712">
        <ele>174</ele>
        <time>2018-02-24T12:15:51Z</time>
      </trkpt>
      <trkpt lat="45.92461" lon="4.73716">
        <ele>174</ele>
        <time>2018-02-24T12:16:16.956Z</time>
      </trkpt>
    </trkseg>
  </trk>
</gpx>